<?xml version="1.0" encoding="UTF-8" standalone="no" ?>
<gpx xmlns="http://www.topografix.com/GPX/1/1" xmlns:xsi="http://www.w3.org/2001/XMLSchema-instance" xsi:schemaLocation="http://www.topografix.com/GPX/1/1 http://www.topografix.com/GPX/1/1/gpx.xsd" version="1.1" creator="VisuGPX - https://www.visugpx.com">
  <metadata>
    <name>Cournon-Brive</name>
    <desc><![CDATA[Voyage au Portugal
Etape 1]]></desc>
  </metadata>
  <trk>
    <name><![CDATA[Clermont-Brive]]></name>
    <trkseg>
      <trkpt lat="45.84912" lon="3.17272">
        <ele>96</ele>
        <time>2011-06-11T04:04:17.000Z</time>
      </trkpt>
      <trkpt lat="45.84912" lon="3.17272">
        <ele>96</ele>
        <time>2011-06-11T04:04:18.000Z</time>
      </trkpt>
      <trkpt lat="45.84906" lon="3.17271">
        <ele>267.39999389648</ele>
        <time>2011-06-11T04:05:02.000Z</time>
      </trkpt>
      <trkpt lat="45.84907" lon="3.17271">
        <ele>267.39999389648</ele>
        <time>2011-06-11T04:05:03.000Z</time>
      </trkpt>
      <trkpt lat="45.84907" lon="3.17272">
        <ele>268.39999389648</ele>
        <time>2011-06-11T04:05:14.000Z</time>
      </trkpt>
      <trkpt lat="45.84895" lon="3.17268">
        <ele>268.20001220703</ele>
        <time>2011-06-11T04:05:25.000Z</time>
      </trkpt>
      <trkpt lat="45.84891" lon="3.17266">
        <ele>268.39999389648</ele>
        <time>2011-06-11T04:05:27.000Z</time>
      </trkpt>
      <trkpt lat="45.84884" lon="3.17273">
        <ele>268.60000610352</ele>
        <time>2011-06-11T04:05:32.000Z</time>
      </trkpt>
      <trkpt lat="45.84884" lon="3.17276">
        <ele>268.60000610352</ele>
        <time>2011-06-11T04:05:33.000Z</time>
      </trkpt>
      <trkpt lat="45.84883" lon="3.17308">
        <ele>268.60000610352</ele>
        <time>2011-06-11T04:05:40.000Z</time>
      </trkpt>
      <trkpt lat="45.84885" lon="3.17347">
        <ele>269</ele>
        <time>2011-06-11T04:05:46.000Z</time>
      </trkpt>
      <trkpt lat="45.84888" lon="3.17413">
        <ele>269.39999389648</ele>
        <time>2011-06-11T04:05:55.000Z</time>
      </trkpt>
      <trkpt lat="45.84892" lon="3.17485">
        <ele>269.20001220703</ele>
        <time>2011-06-11T04:06:04.000Z</time>
      </trkpt>
      <trkpt lat="45.84897" lon="3.17587">
        <ele>269.79998779297</ele>
        <time>2011-06-11T04:06:16.000Z</time>
      </trkpt>
      <trkpt lat="45.84901" lon="3.17665">
        <ele>269.39999389648</ele>
        <time>2011-06-11T04:06:25.000Z</time>
      </trkpt>
      <trkpt lat="45.84911" lon="3.17761">
        <ele>269.60000610352</ele>
        <time>2011-06-11T04:06:36.000Z</time>
      </trkpt>
      <trkpt lat="45.84918" lon="3.17851">
        <ele>269.60000610352</ele>
        <time>2011-06-11T04:06:46.000Z</time>
      </trkpt>
      <trkpt lat="45.84918" lon="3.17932">
        <ele>269.79998779297</ele>
        <time>2011-06-11T04:06:55.000Z</time>
      </trkpt>
      <trkpt lat="45.8492" lon="3.18003">
        <ele>270.39999389648</ele>
        <time>2011-06-11T04:07:03.000Z</time>
      </trkpt>
      <trkpt lat="45.84922" lon="3.18037">
        <ele>270.39999389648</ele>
        <time>2011-06-11T04:07:07.000Z</time>
      </trkpt>
      <trkpt lat="45.84934" lon="3.18071">
        <ele>270.20001220703</ele>
        <time>2011-06-11T04:07:12.000Z</time>
      </trkpt>
      <trkpt lat="45.84944" lon="3.181">
        <ele>270.39999389648</ele>
        <time>2011-06-11T04:07:17.000Z</time>
      </trkpt>
      <trkpt lat="45.84939" lon="3.18114">
        <ele>270.39999389648</ele>
        <time>2011-06-11T04:07:19.000Z</time>
      </trkpt>
      <trkpt lat="45.84928" lon="3.18162">
        <ele>270.39999389648</ele>
        <time>2011-06-11T04:07:25.000Z</time>
      </trkpt>
      <trkpt lat="45.84928" lon="3.18171">
        <ele>270.20001220703</ele>
        <time>2011-06-11T04:07:26.000Z</time>
      </trkpt>
      <trkpt lat="45.84936" lon="3.18233">
        <ele>270.39999389648</ele>
        <time>2011-06-11T04:07:33.000Z</time>
      </trkpt>
      <trkpt lat="45.84937" lon="3.18242">
        <ele>270.39999389648</ele>
        <time>2011-06-11T04:07:34.000Z</time>
      </trkpt>
      <trkpt lat="45.84929" lon="3.18275">
        <ele>270.79998779297</ele>
        <time>2011-06-11T04:07:38.000Z</time>
      </trkpt>
      <trkpt lat="45.84919" lon="3.18286">
        <ele>270.79998779297</ele>
        <time>2011-06-11T04:07:40.000Z</time>
      </trkpt>
      <trkpt lat="45.84861" lon="3.18325">
        <ele>271</ele>
        <time>2011-06-11T04:07:50.000Z</time>
      </trkpt>
      <trkpt lat="45.84855" lon="3.1833">
        <ele>271.20001220703</ele>
        <time>2011-06-11T04:07:51.000Z</time>
      </trkpt>
      <trkpt lat="45.84816" lon="3.18382">
        <ele>270.79998779297</ele>
        <time>2011-06-11T04:07:59.000Z</time>
      </trkpt>
      <trkpt lat="45.84793" lon="3.18417">
        <ele>271</ele>
        <time>2011-06-11T04:08:04.000Z</time>
      </trkpt>
      <trkpt lat="45.84765" lon="3.18439">
        <ele>271.20001220703</ele>
        <time>2011-06-11T04:08:09.000Z</time>
      </trkpt>
      <trkpt lat="45.84741" lon="3.18443">
        <ele>272</ele>
        <time>2011-06-11T04:08:13.000Z</time>
      </trkpt>
      <trkpt lat="45.8473" lon="3.18461">
        <ele>272.39999389648</ele>
        <time>2011-06-11T04:08:16.000Z</time>
      </trkpt>
      <trkpt lat="45.84735" lon="3.18486">
        <ele>272.39999389648</ele>
        <time>2011-06-11T04:08:19.000Z</time>
      </trkpt>
      <trkpt lat="45.84742" lon="3.18501">
        <ele>272.60000610352</ele>
        <time>2011-06-11T04:08:21.000Z</time>
      </trkpt>
      <trkpt lat="45.84751" lon="3.18548">
        <ele>272</ele>
        <time>2011-06-11T04:08:26.000Z</time>
      </trkpt>
      <trkpt lat="45.84749" lon="3.18578">
        <ele>271.60000610352</ele>
        <time>2011-06-11T04:08:29.000Z</time>
      </trkpt>
      <trkpt lat="45.8473" lon="3.18653">
        <ele>271.39999389648</ele>
        <time>2011-06-11T04:08:37.000Z</time>
      </trkpt>
      <trkpt lat="45.84704" lon="3.18719">
        <ele>271.20001220703</ele>
        <time>2011-06-11T04:08:45.000Z</time>
      </trkpt>
      <trkpt lat="45.84661" lon="3.18815">
        <ele>272.79998779297</ele>
        <time>2011-06-11T04:08:57.000Z</time>
      </trkpt>
      <trkpt lat="45.84631" lon="3.18892">
        <ele>272</ele>
        <time>2011-06-11T04:09:06.000Z</time>
      </trkpt>
      <trkpt lat="45.84618" lon="3.18959">
        <ele>272.60000610352</ele>
        <time>2011-06-11T04:09:13.000Z</time>
      </trkpt>
      <trkpt lat="45.84596" lon="3.19106">
        <ele>272.79998779297</ele>
        <time>2011-06-11T04:09:28.000Z</time>
      </trkpt>
      <trkpt lat="45.84579" lon="3.19221">
        <ele>272.79998779297</ele>
        <time>2011-06-11T04:09:40.000Z</time>
      </trkpt>
      <trkpt lat="45.84578" lon="3.1929">
        <ele>272.20001220703</ele>
        <time>2011-06-11T04:09:47.000Z</time>
      </trkpt>
      <trkpt lat="45.84581" lon="3.19398">
        <ele>272</ele>
        <time>2011-06-11T04:09:58.000Z</time>
      </trkpt>
      <trkpt lat="45.84584" lon="3.19558">
        <ele>273.39999389648</ele>
        <time>2011-06-11T04:10:14.000Z</time>
      </trkpt>
      <trkpt lat="45.8458" lon="3.19656">
        <ele>272.60000610352</ele>
        <time>2011-06-11T04:10:24.000Z</time>
      </trkpt>
      <trkpt lat="45.84563" lon="3.1977">
        <ele>274.20001220703</ele>
        <time>2011-06-11T04:10:36.000Z</time>
      </trkpt>
      <trkpt lat="45.84542" lon="3.19911">
        <ele>274.60000610352</ele>
        <time>2011-06-11T04:10:51.000Z</time>
      </trkpt>
      <trkpt lat="45.84527" lon="3.20018">
        <ele>274.20001220703</ele>
        <time>2011-06-11T04:11:02.000Z</time>
      </trkpt>
      <trkpt lat="45.8451" lon="3.20073">
        <ele>274</ele>
        <time>2011-06-11T04:11:08.000Z</time>
      </trkpt>
      <trkpt lat="45.84478" lon="3.2015">
        <ele>274.60000610352</ele>
        <time>2011-06-11T04:11:17.000Z</time>
      </trkpt>
      <trkpt lat="45.84448" lon="3.20234">
        <ele>275.39999389648</ele>
        <time>2011-06-11T04:11:27.000Z</time>
      </trkpt>
      <trkpt lat="45.84425" lon="3.20326">
        <ele>275.60000610352</ele>
        <time>2011-06-11T04:11:37.000Z</time>
      </trkpt>
      <trkpt lat="45.84392" lon="3.20467">
        <ele>276.20001220703</ele>
        <time>2011-06-11T04:11:52.000Z</time>
      </trkpt>
      <trkpt lat="45.8437" lon="3.20559">
        <ele>276.39999389648</ele>
        <time>2011-06-11T04:12:02.000Z</time>
      </trkpt>
      <trkpt lat="45.84344" lon="3.20638">
        <ele>277</ele>
        <time>2011-06-11T04:12:11.000Z</time>
      </trkpt>
      <trkpt lat="45.84308" lon="3.20709">
        <ele>276.20001220703</ele>
        <time>2011-06-11T04:12:20.000Z</time>
      </trkpt>
      <trkpt lat="45.84255" lon="3.20807">
        <ele>277.39999389648</ele>
        <time>2011-06-11T04:12:33.000Z</time>
      </trkpt>
      <trkpt lat="45.84228" lon="3.20876">
        <ele>278</ele>
        <time>2011-06-11T04:12:41.000Z</time>
      </trkpt>
      <trkpt lat="45.84206" lon="3.20961">
        <ele>277.60000610352</ele>
        <time>2011-06-11T04:12:50.000Z</time>
      </trkpt>
      <trkpt lat="45.84181" lon="3.21055">
        <ele>277.79998779297</ele>
        <time>2011-06-11T04:13:00.000Z</time>
      </trkpt>
      <trkpt lat="45.84164" lon="3.21121">
        <ele>277</ele>
        <time>2011-06-11T04:13:07.000Z</time>
      </trkpt>
      <trkpt lat="45.84146" lon="3.2115">
        <ele>276.60000610352</ele>
        <time>2011-06-11T04:13:11.000Z</time>
      </trkpt>
      <trkpt lat="45.84124" lon="3.21189">
        <ele>277.20001220703</ele>
        <time>2011-06-11T04:13:16.000Z</time>
      </trkpt>
      <trkpt lat="45.84092" lon="3.2124">
        <ele>277.20001220703</ele>
        <time>2011-06-11T04:13:23.000Z</time>
      </trkpt>
      <trkpt lat="45.84072" lon="3.21278">
        <ele>276.60000610352</ele>
        <time>2011-06-11T04:13:28.000Z</time>
      </trkpt>
      <trkpt lat="45.8406" lon="3.21344">
        <ele>277.39999389648</ele>
        <time>2011-06-11T04:13:35.000Z</time>
      </trkpt>
      <trkpt lat="45.84051" lon="3.21379">
        <ele>277.79998779297</ele>
        <time>2011-06-11T04:13:39.000Z</time>
      </trkpt>
      <trkpt lat="45.84038" lon="3.21398">
        <ele>278.39999389648</ele>
        <time>2011-06-11T04:13:42.000Z</time>
      </trkpt>
      <trkpt lat="45.84024" lon="3.21392">
        <ele>278.39999389648</ele>
        <time>2011-06-11T04:13:44.000Z</time>
      </trkpt>
      <trkpt lat="45.84004" lon="3.21385">
        <ele>278.79998779297</ele>
        <time>2011-06-11T04:13:47.000Z</time>
      </trkpt>
      <trkpt lat="45.8398" lon="3.21392">
        <ele>278.79998779297</ele>
        <time>2011-06-11T04:13:51.000Z</time>
      </trkpt>
      <trkpt lat="45.83963" lon="3.21421">
        <ele>279.20001220703</ele>
        <time>2011-06-11T04:13:55.000Z</time>
      </trkpt>
      <trkpt lat="45.83937" lon="3.21499">
        <ele>278.79998779297</ele>
        <time>2011-06-11T04:14:04.000Z</time>
      </trkpt>
      <trkpt lat="45.83931" lon="3.21527">
        <ele>279</ele>
        <time>2011-06-11T04:14:07.000Z</time>
      </trkpt>
      <trkpt lat="45.83914" lon="3.21556">
        <ele>279.60000610352</ele>
        <time>2011-06-11T04:14:11.000Z</time>
      </trkpt>
      <trkpt lat="45.83855" lon="3.21589">
        <ele>280.20001220703</ele>
        <time>2011-06-11T04:14:20.000Z</time>
      </trkpt>
      <trkpt lat="45.83803" lon="3.21616">
        <ele>280.39999389648</ele>
        <time>2011-06-11T04:14:28.000Z</time>
      </trkpt>
      <trkpt lat="45.83771" lon="3.21641">
        <ele>280</ele>
        <time>2011-06-11T04:14:33.000Z</time>
      </trkpt>
      <trkpt lat="45.83742" lon="3.21646">
        <ele>280</ele>
        <time>2011-06-11T04:14:37.000Z</time>
      </trkpt>
      <trkpt lat="45.83669" lon="3.21623">
        <ele>279.39999389648</ele>
        <time>2011-06-11T04:14:47.000Z</time>
      </trkpt>
      <trkpt lat="45.83619" lon="3.21613">
        <ele>279.39999389648</ele>
        <time>2011-06-11T04:14:54.000Z</time>
      </trkpt>
      <trkpt lat="45.83584" lon="3.21622">
        <ele>279.39999389648</ele>
        <time>2011-06-11T04:14:59.000Z</time>
      </trkpt>
      <trkpt lat="45.83532" lon="3.2165">
        <ele>280.60000610352</ele>
        <time>2011-06-11T04:15:07.000Z</time>
      </trkpt>
      <trkpt lat="45.83476" lon="3.21685">
        <ele>280.39999389648</ele>
        <time>2011-06-11T04:15:16.000Z</time>
      </trkpt>
      <trkpt lat="45.83399" lon="3.21734">
        <ele>280.39999389648</ele>
        <time>2011-06-11T04:15:28.000Z</time>
      </trkpt>
      <trkpt lat="45.83288" lon="3.21801">
        <ele>281.39999389648</ele>
        <time>2011-06-11T04:15:45.000Z</time>
      </trkpt>
      <trkpt lat="45.83209" lon="3.21849">
        <ele>281.39999389648</ele>
        <time>2011-06-11T04:15:57.000Z</time>
      </trkpt>
      <trkpt lat="45.83143" lon="3.21884">
        <ele>282.79998779297</ele>
        <time>2011-06-11T04:16:07.000Z</time>
      </trkpt>
      <trkpt lat="45.83076" lon="3.21903">
        <ele>283.20001220703</ele>
        <time>2011-06-11T04:16:17.000Z</time>
      </trkpt>
      <trkpt lat="45.8302" lon="3.21908">
        <ele>283.79998779297</ele>
        <time>2011-06-11T04:16:26.000Z</time>
      </trkpt>
      <trkpt lat="45.82961" lon="3.21907">
        <ele>285.79998779297</ele>
        <time>2011-06-11T04:16:36.000Z</time>
      </trkpt>
      <trkpt lat="45.82908" lon="3.21912">
        <ele>288.20001220703</ele>
        <time>2011-06-11T04:16:45.000Z</time>
      </trkpt>
      <trkpt lat="45.82846" lon="3.21928">
        <ele>290.20001220703</ele>
        <time>2011-06-11T04:16:56.000Z</time>
      </trkpt>
      <trkpt lat="45.82777" lon="3.2195">
        <ele>290.79998779297</ele>
        <time>2011-06-11T04:17:07.000Z</time>
      </trkpt>
      <trkpt lat="45.82725" lon="3.21974">
        <ele>289.79998779297</ele>
        <time>2011-06-11T04:17:15.000Z</time>
      </trkpt>
      <trkpt lat="45.82685" lon="3.22007">
        <ele>289.20001220703</ele>
        <time>2011-06-11T04:17:21.000Z</time>
      </trkpt>
      <trkpt lat="45.82651" lon="3.22051">
        <ele>287.79998779297</ele>
        <time>2011-06-11T04:17:27.000Z</time>
      </trkpt>
      <trkpt lat="45.82622" lon="3.22105">
        <ele>286.79998779297</ele>
        <time>2011-06-11T04:17:33.000Z</time>
      </trkpt>
      <trkpt lat="45.82599" lon="3.22176">
        <ele>285.60000610352</ele>
        <time>2011-06-11T04:17:40.000Z</time>
      </trkpt>
      <trkpt lat="45.82558" lon="3.22314">
        <ele>284.39999389648</ele>
        <time>2011-06-11T04:17:53.000Z</time>
      </trkpt>
      <trkpt lat="45.82528" lon="3.22418">
        <ele>284.60000610352</ele>
        <time>2011-06-11T04:18:03.000Z</time>
      </trkpt>
      <trkpt lat="45.82514" lon="3.22467">
        <ele>283.79998779297</ele>
        <time>2011-06-11T04:18:08.000Z</time>
      </trkpt>
      <trkpt lat="45.82504" lon="3.22502">
        <ele>283.60000610352</ele>
        <time>2011-06-11T04:18:11.000Z</time>
      </trkpt>
      <trkpt lat="45.82485" lon="3.22561">
        <ele>283.39999389648</ele>
        <time>2011-06-11T04:18:17.000Z</time>
      </trkpt>
      <trkpt lat="45.82445" lon="3.22655">
        <ele>283.39999389648</ele>
        <time>2011-06-11T04:18:27.000Z</time>
      </trkpt>
      <trkpt lat="45.82392" lon="3.2276">
        <ele>284.20001220703</ele>
        <time>2011-06-11T04:18:39.000Z</time>
      </trkpt>
      <trkpt lat="45.82339" lon="3.22863">
        <ele>284.79998779297</ele>
        <time>2011-06-11T04:18:51.000Z</time>
      </trkpt>
      <trkpt lat="45.82285" lon="3.22975">
        <ele>284.79998779297</ele>
        <time>2011-06-11T04:19:04.000Z</time>
      </trkpt>
      <trkpt lat="45.82244" lon="3.23069">
        <ele>285</ele>
        <time>2011-06-11T04:19:15.000Z</time>
      </trkpt>
      <trkpt lat="45.82196" lon="3.23181">
        <ele>286.39999389648</ele>
        <time>2011-06-11T04:19:28.000Z</time>
      </trkpt>
      <trkpt lat="45.82156" lon="3.2327">
        <ele>285.79998779297</ele>
        <time>2011-06-11T04:19:38.000Z</time>
      </trkpt>
      <trkpt lat="45.82114" lon="3.23369">
        <ele>285.79998779297</ele>
        <time>2011-06-11T04:19:49.000Z</time>
      </trkpt>
      <trkpt lat="45.82078" lon="3.23461">
        <ele>285.79998779297</ele>
        <time>2011-06-11T04:19:59.000Z</time>
      </trkpt>
      <trkpt lat="45.82047" lon="3.23553">
        <ele>286</ele>
        <time>2011-06-11T04:20:09.000Z</time>
      </trkpt>
      <trkpt lat="45.82027" lon="3.23635">
        <ele>287</ele>
        <time>2011-06-11T04:20:18.000Z</time>
      </trkpt>
      <trkpt lat="45.82006" lon="3.23714">
        <ele>289</ele>
        <time>2011-06-11T04:20:28.000Z</time>
      </trkpt>
      <trkpt lat="45.81981" lon="3.23781">
        <ele>290.39999389648</ele>
        <time>2011-06-11T04:20:37.000Z</time>
      </trkpt>
      <trkpt lat="45.81951" lon="3.23835">
        <ele>290.39999389648</ele>
        <time>2011-06-11T04:20:45.000Z</time>
      </trkpt>
      <trkpt lat="45.81922" lon="3.2386">
        <ele>291.39999389648</ele>
        <time>2011-06-11T04:20:51.000Z</time>
      </trkpt>
      <trkpt lat="45.81901" lon="3.23869">
        <ele>292.79998779297</ele>
        <time>2011-06-11T04:20:56.000Z</time>
      </trkpt>
      <trkpt lat="45.81892" lon="3.23871">
        <ele>293.60000610352</ele>
        <time>2011-06-11T04:21:00.000Z</time>
      </trkpt>
      <trkpt lat="45.81869" lon="3.23876">
        <ele>294.39999389648</ele>
        <time>2011-06-11T04:21:06.000Z</time>
      </trkpt>
      <trkpt lat="45.81826" lon="3.23886">
        <ele>297</ele>
        <time>2011-06-11T04:21:16.000Z</time>
      </trkpt>
      <trkpt lat="45.81771" lon="3.23899">
        <ele>299</ele>
        <time>2011-06-11T04:21:28.000Z</time>
      </trkpt>
      <trkpt lat="45.81706" lon="3.23915">
        <ele>301.39999389648</ele>
        <time>2011-06-11T04:21:42.000Z</time>
      </trkpt>
      <trkpt lat="45.81653" lon="3.23928">
        <ele>303.79998779297</ele>
        <time>2011-06-11T04:21:53.000Z</time>
      </trkpt>
      <trkpt lat="45.8158" lon="3.23946">
        <ele>305.60000610352</ele>
        <time>2011-06-11T04:22:08.000Z</time>
      </trkpt>
      <trkpt lat="45.81512" lon="3.23965">
        <ele>308</ele>
        <time>2011-06-11T04:22:22.000Z</time>
      </trkpt>
      <trkpt lat="45.8145" lon="3.23982">
        <ele>310.60000610352</ele>
        <time>2011-06-11T04:22:35.000Z</time>
      </trkpt>
      <trkpt lat="45.8141" lon="3.23994">
        <ele>312.60000610352</ele>
        <time>2011-06-11T04:22:44.000Z</time>
      </trkpt>
      <trkpt lat="45.81369" lon="3.24002">
        <ele>315</ele>
        <time>2011-06-11T04:22:54.000Z</time>
      </trkpt>
      <trkpt lat="45.81332" lon="3.23997">
        <ele>316.79998779297</ele>
        <time>2011-06-11T04:23:03.000Z</time>
      </trkpt>
      <trkpt lat="45.81299" lon="3.23987">
        <ele>319.60000610352</ele>
        <time>2011-06-11T04:23:12.000Z</time>
      </trkpt>
      <trkpt lat="45.81268" lon="3.2398">
        <ele>322.39999389648</ele>
        <time>2011-06-11T04:23:21.000Z</time>
      </trkpt>
      <trkpt lat="45.81249" lon="3.23978">
        <ele>324.20001220703</ele>
        <time>2011-06-11T04:23:26.000Z</time>
      </trkpt>
      <trkpt lat="45.81242" lon="3.23972">
        <ele>324.79998779297</ele>
        <time>2011-06-11T04:23:28.000Z</time>
      </trkpt>
      <trkpt lat="45.81219" lon="3.23968">
        <ele>325</ele>
        <time>2011-06-11T04:23:33.000Z</time>
      </trkpt>
      <trkpt lat="45.81208" lon="3.23979">
        <ele>325</ele>
        <time>2011-06-11T04:23:36.000Z</time>
      </trkpt>
      <trkpt lat="45.81199" lon="3.23994">
        <ele>325.79998779297</ele>
        <time>2011-06-11T04:23:39.000Z</time>
      </trkpt>
      <trkpt lat="45.81185" lon="3.24008">
        <ele>326.60000610352</ele>
        <time>2011-06-11T04:23:43.000Z</time>
      </trkpt>
      <trkpt lat="45.81141" lon="3.24036">
        <ele>329.60000610352</ele>
        <time>2011-06-11T04:23:55.000Z</time>
      </trkpt>
      <trkpt lat="45.81106" lon="3.24059">
        <ele>333</ele>
        <time>2011-06-11T04:24:05.000Z</time>
      </trkpt>
      <trkpt lat="45.81067" lon="3.2409">
        <ele>335.79998779297</ele>
        <time>2011-06-11T04:24:16.000Z</time>
      </trkpt>
      <trkpt lat="45.81027" lon="3.24125">
        <ele>337.60000610352</ele>
        <time>2011-06-11T04:24:27.000Z</time>
      </trkpt>
      <trkpt lat="45.80986" lon="3.24162">
        <ele>339</ele>
        <time>2011-06-11T04:24:37.000Z</time>
      </trkpt>
      <trkpt lat="45.80947" lon="3.24198">
        <ele>339.20001220703</ele>
        <time>2011-06-11T04:24:45.000Z</time>
      </trkpt>
      <trkpt lat="45.80884" lon="3.24253">
        <ele>339.20001220703</ele>
        <time>2011-06-11T04:24:57.000Z</time>
      </trkpt>
      <trkpt lat="45.80828" lon="3.24291">
        <ele>339.20001220703</ele>
        <time>2011-06-11T04:25:07.000Z</time>
      </trkpt>
      <trkpt lat="45.80773" lon="3.24316">
        <ele>339.20001220703</ele>
        <time>2011-06-11T04:25:16.000Z</time>
      </trkpt>
      <trkpt lat="45.80713" lon="3.24346">
        <ele>339.60000610352</ele>
        <time>2011-06-11T04:25:26.000Z</time>
      </trkpt>
      <trkpt lat="45.80677" lon="3.24379">
        <ele>339.79998779297</ele>
        <time>2011-06-11T04:25:33.000Z</time>
      </trkpt>
      <trkpt lat="45.80667" lon="3.24388">
        <ele>339.79998779297</ele>
        <time>2011-06-11T04:25:35.000Z</time>
      </trkpt>
      <trkpt lat="45.80626" lon="3.24407">
        <ele>339.60000610352</ele>
        <time>2011-06-11T04:25:42.000Z</time>
      </trkpt>
      <trkpt lat="45.80571" lon="3.24423">
        <ele>338.39999389648</ele>
        <time>2011-06-11T04:25:51.000Z</time>
      </trkpt>
      <trkpt lat="45.80514" lon="3.24424">
        <ele>337.79998779297</ele>
        <time>2011-06-11T04:26:00.000Z</time>
      </trkpt>
      <trkpt lat="45.80449" lon="3.24424">
        <ele>337.60000610352</ele>
        <time>2011-06-11T04:26:10.000Z</time>
      </trkpt>
      <trkpt lat="45.80408" lon="3.24425">
        <ele>337.60000610352</ele>
        <time>2011-06-11T04:26:17.000Z</time>
      </trkpt>
      <trkpt lat="45.80377" lon="3.24427">
        <ele>337.39999389648</ele>
        <time>2011-06-11T04:26:22.000Z</time>
      </trkpt>
      <trkpt lat="45.80313" lon="3.24414">
        <ele>336.20001220703</ele>
        <time>2011-06-11T04:26:31.000Z</time>
      </trkpt>
      <trkpt lat="45.80251" lon="3.24392">
        <ele>335.39999389648</ele>
        <time>2011-06-11T04:26:40.000Z</time>
      </trkpt>
      <trkpt lat="45.80192" lon="3.24367">
        <ele>334.60000610352</ele>
        <time>2011-06-11T04:26:49.000Z</time>
      </trkpt>
      <trkpt lat="45.80141" lon="3.24344">
        <ele>334.20001220703</ele>
        <time>2011-06-11T04:26:57.000Z</time>
      </trkpt>
      <trkpt lat="45.80085" lon="3.24317">
        <ele>331.79998779297</ele>
        <time>2011-06-11T04:27:05.000Z</time>
      </trkpt>
      <trkpt lat="45.80066" lon="3.24303">
        <ele>331.39999389648</ele>
        <time>2011-06-11T04:27:08.000Z</time>
      </trkpt>
      <trkpt lat="45.80049" lon="3.24304">
        <ele>331.20001220703</ele>
        <time>2011-06-11T04:27:11.000Z</time>
      </trkpt>
      <trkpt lat="45.80038" lon="3.24323">
        <ele>331.39999389648</ele>
        <time>2011-06-11T04:27:14.000Z</time>
      </trkpt>
      <trkpt lat="45.80031" lon="3.24332">
        <ele>331.39999389648</ele>
        <time>2011-06-11T04:27:17.000Z</time>
      </trkpt>
      <trkpt lat="45.8003" lon="3.24333">
        <ele>331.60000610352</ele>
        <time>2011-06-11T04:27:19.000Z</time>
      </trkpt>
      <trkpt lat="45.80025" lon="3.24343">
        <ele>331.79998779297</ele>
        <time>2011-06-11T04:27:40.000Z</time>
      </trkpt>
      <trkpt lat="45.80012" lon="3.24366">
        <ele>332.20001220703</ele>
        <time>2011-06-11T04:27:46.000Z</time>
      </trkpt>
      <trkpt lat="45.79988" lon="3.24402">
        <ele>332.39999389648</ele>
        <time>2011-06-11T04:27:53.000Z</time>
      </trkpt>
      <trkpt lat="45.79962" lon="3.24419">
        <ele>332.20001220703</ele>
        <time>2011-06-11T04:27:58.000Z</time>
      </trkpt>
      <trkpt lat="45.79956" lon="3.2442">
        <ele>332.20001220703</ele>
        <time>2011-06-11T04:27:59.000Z</time>
      </trkpt>
      <trkpt lat="45.79914" lon="3.2442">
        <ele>331.79998779297</ele>
        <time>2011-06-11T04:28:06.000Z</time>
      </trkpt>
      <trkpt lat="45.79877" lon="3.24411">
        <ele>331.60000610352</ele>
        <time>2011-06-11T04:28:12.000Z</time>
      </trkpt>
      <trkpt lat="45.79849" lon="3.24389">
        <ele>331.79998779297</ele>
        <time>2011-06-11T04:28:17.000Z</time>
      </trkpt>
      <trkpt lat="45.79794" lon="3.24331">
        <ele>330.60000610352</ele>
        <time>2011-06-11T04:28:27.000Z</time>
      </trkpt>
      <trkpt lat="45.79743" lon="3.24278">
        <ele>330</ele>
        <time>2011-06-11T04:28:36.000Z</time>
      </trkpt>
      <trkpt lat="45.79705" lon="3.24235">
        <ele>329.20001220703</ele>
        <time>2011-06-11T04:28:43.000Z</time>
      </trkpt>
      <trkpt lat="45.79655" lon="3.24168">
        <ele>328.79998779297</ele>
        <time>2011-06-11T04:28:52.000Z</time>
      </trkpt>
      <trkpt lat="45.79648" lon="3.2416">
        <ele>328.60000610352</ele>
        <time>2011-06-11T04:28:53.000Z</time>
      </trkpt>
      <trkpt lat="45.79602" lon="3.24109">
        <ele>325.39999389648</ele>
        <time>2011-06-11T04:28:59.000Z</time>
      </trkpt>
      <trkpt lat="45.79567" lon="3.24068">
        <ele>321.60000610352</ele>
        <time>2011-06-11T04:29:03.000Z</time>
      </trkpt>
      <trkpt lat="45.7956" lon="3.24057">
        <ele>320.39999389648</ele>
        <time>2011-06-11T04:29:04.000Z</time>
      </trkpt>
      <trkpt lat="45.79543" lon="3.24037">
        <ele>318.39999389648</ele>
        <time>2011-06-11T04:29:06.000Z</time>
      </trkpt>
      <trkpt lat="45.79507" lon="3.24013">
        <ele>314</ele>
        <time>2011-06-11T04:29:10.000Z</time>
      </trkpt>
      <trkpt lat="45.79485" lon="3.24008">
        <ele>311.79998779297</ele>
        <time>2011-06-11T04:29:12.000Z</time>
      </trkpt>
      <trkpt lat="45.79385" lon="3.23997">
        <ele>304.79998779297</ele>
        <time>2011-06-11T04:29:21.000Z</time>
      </trkpt>
      <trkpt lat="45.79316" lon="3.23989">
        <ele>302.39999389648</ele>
        <time>2011-06-11T04:29:28.000Z</time>
      </trkpt>
      <trkpt lat="45.79256" lon="3.23978">
        <ele>301</ele>
        <time>2011-06-11T04:29:35.000Z</time>
      </trkpt>
      <trkpt lat="45.79203" lon="3.23968">
        <ele>300.79998779297</ele>
        <time>2011-06-11T04:29:42.000Z</time>
      </trkpt>
      <trkpt lat="45.79159" lon="3.23962">
        <ele>300.79998779297</ele>
        <time>2011-06-11T04:29:48.000Z</time>
      </trkpt>
      <trkpt lat="45.79088" lon="3.23943">
        <ele>300</ele>
        <time>2011-06-11T04:29:58.000Z</time>
      </trkpt>
      <trkpt lat="45.7902" lon="3.23917">
        <ele>300.60000610352</ele>
        <time>2011-06-11T04:30:08.000Z</time>
      </trkpt>
      <trkpt lat="45.78941" lon="3.23885">
        <ele>301.79998779297</ele>
        <time>2011-06-11T04:30:20.000Z</time>
      </trkpt>
      <trkpt lat="45.78868" lon="3.23857">
        <ele>303.20001220703</ele>
        <time>2011-06-11T04:30:32.000Z</time>
      </trkpt>
      <trkpt lat="45.78824" lon="3.23845">
        <ele>304.39999389648</ele>
        <time>2011-06-11T04:30:40.000Z</time>
      </trkpt>
      <trkpt lat="45.78773" lon="3.23837">
        <ele>304.79998779297</ele>
        <time>2011-06-11T04:30:48.000Z</time>
      </trkpt>
      <trkpt lat="45.78689" lon="3.23832">
        <ele>304.39999389648</ele>
        <time>2011-06-11T04:31:00.000Z</time>
      </trkpt>
      <trkpt lat="45.78624" lon="3.23823">
        <ele>304.20001220703</ele>
        <time>2011-06-11T04:31:09.000Z</time>
      </trkpt>
      <trkpt lat="45.78535" lon="3.23802">
        <ele>304.39999389648</ele>
        <time>2011-06-11T04:31:22.000Z</time>
      </trkpt>
      <trkpt lat="45.78459" lon="3.23789">
        <ele>304.79998779297</ele>
        <time>2011-06-11T04:31:33.000Z</time>
      </trkpt>
      <trkpt lat="45.78372" lon="3.23781">
        <ele>303.79998779297</ele>
        <time>2011-06-11T04:31:45.000Z</time>
      </trkpt>
      <trkpt lat="45.783" lon="3.23768">
        <ele>303.79998779297</ele>
        <time>2011-06-11T04:31:55.000Z</time>
      </trkpt>
      <trkpt lat="45.7824" lon="3.23742">
        <ele>304.20001220703</ele>
        <time>2011-06-11T04:32:04.000Z</time>
      </trkpt>
      <trkpt lat="45.78168" lon="3.23708">
        <ele>304.60000610352</ele>
        <time>2011-06-11T04:32:15.000Z</time>
      </trkpt>
      <trkpt lat="45.7811" lon="3.23694">
        <ele>304.20001220703</ele>
        <time>2011-06-11T04:32:23.000Z</time>
      </trkpt>
      <trkpt lat="45.78017" lon="3.23675">
        <ele>303.60000610352</ele>
        <time>2011-06-11T04:32:36.000Z</time>
      </trkpt>
      <trkpt lat="45.77935" lon="3.23648">
        <ele>303.39999389648</ele>
        <time>2011-06-11T04:32:48.000Z</time>
      </trkpt>
      <trkpt lat="45.77848" lon="3.23623">
        <ele>303.20001220703</ele>
        <time>2011-06-11T04:33:00.000Z</time>
      </trkpt>
      <trkpt lat="45.77791" lon="3.23601">
        <ele>302.20001220703</ele>
        <time>2011-06-11T04:33:08.000Z</time>
      </trkpt>
      <trkpt lat="45.77737" lon="3.23564">
        <ele>302.20001220703</ele>
        <time>2011-06-11T04:33:16.000Z</time>
      </trkpt>
      <trkpt lat="45.7767" lon="3.23519">
        <ele>302</ele>
        <time>2011-06-11T04:33:26.000Z</time>
      </trkpt>
      <trkpt lat="45.77611" lon="3.2348">
        <ele>302</ele>
        <time>2011-06-11T04:33:35.000Z</time>
      </trkpt>
      <trkpt lat="45.77568" lon="3.23455">
        <ele>303.39999389648</ele>
        <time>2011-06-11T04:33:42.000Z</time>
      </trkpt>
      <trkpt lat="45.77532" lon="3.23447">
        <ele>304.79998779297</ele>
        <time>2011-06-11T04:33:48.000Z</time>
      </trkpt>
      <trkpt lat="45.77511" lon="3.23436">
        <ele>305.60000610352</ele>
        <time>2011-06-11T04:33:52.000Z</time>
      </trkpt>
      <trkpt lat="45.77487" lon="3.2343">
        <ele>306.39999389648</ele>
        <time>2011-06-11T04:33:56.000Z</time>
      </trkpt>
      <trkpt lat="45.77442" lon="3.23415">
        <ele>305.39999389648</ele>
        <time>2011-06-11T04:34:02.000Z</time>
      </trkpt>
      <trkpt lat="45.77434" lon="3.23411">
        <ele>304.60000610352</ele>
        <time>2011-06-11T04:34:03.000Z</time>
      </trkpt>
      <trkpt lat="45.7741" lon="3.23418">
        <ele>302</ele>
        <time>2011-06-11T04:34:06.000Z</time>
      </trkpt>
      <trkpt lat="45.774" lon="3.23439">
        <ele>300.39999389648</ele>
        <time>2011-06-11T04:34:08.000Z</time>
      </trkpt>
      <trkpt lat="45.77388" lon="3.23484">
        <ele>298.20001220703</ele>
        <time>2011-06-11T04:34:12.000Z</time>
      </trkpt>
      <trkpt lat="45.77374" lon="3.23526">
        <ele>298.60000610352</ele>
        <time>2011-06-11T04:34:17.000Z</time>
      </trkpt>
      <trkpt lat="45.77347" lon="3.23608">
        <ele>301.39999389648</ele>
        <time>2011-06-11T04:34:27.000Z</time>
      </trkpt>
      <trkpt lat="45.77333" lon="3.23651">
        <ele>302.39999389648</ele>
        <time>2011-06-11T04:34:32.000Z</time>
      </trkpt>
      <trkpt lat="45.77313" lon="3.23712">
        <ele>303</ele>
        <time>2011-06-11T04:34:39.000Z</time>
      </trkpt>
      <trkpt lat="45.77288" lon="3.23786">
        <ele>303</ele>
        <time>2011-06-11T04:34:47.000Z</time>
      </trkpt>
      <trkpt lat="45.7727" lon="3.23842">
        <ele>302.39999389648</ele>
        <time>2011-06-11T04:34:53.000Z</time>
      </trkpt>
      <trkpt lat="45.77266" lon="3.23852">
        <ele>302.20001220703</ele>
        <time>2011-06-11T04:34:54.000Z</time>
      </trkpt>
      <trkpt lat="45.77252" lon="3.2387">
        <ele>301.39999389648</ele>
        <time>2011-06-11T04:34:57.000Z</time>
      </trkpt>
      <trkpt lat="45.77235" lon="3.23864">
        <ele>300.79998779297</ele>
        <time>2011-06-11T04:35:00.000Z</time>
      </trkpt>
      <trkpt lat="45.77211" lon="3.23859">
        <ele>300.20001220703</ele>
        <time>2011-06-11T04:35:04.000Z</time>
      </trkpt>
      <trkpt lat="45.77165" lon="3.23858">
        <ele>299.39999389648</ele>
        <time>2011-06-11T04:35:11.000Z</time>
      </trkpt>
      <trkpt lat="45.7713" lon="3.23851">
        <ele>300.60000610352</ele>
        <time>2011-06-11T04:35:17.000Z</time>
      </trkpt>
      <trkpt lat="45.77115" lon="3.23845">
        <ele>301.20001220703</ele>
        <time>2011-06-11T04:35:20.000Z</time>
      </trkpt>
      <trkpt lat="45.77112" lon="3.2384">
        <ele>301.60000610352</ele>
        <time>2011-06-11T04:35:21.000Z</time>
      </trkpt>
      <trkpt lat="45.77089" lon="3.23827">
        <ele>301.39999389648</ele>
        <time>2011-06-11T04:35:26.000Z</time>
      </trkpt>
      <trkpt lat="45.7704" lon="3.23816">
        <ele>300.79998779297</ele>
        <time>2011-06-11T04:35:34.000Z</time>
      </trkpt>
      <trkpt lat="45.77027" lon="3.23812">
        <ele>301</ele>
        <time>2011-06-11T04:35:36.000Z</time>
      </trkpt>
      <trkpt lat="45.76987" lon="3.23805">
        <ele>301</ele>
        <time>2011-06-11T04:35:42.000Z</time>
      </trkpt>
      <trkpt lat="45.76951" lon="3.23801">
        <ele>301</ele>
        <time>2011-06-11T04:35:48.000Z</time>
      </trkpt>
      <trkpt lat="45.76913" lon="3.23797">
        <ele>301.20001220703</ele>
        <time>2011-06-11T04:35:54.000Z</time>
      </trkpt>
      <trkpt lat="45.76871" lon="3.23791">
        <ele>302.60000610352</ele>
        <time>2011-06-11T04:36:01.000Z</time>
      </trkpt>
      <trkpt lat="45.76834" lon="3.23784">
        <ele>303.79998779297</ele>
        <time>2011-06-11T04:36:08.000Z</time>
      </trkpt>
      <trkpt lat="45.76809" lon="3.23779">
        <ele>305.39999389648</ele>
        <time>2011-06-11T04:36:14.000Z</time>
      </trkpt>
      <trkpt lat="45.76782" lon="3.23778">
        <ele>307.20001220703</ele>
        <time>2011-06-11T04:36:21.000Z</time>
      </trkpt>
      <trkpt lat="45.76748" lon="3.23789">
        <ele>310.20001220703</ele>
        <time>2011-06-11T04:36:30.000Z</time>
      </trkpt>
      <trkpt lat="45.76718" lon="3.23798">
        <ele>312.39999389648</ele>
        <time>2011-06-11T04:36:38.000Z</time>
      </trkpt>
      <trkpt lat="45.76678" lon="3.23811">
        <ele>316.20001220703</ele>
        <time>2011-06-11T04:36:49.000Z</time>
      </trkpt>
      <trkpt lat="45.76655" lon="3.23813">
        <ele>317.79998779297</ele>
        <time>2011-06-11T04:36:55.000Z</time>
      </trkpt>
      <trkpt lat="45.76615" lon="3.23814">
        <ele>318.39999389648</ele>
        <time>2011-06-11T04:37:03.000Z</time>
      </trkpt>
      <trkpt lat="45.76609" lon="3.23814">
        <ele>318.20001220703</ele>
        <time>2011-06-11T04:37:04.000Z</time>
      </trkpt>
      <trkpt lat="45.76585" lon="3.23802">
        <ele>318.39999389648</ele>
        <time>2011-06-11T04:37:09.000Z</time>
      </trkpt>
      <trkpt lat="45.76558" lon="3.23799">
        <ele>319.20001220703</ele>
        <time>2011-06-11T04:37:14.000Z</time>
      </trkpt>
      <trkpt lat="45.76528" lon="3.23792">
        <ele>319</ele>
        <time>2011-06-11T04:37:19.000Z</time>
      </trkpt>
      <trkpt lat="45.76469" lon="3.23749">
        <ele>317.79998779297</ele>
        <time>2011-06-11T04:37:28.000Z</time>
      </trkpt>
      <trkpt lat="45.76405" lon="3.23698">
        <ele>316.79998779297</ele>
        <time>2011-06-11T04:37:38.000Z</time>
      </trkpt>
      <trkpt lat="45.76342" lon="3.23648">
        <ele>318</ele>
        <time>2011-06-11T04:37:49.000Z</time>
      </trkpt>
      <trkpt lat="45.76268" lon="3.23588">
        <ele>320</ele>
        <time>2011-06-11T04:38:02.000Z</time>
      </trkpt>
      <trkpt lat="45.76197" lon="3.23531">
        <ele>320.39999389648</ele>
        <time>2011-06-11T04:38:14.000Z</time>
      </trkpt>
      <trkpt lat="45.7611" lon="3.23462">
        <ele>320</ele>
        <time>2011-06-11T04:38:28.000Z</time>
      </trkpt>
      <trkpt lat="45.76039" lon="3.23413">
        <ele>320.39999389648</ele>
        <time>2011-06-11T04:38:39.000Z</time>
      </trkpt>
      <trkpt lat="45.75991" lon="3.23398">
        <ele>320.39999389648</ele>
        <time>2011-06-11T04:38:46.000Z</time>
      </trkpt>
      <trkpt lat="45.75943" lon="3.23394">
        <ele>320.60000610352</ele>
        <time>2011-06-11T04:38:53.000Z</time>
      </trkpt>
      <trkpt lat="45.75875" lon="3.234">
        <ele>320.79998779297</ele>
        <time>2011-06-11T04:39:03.000Z</time>
      </trkpt>
      <trkpt lat="45.75779" lon="3.23409">
        <ele>322</ele>
        <time>2011-06-11T04:39:17.000Z</time>
      </trkpt>
      <trkpt lat="45.75719" lon="3.23424">
        <ele>322.79998779297</ele>
        <time>2011-06-11T04:39:26.000Z</time>
      </trkpt>
      <trkpt lat="45.75654" lon="3.23454">
        <ele>323</ele>
        <time>2011-06-11T04:39:36.000Z</time>
      </trkpt>
      <trkpt lat="45.75573" lon="3.23503">
        <ele>324.39999389648</ele>
        <time>2011-06-11T04:39:49.000Z</time>
      </trkpt>
      <trkpt lat="45.75497" lon="3.23549">
        <ele>325.39999389648</ele>
        <time>2011-06-11T04:40:02.000Z</time>
      </trkpt>
      <trkpt lat="45.75435" lon="3.23586">
        <ele>327</ele>
        <time>2011-06-11T04:40:13.000Z</time>
      </trkpt>
      <trkpt lat="45.75333" lon="3.23647">
        <ele>329.20001220703</ele>
        <time>2011-06-11T04:40:31.000Z</time>
      </trkpt>
      <trkpt lat="45.75244" lon="3.237">
        <ele>330.20001220703</ele>
        <time>2011-06-11T04:40:46.000Z</time>
      </trkpt>
      <trkpt lat="45.75165" lon="3.23748">
        <ele>331.20001220703</ele>
        <time>2011-06-11T04:40:59.000Z</time>
      </trkpt>
      <trkpt lat="45.75104" lon="3.23793">
        <ele>330.20001220703</ele>
        <time>2011-06-11T04:41:09.000Z</time>
      </trkpt>
      <trkpt lat="45.75048" lon="3.2385">
        <ele>329.79998779297</ele>
        <time>2011-06-11T04:41:19.000Z</time>
      </trkpt>
      <trkpt lat="45.7498" lon="3.23926">
        <ele>328.79998779297</ele>
        <time>2011-06-11T04:41:31.000Z</time>
      </trkpt>
      <trkpt lat="45.74947" lon="3.23951">
        <ele>327.60000610352</ele>
        <time>2011-06-11T04:41:36.000Z</time>
      </trkpt>
      <trkpt lat="45.74901" lon="3.23967">
        <ele>326.60000610352</ele>
        <time>2011-06-11T04:41:42.000Z</time>
      </trkpt>
      <trkpt lat="45.74852" lon="3.23965">
        <ele>324.39999389648</ele>
        <time>2011-06-11T04:41:48.000Z</time>
      </trkpt>
      <trkpt lat="45.74811" lon="3.23948">
        <ele>323.20001220703</ele>
        <time>2011-06-11T04:41:53.000Z</time>
      </trkpt>
      <trkpt lat="45.74772" lon="3.23916">
        <ele>321.79998779297</ele>
        <time>2011-06-11T04:41:58.000Z</time>
      </trkpt>
      <trkpt lat="45.74734" lon="3.23866">
        <ele>321</ele>
        <time>2011-06-11T04:42:04.000Z</time>
      </trkpt>
      <trkpt lat="45.74699" lon="3.23815">
        <ele>321.20001220703</ele>
        <time>2011-06-11T04:42:11.000Z</time>
      </trkpt>
      <trkpt lat="45.74655" lon="3.23751">
        <ele>323.79998779297</ele>
        <time>2011-06-11T04:42:21.000Z</time>
      </trkpt>
      <trkpt lat="45.74599" lon="3.2367">
        <ele>327</ele>
        <time>2011-06-11T04:42:35.000Z</time>
      </trkpt>
      <trkpt lat="45.74544" lon="3.2359">
        <ele>329.39999389648</ele>
        <time>2011-06-11T04:42:49.000Z</time>
      </trkpt>
      <trkpt lat="45.74499" lon="3.23527">
        <ele>329.20001220703</ele>
        <time>2011-06-11T04:42:59.000Z</time>
      </trkpt>
      <trkpt lat="45.74455" lon="3.23474">
        <ele>328</ele>
        <time>2011-06-11T04:43:07.000Z</time>
      </trkpt>
      <trkpt lat="45.74406" lon="3.23425">
        <ele>325.60000610352</ele>
        <time>2011-06-11T04:43:14.000Z</time>
      </trkpt>
      <trkpt lat="45.74356" lon="3.23379">
        <ele>322.60000610352</ele>
        <time>2011-06-11T04:43:20.000Z</time>
      </trkpt>
      <trkpt lat="45.74294" lon="3.23313">
        <ele>317.60000610352</ele>
        <time>2011-06-11T04:43:27.000Z</time>
      </trkpt>
      <trkpt lat="45.74226" lon="3.23225">
        <ele>312.20001220703</ele>
        <time>2011-06-11T04:43:35.000Z</time>
      </trkpt>
      <trkpt lat="45.74179" lon="3.23166">
        <ele>309.79998779297</ele>
        <time>2011-06-11T04:43:41.000Z</time>
      </trkpt>
      <trkpt lat="45.74125" lon="3.23114">
        <ele>309.39999389648</ele>
        <time>2011-06-11T04:43:48.000Z</time>
      </trkpt>
      <trkpt lat="45.74077" lon="3.23082">
        <ele>309.20001220703</ele>
        <time>2011-06-11T04:43:54.000Z</time>
      </trkpt>
      <trkpt lat="45.7403" lon="3.23059">
        <ele>308.79998779297</ele>
        <time>2011-06-11T04:44:00.000Z</time>
      </trkpt>
      <trkpt lat="45.73975" lon="3.23043">
        <ele>308.60000610352</ele>
        <time>2011-06-11T04:44:07.000Z</time>
      </trkpt>
      <trkpt lat="45.73892" lon="3.23028">
        <ele>308.39999389648</ele>
        <time>2011-06-11T04:44:18.000Z</time>
      </trkpt>
      <trkpt lat="45.73805" lon="3.23012">
        <ele>308.79998779297</ele>
        <time>2011-06-11T04:44:30.000Z</time>
      </trkpt>
      <trkpt lat="45.73697" lon="3.22992">
        <ele>309.39999389648</ele>
        <time>2011-06-11T04:44:45.000Z</time>
      </trkpt>
      <trkpt lat="45.73604" lon="3.22975">
        <ele>309.60000610352</ele>
        <time>2011-06-11T04:44:58.000Z</time>
      </trkpt>
      <trkpt lat="45.73507" lon="3.22956">
        <ele>309.60000610352</ele>
        <time>2011-06-11T04:45:12.000Z</time>
      </trkpt>
      <trkpt lat="45.73401" lon="3.22928">
        <ele>309.20001220703</ele>
        <time>2011-06-11T04:45:27.000Z</time>
      </trkpt>
      <trkpt lat="45.73302" lon="3.22898">
        <ele>310</ele>
        <time>2011-06-11T04:45:41.000Z</time>
      </trkpt>
      <trkpt lat="45.73231" lon="3.22876">
        <ele>310</ele>
        <time>2011-06-11T04:45:51.000Z</time>
      </trkpt>
      <trkpt lat="45.7314" lon="3.22848">
        <ele>310.39999389648</ele>
        <time>2011-06-11T04:46:04.000Z</time>
      </trkpt>
      <trkpt lat="45.73057" lon="3.22814">
        <ele>310.39999389648</ele>
        <time>2011-06-11T04:46:16.000Z</time>
      </trkpt>
      <trkpt lat="45.73031" lon="3.22799">
        <ele>310.39999389648</ele>
        <time>2011-06-11T04:46:20.000Z</time>
      </trkpt>
      <trkpt lat="45.73016" lon="3.22777">
        <ele>310.39999389648</ele>
        <time>2011-06-11T04:46:23.000Z</time>
      </trkpt>
      <trkpt lat="45.72995" lon="3.2275">
        <ele>310.79998779297</ele>
        <time>2011-06-11T04:46:27.000Z</time>
      </trkpt>
      <trkpt lat="45.7298" lon="3.22717">
        <ele>311</ele>
        <time>2011-06-11T04:46:31.000Z</time>
      </trkpt>
      <trkpt lat="45.72979" lon="3.22707">
        <ele>311</ele>
        <time>2011-06-11T04:46:32.000Z</time>
      </trkpt>
      <trkpt lat="45.72969" lon="3.22587">
        <ele>311.39999389648</ele>
        <time>2011-06-11T04:46:44.000Z</time>
      </trkpt>
      <trkpt lat="45.72956" lon="3.22467">
        <ele>311.79998779297</ele>
        <time>2011-06-11T04:46:56.000Z</time>
      </trkpt>
      <trkpt lat="45.72942" lon="3.22347">
        <ele>312.20001220703</ele>
        <time>2011-06-11T04:47:08.000Z</time>
      </trkpt>
      <trkpt lat="45.72928" lon="3.22228">
        <ele>312.60000610352</ele>
        <time>2011-06-11T04:47:20.000Z</time>
      </trkpt>
      <trkpt lat="45.72916" lon="3.2212">
        <ele>312.39999389648</ele>
        <time>2011-06-11T04:47:31.000Z</time>
      </trkpt>
      <trkpt lat="45.72901" lon="3.21991">
        <ele>312.79998779297</ele>
        <time>2011-06-11T04:47:44.000Z</time>
      </trkpt>
      <trkpt lat="45.72885" lon="3.21851">
        <ele>312.60000610352</ele>
        <time>2011-06-11T04:47:58.000Z</time>
      </trkpt>
      <trkpt lat="45.72868" lon="3.2171">
        <ele>313</ele>
        <time>2011-06-11T04:48:12.000Z</time>
      </trkpt>
      <trkpt lat="45.72861" lon="3.21607">
        <ele>312.79998779297</ele>
        <time>2011-06-11T04:48:22.000Z</time>
      </trkpt>
      <trkpt lat="45.72862" lon="3.21588">
        <ele>312.60000610352</ele>
        <time>2011-06-11T04:48:24.000Z</time>
      </trkpt>
      <trkpt lat="45.72874" lon="3.21539">
        <ele>313</ele>
        <time>2011-06-11T04:48:30.000Z</time>
      </trkpt>
      <trkpt lat="45.72879" lon="3.21528">
        <ele>313.39999389648</ele>
        <time>2011-06-11T04:48:33.000Z</time>
      </trkpt>
      <trkpt lat="45.72879" lon="3.21528">
        <ele>313.20001220703</ele>
        <time>2011-06-11T04:48:35.000Z</time>
      </trkpt>
      <trkpt lat="45.72879" lon="3.21527">
        <ele>313.79998779297</ele>
        <time>2011-06-11T04:49:18.000Z</time>
      </trkpt>
      <trkpt lat="45.72882" lon="3.21517">
        <ele>314</ele>
        <time>2011-06-11T04:49:23.000Z</time>
      </trkpt>
      <trkpt lat="45.72895" lon="3.21489">
        <ele>314.39999389648</ele>
        <time>2011-06-11T04:49:29.000Z</time>
      </trkpt>
      <trkpt lat="45.72913" lon="3.21448">
        <ele>315.20001220703</ele>
        <time>2011-06-11T04:49:36.000Z</time>
      </trkpt>
      <trkpt lat="45.72939" lon="3.21395">
        <ele>316.79998779297</ele>
        <time>2011-06-11T04:49:45.000Z</time>
      </trkpt>
      <trkpt lat="45.72947" lon="3.21369">
        <ele>318</ele>
        <time>2011-06-11T04:49:49.000Z</time>
      </trkpt>
      <trkpt lat="45.72962" lon="3.21327">
        <ele>319.20001220703</ele>
        <time>2011-06-11T04:49:56.000Z</time>
      </trkpt>
      <trkpt lat="45.72986" lon="3.21275">
        <ele>319.39999389648</ele>
        <time>2011-06-11T04:50:04.000Z</time>
      </trkpt>
      <trkpt lat="45.73021" lon="3.21205">
        <ele>320.20001220703</ele>
        <time>2011-06-11T04:50:14.000Z</time>
      </trkpt>
      <trkpt lat="45.73025" lon="3.21199">
        <ele>320.20001220703</ele>
        <time>2011-06-11T04:50:15.000Z</time>
      </trkpt>
      <trkpt lat="45.73055" lon="3.21171">
        <ele>321.20001220703</ele>
        <time>2011-06-11T04:50:21.000Z</time>
      </trkpt>
      <trkpt lat="45.73112" lon="3.21129">
        <ele>323.60000610352</ele>
        <time>2011-06-11T04:50:32.000Z</time>
      </trkpt>
      <trkpt lat="45.73155" lon="3.21094">
        <ele>326</ele>
        <time>2011-06-11T04:50:41.000Z</time>
      </trkpt>
      <trkpt lat="45.73194" lon="3.21051">
        <ele>327.60000610352</ele>
        <time>2011-06-11T04:50:50.000Z</time>
      </trkpt>
      <trkpt lat="45.73225" lon="3.21004">
        <ele>328.60000610352</ele>
        <time>2011-06-11T04:50:58.000Z</time>
      </trkpt>
      <trkpt lat="45.73228" lon="3.20999">
        <ele>328.60000610352</ele>
        <time>2011-06-11T04:50:59.000Z</time>
      </trkpt>
      <trkpt lat="45.73232" lon="3.20976">
        <ele>330.20001220703</ele>
        <time>2011-06-11T04:51:03.000Z</time>
      </trkpt>
      <trkpt lat="45.73225" lon="3.20957">
        <ele>331.39999389648</ele>
        <time>2011-06-11T04:51:06.000Z</time>
      </trkpt>
      <trkpt lat="45.73196" lon="3.20903">
        <ele>334.39999389648</ele>
        <time>2011-06-11T04:51:16.000Z</time>
      </trkpt>
      <trkpt lat="45.73171" lon="3.20852">
        <ele>334.79998779297</ele>
        <time>2011-06-11T04:51:24.000Z</time>
      </trkpt>
      <trkpt lat="45.73144" lon="3.20802">
        <ele>334.39999389648</ele>
        <time>2011-06-11T04:51:32.000Z</time>
      </trkpt>
      <trkpt lat="45.73107" lon="3.20744">
        <ele>337.20001220703</ele>
        <time>2011-06-11T04:51:42.000Z</time>
      </trkpt>
      <trkpt lat="45.73105" lon="3.20741">
        <ele>337</ele>
        <time>2011-06-11T04:51:43.000Z</time>
      </trkpt>
      <trkpt lat="45.73102" lon="3.20742">
        <ele>337.39999389648</ele>
        <time>2011-06-11T04:51:48.000Z</time>
      </trkpt>
      <trkpt lat="45.731" lon="3.20746">
        <ele>337.20001220703</ele>
        <time>2011-06-11T04:51:58.000Z</time>
      </trkpt>
      <trkpt lat="45.73091" lon="3.20743">
        <ele>337.20001220703</ele>
        <time>2011-06-11T04:52:05.000Z</time>
      </trkpt>
      <trkpt lat="45.73073" lon="3.20738">
        <ele>336.60000610352</ele>
        <time>2011-06-11T04:52:12.000Z</time>
      </trkpt>
      <trkpt lat="45.73053" lon="3.20736">
        <ele>337.20001220703</ele>
        <time>2011-06-11T04:52:18.000Z</time>
      </trkpt>
      <trkpt lat="45.73045" lon="3.20719">
        <ele>337.20001220703</ele>
        <time>2011-06-11T04:52:22.000Z</time>
      </trkpt>
      <trkpt lat="45.73033" lon="3.20701">
        <ele>337.60000610352</ele>
        <time>2011-06-11T04:52:27.000Z</time>
      </trkpt>
      <trkpt lat="45.73016" lon="3.20684">
        <ele>338.60000610352</ele>
        <time>2011-06-11T04:52:34.000Z</time>
      </trkpt>
      <trkpt lat="45.7301" lon="3.20681">
        <ele>338.79998779297</ele>
        <time>2011-06-11T04:52:37.000Z</time>
      </trkpt>
      <trkpt lat="45.73009" lon="3.20668">
        <ele>339.79998779297</ele>
        <time>2011-06-11T04:52:43.000Z</time>
      </trkpt>
      <trkpt lat="45.7301" lon="3.20661">
        <ele>340</ele>
        <time>2011-06-11T04:52:48.000Z</time>
      </trkpt>
      <trkpt lat="45.7301" lon="3.20658">
        <ele>339.79998779297</ele>
        <time>2011-06-11T04:52:54.000Z</time>
      </trkpt>
      <trkpt lat="45.73011" lon="3.20655">
        <ele>340.39999389648</ele>
        <time>2011-06-11T04:53:00.000Z</time>
      </trkpt>
      <trkpt lat="45.73015" lon="3.20652">
        <ele>347.20001220703</ele>
        <time>2011-06-11T05:03:52.000Z</time>
      </trkpt>
      <trkpt lat="45.73015" lon="3.20645">
        <ele>347.79998779297</ele>
        <time>2011-06-11T05:04:57.000Z</time>
      </trkpt>
      <trkpt lat="45.73018" lon="3.20638">
        <ele>348.39999389648</ele>
        <time>2011-06-11T05:05:05.000Z</time>
      </trkpt>
      <trkpt lat="45.7302" lon="3.20633">
        <ele>348.20001220703</ele>
        <time>2011-06-11T05:05:13.000Z</time>
      </trkpt>
      <trkpt lat="45.73022" lon="3.20628">
        <ele>348.79998779297</ele>
        <time>2011-06-11T05:05:19.000Z</time>
      </trkpt>
      <trkpt lat="45.73022" lon="3.20623">
        <ele>348.60000610352</ele>
        <time>2011-06-11T05:05:24.000Z</time>
      </trkpt>
      <trkpt lat="45.7302" lon="3.20618">
        <ele>349</ele>
        <time>2011-06-11T05:06:44.000Z</time>
      </trkpt>
      <trkpt lat="45.7302" lon="3.20617">
        <ele>349</ele>
        <time>2011-06-11T05:06:46.000Z</time>
      </trkpt>
      <trkpt lat="45.73015" lon="3.20613">
        <ele>349.79998779297</ele>
        <time>2011-06-11T05:07:15.000Z</time>
      </trkpt>
      <trkpt lat="45.73018" lon="3.20618">
        <ele>349.60000610352</ele>
        <time>2011-06-11T05:07:44.000Z</time>
      </trkpt>
      <trkpt lat="45.73013" lon="3.20606">
        <ele>350</ele>
        <time>2011-06-11T05:08:40.000Z</time>
      </trkpt>
      <trkpt lat="45.73006" lon="3.20596">
        <ele>350.39999389648</ele>
        <time>2011-06-11T05:08:44.000Z</time>
      </trkpt>
      <trkpt lat="45.72987" lon="3.20581">
        <ele>350.60000610352</ele>
        <time>2011-06-11T05:08:52.000Z</time>
      </trkpt>
      <trkpt lat="45.72976" lon="3.20563">
        <ele>351</ele>
        <time>2011-06-11T05:08:58.000Z</time>
      </trkpt>
      <trkpt lat="45.7296" lon="3.2053">
        <ele>351.20001220703</ele>
        <time>2011-06-11T05:09:06.000Z</time>
      </trkpt>
      <trkpt lat="45.72935" lon="3.20497">
        <ele>351.60000610352</ele>
        <time>2011-06-11T05:09:14.000Z</time>
      </trkpt>
      <trkpt lat="45.72904" lon="3.2045">
        <ele>351.60000610352</ele>
        <time>2011-06-11T05:09:24.000Z</time>
      </trkpt>
      <trkpt lat="45.72879" lon="3.20412">
        <ele>352.20001220703</ele>
        <time>2011-06-11T05:09:32.000Z</time>
      </trkpt>
      <trkpt lat="45.72847" lon="3.20373">
        <ele>352.60000610352</ele>
        <time>2011-06-11T05:09:41.000Z</time>
      </trkpt>
      <trkpt lat="45.72815" lon="3.20329">
        <ele>352.79998779297</ele>
        <time>2011-06-11T05:09:51.000Z</time>
      </trkpt>
      <trkpt lat="45.72789" lon="3.20292">
        <ele>353.60000610352</ele>
        <time>2011-06-11T05:10:00.000Z</time>
      </trkpt>
      <trkpt lat="45.72762" lon="3.20253">
        <ele>354.20001220703</ele>
        <time>2011-06-11T05:10:10.000Z</time>
      </trkpt>
      <trkpt lat="45.72733" lon="3.2021">
        <ele>355.20001220703</ele>
        <time>2011-06-11T05:10:20.000Z</time>
      </trkpt>
      <trkpt lat="45.7273" lon="3.20205">
        <ele>355.20001220703</ele>
        <time>2011-06-11T05:10:21.000Z</time>
      </trkpt>
      <trkpt lat="45.72685" lon="3.20149">
        <ele>356.20001220703</ele>
        <time>2011-06-11T05:10:35.000Z</time>
      </trkpt>
      <trkpt lat="45.72645" lon="3.20099">
        <ele>357</ele>
        <time>2011-06-11T05:10:47.000Z</time>
      </trkpt>
      <trkpt lat="45.7262" lon="3.20075">
        <ele>357</ele>
        <time>2011-06-11T05:10:54.000Z</time>
      </trkpt>
      <trkpt lat="45.72585" lon="3.2005">
        <ele>357.39999389648</ele>
        <time>2011-06-11T05:11:03.000Z</time>
      </trkpt>
      <trkpt lat="45.72576" lon="3.20043">
        <ele>357</ele>
        <time>2011-06-11T05:11:06.000Z</time>
      </trkpt>
      <trkpt lat="45.72577" lon="3.20024">
        <ele>357.20001220703</ele>
        <time>2011-06-11T05:11:10.000Z</time>
      </trkpt>
      <trkpt lat="45.72579" lon="3.19994">
        <ele>358.60000610352</ele>
        <time>2011-06-11T05:11:16.000Z</time>
      </trkpt>
      <trkpt lat="45.72571" lon="3.19967">
        <ele>359.20001220703</ele>
        <time>2011-06-11T05:11:21.000Z</time>
      </trkpt>
      <trkpt lat="45.72566" lon="3.19952">
        <ele>359.39999389648</ele>
        <time>2011-06-11T05:11:24.000Z</time>
      </trkpt>
      <trkpt lat="45.72565" lon="3.1994">
        <ele>359.39999389648</ele>
        <time>2011-06-11T05:11:26.000Z</time>
      </trkpt>
      <trkpt lat="45.72553" lon="3.19894">
        <ele>359.79998779297</ele>
        <time>2011-06-11T05:11:33.000Z</time>
      </trkpt>
      <trkpt lat="45.72542" lon="3.19848">
        <ele>359.20001220703</ele>
        <time>2011-06-11T05:11:39.000Z</time>
      </trkpt>
      <trkpt lat="45.72537" lon="3.19789">
        <ele>358</ele>
        <time>2011-06-11T05:11:46.000Z</time>
      </trkpt>
      <trkpt lat="45.72536" lon="3.19716">
        <ele>357.60000610352</ele>
        <time>2011-06-11T05:11:55.000Z</time>
      </trkpt>
      <trkpt lat="45.72537" lon="3.19649">
        <ele>357</ele>
        <time>2011-06-11T05:12:03.000Z</time>
      </trkpt>
      <trkpt lat="45.72538" lon="3.19576">
        <ele>356.79998779297</ele>
        <time>2011-06-11T05:12:12.000Z</time>
      </trkpt>
      <trkpt lat="45.72532" lon="3.19511">
        <ele>356</ele>
        <time>2011-06-11T05:12:20.000Z</time>
      </trkpt>
      <trkpt lat="45.72519" lon="3.19437">
        <ele>355.60000610352</ele>
        <time>2011-06-11T05:12:29.000Z</time>
      </trkpt>
      <trkpt lat="45.72504" lon="3.19369">
        <ele>354.60000610352</ele>
        <time>2011-06-11T05:12:37.000Z</time>
      </trkpt>
      <trkpt lat="45.72499" lon="3.19352">
        <ele>354.39999389648</ele>
        <time>2011-06-11T05:12:39.000Z</time>
      </trkpt>
      <trkpt lat="45.72473" lon="3.19275">
        <ele>352.20001220703</ele>
        <time>2011-06-11T05:12:48.000Z</time>
      </trkpt>
      <trkpt lat="45.72459" lon="3.19234">
        <ele>351.39999389648</ele>
        <time>2011-06-11T05:12:54.000Z</time>
      </trkpt>
      <trkpt lat="45.72454" lon="3.1922">
        <ele>350.60000610352</ele>
        <time>2011-06-11T05:12:59.000Z</time>
      </trkpt>
      <trkpt lat="45.72454" lon="3.19218">
        <ele>350.39999389648</ele>
        <time>2011-06-11T05:13:01.000Z</time>
      </trkpt>
      <trkpt lat="45.72451" lon="3.19212">
        <ele>349.79998779297</ele>
        <time>2011-06-11T05:13:29.000Z</time>
      </trkpt>
      <trkpt lat="45.72442" lon="3.19198">
        <ele>349.39999389648</ele>
        <time>2011-06-11T05:13:33.000Z</time>
      </trkpt>
      <trkpt lat="45.7242" lon="3.19189">
        <ele>348.39999389648</ele>
        <time>2011-06-11T05:13:38.000Z</time>
      </trkpt>
      <trkpt lat="45.72382" lon="3.19176">
        <ele>347.60000610352</ele>
        <time>2011-06-11T05:13:45.000Z</time>
      </trkpt>
      <trkpt lat="45.72335" lon="3.19152">
        <ele>346.20001220703</ele>
        <time>2011-06-11T05:13:53.000Z</time>
      </trkpt>
      <trkpt lat="45.723" lon="3.19131">
        <ele>345.39999389648</ele>
        <time>2011-06-11T05:14:00.000Z</time>
      </trkpt>
      <trkpt lat="45.72285" lon="3.1911">
        <ele>345.60000610352</ele>
        <time>2011-06-11T05:14:04.000Z</time>
      </trkpt>
      <trkpt lat="45.72283" lon="3.19087">
        <ele>345.20001220703</ele>
        <time>2011-06-11T05:14:07.000Z</time>
      </trkpt>
      <trkpt lat="45.72284" lon="3.1908">
        <ele>345.20001220703</ele>
        <time>2011-06-11T05:14:08.000Z</time>
      </trkpt>
      <trkpt lat="45.72301" lon="3.19026">
        <ele>346.60000610352</ele>
        <time>2011-06-11T05:14:16.000Z</time>
      </trkpt>
      <trkpt lat="45.72318" lon="3.18974">
        <ele>347.60000610352</ele>
        <time>2011-06-11T05:14:24.000Z</time>
      </trkpt>
      <trkpt lat="45.72331" lon="3.18936">
        <ele>349</ele>
        <time>2011-06-11T05:14:30.000Z</time>
      </trkpt>
      <trkpt lat="45.7235" lon="3.18881">
        <ele>350</ele>
        <time>2011-06-11T05:14:40.000Z</time>
      </trkpt>
      <trkpt lat="45.7235" lon="3.18875">
        <ele>350.20001220703</ele>
        <time>2011-06-11T05:14:41.000Z</time>
      </trkpt>
      <trkpt lat="45.72339" lon="3.18856">
        <ele>350.39999389648</ele>
        <time>2011-06-11T05:14:45.000Z</time>
      </trkpt>
      <trkpt lat="45.72334" lon="3.18853">
        <ele>350.39999389648</ele>
        <time>2011-06-11T05:14:46.000Z</time>
      </trkpt>
      <trkpt lat="45.72297" lon="3.18835">
        <ele>349.60000610352</ele>
        <time>2011-06-11T05:14:53.000Z</time>
      </trkpt>
      <trkpt lat="45.72285" lon="3.1883">
        <ele>349.20001220703</ele>
        <time>2011-06-11T05:14:55.000Z</time>
      </trkpt>
      <trkpt lat="45.72254" lon="3.18803">
        <ele>348.39999389648</ele>
        <time>2011-06-11T05:15:01.000Z</time>
      </trkpt>
      <trkpt lat="45.72209" lon="3.18755">
        <ele>348</ele>
        <time>2011-06-11T05:15:11.000Z</time>
      </trkpt>
      <trkpt lat="45.72179" lon="3.18726">
        <ele>347.39999389648</ele>
        <time>2011-06-11T05:15:18.000Z</time>
      </trkpt>
      <trkpt lat="45.7216" lon="3.18708">
        <ele>347.60000610352</ele>
        <time>2011-06-11T05:15:24.000Z</time>
      </trkpt>
      <trkpt lat="45.72149" lon="3.18696">
        <ele>347.39999389648</ele>
        <time>2011-06-11T05:15:28.000Z</time>
      </trkpt>
      <trkpt lat="45.72127" lon="3.18695">
        <ele>347.60000610352</ele>
        <time>2011-06-11T05:15:33.000Z</time>
      </trkpt>
      <trkpt lat="45.7211" lon="3.18713">
        <ele>347.20001220703</ele>
        <time>2011-06-11T05:15:37.000Z</time>
      </trkpt>
      <trkpt lat="45.72082" lon="3.18761">
        <ele>346.79998779297</ele>
        <time>2011-06-11T05:15:45.000Z</time>
      </trkpt>
      <trkpt lat="45.72058" lon="3.18777">
        <ele>347</ele>
        <time>2011-06-11T05:15:50.000Z</time>
      </trkpt>
      <trkpt lat="45.72034" lon="3.18772">
        <ele>347</ele>
        <time>2011-06-11T05:15:55.000Z</time>
      </trkpt>
      <trkpt lat="45.72028" lon="3.18759">
        <ele>346.79998779297</ele>
        <time>2011-06-11T05:15:57.000Z</time>
      </trkpt>
      <trkpt lat="45.72008" lon="3.18686">
        <ele>346.60000610352</ele>
        <time>2011-06-11T05:16:07.000Z</time>
      </trkpt>
      <trkpt lat="45.71986" lon="3.18637">
        <ele>347.20001220703</ele>
        <time>2011-06-11T05:16:15.000Z</time>
      </trkpt>
      <trkpt lat="45.71962" lon="3.18599">
        <ele>347.39999389648</ele>
        <time>2011-06-11T05:16:22.000Z</time>
      </trkpt>
      <trkpt lat="45.71926" lon="3.18548">
        <ele>347.79998779297</ele>
        <time>2011-06-11T05:16:32.000Z</time>
      </trkpt>
      <trkpt lat="45.71893" lon="3.18494">
        <ele>348.79998779297</ele>
        <time>2011-06-11T05:16:42.000Z</time>
      </trkpt>
      <trkpt lat="45.71871" lon="3.18461">
        <ele>349.20001220703</ele>
        <time>2011-06-11T05:16:49.000Z</time>
      </trkpt>
      <trkpt lat="45.71861" lon="3.18451">
        <ele>349.79998779297</ele>
        <time>2011-06-11T05:16:54.000Z</time>
      </trkpt>
      <trkpt lat="45.7186" lon="3.1845">
        <ele>350</ele>
        <time>2011-06-11T05:16:57.000Z</time>
      </trkpt>
      <trkpt lat="45.71856" lon="3.18447">
        <ele>349.79998779297</ele>
        <time>2011-06-11T05:17:19.000Z</time>
      </trkpt>
      <trkpt lat="45.71838" lon="3.18439">
        <ele>350</ele>
        <time>2011-06-11T05:17:25.000Z</time>
      </trkpt>
      <trkpt lat="45.71811" lon="3.18432">
        <ele>350</ele>
        <time>2011-06-11T05:17:31.000Z</time>
      </trkpt>
      <trkpt lat="45.71765" lon="3.18423">
        <ele>350.39999389648</ele>
        <time>2011-06-11T05:17:40.000Z</time>
      </trkpt>
      <trkpt lat="45.71705" lon="3.18411">
        <ele>350.79998779297</ele>
        <time>2011-06-11T05:17:52.000Z</time>
      </trkpt>
      <trkpt lat="45.71664" lon="3.18397">
        <ele>351.39999389648</ele>
        <time>2011-06-11T05:18:00.000Z</time>
      </trkpt>
      <trkpt lat="45.71614" lon="3.18374">
        <ele>351.60000610352</ele>
        <time>2011-06-11T05:18:10.000Z</time>
      </trkpt>
      <trkpt lat="45.71559" lon="3.18348">
        <ele>352.39999389648</ele>
        <time>2011-06-11T05:18:21.000Z</time>
      </trkpt>
      <trkpt lat="45.71512" lon="3.18312">
        <ele>352.39999389648</ele>
        <time>2011-06-11T05:18:31.000Z</time>
      </trkpt>
      <trkpt lat="45.71453" lon="3.18267">
        <ele>353.20001220703</ele>
        <time>2011-06-11T05:18:43.000Z</time>
      </trkpt>
      <trkpt lat="45.71398" lon="3.18226">
        <ele>354.20001220703</ele>
        <time>2011-06-11T05:18:54.000Z</time>
      </trkpt>
      <trkpt lat="45.71351" lon="3.18195">
        <ele>354.79998779297</ele>
        <time>2011-06-11T05:19:03.000Z</time>
      </trkpt>
      <trkpt lat="45.71301" lon="3.18159">
        <ele>355</ele>
        <time>2011-06-11T05:19:13.000Z</time>
      </trkpt>
      <trkpt lat="45.71241" lon="3.18107">
        <ele>355.79998779297</ele>
        <time>2011-06-11T05:19:26.000Z</time>
      </trkpt>
      <trkpt lat="45.71195" lon="3.18068">
        <ele>356.39999389648</ele>
        <time>2011-06-11T05:19:36.000Z</time>
      </trkpt>
      <trkpt lat="45.71172" lon="3.1804">
        <ele>357.20001220703</ele>
        <time>2011-06-11T05:19:42.000Z</time>
      </trkpt>
      <trkpt lat="45.71161" lon="3.18009">
        <ele>357.79998779297</ele>
        <time>2011-06-11T05:19:47.000Z</time>
      </trkpt>
      <trkpt lat="45.71145" lon="3.1798">
        <ele>358.60000610352</ele>
        <time>2011-06-11T05:19:52.000Z</time>
      </trkpt>
      <trkpt lat="45.71124" lon="3.17975">
        <ele>359.39999389648</ele>
        <time>2011-06-11T05:19:56.000Z</time>
      </trkpt>
      <trkpt lat="45.71109" lon="3.17985">
        <ele>359.60000610352</ele>
        <time>2011-06-11T05:19:59.000Z</time>
      </trkpt>
      <trkpt lat="45.71095" lon="3.17999">
        <ele>359.60000610352</ele>
        <time>2011-06-11T05:20:02.000Z</time>
      </trkpt>
      <trkpt lat="45.71065" lon="3.18003">
        <ele>359.20001220703</ele>
        <time>2011-06-11T05:20:07.000Z</time>
      </trkpt>
      <trkpt lat="45.71033" lon="3.17991">
        <ele>359.20001220703</ele>
        <time>2011-06-11T05:20:12.000Z</time>
      </trkpt>
      <trkpt lat="45.71008" lon="3.17966">
        <ele>358.39999389648</ele>
        <time>2011-06-11T05:20:17.000Z</time>
      </trkpt>
      <trkpt lat="45.70974" lon="3.17916">
        <ele>358.60000610352</ele>
        <time>2011-06-11T05:20:25.000Z</time>
      </trkpt>
      <trkpt lat="45.70941" lon="3.17868">
        <ele>359.20001220703</ele>
        <time>2011-06-11T05:20:33.000Z</time>
      </trkpt>
      <trkpt lat="45.70893" lon="3.17798">
        <ele>360</ele>
        <time>2011-06-11T05:20:45.000Z</time>
      </trkpt>
      <trkpt lat="45.70851" lon="3.17731">
        <ele>360.79998779297</ele>
        <time>2011-06-11T05:20:56.000Z</time>
      </trkpt>
      <trkpt lat="45.70808" lon="3.1766">
        <ele>361.39999389648</ele>
        <time>2011-06-11T05:21:07.000Z</time>
      </trkpt>
      <trkpt lat="45.70766" lon="3.17591">
        <ele>362</ele>
        <time>2011-06-11T05:21:18.000Z</time>
      </trkpt>
      <trkpt lat="45.70744" lon="3.17544">
        <ele>362.20001220703</ele>
        <time>2011-06-11T05:21:25.000Z</time>
      </trkpt>
      <trkpt lat="45.70731" lon="3.17491">
        <ele>362.20001220703</ele>
        <time>2011-06-11T05:21:32.000Z</time>
      </trkpt>
      <trkpt lat="45.70711" lon="3.17415">
        <ele>362.79998779297</ele>
        <time>2011-06-11T05:21:42.000Z</time>
      </trkpt>
      <trkpt lat="45.7069" lon="3.17378">
        <ele>363</ele>
        <time>2011-06-11T05:21:48.000Z</time>
      </trkpt>
      <trkpt lat="45.70647" lon="3.17326">
        <ele>363.20001220703</ele>
        <time>2011-06-11T05:21:58.000Z</time>
      </trkpt>
      <trkpt lat="45.70621" lon="3.1731">
        <ele>363.39999389648</ele>
        <time>2011-06-11T05:22:03.000Z</time>
      </trkpt>
      <trkpt lat="45.70582" lon="3.173">
        <ele>364</ele>
        <time>2011-06-11T05:22:10.000Z</time>
      </trkpt>
      <trkpt lat="45.70526" lon="3.1728">
        <ele>364</ele>
        <time>2011-06-11T05:22:20.000Z</time>
      </trkpt>
      <trkpt lat="45.70476" lon="3.17261">
        <ele>364.60000610352</ele>
        <time>2011-06-11T05:22:29.000Z</time>
      </trkpt>
      <trkpt lat="45.70453" lon="3.17259">
        <ele>364.60000610352</ele>
        <time>2011-06-11T05:22:33.000Z</time>
      </trkpt>
      <trkpt lat="45.70431" lon="3.17247">
        <ele>365</ele>
        <time>2011-06-11T05:22:38.000Z</time>
      </trkpt>
      <trkpt lat="45.70423" lon="3.17253">
        <ele>365.20001220703</ele>
        <time>2011-06-11T05:22:40.000Z</time>
      </trkpt>
      <trkpt lat="45.70399" lon="3.17277">
        <ele>366</ele>
        <time>2011-06-11T05:22:45.000Z</time>
      </trkpt>
      <trkpt lat="45.70331" lon="3.17295">
        <ele>366.39999389648</ele>
        <time>2011-06-11T05:22:57.000Z</time>
      </trkpt>
      <trkpt lat="45.70281" lon="3.17303">
        <ele>366.60000610352</ele>
        <time>2011-06-11T05:23:06.000Z</time>
      </trkpt>
      <trkpt lat="45.70224" lon="3.17313">
        <ele>366.79998779297</ele>
        <time>2011-06-11T05:23:16.000Z</time>
      </trkpt>
      <trkpt lat="45.70189" lon="3.17305">
        <ele>366.60000610352</ele>
        <time>2011-06-11T05:23:22.000Z</time>
      </trkpt>
      <trkpt lat="45.70141" lon="3.17277">
        <ele>366.79998779297</ele>
        <time>2011-06-11T05:23:31.000Z</time>
      </trkpt>
      <trkpt lat="45.70071" lon="3.17234">
        <ele>367.39999389648</ele>
        <time>2011-06-11T05:23:44.000Z</time>
      </trkpt>
      <trkpt lat="45.70028" lon="3.17208">
        <ele>367.79998779297</ele>
        <time>2011-06-11T05:23:52.000Z</time>
      </trkpt>
      <trkpt lat="45.69975" lon="3.17174">
        <ele>368</ele>
        <time>2011-06-11T05:24:02.000Z</time>
      </trkpt>
      <trkpt lat="45.69913" lon="3.17131">
        <ele>368.60000610352</ele>
        <time>2011-06-11T05:24:14.000Z</time>
      </trkpt>
      <trkpt lat="45.69882" lon="3.17092">
        <ele>368.79998779297</ele>
        <time>2011-06-11T05:24:21.000Z</time>
      </trkpt>
      <trkpt lat="45.69842" lon="3.17019">
        <ele>368.79998779297</ele>
        <time>2011-06-11T05:24:32.000Z</time>
      </trkpt>
      <trkpt lat="45.69798" lon="3.16936">
        <ele>368.60000610352</ele>
        <time>2011-06-11T05:24:44.000Z</time>
      </trkpt>
      <trkpt lat="45.69768" lon="3.1687">
        <ele>368.20001220703</ele>
        <time>2011-06-11T05:24:53.000Z</time>
      </trkpt>
      <trkpt lat="45.6974" lon="3.16796">
        <ele>369.79998779297</ele>
        <time>2011-06-11T05:25:03.000Z</time>
      </trkpt>
      <trkpt lat="45.69715" lon="3.16753">
        <ele>370</ele>
        <time>2011-06-11T05:25:10.000Z</time>
      </trkpt>
      <trkpt lat="45.6968" lon="3.167">
        <ele>370.60000610352</ele>
        <time>2011-06-11T05:25:19.000Z</time>
      </trkpt>
      <trkpt lat="45.6964" lon="3.16647">
        <ele>372.20001220703</ele>
        <time>2011-06-11T05:25:29.000Z</time>
      </trkpt>
      <trkpt lat="45.69601" lon="3.16611">
        <ele>372.39999389648</ele>
        <time>2011-06-11T05:25:38.000Z</time>
      </trkpt>
      <trkpt lat="45.69569" lon="3.16576">
        <ele>374.39999389648</ele>
        <time>2011-06-11T05:25:46.000Z</time>
      </trkpt>
      <trkpt lat="45.69553" lon="3.1654">
        <ele>376.20001220703</ele>
        <time>2011-06-11T05:25:52.000Z</time>
      </trkpt>
      <trkpt lat="45.6955" lon="3.16512">
        <ele>376.79998779297</ele>
        <time>2011-06-11T05:25:56.000Z</time>
      </trkpt>
      <trkpt lat="45.69544" lon="3.16481">
        <ele>377</ele>
        <time>2011-06-11T05:26:00.000Z</time>
      </trkpt>
      <trkpt lat="45.6953" lon="3.16468">
        <ele>376.60000610352</ele>
        <time>2011-06-11T05:26:03.000Z</time>
      </trkpt>
      <trkpt lat="45.69525" lon="3.16466">
        <ele>376.60000610352</ele>
        <time>2011-06-11T05:26:04.000Z</time>
      </trkpt>
      <trkpt lat="45.69514" lon="3.16464">
        <ele>376.79998779297</ele>
        <time>2011-06-11T05:26:06.000Z</time>
      </trkpt>
      <trkpt lat="45.69497" lon="3.16451">
        <ele>377.39999389648</ele>
        <time>2011-06-11T05:26:10.000Z</time>
      </trkpt>
      <trkpt lat="45.69458" lon="3.1639">
        <ele>377.79998779297</ele>
        <time>2011-06-11T05:26:20.000Z</time>
      </trkpt>
      <trkpt lat="45.69423" lon="3.16328">
        <ele>377.60000610352</ele>
        <time>2011-06-11T05:26:30.000Z</time>
      </trkpt>
      <trkpt lat="45.69403" lon="3.16276">
        <ele>378.20001220703</ele>
        <time>2011-06-11T05:26:37.000Z</time>
      </trkpt>
      <trkpt lat="45.69392" lon="3.16217">
        <ele>377.79998779297</ele>
        <time>2011-06-11T05:26:44.000Z</time>
      </trkpt>
      <trkpt lat="45.69377" lon="3.16114">
        <ele>378</ele>
        <time>2011-06-11T05:26:56.000Z</time>
      </trkpt>
      <trkpt lat="45.69353" lon="3.16016">
        <ele>378.20001220703</ele>
        <time>2011-06-11T05:27:08.000Z</time>
      </trkpt>
      <trkpt lat="45.69328" lon="3.15937">
        <ele>378.20001220703</ele>
        <time>2011-06-11T05:27:18.000Z</time>
      </trkpt>
      <trkpt lat="45.693" lon="3.1586">
        <ele>378.20001220703</ele>
        <time>2011-06-11T05:27:28.000Z</time>
      </trkpt>
      <trkpt lat="45.69289" lon="3.15804">
        <ele>378.79998779297</ele>
        <time>2011-06-11T05:27:35.000Z</time>
      </trkpt>
      <trkpt lat="45.69273" lon="3.15743">
        <ele>378.79998779297</ele>
        <time>2011-06-11T05:27:43.000Z</time>
      </trkpt>
      <trkpt lat="45.69247" lon="3.1569">
        <ele>380</ele>
        <time>2011-06-11T05:27:51.000Z</time>
      </trkpt>
      <trkpt lat="45.69215" lon="3.1565">
        <ele>381</ele>
        <time>2011-06-11T05:27:59.000Z</time>
      </trkpt>
      <trkpt lat="45.69186" lon="3.15624">
        <ele>383</ele>
        <time>2011-06-11T05:28:06.000Z</time>
      </trkpt>
      <trkpt lat="45.69143" lon="3.15579">
        <ele>385.60000610352</ele>
        <time>2011-06-11T05:28:17.000Z</time>
      </trkpt>
      <trkpt lat="45.6912" lon="3.15546">
        <ele>387.39999389648</ele>
        <time>2011-06-11T05:28:24.000Z</time>
      </trkpt>
      <trkpt lat="45.69112" lon="3.15536">
        <ele>388</ele>
        <time>2011-06-11T05:28:26.000Z</time>
      </trkpt>
      <trkpt lat="45.69086" lon="3.15486">
        <ele>389.79998779297</ele>
        <time>2011-06-11T05:28:33.000Z</time>
      </trkpt>
      <trkpt lat="45.69062" lon="3.15424">
        <ele>392.20001220703</ele>
        <time>2011-06-11T05:28:41.000Z</time>
      </trkpt>
      <trkpt lat="45.69045" lon="3.15354">
        <ele>393.79998779297</ele>
        <time>2011-06-11T05:28:49.000Z</time>
      </trkpt>
      <trkpt lat="45.69027" lon="3.15283">
        <ele>394.79998779297</ele>
        <time>2011-06-11T05:28:57.000Z</time>
      </trkpt>
      <trkpt lat="45.69003" lon="3.15214">
        <ele>397.20001220703</ele>
        <time>2011-06-11T05:29:06.000Z</time>
      </trkpt>
      <trkpt lat="45.69" lon="3.15205">
        <ele>398</ele>
        <time>2011-06-11T05:29:08.000Z</time>
      </trkpt>
      <trkpt lat="45.69" lon="3.15202">
        <ele>399.20001220703</ele>
        <time>2011-06-11T05:29:13.000Z</time>
      </trkpt>
      <trkpt lat="45.68995" lon="3.15201">
        <ele>399.39999389648</ele>
        <time>2011-06-11T05:29:56.000Z</time>
      </trkpt>
      <trkpt lat="45.68983" lon="3.15178">
        <ele>400</ele>
        <time>2011-06-11T05:30:02.000Z</time>
      </trkpt>
      <trkpt lat="45.68956" lon="3.1514">
        <ele>402.20001220703</ele>
        <time>2011-06-11T05:30:10.000Z</time>
      </trkpt>
      <trkpt lat="45.68922" lon="3.15092">
        <ele>405.20001220703</ele>
        <time>2011-06-11T05:30:20.000Z</time>
      </trkpt>
      <trkpt lat="45.68888" lon="3.15044">
        <ele>407.60000610352</ele>
        <time>2011-06-11T05:30:30.000Z</time>
      </trkpt>
      <trkpt lat="45.6885" lon="3.14984">
        <ele>410.60000610352</ele>
        <time>2011-06-11T05:30:42.000Z</time>
      </trkpt>
      <trkpt lat="45.68824" lon="3.14936">
        <ele>413</ele>
        <time>2011-06-11T05:30:51.000Z</time>
      </trkpt>
      <trkpt lat="45.68802" lon="3.14886">
        <ele>415.20001220703</ele>
        <time>2011-06-11T05:31:00.000Z</time>
      </trkpt>
      <trkpt lat="45.68792" lon="3.14841">
        <ele>417.39999389648</ele>
        <time>2011-06-11T05:31:07.000Z</time>
      </trkpt>
      <trkpt lat="45.68791" lon="3.14792">
        <ele>420</ele>
        <time>2011-06-11T05:31:15.000Z</time>
      </trkpt>
      <trkpt lat="45.68792" lon="3.14786">
        <ele>420.39999389648</ele>
        <time>2011-06-11T05:31:16.000Z</time>
      </trkpt>
      <trkpt lat="45.68794" lon="3.14692">
        <ele>424.39999389648</ele>
        <time>2011-06-11T05:31:31.000Z</time>
      </trkpt>
      <trkpt lat="45.68789" lon="3.14641">
        <ele>426.79998779297</ele>
        <time>2011-06-11T05:31:39.000Z</time>
      </trkpt>
      <trkpt lat="45.68774" lon="3.14598">
        <ele>429</ele>
        <time>2011-06-11T05:31:46.000Z</time>
      </trkpt>
      <trkpt lat="45.68746" lon="3.14558">
        <ele>431</ele>
        <time>2011-06-11T05:31:54.000Z</time>
      </trkpt>
      <trkpt lat="45.68704" lon="3.14518">
        <ele>433.39999389648</ele>
        <time>2011-06-11T05:32:04.000Z</time>
      </trkpt>
      <trkpt lat="45.68666" lon="3.14485">
        <ele>435.79998779297</ele>
        <time>2011-06-11T05:32:13.000Z</time>
      </trkpt>
      <trkpt lat="45.68621" lon="3.14445">
        <ele>438.39999389648</ele>
        <time>2011-06-11T05:32:24.000Z</time>
      </trkpt>
      <trkpt lat="45.68576" lon="3.14407">
        <ele>441.39999389648</ele>
        <time>2011-06-11T05:32:35.000Z</time>
      </trkpt>
      <trkpt lat="45.6854" lon="3.14363">
        <ele>443.60000610352</ele>
        <time>2011-06-11T05:32:45.000Z</time>
      </trkpt>
      <trkpt lat="45.68521" lon="3.14328">
        <ele>444.79998779297</ele>
        <time>2011-06-11T05:32:51.000Z</time>
      </trkpt>
      <trkpt lat="45.68516" lon="3.14293">
        <ele>446</ele>
        <time>2011-06-11T05:32:56.000Z</time>
      </trkpt>
      <trkpt lat="45.68508" lon="3.14276">
        <ele>446.39999389648</ele>
        <time>2011-06-11T05:32:59.000Z</time>
      </trkpt>
      <trkpt lat="45.68495" lon="3.1427">
        <ele>447</ele>
        <time>2011-06-11T05:33:02.000Z</time>
      </trkpt>
      <trkpt lat="45.68472" lon="3.14276">
        <ele>447.79998779297</ele>
        <time>2011-06-11T05:33:06.000Z</time>
      </trkpt>
      <trkpt lat="45.68459" lon="3.14273">
        <ele>447.60000610352</ele>
        <time>2011-06-11T05:33:08.000Z</time>
      </trkpt>
      <trkpt lat="45.68385" lon="3.14239">
        <ele>445.39999389648</ele>
        <time>2011-06-11T05:33:19.000Z</time>
      </trkpt>
      <trkpt lat="45.68322" lon="3.14209">
        <ele>445</ele>
        <time>2011-06-11T05:33:29.000Z</time>
      </trkpt>
      <trkpt lat="45.68263" lon="3.14185">
        <ele>444.20001220703</ele>
        <time>2011-06-11T05:33:39.000Z</time>
      </trkpt>
      <trkpt lat="45.6821" lon="3.14171">
        <ele>444</ele>
        <time>2011-06-11T05:33:48.000Z</time>
      </trkpt>
      <trkpt lat="45.6815" lon="3.14156">
        <ele>444.20001220703</ele>
        <time>2011-06-11T05:33:58.000Z</time>
      </trkpt>
      <trkpt lat="45.68102" lon="3.14131">
        <ele>443</ele>
        <time>2011-06-11T05:34:06.000Z</time>
      </trkpt>
      <trkpt lat="45.68074" lon="3.14101">
        <ele>441.60000610352</ele>
        <time>2011-06-11T05:34:11.000Z</time>
      </trkpt>
      <trkpt lat="45.68049" lon="3.14059">
        <ele>440.39999389648</ele>
        <time>2011-06-11T05:34:16.000Z</time>
      </trkpt>
      <trkpt lat="45.68015" lon="3.13982">
        <ele>438.39999389648</ele>
        <time>2011-06-11T05:34:24.000Z</time>
      </trkpt>
      <trkpt lat="45.67989" lon="3.13924">
        <ele>438.20001220703</ele>
        <time>2011-06-11T05:34:31.000Z</time>
      </trkpt>
      <trkpt lat="45.67957" lon="3.13852">
        <ele>439.60000610352</ele>
        <time>2011-06-11T05:34:41.000Z</time>
      </trkpt>
      <trkpt lat="45.67928" lon="3.13789">
        <ele>441.79998779297</ele>
        <time>2011-06-11T05:34:51.000Z</time>
      </trkpt>
      <trkpt lat="45.67898" lon="3.13725">
        <ele>444</ele>
        <time>2011-06-11T05:35:02.000Z</time>
      </trkpt>
      <trkpt lat="45.67871" lon="3.13664">
        <ele>446.20001220703</ele>
        <time>2011-06-11T05:35:13.000Z</time>
      </trkpt>
      <trkpt lat="45.67849" lon="3.13613">
        <ele>447.60000610352</ele>
        <time>2011-06-11T05:35:22.000Z</time>
      </trkpt>
      <trkpt lat="45.67835" lon="3.13559">
        <ele>449.20001220703</ele>
        <time>2011-06-11T05:35:31.000Z</time>
      </trkpt>
      <trkpt lat="45.6783" lon="3.13501">
        <ele>450.79998779297</ele>
        <time>2011-06-11T05:35:40.000Z</time>
      </trkpt>
      <trkpt lat="45.67831" lon="3.13438">
        <ele>453.20001220703</ele>
        <time>2011-06-11T05:35:50.000Z</time>
      </trkpt>
      <trkpt lat="45.67832" lon="3.13349">
        <ele>454.79998779297</ele>
        <time>2011-06-11T05:36:04.000Z</time>
      </trkpt>
      <trkpt lat="45.67834" lon="3.13267">
        <ele>457.79998779297</ele>
        <time>2011-06-11T05:36:17.000Z</time>
      </trkpt>
      <trkpt lat="45.67835" lon="3.13225">
        <ele>459.39999389648</ele>
        <time>2011-06-11T05:36:24.000Z</time>
      </trkpt>
      <trkpt lat="45.67835" lon="3.1317">
        <ele>461.20001220703</ele>
        <time>2011-06-11T05:36:33.000Z</time>
      </trkpt>
      <trkpt lat="45.6783" lon="3.13121">
        <ele>463.20001220703</ele>
        <time>2011-06-11T05:36:42.000Z</time>
      </trkpt>
      <trkpt lat="45.6782" lon="3.13075">
        <ele>465</ele>
        <time>2011-06-11T05:36:51.000Z</time>
      </trkpt>
      <trkpt lat="45.67803" lon="3.1303">
        <ele>466.79998779297</ele>
        <time>2011-06-11T05:37:00.000Z</time>
      </trkpt>
      <trkpt lat="45.67782" lon="3.12978">
        <ele>469.20001220703</ele>
        <time>2011-06-11T05:37:10.000Z</time>
      </trkpt>
      <trkpt lat="45.6776" lon="3.12923">
        <ele>471.20001220703</ele>
        <time>2011-06-11T05:37:21.000Z</time>
      </trkpt>
      <trkpt lat="45.67739" lon="3.1287">
        <ele>473.39999389648</ele>
        <time>2011-06-11T05:37:32.000Z</time>
      </trkpt>
      <trkpt lat="45.6772" lon="3.12823">
        <ele>475.20001220703</ele>
        <time>2011-06-11T05:37:42.000Z</time>
      </trkpt>
      <trkpt lat="45.67699" lon="3.12773">
        <ele>477.39999389648</ele>
        <time>2011-06-11T05:37:52.000Z</time>
      </trkpt>
      <trkpt lat="45.67686" lon="3.12739">
        <ele>479.20001220703</ele>
        <time>2011-06-11T05:37:59.000Z</time>
      </trkpt>
      <trkpt lat="45.67668" lon="3.12694">
        <ele>481</ele>
        <time>2011-06-11T05:38:08.000Z</time>
      </trkpt>
      <trkpt lat="45.6765" lon="3.12636">
        <ele>482.79998779297</ele>
        <time>2011-06-11T05:38:19.000Z</time>
      </trkpt>
      <trkpt lat="45.67638" lon="3.12577">
        <ele>484.79998779297</ele>
        <time>2011-06-11T05:38:30.000Z</time>
      </trkpt>
      <trkpt lat="45.67634" lon="3.12533">
        <ele>486.20001220703</ele>
        <time>2011-06-11T05:38:38.000Z</time>
      </trkpt>
      <trkpt lat="45.67632" lon="3.12484">
        <ele>487.60000610352</ele>
        <time>2011-06-11T05:38:47.000Z</time>
      </trkpt>
      <trkpt lat="45.67634" lon="3.12434">
        <ele>490.20001220703</ele>
        <time>2011-06-11T05:38:56.000Z</time>
      </trkpt>
      <trkpt lat="45.67641" lon="3.12372">
        <ele>492</ele>
        <time>2011-06-11T05:39:07.000Z</time>
      </trkpt>
      <trkpt lat="45.67647" lon="3.12316">
        <ele>494.79998779297</ele>
        <time>2011-06-11T05:39:17.000Z</time>
      </trkpt>
      <trkpt lat="45.67654" lon="3.12243">
        <ele>497.20001220703</ele>
        <time>2011-06-11T05:39:30.000Z</time>
      </trkpt>
      <trkpt lat="45.6766" lon="3.12188">
        <ele>499.20001220703</ele>
        <time>2011-06-11T05:39:40.000Z</time>
      </trkpt>
      <trkpt lat="45.67665" lon="3.12142">
        <ele>501.39999389648</ele>
        <time>2011-06-11T05:39:48.000Z</time>
      </trkpt>
      <trkpt lat="45.67672" lon="3.12086">
        <ele>503</ele>
        <time>2011-06-11T05:39:58.000Z</time>
      </trkpt>
      <trkpt lat="45.67678" lon="3.12041">
        <ele>505</ele>
        <time>2011-06-11T05:40:06.000Z</time>
      </trkpt>
      <trkpt lat="45.67682" lon="3.12001">
        <ele>506.60000610352</ele>
        <time>2011-06-11T05:40:13.000Z</time>
      </trkpt>
      <trkpt lat="45.67688" lon="3.11929">
        <ele>509</ele>
        <time>2011-06-11T05:40:25.000Z</time>
      </trkpt>
      <trkpt lat="45.67693" lon="3.11878">
        <ele>511.20001220703</ele>
        <time>2011-06-11T05:40:34.000Z</time>
      </trkpt>
      <trkpt lat="45.67699" lon="3.11812">
        <ele>514</ele>
        <time>2011-06-11T05:40:46.000Z</time>
      </trkpt>
      <trkpt lat="45.67705" lon="3.11759">
        <ele>515.79998779297</ele>
        <time>2011-06-11T05:40:55.000Z</time>
      </trkpt>
      <trkpt lat="45.67711" lon="3.11704">
        <ele>517</ele>
        <time>2011-06-11T05:41:04.000Z</time>
      </trkpt>
      <trkpt lat="45.67717" lon="3.1164">
        <ele>517.79998779297</ele>
        <time>2011-06-11T05:41:14.000Z</time>
      </trkpt>
      <trkpt lat="45.67724" lon="3.11555">
        <ele>518.20001220703</ele>
        <time>2011-06-11T05:41:26.000Z</time>
      </trkpt>
      <trkpt lat="45.67725" lon="3.11481">
        <ele>519.20001220703</ele>
        <time>2011-06-11T05:41:36.000Z</time>
      </trkpt>
      <trkpt lat="45.67721" lon="3.11408">
        <ele>520.59997558594</ele>
        <time>2011-06-11T05:41:46.000Z</time>
      </trkpt>
      <trkpt lat="45.67711" lon="3.11321">
        <ele>520.79998779297</ele>
        <time>2011-06-11T05:41:58.000Z</time>
      </trkpt>
      <trkpt lat="45.67693" lon="3.11236">
        <ele>522.20001220703</ele>
        <time>2011-06-11T05:42:10.000Z</time>
      </trkpt>
      <trkpt lat="45.6767" lon="3.11159">
        <ele>522.79998779297</ele>
        <time>2011-06-11T05:42:21.000Z</time>
      </trkpt>
      <trkpt lat="45.67648" lon="3.11099">
        <ele>523.59997558594</ele>
        <time>2011-06-11T05:42:30.000Z</time>
      </trkpt>
      <trkpt lat="45.67617" lon="3.11032">
        <ele>524</ele>
        <time>2011-06-11T05:42:41.000Z</time>
      </trkpt>
      <trkpt lat="45.67588" lon="3.10982">
        <ele>525</ele>
        <time>2011-06-11T05:42:50.000Z</time>
      </trkpt>
      <trkpt lat="45.67548" lon="3.10918">
        <ele>525.79998779297</ele>
        <time>2011-06-11T05:43:02.000Z</time>
      </trkpt>
      <trkpt lat="45.67504" lon="3.10848">
        <ele>526.59997558594</ele>
        <time>2011-06-11T05:43:15.000Z</time>
      </trkpt>
      <trkpt lat="45.67473" lon="3.10799">
        <ele>527.40002441406</ele>
        <time>2011-06-11T05:43:24.000Z</time>
      </trkpt>
      <trkpt lat="45.67431" lon="3.10732">
        <ele>528</ele>
        <time>2011-06-11T05:43:36.000Z</time>
      </trkpt>
      <trkpt lat="45.67396" lon="3.10671">
        <ele>527.79998779297</ele>
        <time>2011-06-11T05:43:46.000Z</time>
      </trkpt>
      <trkpt lat="45.67377" lon="3.10618">
        <ele>527</ele>
        <time>2011-06-11T05:43:53.000Z</time>
      </trkpt>
      <trkpt lat="45.67368" lon="3.10562">
        <ele>526</ele>
        <time>2011-06-11T05:43:59.000Z</time>
      </trkpt>
      <trkpt lat="45.67368" lon="3.105">
        <ele>524.79998779297</ele>
        <time>2011-06-11T05:44:05.000Z</time>
      </trkpt>
      <trkpt lat="45.67375" lon="3.10416">
        <ele>523.20001220703</ele>
        <time>2011-06-11T05:44:13.000Z</time>
      </trkpt>
      <trkpt lat="45.67373" lon="3.10348">
        <ele>521.40002441406</ele>
        <time>2011-06-11T05:44:19.000Z</time>
      </trkpt>
      <trkpt lat="45.67361" lon="3.10282">
        <ele>519.79998779297</ele>
        <time>2011-06-11T05:44:25.000Z</time>
      </trkpt>
      <trkpt lat="45.67338" lon="3.10219">
        <ele>518.79998779297</ele>
        <time>2011-06-11T05:44:31.000Z</time>
      </trkpt>
      <trkpt lat="45.67311" lon="3.10158">
        <ele>516.79998779297</ele>
        <time>2011-06-11T05:44:37.000Z</time>
      </trkpt>
      <trkpt lat="45.67271" lon="3.10069">
        <ele>512.79998779297</ele>
        <time>2011-06-11T05:44:45.000Z</time>
      </trkpt>
      <trkpt lat="45.67228" lon="3.09973">
        <ele>509</ele>
        <time>2011-06-11T05:44:53.000Z</time>
      </trkpt>
      <trkpt lat="45.67194" lon="3.09921">
        <ele>506.79998779297</ele>
        <time>2011-06-11T05:44:58.000Z</time>
      </trkpt>
      <trkpt lat="45.67159" lon="3.09891">
        <ele>504.39999389648</ele>
        <time>2011-06-11T05:45:02.000Z</time>
      </trkpt>
      <trkpt lat="45.67119" lon="3.09871">
        <ele>502.39999389648</ele>
        <time>2011-06-11T05:45:06.000Z</time>
      </trkpt>
      <trkpt lat="45.67077" lon="3.09865">
        <ele>500.39999389648</ele>
        <time>2011-06-11T05:45:10.000Z</time>
      </trkpt>
      <trkpt lat="45.67048" lon="3.09863">
        <ele>499</ele>
        <time>2011-06-11T05:45:13.000Z</time>
      </trkpt>
      <trkpt lat="45.67004" lon="3.09851">
        <ele>498</ele>
        <time>2011-06-11T05:45:18.000Z</time>
      </trkpt>
      <trkpt lat="45.66968" lon="3.09828">
        <ele>498</ele>
        <time>2011-06-11T05:45:23.000Z</time>
      </trkpt>
      <trkpt lat="45.66936" lon="3.09792">
        <ele>498.79998779297</ele>
        <time>2011-06-11T05:45:29.000Z</time>
      </trkpt>
      <trkpt lat="45.6691" lon="3.09747">
        <ele>500.20001220703</ele>
        <time>2011-06-11T05:45:36.000Z</time>
      </trkpt>
      <trkpt lat="45.66891" lon="3.09689">
        <ele>501.60000610352</ele>
        <time>2011-06-11T05:45:44.000Z</time>
      </trkpt>
      <trkpt lat="45.66884" lon="3.09623">
        <ele>501.79998779297</ele>
        <time>2011-06-11T05:45:52.000Z</time>
      </trkpt>
      <trkpt lat="45.66886" lon="3.09561">
        <ele>501.39999389648</ele>
        <time>2011-06-11T05:45:59.000Z</time>
      </trkpt>
      <trkpt lat="45.66892" lon="3.09485">
        <ele>499.60000610352</ele>
        <time>2011-06-11T05:46:06.000Z</time>
      </trkpt>
      <trkpt lat="45.66892" lon="3.09421">
        <ele>498</ele>
        <time>2011-06-11T05:46:11.000Z</time>
      </trkpt>
      <trkpt lat="45.66875" lon="3.09361">
        <ele>496</ele>
        <time>2011-06-11T05:46:16.000Z</time>
      </trkpt>
      <trkpt lat="45.66852" lon="3.09326">
        <ele>495.20001220703</ele>
        <time>2011-06-11T05:46:20.000Z</time>
      </trkpt>
      <trkpt lat="45.66815" lon="3.09298">
        <ele>495.60000610352</ele>
        <time>2011-06-11T05:46:26.000Z</time>
      </trkpt>
      <trkpt lat="45.66763" lon="3.09274">
        <ele>495.79998779297</ele>
        <time>2011-06-11T05:46:35.000Z</time>
      </trkpt>
      <trkpt lat="45.66736" lon="3.09252">
        <ele>496.39999389648</ele>
        <time>2011-06-11T05:46:41.000Z</time>
      </trkpt>
      <trkpt lat="45.66715" lon="3.0922">
        <ele>498.39999389648</ele>
        <time>2011-06-11T05:46:48.000Z</time>
      </trkpt>
      <trkpt lat="45.667" lon="3.09179">
        <ele>500.79998779297</ele>
        <time>2011-06-11T05:46:55.000Z</time>
      </trkpt>
      <trkpt lat="45.66687" lon="3.09135">
        <ele>502.79998779297</ele>
        <time>2011-06-11T05:47:03.000Z</time>
      </trkpt>
      <trkpt lat="45.66676" lon="3.09094">
        <ele>504.79998779297</ele>
        <time>2011-06-11T05:47:11.000Z</time>
      </trkpt>
      <trkpt lat="45.66662" lon="3.09045">
        <ele>507.60000610352</ele>
        <time>2011-06-11T05:47:20.000Z</time>
      </trkpt>
      <trkpt lat="45.66649" lon="3.09">
        <ele>509.39999389648</ele>
        <time>2011-06-11T05:47:28.000Z</time>
      </trkpt>
      <trkpt lat="45.66634" lon="3.08946">
        <ele>511</ele>
        <time>2011-06-11T05:47:37.000Z</time>
      </trkpt>
      <trkpt lat="45.66612" lon="3.08871">
        <ele>512.79998779297</ele>
        <time>2011-06-11T05:47:49.000Z</time>
      </trkpt>
      <trkpt lat="45.66592" lon="3.08801">
        <ele>514</ele>
        <time>2011-06-11T05:48:00.000Z</time>
      </trkpt>
      <trkpt lat="45.66575" lon="3.08738">
        <ele>515.40002441406</ele>
        <time>2011-06-11T05:48:10.000Z</time>
      </trkpt>
      <trkpt lat="45.66552" lon="3.08675">
        <ele>516.79998779297</ele>
        <time>2011-06-11T05:48:21.000Z</time>
      </trkpt>
      <trkpt lat="45.66528" lon="3.08626">
        <ele>518.79998779297</ele>
        <time>2011-06-11T05:48:31.000Z</time>
      </trkpt>
      <trkpt lat="45.66506" lon="3.08586">
        <ele>521.40002441406</ele>
        <time>2011-06-11T05:48:40.000Z</time>
      </trkpt>
      <trkpt lat="45.66491" lon="3.08556">
        <ele>523.40002441406</ele>
        <time>2011-06-11T05:48:47.000Z</time>
      </trkpt>
      <trkpt lat="45.66473" lon="3.0852">
        <ele>526</ele>
        <time>2011-06-11T05:48:56.000Z</time>
      </trkpt>
      <trkpt lat="45.66458" lon="3.08485">
        <ele>528</ele>
        <time>2011-06-11T05:49:04.000Z</time>
      </trkpt>
      <trkpt lat="45.66447" lon="3.08448">
        <ele>530</ele>
        <time>2011-06-11T05:49:12.000Z</time>
      </trkpt>
      <trkpt lat="45.66434" lon="3.084">
        <ele>532.59997558594</ele>
        <time>2011-06-11T05:49:22.000Z</time>
      </trkpt>
      <trkpt lat="45.66421" lon="3.08354">
        <ele>535.59997558594</ele>
        <time>2011-06-11T05:49:32.000Z</time>
      </trkpt>
      <trkpt lat="45.66405" lon="3.083">
        <ele>538.40002441406</ele>
        <time>2011-06-11T05:49:43.000Z</time>
      </trkpt>
      <trkpt lat="45.66393" lon="3.08257">
        <ele>540.79998779297</ele>
        <time>2011-06-11T05:49:52.000Z</time>
      </trkpt>
      <trkpt lat="45.66377" lon="3.08201">
        <ele>542.59997558594</ele>
        <time>2011-06-11T05:50:03.000Z</time>
      </trkpt>
      <trkpt lat="45.66359" lon="3.08136">
        <ele>545</ele>
        <time>2011-06-11T05:50:15.000Z</time>
      </trkpt>
      <trkpt lat="45.66342" lon="3.08079">
        <ele>546</ele>
        <time>2011-06-11T05:50:25.000Z</time>
      </trkpt>
      <trkpt lat="45.66317" lon="3.08018">
        <ele>547.40002441406</ele>
        <time>2011-06-11T05:50:36.000Z</time>
      </trkpt>
      <trkpt lat="45.66292" lon="3.07955">
        <ele>548.79998779297</ele>
        <time>2011-06-11T05:50:47.000Z</time>
      </trkpt>
      <trkpt lat="45.66274" lon="3.079">
        <ele>550.20001220703</ele>
        <time>2011-06-11T05:50:57.000Z</time>
      </trkpt>
      <trkpt lat="45.66262" lon="3.07851">
        <ele>552.79998779297</ele>
        <time>2011-06-11T05:51:07.000Z</time>
      </trkpt>
      <trkpt lat="45.66252" lon="3.07809">
        <ele>555.40002441406</ele>
        <time>2011-06-11T05:51:16.000Z</time>
      </trkpt>
      <trkpt lat="45.66243" lon="3.07772">
        <ele>557.20001220703</ele>
        <time>2011-06-11T05:51:24.000Z</time>
      </trkpt>
      <trkpt lat="45.66237" lon="3.07744">
        <ele>559.40002441406</ele>
        <time>2011-06-11T05:51:30.000Z</time>
      </trkpt>
      <trkpt lat="45.6623" lon="3.07717">
        <ele>560.79998779297</ele>
        <time>2011-06-11T05:51:36.000Z</time>
      </trkpt>
      <trkpt lat="45.66222" lon="3.07684">
        <ele>562.59997558594</ele>
        <time>2011-06-11T05:51:43.000Z</time>
      </trkpt>
      <trkpt lat="45.66216" lon="3.07652">
        <ele>564.20001220703</ele>
        <time>2011-06-11T05:51:50.000Z</time>
      </trkpt>
      <trkpt lat="45.6621" lon="3.07628">
        <ele>565.79998779297</ele>
        <time>2011-06-11T05:51:55.000Z</time>
      </trkpt>
      <trkpt lat="45.66202" lon="3.07592">
        <ele>567.59997558594</ele>
        <time>2011-06-11T05:52:02.000Z</time>
      </trkpt>
      <trkpt lat="45.6619" lon="3.07548">
        <ele>569</ele>
        <time>2011-06-11T05:52:10.000Z</time>
      </trkpt>
      <trkpt lat="45.66178" lon="3.07503">
        <ele>570.40002441406</ele>
        <time>2011-06-11T05:52:18.000Z</time>
      </trkpt>
      <trkpt lat="45.66164" lon="3.07445">
        <ele>572.20001220703</ele>
        <time>2011-06-11T05:52:28.000Z</time>
      </trkpt>
      <trkpt lat="45.66151" lon="3.0739">
        <ele>573</ele>
        <time>2011-06-11T05:52:37.000Z</time>
      </trkpt>
      <trkpt lat="45.66138" lon="3.07338">
        <ele>574</ele>
        <time>2011-06-11T05:52:45.000Z</time>
      </trkpt>
      <trkpt lat="45.66122" lon="3.07274">
        <ele>574.59997558594</ele>
        <time>2011-06-11T05:52:55.000Z</time>
      </trkpt>
      <trkpt lat="45.66105" lon="3.07204">
        <ele>575.40002441406</ele>
        <time>2011-06-11T05:53:06.000Z</time>
      </trkpt>
      <trkpt lat="45.66091" lon="3.07149">
        <ele>577.59997558594</ele>
        <time>2011-06-11T05:53:15.000Z</time>
      </trkpt>
      <trkpt lat="45.66078" lon="3.07097">
        <ele>578.59997558594</ele>
        <time>2011-06-11T05:53:24.000Z</time>
      </trkpt>
      <trkpt lat="45.66064" lon="3.07036">
        <ele>581.40002441406</ele>
        <time>2011-06-11T05:53:35.000Z</time>
      </trkpt>
      <trkpt lat="45.66053" lon="3.06996">
        <ele>583.20001220703</ele>
        <time>2011-06-11T05:53:43.000Z</time>
      </trkpt>
      <trkpt lat="45.66044" lon="3.0696">
        <ele>584.79998779297</ele>
        <time>2011-06-11T05:53:50.000Z</time>
      </trkpt>
      <trkpt lat="45.66033" lon="3.06913">
        <ele>587.40002441406</ele>
        <time>2011-06-11T05:53:59.000Z</time>
      </trkpt>
      <trkpt lat="45.66025" lon="3.0687">
        <ele>589.20001220703</ele>
        <time>2011-06-11T05:54:07.000Z</time>
      </trkpt>
      <trkpt lat="45.66023" lon="3.06819">
        <ele>591.20001220703</ele>
        <time>2011-06-11T05:54:16.000Z</time>
      </trkpt>
      <trkpt lat="45.66023" lon="3.0677">
        <ele>592.79998779297</ele>
        <time>2011-06-11T05:54:24.000Z</time>
      </trkpt>
      <trkpt lat="45.66025" lon="3.06703">
        <ele>594.20001220703</ele>
        <time>2011-06-11T05:54:35.000Z</time>
      </trkpt>
      <trkpt lat="45.66028" lon="3.06661">
        <ele>595.20001220703</ele>
        <time>2011-06-11T05:54:42.000Z</time>
      </trkpt>
      <trkpt lat="45.66037" lon="3.06602">
        <ele>596.79998779297</ele>
        <time>2011-06-11T05:54:52.000Z</time>
      </trkpt>
      <trkpt lat="45.66046" lon="3.06541">
        <ele>598.59997558594</ele>
        <time>2011-06-11T05:55:02.000Z</time>
      </trkpt>
      <trkpt lat="45.66056" lon="3.06475">
        <ele>600.79998779297</ele>
        <time>2011-06-11T05:55:13.000Z</time>
      </trkpt>
      <trkpt lat="45.6606" lon="3.06415">
        <ele>602.59997558594</ele>
        <time>2011-06-11T05:55:23.000Z</time>
      </trkpt>
      <trkpt lat="45.66057" lon="3.06353">
        <ele>604.59997558594</ele>
        <time>2011-06-11T05:55:33.000Z</time>
      </trkpt>
      <trkpt lat="45.66052" lon="3.06292">
        <ele>606.59997558594</ele>
        <time>2011-06-11T05:55:43.000Z</time>
      </trkpt>
      <trkpt lat="45.66043" lon="3.06235">
        <ele>607.79998779297</ele>
        <time>2011-06-11T05:55:52.000Z</time>
      </trkpt>
      <trkpt lat="45.66023" lon="3.06184">
        <ele>609</ele>
        <time>2011-06-11T05:56:01.000Z</time>
      </trkpt>
      <trkpt lat="45.65993" lon="3.06124">
        <ele>611.20001220703</ele>
        <time>2011-06-11T05:56:13.000Z</time>
      </trkpt>
      <trkpt lat="45.6597" lon="3.06066">
        <ele>613</ele>
        <time>2011-06-11T05:56:24.000Z</time>
      </trkpt>
      <trkpt lat="45.65949" lon="3.06002">
        <ele>615.59997558594</ele>
        <time>2011-06-11T05:56:35.000Z</time>
      </trkpt>
      <trkpt lat="45.6593" lon="3.05944">
        <ele>617</ele>
        <time>2011-06-11T05:56:45.000Z</time>
      </trkpt>
      <trkpt lat="45.65908" lon="3.05873">
        <ele>619</ele>
        <time>2011-06-11T05:56:57.000Z</time>
      </trkpt>
      <trkpt lat="45.65887" lon="3.05806">
        <ele>620</ele>
        <time>2011-06-11T05:57:08.000Z</time>
      </trkpt>
      <trkpt lat="45.65873" lon="3.05737">
        <ele>621</ele>
        <time>2011-06-11T05:57:19.000Z</time>
      </trkpt>
      <trkpt lat="45.65866" lon="3.05673">
        <ele>622.59997558594</ele>
        <time>2011-06-11T05:57:29.000Z</time>
      </trkpt>
      <trkpt lat="45.65869" lon="3.05616">
        <ele>624</ele>
        <time>2011-06-11T05:57:38.000Z</time>
      </trkpt>
      <trkpt lat="45.6588" lon="3.05567">
        <ele>625.79998779297</ele>
        <time>2011-06-11T05:57:46.000Z</time>
      </trkpt>
      <trkpt lat="45.65899" lon="3.05513">
        <ele>627.20001220703</ele>
        <time>2011-06-11T05:57:55.000Z</time>
      </trkpt>
      <trkpt lat="45.65931" lon="3.05443">
        <ele>628.20001220703</ele>
        <time>2011-06-11T05:58:07.000Z</time>
      </trkpt>
      <trkpt lat="45.65952" lon="3.05393">
        <ele>629.40002441406</ele>
        <time>2011-06-11T05:58:16.000Z</time>
      </trkpt>
      <trkpt lat="45.6597" lon="3.05349">
        <ele>630.59997558594</ele>
        <time>2011-06-11T05:58:24.000Z</time>
      </trkpt>
      <trkpt lat="45.65991" lon="3.053">
        <ele>631.59997558594</ele>
        <time>2011-06-11T05:58:33.000Z</time>
      </trkpt>
      <trkpt lat="45.6601" lon="3.05258">
        <ele>632.79998779297</ele>
        <time>2011-06-11T05:58:41.000Z</time>
      </trkpt>
      <trkpt lat="45.6603" lon="3.05209">
        <ele>634.59997558594</ele>
        <time>2011-06-11T05:58:50.000Z</time>
      </trkpt>
      <trkpt lat="45.66051" lon="3.05159">
        <ele>635.79998779297</ele>
        <time>2011-06-11T05:58:59.000Z</time>
      </trkpt>
      <trkpt lat="45.66074" lon="3.05103">
        <ele>637.79998779297</ele>
        <time>2011-06-11T05:59:09.000Z</time>
      </trkpt>
      <trkpt lat="45.66098" lon="3.05043">
        <ele>640</ele>
        <time>2011-06-11T05:59:20.000Z</time>
      </trkpt>
      <trkpt lat="45.66111" lon="3.05013">
        <ele>640.79998779297</ele>
        <time>2011-06-11T05:59:26.000Z</time>
      </trkpt>
      <trkpt lat="45.66129" lon="3.0497">
        <ele>642.79998779297</ele>
        <time>2011-06-11T05:59:34.000Z</time>
      </trkpt>
      <trkpt lat="45.66151" lon="3.04914">
        <ele>644</ele>
        <time>2011-06-11T05:59:44.000Z</time>
      </trkpt>
      <trkpt lat="45.66157" lon="3.04896">
        <ele>644.20001220703</ele>
        <time>2011-06-11T05:59:47.000Z</time>
      </trkpt>
      <trkpt lat="45.66174" lon="3.0484">
        <ele>645</ele>
        <time>2011-06-11T05:59:56.000Z</time>
      </trkpt>
      <trkpt lat="45.66182" lon="3.04815">
        <ele>645.20001220703</ele>
        <time>2011-06-11T06:00:00.000Z</time>
      </trkpt>
      <trkpt lat="45.66196" lon="3.04754">
        <ele>646.40002441406</ele>
        <time>2011-06-11T06:00:10.000Z</time>
      </trkpt>
      <trkpt lat="45.66203" lon="3.04701">
        <ele>648.20001220703</ele>
        <time>2011-06-11T06:00:19.000Z</time>
      </trkpt>
      <trkpt lat="45.66209" lon="3.04642">
        <ele>650.40002441406</ele>
        <time>2011-06-11T06:00:29.000Z</time>
      </trkpt>
      <trkpt lat="45.66213" lon="3.04596">
        <ele>652.20001220703</ele>
        <time>2011-06-11T06:00:37.000Z</time>
      </trkpt>
      <trkpt lat="45.66216" lon="3.04538">
        <ele>653.20001220703</ele>
        <time>2011-06-11T06:00:47.000Z</time>
      </trkpt>
      <trkpt lat="45.66219" lon="3.0451">
        <ele>654</ele>
        <time>2011-06-11T06:00:52.000Z</time>
      </trkpt>
      <trkpt lat="45.66222" lon="3.04482">
        <ele>654.79998779297</ele>
        <time>2011-06-11T06:00:57.000Z</time>
      </trkpt>
      <trkpt lat="45.66228" lon="3.04424">
        <ele>656.79998779297</ele>
        <time>2011-06-11T06:01:07.000Z</time>
      </trkpt>
      <trkpt lat="45.66233" lon="3.04367">
        <ele>658.59997558594</ele>
        <time>2011-06-11T06:01:17.000Z</time>
      </trkpt>
      <trkpt lat="45.66239" lon="3.04327">
        <ele>659.59997558594</ele>
        <time>2011-06-11T06:01:24.000Z</time>
      </trkpt>
      <trkpt lat="45.66244" lon="3.04275">
        <ele>662</ele>
        <time>2011-06-11T06:01:34.000Z</time>
      </trkpt>
      <trkpt lat="45.66247" lon="3.04249">
        <ele>663.40002441406</ele>
        <time>2011-06-11T06:01:39.000Z</time>
      </trkpt>
      <trkpt lat="45.66251" lon="3.04208">
        <ele>665.20001220703</ele>
        <time>2011-06-11T06:01:47.000Z</time>
      </trkpt>
      <trkpt lat="45.66249" lon="3.04172">
        <ele>667.20001220703</ele>
        <time>2011-06-11T06:01:54.000Z</time>
      </trkpt>
      <trkpt lat="45.66241" lon="3.04139">
        <ele>669</ele>
        <time>2011-06-11T06:02:01.000Z</time>
      </trkpt>
      <trkpt lat="45.66228" lon="3.04116">
        <ele>670.40002441406</ele>
        <time>2011-06-11T06:02:07.000Z</time>
      </trkpt>
      <trkpt lat="45.66207" lon="3.04096">
        <ele>671.79998779297</ele>
        <time>2011-06-11T06:02:14.000Z</time>
      </trkpt>
      <trkpt lat="45.66182" lon="3.04085">
        <ele>673.59997558594</ele>
        <time>2011-06-11T06:02:21.000Z</time>
      </trkpt>
      <trkpt lat="45.66146" lon="3.04079">
        <ele>675.40002441406</ele>
        <time>2011-06-11T06:02:30.000Z</time>
      </trkpt>
      <trkpt lat="45.66116" lon="3.04066">
        <ele>676.59997558594</ele>
        <time>2011-06-11T06:02:38.000Z</time>
      </trkpt>
      <trkpt lat="45.66098" lon="3.04045">
        <ele>677.79998779297</ele>
        <time>2011-06-11T06:02:44.000Z</time>
      </trkpt>
      <trkpt lat="45.66085" lon="3.04011">
        <ele>678.79998779297</ele>
        <time>2011-06-11T06:02:51.000Z</time>
      </trkpt>
      <trkpt lat="45.66083" lon="3.03994">
        <ele>679.20001220703</ele>
        <time>2011-06-11T06:02:54.000Z</time>
      </trkpt>
      <trkpt lat="45.66089" lon="3.03952">
        <ele>680</ele>
        <time>2011-06-11T06:03:01.000Z</time>
      </trkpt>
      <trkpt lat="45.66107" lon="3.03888">
        <ele>681.40002441406</ele>
        <time>2011-06-11T06:03:13.000Z</time>
      </trkpt>
      <trkpt lat="45.66119" lon="3.03828">
        <ele>683.20001220703</ele>
        <time>2011-06-11T06:03:24.000Z</time>
      </trkpt>
      <trkpt lat="45.66122" lon="3.03783">
        <ele>684.59997558594</ele>
        <time>2011-06-11T06:03:32.000Z</time>
      </trkpt>
      <trkpt lat="45.66119" lon="3.03747">
        <ele>686.40002441406</ele>
        <time>2011-06-11T06:03:39.000Z</time>
      </trkpt>
      <trkpt lat="45.66115" lon="3.03717">
        <ele>688</ele>
        <time>2011-06-11T06:03:45.000Z</time>
      </trkpt>
      <trkpt lat="45.66105" lon="3.03685">
        <ele>690</ele>
        <time>2011-06-11T06:03:52.000Z</time>
      </trkpt>
      <trkpt lat="45.6609" lon="3.03653">
        <ele>691</ele>
        <time>2011-06-11T06:03:59.000Z</time>
      </trkpt>
      <trkpt lat="45.66074" lon="3.03627">
        <ele>692.59997558594</ele>
        <time>2011-06-11T06:04:06.000Z</time>
      </trkpt>
      <trkpt lat="45.66052" lon="3.03595">
        <ele>694.59997558594</ele>
        <time>2011-06-11T06:04:15.000Z</time>
      </trkpt>
      <trkpt lat="45.66033" lon="3.03567">
        <ele>696.40002441406</ele>
        <time>2011-06-11T06:04:23.000Z</time>
      </trkpt>
      <trkpt lat="45.66016" lon="3.03541">
        <ele>698.20001220703</ele>
        <time>2011-06-11T06:04:30.000Z</time>
      </trkpt>
      <trkpt lat="45.65997" lon="3.03511">
        <ele>699.79998779297</ele>
        <time>2011-06-11T06:04:38.000Z</time>
      </trkpt>
      <trkpt lat="45.65975" lon="3.03472">
        <ele>702</ele>
        <time>2011-06-11T06:04:48.000Z</time>
      </trkpt>
      <trkpt lat="45.65964" lon="3.03442">
        <ele>703.40002441406</ele>
        <time>2011-06-11T06:04:55.000Z</time>
      </trkpt>
      <trkpt lat="45.65958" lon="3.03417">
        <ele>704.79998779297</ele>
        <time>2011-06-11T06:05:01.000Z</time>
      </trkpt>
      <trkpt lat="45.65955" lon="3.03389">
        <ele>706.20001220703</ele>
        <time>2011-06-11T06:05:07.000Z</time>
      </trkpt>
      <trkpt lat="45.65954" lon="3.0335">
        <ele>708</ele>
        <time>2011-06-11T06:05:15.000Z</time>
      </trkpt>
      <trkpt lat="45.65957" lon="3.03315">
        <ele>709.79998779297</ele>
        <time>2011-06-11T06:05:22.000Z</time>
      </trkpt>
      <trkpt lat="45.65963" lon="3.03275">
        <ele>711.59997558594</ele>
        <time>2011-06-11T06:05:30.000Z</time>
      </trkpt>
      <trkpt lat="45.65971" lon="3.03232">
        <ele>713.20001220703</ele>
        <time>2011-06-11T06:05:39.000Z</time>
      </trkpt>
      <trkpt lat="45.65978" lon="3.03199">
        <ele>715</ele>
        <time>2011-06-11T06:05:46.000Z</time>
      </trkpt>
      <trkpt lat="45.65995" lon="3.03154">
        <ele>717.20001220703</ele>
        <time>2011-06-11T06:05:56.000Z</time>
      </trkpt>
      <trkpt lat="45.66017" lon="3.03105">
        <ele>718.79998779297</ele>
        <time>2011-06-11T06:06:07.000Z</time>
      </trkpt>
      <trkpt lat="45.66041" lon="3.0305">
        <ele>721.20001220703</ele>
        <time>2011-06-11T06:06:19.000Z</time>
      </trkpt>
      <trkpt lat="45.66065" lon="3.02996">
        <ele>722.40002441406</ele>
        <time>2011-06-11T06:06:31.000Z</time>
      </trkpt>
      <trkpt lat="45.66085" lon="3.02955">
        <ele>724.20001220703</ele>
        <time>2011-06-11T06:06:40.000Z</time>
      </trkpt>
      <trkpt lat="45.66111" lon="3.02912">
        <ele>725.79998779297</ele>
        <time>2011-06-11T06:06:50.000Z</time>
      </trkpt>
      <trkpt lat="45.66141" lon="3.02867">
        <ele>727.40002441406</ele>
        <time>2011-06-11T06:07:01.000Z</time>
      </trkpt>
      <trkpt lat="45.66165" lon="3.02832">
        <ele>729.20001220703</ele>
        <time>2011-06-11T06:07:10.000Z</time>
      </trkpt>
      <trkpt lat="45.66193" lon="3.02794">
        <ele>731</ele>
        <time>2011-06-11T06:07:20.000Z</time>
      </trkpt>
      <trkpt lat="45.66207" lon="3.02777">
        <ele>732</ele>
        <time>2011-06-11T06:07:25.000Z</time>
      </trkpt>
      <trkpt lat="45.66235" lon="3.02742">
        <ele>734.20001220703</ele>
        <time>2011-06-11T06:07:35.000Z</time>
      </trkpt>
      <trkpt lat="45.6626" lon="3.02705">
        <ele>736</ele>
        <time>2011-06-11T06:07:45.000Z</time>
      </trkpt>
      <trkpt lat="45.66282" lon="3.0267">
        <ele>738</ele>
        <time>2011-06-11T06:07:54.000Z</time>
      </trkpt>
      <trkpt lat="45.663" lon="3.0263">
        <ele>740</ele>
        <time>2011-06-11T06:08:03.000Z</time>
      </trkpt>
      <trkpt lat="45.66303" lon="3.026">
        <ele>741.20001220703</ele>
        <time>2011-06-11T06:08:09.000Z</time>
      </trkpt>
      <trkpt lat="45.663" lon="3.02572">
        <ele>742.20001220703</ele>
        <time>2011-06-11T06:08:15.000Z</time>
      </trkpt>
      <trkpt lat="45.66292" lon="3.02528">
        <ele>743.40002441406</ele>
        <time>2011-06-11T06:08:23.000Z</time>
      </trkpt>
      <trkpt lat="45.66281" lon="3.02491">
        <ele>744.79998779297</ele>
        <time>2011-06-11T06:08:30.000Z</time>
      </trkpt>
      <trkpt lat="45.66274" lon="3.02476">
        <ele>745</ele>
        <time>2011-06-11T06:08:33.000Z</time>
      </trkpt>
      <trkpt lat="45.66243" lon="3.02436">
        <ele>746.59997558594</ele>
        <time>2011-06-11T06:08:43.000Z</time>
      </trkpt>
      <trkpt lat="45.6623" lon="3.02409">
        <ele>747.79998779297</ele>
        <time>2011-06-11T06:08:49.000Z</time>
      </trkpt>
      <trkpt lat="45.66218" lon="3.02367">
        <ele>748.20001220703</ele>
        <time>2011-06-11T06:08:57.000Z</time>
      </trkpt>
      <trkpt lat="45.66202" lon="3.02317">
        <ele>749.40002441406</ele>
        <time>2011-06-11T06:09:06.000Z</time>
      </trkpt>
      <trkpt lat="45.66201" lon="3.02311">
        <ele>749.59997558594</ele>
        <time>2011-06-11T06:09:07.000Z</time>
      </trkpt>
      <trkpt lat="45.66199" lon="3.02286">
        <ele>750.20001220703</ele>
        <time>2011-06-11T06:09:11.000Z</time>
      </trkpt>
      <trkpt lat="45.66202" lon="3.02246">
        <ele>751.40002441406</ele>
        <time>2011-06-11T06:09:18.000Z</time>
      </trkpt>
      <trkpt lat="45.66207" lon="3.02218">
        <ele>752.40002441406</ele>
        <time>2011-06-11T06:09:23.000Z</time>
      </trkpt>
      <trkpt lat="45.66213" lon="3.02162">
        <ele>754.79998779297</ele>
        <time>2011-06-11T06:09:33.000Z</time>
      </trkpt>
      <trkpt lat="45.66217" lon="3.02112">
        <ele>756.59997558594</ele>
        <time>2011-06-11T06:09:42.000Z</time>
      </trkpt>
      <trkpt lat="45.66221" lon="3.02067">
        <ele>758</ele>
        <time>2011-06-11T06:09:50.000Z</time>
      </trkpt>
      <trkpt lat="45.66225" lon="3.02028">
        <ele>759.40002441406</ele>
        <time>2011-06-11T06:09:57.000Z</time>
      </trkpt>
      <trkpt lat="45.66233" lon="3.01983">
        <ele>761.20001220703</ele>
        <time>2011-06-11T06:10:05.000Z</time>
      </trkpt>
      <trkpt lat="45.66252" lon="3.01935">
        <ele>762.40002441406</ele>
        <time>2011-06-11T06:10:14.000Z</time>
      </trkpt>
      <trkpt lat="45.66278" lon="3.01884">
        <ele>763.59997558594</ele>
        <time>2011-06-11T06:10:24.000Z</time>
      </trkpt>
      <trkpt lat="45.66304" lon="3.01833">
        <ele>765</ele>
        <time>2011-06-11T06:10:34.000Z</time>
      </trkpt>
      <trkpt lat="45.66328" lon="3.01786">
        <ele>766.20001220703</ele>
        <time>2011-06-11T06:10:43.000Z</time>
      </trkpt>
      <trkpt lat="45.66353" lon="3.01733">
        <ele>767.40002441406</ele>
        <time>2011-06-11T06:10:53.000Z</time>
      </trkpt>
      <trkpt lat="45.66378" lon="3.01686">
        <ele>768.59997558594</ele>
        <time>2011-06-11T06:11:02.000Z</time>
      </trkpt>
      <trkpt lat="45.66401" lon="3.01639">
        <ele>769.40002441406</ele>
        <time>2011-06-11T06:11:11.000Z</time>
      </trkpt>
      <trkpt lat="45.66431" lon="3.0158">
        <ele>771</ele>
        <time>2011-06-11T06:11:22.000Z</time>
      </trkpt>
      <trkpt lat="45.66457" lon="3.01527">
        <ele>772</ele>
        <time>2011-06-11T06:11:32.000Z</time>
      </trkpt>
      <trkpt lat="45.66487" lon="3.01469">
        <ele>773.59997558594</ele>
        <time>2011-06-11T06:11:43.000Z</time>
      </trkpt>
      <trkpt lat="45.66509" lon="3.01441">
        <ele>775</ele>
        <time>2011-06-11T06:11:50.000Z</time>
      </trkpt>
      <trkpt lat="45.66539" lon="3.01425">
        <ele>776.79998779297</ele>
        <time>2011-06-11T06:11:58.000Z</time>
      </trkpt>
      <trkpt lat="45.66567" lon="3.0142">
        <ele>778.59997558594</ele>
        <time>2011-06-11T06:12:05.000Z</time>
      </trkpt>
      <trkpt lat="45.66594" lon="3.01415">
        <ele>780.20001220703</ele>
        <time>2011-06-11T06:12:12.000Z</time>
      </trkpt>
      <trkpt lat="45.66625" lon="3.0141">
        <ele>781.40002441406</ele>
        <time>2011-06-11T06:12:20.000Z</time>
      </trkpt>
      <trkpt lat="45.66649" lon="3.01407">
        <ele>782.79998779297</ele>
        <time>2011-06-11T06:12:27.000Z</time>
      </trkpt>
      <trkpt lat="45.66682" lon="3.01398">
        <ele>784.20001220703</ele>
        <time>2011-06-11T06:12:36.000Z</time>
      </trkpt>
      <trkpt lat="45.66702" lon="3.01382">
        <ele>785.79998779297</ele>
        <time>2011-06-11T06:12:42.000Z</time>
      </trkpt>
      <trkpt lat="45.66718" lon="3.01353">
        <ele>787</ele>
        <time>2011-06-11T06:12:49.000Z</time>
      </trkpt>
      <trkpt lat="45.6673" lon="3.01304">
        <ele>788.40002441406</ele>
        <time>2011-06-11T06:12:58.000Z</time>
      </trkpt>
      <trkpt lat="45.66738" lon="3.01255">
        <ele>790.20001220703</ele>
        <time>2011-06-11T06:13:07.000Z</time>
      </trkpt>
      <trkpt lat="45.66748" lon="3.0121">
        <ele>792</ele>
        <time>2011-06-11T06:13:16.000Z</time>
      </trkpt>
      <trkpt lat="45.66768" lon="3.01168">
        <ele>793.79998779297</ele>
        <time>2011-06-11T06:13:25.000Z</time>
      </trkpt>
      <trkpt lat="45.66792" lon="3.01123">
        <ele>795.40002441406</ele>
        <time>2011-06-11T06:13:35.000Z</time>
      </trkpt>
      <trkpt lat="45.66808" lon="3.01072">
        <ele>796.59997558594</ele>
        <time>2011-06-11T06:13:45.000Z</time>
      </trkpt>
      <trkpt lat="45.66817" lon="3.01024">
        <ele>798.59997558594</ele>
        <time>2011-06-11T06:13:54.000Z</time>
      </trkpt>
      <trkpt lat="45.66826" lon="3.00976">
        <ele>800.20001220703</ele>
        <time>2011-06-11T06:14:03.000Z</time>
      </trkpt>
      <trkpt lat="45.66835" lon="3.00939">
        <ele>801.79998779297</ele>
        <time>2011-06-11T06:14:11.000Z</time>
      </trkpt>
      <trkpt lat="45.66854" lon="3.00909">
        <ele>803.59997558594</ele>
        <time>2011-06-11T06:14:19.000Z</time>
      </trkpt>
      <trkpt lat="45.66876" lon="3.00874">
        <ele>805.79998779297</ele>
        <time>2011-06-11T06:14:28.000Z</time>
      </trkpt>
      <trkpt lat="45.66885" lon="3.0084">
        <ele>807.40002441406</ele>
        <time>2011-06-11T06:14:35.000Z</time>
      </trkpt>
      <trkpt lat="45.66891" lon="3.00792">
        <ele>809.20001220703</ele>
        <time>2011-06-11T06:14:44.000Z</time>
      </trkpt>
      <trkpt lat="45.66897" lon="3.0074">
        <ele>811.20001220703</ele>
        <time>2011-06-11T06:14:54.000Z</time>
      </trkpt>
      <trkpt lat="45.66904" lon="3.00683">
        <ele>813.20001220703</ele>
        <time>2011-06-11T06:15:05.000Z</time>
      </trkpt>
      <trkpt lat="45.6691" lon="3.00644">
        <ele>815</ele>
        <time>2011-06-11T06:15:13.000Z</time>
      </trkpt>
      <trkpt lat="45.66925" lon="3.00614">
        <ele>816.20001220703</ele>
        <time>2011-06-11T06:15:20.000Z</time>
      </trkpt>
      <trkpt lat="45.66948" lon="3.00581">
        <ele>817.79998779297</ele>
        <time>2011-06-11T06:15:28.000Z</time>
      </trkpt>
      <trkpt lat="45.66972" lon="3.00547">
        <ele>819.59997558594</ele>
        <time>2011-06-11T06:15:37.000Z</time>
      </trkpt>
      <trkpt lat="45.67003" lon="3.00503">
        <ele>821.40002441406</ele>
        <time>2011-06-11T06:15:48.000Z</time>
      </trkpt>
      <trkpt lat="45.67018" lon="3.0047">
        <ele>822.79998779297</ele>
        <time>2011-06-11T06:15:55.000Z</time>
      </trkpt>
      <trkpt lat="45.67026" lon="3.00427">
        <ele>824.40002441406</ele>
        <time>2011-06-11T06:16:03.000Z</time>
      </trkpt>
      <trkpt lat="45.67032" lon="3.00383">
        <ele>825.40002441406</ele>
        <time>2011-06-11T06:16:11.000Z</time>
      </trkpt>
      <trkpt lat="45.67042" lon="3.00329">
        <ele>826</ele>
        <time>2011-06-11T06:16:20.000Z</time>
      </trkpt>
      <trkpt lat="45.67051" lon="3.00281">
        <ele>826.40002441406</ele>
        <time>2011-06-11T06:16:28.000Z</time>
      </trkpt>
      <trkpt lat="45.6706" lon="3.00226">
        <ele>827</ele>
        <time>2011-06-11T06:16:37.000Z</time>
      </trkpt>
      <trkpt lat="45.67065" lon="3.00197">
        <ele>827.40002441406</ele>
        <time>2011-06-11T06:16:42.000Z</time>
      </trkpt>
      <trkpt lat="45.67075" lon="3.00144">
        <ele>828.59997558594</ele>
        <time>2011-06-11T06:16:51.000Z</time>
      </trkpt>
      <trkpt lat="45.67084" lon="3.00093">
        <ele>830</ele>
        <time>2011-06-11T06:17:00.000Z</time>
      </trkpt>
      <trkpt lat="45.67092" lon="3.00045">
        <ele>831.79998779297</ele>
        <time>2011-06-11T06:17:09.000Z</time>
      </trkpt>
      <trkpt lat="45.67098" lon="3.00003">
        <ele>833.79998779297</ele>
        <time>2011-06-11T06:17:17.000Z</time>
      </trkpt>
      <trkpt lat="45.671" lon="2.99955">
        <ele>835.40002441406</ele>
        <time>2011-06-11T06:17:26.000Z</time>
      </trkpt>
      <trkpt lat="45.67101" lon="2.99932">
        <ele>836.40002441406</ele>
        <time>2011-06-11T06:17:30.000Z</time>
      </trkpt>
      <trkpt lat="45.67094" lon="2.99883">
        <ele>837.20001220703</ele>
        <time>2011-06-11T06:17:38.000Z</time>
      </trkpt>
      <trkpt lat="45.67089" lon="2.9984">
        <ele>838</ele>
        <time>2011-06-11T06:17:45.000Z</time>
      </trkpt>
      <trkpt lat="45.6709" lon="2.99828">
        <ele>838.20001220703</ele>
        <time>2011-06-11T06:17:47.000Z</time>
      </trkpt>
      <trkpt lat="45.67104" lon="2.99777">
        <ele>839.20001220703</ele>
        <time>2011-06-11T06:17:56.000Z</time>
      </trkpt>
      <trkpt lat="45.67121" lon="2.99733">
        <ele>840.79998779297</ele>
        <time>2011-06-11T06:18:05.000Z</time>
      </trkpt>
      <trkpt lat="45.6714" lon="2.99691">
        <ele>842.20001220703</ele>
        <time>2011-06-11T06:18:14.000Z</time>
      </trkpt>
      <trkpt lat="45.67158" lon="2.99665">
        <ele>843.40002441406</ele>
        <time>2011-06-11T06:18:21.000Z</time>
      </trkpt>
      <trkpt lat="45.67178" lon="2.99651">
        <ele>844.59997558594</ele>
        <time>2011-06-11T06:18:27.000Z</time>
      </trkpt>
      <trkpt lat="45.67213" lon="2.99634">
        <ele>846.79998779297</ele>
        <time>2011-06-11T06:18:36.000Z</time>
      </trkpt>
      <trkpt lat="45.67237" lon="2.99611">
        <ele>847.79998779297</ele>
        <time>2011-06-11T06:18:43.000Z</time>
      </trkpt>
      <trkpt lat="45.67261" lon="2.99574">
        <ele>849.59997558594</ele>
        <time>2011-06-11T06:18:52.000Z</time>
      </trkpt>
      <trkpt lat="45.67287" lon="2.99535">
        <ele>851.20001220703</ele>
        <time>2011-06-11T06:19:01.000Z</time>
      </trkpt>
      <trkpt lat="45.67315" lon="2.99495">
        <ele>852.59997558594</ele>
        <time>2011-06-11T06:19:10.000Z</time>
      </trkpt>
      <trkpt lat="45.67332" lon="2.99454">
        <ele>853.79998779297</ele>
        <time>2011-06-11T06:19:18.000Z</time>
      </trkpt>
      <trkpt lat="45.67354" lon="2.994">
        <ele>855.20001220703</ele>
        <time>2011-06-11T06:19:28.000Z</time>
      </trkpt>
      <trkpt lat="45.67371" lon="2.99351">
        <ele>855.79998779297</ele>
        <time>2011-06-11T06:19:37.000Z</time>
      </trkpt>
      <trkpt lat="45.67382" lon="2.99323">
        <ele>856.20001220703</ele>
        <time>2011-06-11T06:19:43.000Z</time>
      </trkpt>
      <trkpt lat="45.67394" lon="2.9931">
        <ele>856.59997558594</ele>
        <time>2011-06-11T06:19:47.000Z</time>
      </trkpt>
      <trkpt lat="45.67403" lon="2.99282">
        <ele>857.20001220703</ele>
        <time>2011-06-11T06:19:52.000Z</time>
      </trkpt>
      <trkpt lat="45.67401" lon="2.99232">
        <ele>857.59997558594</ele>
        <time>2011-06-11T06:20:00.000Z</time>
      </trkpt>
      <trkpt lat="45.67405" lon="2.99182">
        <ele>858.59997558594</ele>
        <time>2011-06-11T06:20:08.000Z</time>
      </trkpt>
      <trkpt lat="45.67403" lon="2.9915">
        <ele>859.40002441406</ele>
        <time>2011-06-11T06:20:13.000Z</time>
      </trkpt>
      <trkpt lat="45.67398" lon="2.99126">
        <ele>860</ele>
        <time>2011-06-11T06:20:17.000Z</time>
      </trkpt>
      <trkpt lat="45.67385" lon="2.99058">
        <ele>861.40002441406</ele>
        <time>2011-06-11T06:20:28.000Z</time>
      </trkpt>
      <trkpt lat="45.67373" lon="2.99003">
        <ele>862.79998779297</ele>
        <time>2011-06-11T06:20:37.000Z</time>
      </trkpt>
      <trkpt lat="45.67367" lon="2.98966">
        <ele>863.59997558594</ele>
        <time>2011-06-11T06:20:43.000Z</time>
      </trkpt>
      <trkpt lat="45.67366" lon="2.98946">
        <ele>863.79998779297</ele>
        <time>2011-06-11T06:20:46.000Z</time>
      </trkpt>
      <trkpt lat="45.67368" lon="2.98913">
        <ele>864.59997558594</ele>
        <time>2011-06-11T06:20:51.000Z</time>
      </trkpt>
      <trkpt lat="45.67384" lon="2.98869">
        <ele>866</ele>
        <time>2011-06-11T06:20:59.000Z</time>
      </trkpt>
      <trkpt lat="45.674" lon="2.98818">
        <ele>867</ele>
        <time>2011-06-11T06:21:08.000Z</time>
      </trkpt>
      <trkpt lat="45.67404" lon="2.98773">
        <ele>868.20001220703</ele>
        <time>2011-06-11T06:21:15.000Z</time>
      </trkpt>
      <trkpt lat="45.674" lon="2.98727">
        <ele>868.79998779297</ele>
        <time>2011-06-11T06:21:22.000Z</time>
      </trkpt>
      <trkpt lat="45.67388" lon="2.98678">
        <ele>869.20001220703</ele>
        <time>2011-06-11T06:21:29.000Z</time>
      </trkpt>
      <trkpt lat="45.67372" lon="2.98619">
        <ele>869.59997558594</ele>
        <time>2011-06-11T06:21:37.000Z</time>
      </trkpt>
      <trkpt lat="45.67359" lon="2.98558">
        <ele>869.79998779297</ele>
        <time>2011-06-11T06:21:45.000Z</time>
      </trkpt>
      <trkpt lat="45.67352" lon="2.98494">
        <ele>870.20001220703</ele>
        <time>2011-06-11T06:21:53.000Z</time>
      </trkpt>
      <trkpt lat="45.67342" lon="2.98444">
        <ele>871.59997558594</ele>
        <time>2011-06-11T06:22:00.000Z</time>
      </trkpt>
      <trkpt lat="45.67324" lon="2.98406">
        <ele>872.79998779297</ele>
        <time>2011-06-11T06:22:07.000Z</time>
      </trkpt>
      <trkpt lat="45.67295" lon="2.9836">
        <ele>875</ele>
        <time>2011-06-11T06:22:17.000Z</time>
      </trkpt>
      <trkpt lat="45.67277" lon="2.98317">
        <ele>877.20001220703</ele>
        <time>2011-06-11T06:22:26.000Z</time>
      </trkpt>
      <trkpt lat="45.67263" lon="2.98271">
        <ele>879.20001220703</ele>
        <time>2011-06-11T06:22:35.000Z</time>
      </trkpt>
      <trkpt lat="45.67248" lon="2.98233">
        <ele>881</ele>
        <time>2011-06-11T06:22:43.000Z</time>
      </trkpt>
      <trkpt lat="45.67226" lon="2.98201">
        <ele>882.59997558594</ele>
        <time>2011-06-11T06:22:51.000Z</time>
      </trkpt>
      <trkpt lat="45.67195" lon="2.98174">
        <ele>884.20001220703</ele>
        <time>2011-06-11T06:23:00.000Z</time>
      </trkpt>
      <trkpt lat="45.67167" lon="2.98147">
        <ele>885.79998779297</ele>
        <time>2011-06-11T06:23:09.000Z</time>
      </trkpt>
      <trkpt lat="45.67138" lon="2.98111">
        <ele>887.79998779297</ele>
        <time>2011-06-11T06:23:19.000Z</time>
      </trkpt>
      <trkpt lat="45.67119" lon="2.98077">
        <ele>889.20001220703</ele>
        <time>2011-06-11T06:23:27.000Z</time>
      </trkpt>
      <trkpt lat="45.67109" lon="2.98035">
        <ele>890.59997558594</ele>
        <time>2011-06-11T06:23:35.000Z</time>
      </trkpt>
      <trkpt lat="45.67107" lon="2.98006">
        <ele>891.59997558594</ele>
        <time>2011-06-11T06:23:40.000Z</time>
      </trkpt>
      <trkpt lat="45.67113" lon="2.97941">
        <ele>893.59997558594</ele>
        <time>2011-06-11T06:23:51.000Z</time>
      </trkpt>
      <trkpt lat="45.6712" lon="2.97892">
        <ele>895.40002441406</ele>
        <time>2011-06-11T06:24:00.000Z</time>
      </trkpt>
      <trkpt lat="45.67128" lon="2.97839">
        <ele>897.40002441406</ele>
        <time>2011-06-11T06:24:10.000Z</time>
      </trkpt>
      <trkpt lat="45.67136" lon="2.97798">
        <ele>899</ele>
        <time>2011-06-11T06:24:18.000Z</time>
      </trkpt>
      <trkpt lat="45.67144" lon="2.97747">
        <ele>900.59997558594</ele>
        <time>2011-06-11T06:24:28.000Z</time>
      </trkpt>
      <trkpt lat="45.67154" lon="2.97681">
        <ele>902.79998779297</ele>
        <time>2011-06-11T06:24:41.000Z</time>
      </trkpt>
      <trkpt lat="45.67162" lon="2.97626">
        <ele>905.20001220703</ele>
        <time>2011-06-11T06:24:52.000Z</time>
      </trkpt>
      <trkpt lat="45.67175" lon="2.97578">
        <ele>907</ele>
        <time>2011-06-11T06:25:02.000Z</time>
      </trkpt>
      <trkpt lat="45.67199" lon="2.97515">
        <ele>909.59997558594</ele>
        <time>2011-06-11T06:25:15.000Z</time>
      </trkpt>
      <trkpt lat="45.67216" lon="2.97473">
        <ele>911.20001220703</ele>
        <time>2011-06-11T06:25:24.000Z</time>
      </trkpt>
      <trkpt lat="45.67229" lon="2.97439">
        <ele>912.40002441406</ele>
        <time>2011-06-11T06:25:31.000Z</time>
      </trkpt>
      <trkpt lat="45.67247" lon="2.97389">
        <ele>914.20001220703</ele>
        <time>2011-06-11T06:25:41.000Z</time>
      </trkpt>
      <trkpt lat="45.67262" lon="2.97348">
        <ele>915.59997558594</ele>
        <time>2011-06-11T06:25:49.000Z</time>
      </trkpt>
      <trkpt lat="45.67282" lon="2.97301">
        <ele>917</ele>
        <time>2011-06-11T06:25:59.000Z</time>
      </trkpt>
      <trkpt lat="45.673" lon="2.97254">
        <ele>918.59997558594</ele>
        <time>2011-06-11T06:26:09.000Z</time>
      </trkpt>
      <trkpt lat="45.6732" lon="2.972">
        <ele>920.20001220703</ele>
        <time>2011-06-11T06:26:20.000Z</time>
      </trkpt>
      <trkpt lat="45.67337" lon="2.97152">
        <ele>921.79998779297</ele>
        <time>2011-06-11T06:26:30.000Z</time>
      </trkpt>
      <trkpt lat="45.67357" lon="2.971">
        <ele>923.59997558594</ele>
        <time>2011-06-11T06:26:41.000Z</time>
      </trkpt>
      <trkpt lat="45.67375" lon="2.97075">
        <ele>925.20001220703</ele>
        <time>2011-06-11T06:26:48.000Z</time>
      </trkpt>
      <trkpt lat="45.67402" lon="2.97056">
        <ele>926.79998779297</ele>
        <time>2011-06-11T06:26:56.000Z</time>
      </trkpt>
      <trkpt lat="45.67429" lon="2.97052">
        <ele>928.40002441406</ele>
        <time>2011-06-11T06:27:03.000Z</time>
      </trkpt>
      <trkpt lat="45.67458" lon="2.97062">
        <ele>930</ele>
        <time>2011-06-11T06:27:11.000Z</time>
      </trkpt>
      <trkpt lat="45.67488" lon="2.9708">
        <ele>931.40002441406</ele>
        <time>2011-06-11T06:27:19.000Z</time>
      </trkpt>
      <trkpt lat="45.6752" lon="2.9709">
        <ele>933.20001220703</ele>
        <time>2011-06-11T06:27:27.000Z</time>
      </trkpt>
      <trkpt lat="45.67548" lon="2.97087">
        <ele>934.40002441406</ele>
        <time>2011-06-11T06:27:34.000Z</time>
      </trkpt>
      <trkpt lat="45.67577" lon="2.97068">
        <ele>935.59997558594</ele>
        <time>2011-06-11T06:27:42.000Z</time>
      </trkpt>
      <trkpt lat="45.67608" lon="2.97034">
        <ele>937.59997558594</ele>
        <time>2011-06-11T06:27:52.000Z</time>
      </trkpt>
      <trkpt lat="45.67638" lon="2.97002">
        <ele>939.20001220703</ele>
        <time>2011-06-11T06:28:01.000Z</time>
      </trkpt>
      <trkpt lat="45.67668" lon="2.96982">
        <ele>940.79998779297</ele>
        <time>2011-06-11T06:28:09.000Z</time>
      </trkpt>
      <trkpt lat="45.67704" lon="2.96971">
        <ele>942.59997558594</ele>
        <time>2011-06-11T06:28:18.000Z</time>
      </trkpt>
      <trkpt lat="45.67741" lon="2.96963">
        <ele>944.40002441406</ele>
        <time>2011-06-11T06:28:27.000Z</time>
      </trkpt>
      <trkpt lat="45.67781" lon="2.96954">
        <ele>946.20001220703</ele>
        <time>2011-06-11T06:28:37.000Z</time>
      </trkpt>
      <trkpt lat="45.67825" lon="2.96944">
        <ele>948.20001220703</ele>
        <time>2011-06-11T06:28:48.000Z</time>
      </trkpt>
      <trkpt lat="45.67868" lon="2.96932">
        <ele>950.20001220703</ele>
        <time>2011-06-11T06:28:59.000Z</time>
      </trkpt>
      <trkpt lat="45.67906" lon="2.96909">
        <ele>952.40002441406</ele>
        <time>2011-06-11T06:29:09.000Z</time>
      </trkpt>
      <trkpt lat="45.67938" lon="2.96877">
        <ele>954.20001220703</ele>
        <time>2011-06-11T06:29:19.000Z</time>
      </trkpt>
      <trkpt lat="45.67968" lon="2.96842">
        <ele>956.20001220703</ele>
        <time>2011-06-11T06:29:29.000Z</time>
      </trkpt>
      <trkpt lat="45.68001" lon="2.96803">
        <ele>958.20001220703</ele>
        <time>2011-06-11T06:29:40.000Z</time>
      </trkpt>
      <trkpt lat="45.68034" lon="2.96772">
        <ele>960.20001220703</ele>
        <time>2011-06-11T06:29:50.000Z</time>
      </trkpt>
      <trkpt lat="45.68062" lon="2.96753">
        <ele>962</ele>
        <time>2011-06-11T06:29:58.000Z</time>
      </trkpt>
      <trkpt lat="45.68087" lon="2.96739">
        <ele>963.40002441406</ele>
        <time>2011-06-11T06:30:05.000Z</time>
      </trkpt>
      <trkpt lat="45.68115" lon="2.96724">
        <ele>965</ele>
        <time>2011-06-11T06:30:14.000Z</time>
      </trkpt>
      <trkpt lat="45.68128" lon="2.96718">
        <ele>966</ele>
        <time>2011-06-11T06:30:20.000Z</time>
      </trkpt>
      <trkpt lat="45.68129" lon="2.96719">
        <ele>966.20001220703</ele>
        <time>2011-06-11T06:30:24.000Z</time>
      </trkpt>
      <trkpt lat="45.68127" lon="2.96716">
        <ele>966</ele>
        <time>2011-06-11T06:32:08.000Z</time>
      </trkpt>
      <trkpt lat="45.68127" lon="2.96716">
        <ele>965.79998779297</ele>
        <time>2011-06-11T06:32:10.000Z</time>
      </trkpt>
      <trkpt lat="45.68141" lon="2.96708">
        <ele>966.20001220703</ele>
        <time>2011-06-11T06:32:20.000Z</time>
      </trkpt>
      <trkpt lat="45.68161" lon="2.96698">
        <ele>966.79998779297</ele>
        <time>2011-06-11T06:32:27.000Z</time>
      </trkpt>
      <trkpt lat="45.68177" lon="2.96689">
        <ele>967.20001220703</ele>
        <time>2011-06-11T06:32:33.000Z</time>
      </trkpt>
      <trkpt lat="45.68192" lon="2.96684">
        <ele>967.59997558594</ele>
        <time>2011-06-11T06:32:39.000Z</time>
      </trkpt>
      <trkpt lat="45.68198" lon="2.96684">
        <ele>967.79998779297</ele>
        <time>2011-06-11T06:32:44.000Z</time>
      </trkpt>
      <trkpt lat="45.68206" lon="2.96685">
        <ele>967</ele>
        <time>2011-06-11T06:33:45.000Z</time>
      </trkpt>
      <trkpt lat="45.68219" lon="2.96679">
        <ele>967.40002441406</ele>
        <time>2011-06-11T06:33:50.000Z</time>
      </trkpt>
      <trkpt lat="45.68228" lon="2.96671">
        <ele>967.59997558594</ele>
        <time>2011-06-11T06:33:53.000Z</time>
      </trkpt>
      <trkpt lat="45.68232" lon="2.96649">
        <ele>967.40002441406</ele>
        <time>2011-06-11T06:33:57.000Z</time>
      </trkpt>
      <trkpt lat="45.68234" lon="2.96607">
        <ele>967</ele>
        <time>2011-06-11T06:34:03.000Z</time>
      </trkpt>
      <trkpt lat="45.6825" lon="2.96541">
        <ele>966.40002441406</ele>
        <time>2011-06-11T06:34:12.000Z</time>
      </trkpt>
      <trkpt lat="45.68272" lon="2.96491">
        <ele>966</ele>
        <time>2011-06-11T06:34:19.000Z</time>
      </trkpt>
      <trkpt lat="45.68302" lon="2.9643">
        <ele>964.79998779297</ele>
        <time>2011-06-11T06:34:27.000Z</time>
      </trkpt>
      <trkpt lat="45.68333" lon="2.96358">
        <ele>963.59997558594</ele>
        <time>2011-06-11T06:34:36.000Z</time>
      </trkpt>
      <trkpt lat="45.68344" lon="2.96307">
        <ele>963.59997558594</ele>
        <time>2011-06-11T06:34:42.000Z</time>
      </trkpt>
      <trkpt lat="45.68345" lon="2.96251">
        <ele>963.59997558594</ele>
        <time>2011-06-11T06:34:48.000Z</time>
      </trkpt>
      <trkpt lat="45.68341" lon="2.96162">
        <ele>963.40002441406</ele>
        <time>2011-06-11T06:34:58.000Z</time>
      </trkpt>
      <trkpt lat="45.68337" lon="2.96069">
        <ele>963.59997558594</ele>
        <time>2011-06-11T06:35:09.000Z</time>
      </trkpt>
      <trkpt lat="45.68333" lon="2.95974">
        <ele>963</ele>
        <time>2011-06-11T06:35:20.000Z</time>
      </trkpt>
      <trkpt lat="45.68328" lon="2.95862">
        <ele>962.59997558594</ele>
        <time>2011-06-11T06:35:33.000Z</time>
      </trkpt>
      <trkpt lat="45.68324" lon="2.95762">
        <ele>961.79998779297</ele>
        <time>2011-06-11T06:35:44.000Z</time>
      </trkpt>
      <trkpt lat="45.68319" lon="2.95651">
        <ele>960.79998779297</ele>
        <time>2011-06-11T06:35:56.000Z</time>
      </trkpt>
      <trkpt lat="45.68316" lon="2.95552">
        <ele>960.40002441406</ele>
        <time>2011-06-11T06:36:07.000Z</time>
      </trkpt>
      <trkpt lat="45.68317" lon="2.95468">
        <ele>960.20001220703</ele>
        <time>2011-06-11T06:36:16.000Z</time>
      </trkpt>
      <trkpt lat="45.68326" lon="2.9538">
        <ele>960.40002441406</ele>
        <time>2011-06-11T06:36:26.000Z</time>
      </trkpt>
      <trkpt lat="45.68334" lon="2.95303">
        <ele>960.40002441406</ele>
        <time>2011-06-11T06:36:35.000Z</time>
      </trkpt>
      <trkpt lat="45.68342" lon="2.95227">
        <ele>960.40002441406</ele>
        <time>2011-06-11T06:36:44.000Z</time>
      </trkpt>
      <trkpt lat="45.68351" lon="2.95135">
        <ele>961</ele>
        <time>2011-06-11T06:36:55.000Z</time>
      </trkpt>
      <trkpt lat="45.68361" lon="2.95029">
        <ele>961.79998779297</ele>
        <time>2011-06-11T06:37:08.000Z</time>
      </trkpt>
      <trkpt lat="45.68375" lon="2.94953">
        <ele>961.40002441406</ele>
        <time>2011-06-11T06:37:17.000Z</time>
      </trkpt>
      <trkpt lat="45.68392" lon="2.94898">
        <ele>960</ele>
        <time>2011-06-11T06:37:23.000Z</time>
      </trkpt>
      <trkpt lat="45.6842" lon="2.94819">
        <ele>957.59997558594</ele>
        <time>2011-06-11T06:37:31.000Z</time>
      </trkpt>
      <trkpt lat="45.68433" lon="2.94781">
        <ele>958</ele>
        <time>2011-06-11T06:37:36.000Z</time>
      </trkpt>
      <trkpt lat="45.68451" lon="2.94735">
        <ele>960.79998779297</ele>
        <time>2011-06-11T06:37:44.000Z</time>
      </trkpt>
      <trkpt lat="45.68461" lon="2.947">
        <ele>962.79998779297</ele>
        <time>2011-06-11T06:37:51.000Z</time>
      </trkpt>
      <trkpt lat="45.68456" lon="2.94674">
        <ele>964.20001220703</ele>
        <time>2011-06-11T06:37:57.000Z</time>
      </trkpt>
      <trkpt lat="45.68461" lon="2.94655">
        <ele>965</ele>
        <time>2011-06-11T06:38:01.000Z</time>
      </trkpt>
      <trkpt lat="45.68473" lon="2.94622">
        <ele>965.40002441406</ele>
        <time>2011-06-11T06:38:06.000Z</time>
      </trkpt>
      <trkpt lat="45.68502" lon="2.94542">
        <ele>965.79998779297</ele>
        <time>2011-06-11T06:38:17.000Z</time>
      </trkpt>
      <trkpt lat="45.68518" lon="2.94493">
        <ele>966.40002441406</ele>
        <time>2011-06-11T06:38:24.000Z</time>
      </trkpt>
      <trkpt lat="45.68529" lon="2.94431">
        <ele>966.20001220703</ele>
        <time>2011-06-11T06:38:32.000Z</time>
      </trkpt>
      <trkpt lat="45.68531" lon="2.94374">
        <ele>966</ele>
        <time>2011-06-11T06:38:39.000Z</time>
      </trkpt>
      <trkpt lat="45.68532" lon="2.94288">
        <ele>966.59997558594</ele>
        <time>2011-06-11T06:38:50.000Z</time>
      </trkpt>
      <trkpt lat="45.68533" lon="2.94219">
        <ele>967.20001220703</ele>
        <time>2011-06-11T06:38:59.000Z</time>
      </trkpt>
      <trkpt lat="45.68534" lon="2.94148">
        <ele>967</ele>
        <time>2011-06-11T06:39:08.000Z</time>
      </trkpt>
      <trkpt lat="45.68535" lon="2.94084">
        <ele>967</ele>
        <time>2011-06-11T06:39:16.000Z</time>
      </trkpt>
      <trkpt lat="45.68535" lon="2.94004">
        <ele>967.40002441406</ele>
        <time>2011-06-11T06:39:26.000Z</time>
      </trkpt>
      <trkpt lat="45.68536" lon="2.93937">
        <ele>968</ele>
        <time>2011-06-11T06:39:35.000Z</time>
      </trkpt>
      <trkpt lat="45.68544" lon="2.93881">
        <ele>968.40002441406</ele>
        <time>2011-06-11T06:39:43.000Z</time>
      </trkpt>
      <trkpt lat="45.68562" lon="2.93828">
        <ele>969.40002441406</ele>
        <time>2011-06-11T06:39:51.000Z</time>
      </trkpt>
      <trkpt lat="45.68592" lon="2.93779">
        <ele>970.40002441406</ele>
        <time>2011-06-11T06:40:00.000Z</time>
      </trkpt>
      <trkpt lat="45.6863" lon="2.93724">
        <ele>971.59997558594</ele>
        <time>2011-06-11T06:40:11.000Z</time>
      </trkpt>
      <trkpt lat="45.68668" lon="2.93661">
        <ele>972.59997558594</ele>
        <time>2011-06-11T06:40:23.000Z</time>
      </trkpt>
      <trkpt lat="45.68706" lon="2.93587">
        <ele>973.20001220703</ele>
        <time>2011-06-11T06:40:36.000Z</time>
      </trkpt>
      <trkpt lat="45.68728" lon="2.93542">
        <ele>974</ele>
        <time>2011-06-11T06:40:44.000Z</time>
      </trkpt>
      <trkpt lat="45.68747" lon="2.93501">
        <ele>974.59997558594</ele>
        <time>2011-06-11T06:40:51.000Z</time>
      </trkpt>
      <trkpt lat="45.68769" lon="2.93455">
        <ele>975</ele>
        <time>2011-06-11T06:40:59.000Z</time>
      </trkpt>
      <trkpt lat="45.68794" lon="2.93401">
        <ele>975.40002441406</ele>
        <time>2011-06-11T06:41:08.000Z</time>
      </trkpt>
      <trkpt lat="45.68829" lon="2.93324">
        <ele>976.59997558594</ele>
        <time>2011-06-11T06:41:21.000Z</time>
      </trkpt>
      <trkpt lat="45.68861" lon="2.93257">
        <ele>977.40002441406</ele>
        <time>2011-06-11T06:41:32.000Z</time>
      </trkpt>
      <trkpt lat="45.68884" lon="2.93202">
        <ele>978</ele>
        <time>2011-06-11T06:41:41.000Z</time>
      </trkpt>
      <trkpt lat="45.6891" lon="2.93131">
        <ele>978.79998779297</ele>
        <time>2011-06-11T06:41:52.000Z</time>
      </trkpt>
      <trkpt lat="45.68933" lon="2.93058">
        <ele>979.59997558594</ele>
        <time>2011-06-11T06:42:03.000Z</time>
      </trkpt>
      <trkpt lat="45.68955" lon="2.92983">
        <ele>979.79998779297</ele>
        <time>2011-06-11T06:42:14.000Z</time>
      </trkpt>
      <trkpt lat="45.68973" lon="2.9292">
        <ele>980</ele>
        <time>2011-06-11T06:42:23.000Z</time>
      </trkpt>
      <trkpt lat="45.68993" lon="2.92847">
        <ele>979.20001220703</ele>
        <time>2011-06-11T06:42:33.000Z</time>
      </trkpt>
      <trkpt lat="45.69015" lon="2.9277">
        <ele>978.59997558594</ele>
        <time>2011-06-11T06:42:43.000Z</time>
      </trkpt>
      <trkpt lat="45.69036" lon="2.92698">
        <ele>978.40002441406</ele>
        <time>2011-06-11T06:42:52.000Z</time>
      </trkpt>
      <trkpt lat="45.69056" lon="2.92627">
        <ele>977.79998779297</ele>
        <time>2011-06-11T06:43:01.000Z</time>
      </trkpt>
      <trkpt lat="45.69074" lon="2.92563">
        <ele>977.20001220703</ele>
        <time>2011-06-11T06:43:09.000Z</time>
      </trkpt>
      <trkpt lat="45.691" lon="2.9248">
        <ele>975.79998779297</ele>
        <time>2011-06-11T06:43:19.000Z</time>
      </trkpt>
      <trkpt lat="45.69125" lon="2.92423">
        <ele>975</ele>
        <time>2011-06-11T06:43:26.000Z</time>
      </trkpt>
      <trkpt lat="45.6916" lon="2.92366">
        <ele>973.79998779297</ele>
        <time>2011-06-11T06:43:34.000Z</time>
      </trkpt>
      <trkpt lat="45.69201" lon="2.92306">
        <ele>973.20001220703</ele>
        <time>2011-06-11T06:43:43.000Z</time>
      </trkpt>
      <trkpt lat="45.6926" lon="2.92222">
        <ele>971.59997558594</ele>
        <time>2011-06-11T06:43:55.000Z</time>
      </trkpt>
      <trkpt lat="45.6931" lon="2.9215">
        <ele>969.79998779297</ele>
        <time>2011-06-11T06:44:05.000Z</time>
      </trkpt>
      <trkpt lat="45.69345" lon="2.92099">
        <ele>968.40002441406</ele>
        <time>2011-06-11T06:44:12.000Z</time>
      </trkpt>
      <trkpt lat="45.69383" lon="2.92044">
        <ele>967.59997558594</ele>
        <time>2011-06-11T06:44:20.000Z</time>
      </trkpt>
      <trkpt lat="45.6943" lon="2.91977">
        <ele>966.59997558594</ele>
        <time>2011-06-11T06:44:30.000Z</time>
      </trkpt>
      <trkpt lat="45.69474" lon="2.91913">
        <ele>966</ele>
        <time>2011-06-11T06:44:40.000Z</time>
      </trkpt>
      <trkpt lat="45.69525" lon="2.91839">
        <ele>965.40002441406</ele>
        <time>2011-06-11T06:44:51.000Z</time>
      </trkpt>
      <trkpt lat="45.6957" lon="2.91774">
        <ele>963.79998779297</ele>
        <time>2011-06-11T06:45:00.000Z</time>
      </trkpt>
      <trkpt lat="45.69624" lon="2.91696">
        <ele>961.79998779297</ele>
        <time>2011-06-11T06:45:10.000Z</time>
      </trkpt>
      <trkpt lat="45.69676" lon="2.91627">
        <ele>959.20001220703</ele>
        <time>2011-06-11T06:45:19.000Z</time>
      </trkpt>
      <trkpt lat="45.69728" lon="2.91572">
        <ele>957.20001220703</ele>
        <time>2011-06-11T06:45:27.000Z</time>
      </trkpt>
      <trkpt lat="45.69788" lon="2.91519">
        <ele>955</ele>
        <time>2011-06-11T06:45:36.000Z</time>
      </trkpt>
      <trkpt lat="45.69837" lon="2.91481">
        <ele>952.79998779297</ele>
        <time>2011-06-11T06:45:43.000Z</time>
      </trkpt>
      <trkpt lat="45.69896" lon="2.91441">
        <ele>950</ele>
        <time>2011-06-11T06:45:51.000Z</time>
      </trkpt>
      <trkpt lat="45.69945" lon="2.91418">
        <ele>948.40002441406</ele>
        <time>2011-06-11T06:45:57.000Z</time>
      </trkpt>
      <trkpt lat="45.70002" lon="2.91406">
        <ele>946.40002441406</ele>
        <time>2011-06-11T06:46:04.000Z</time>
      </trkpt>
      <trkpt lat="45.70068" lon="2.91406">
        <ele>944.20001220703</ele>
        <time>2011-06-11T06:46:12.000Z</time>
      </trkpt>
      <trkpt lat="45.7014" lon="2.91411">
        <ele>941.79998779297</ele>
        <time>2011-06-11T06:46:21.000Z</time>
      </trkpt>
      <trkpt lat="45.70196" lon="2.91416">
        <ele>940.59997558594</ele>
        <time>2011-06-11T06:46:28.000Z</time>
      </trkpt>
      <trkpt lat="45.70247" lon="2.9141">
        <ele>938.79998779297</ele>
        <time>2011-06-11T06:46:34.000Z</time>
      </trkpt>
      <trkpt lat="45.70256" lon="2.91408">
        <ele>938.59997558594</ele>
        <time>2011-06-11T06:46:35.000Z</time>
      </trkpt>
      <trkpt lat="45.70312" lon="2.91387">
        <ele>936.40002441406</ele>
        <time>2011-06-11T06:46:42.000Z</time>
      </trkpt>
      <trkpt lat="45.70384" lon="2.91351">
        <ele>934.59997558594</ele>
        <time>2011-06-11T06:46:51.000Z</time>
      </trkpt>
      <trkpt lat="45.7045" lon="2.91314">
        <ele>931.79998779297</ele>
        <time>2011-06-11T06:46:59.000Z</time>
      </trkpt>
      <trkpt lat="45.7052" lon="2.91274">
        <ele>929</ele>
        <time>2011-06-11T06:47:07.000Z</time>
      </trkpt>
      <trkpt lat="45.70591" lon="2.91238">
        <ele>926.79998779297</ele>
        <time>2011-06-11T06:47:15.000Z</time>
      </trkpt>
      <trkpt lat="45.70654" lon="2.91216">
        <ele>924.40002441406</ele>
        <time>2011-06-11T06:47:22.000Z</time>
      </trkpt>
      <trkpt lat="45.70726" lon="2.91189">
        <ele>921.59997558594</ele>
        <time>2011-06-11T06:47:30.000Z</time>
      </trkpt>
      <trkpt lat="45.70776" lon="2.91154">
        <ele>920</ele>
        <time>2011-06-11T06:47:36.000Z</time>
      </trkpt>
      <trkpt lat="45.70837" lon="2.91111">
        <ele>918.20001220703</ele>
        <time>2011-06-11T06:47:43.000Z</time>
      </trkpt>
      <trkpt lat="45.70894" lon="2.91087">
        <ele>916.20001220703</ele>
        <time>2011-06-11T06:47:49.000Z</time>
      </trkpt>
      <trkpt lat="45.70952" lon="2.91075">
        <ele>914</ele>
        <time>2011-06-11T06:47:55.000Z</time>
      </trkpt>
      <trkpt lat="45.71018" lon="2.91077">
        <ele>912</ele>
        <time>2011-06-11T06:48:02.000Z</time>
      </trkpt>
      <trkpt lat="45.71084" lon="2.91073">
        <ele>909.79998779297</ele>
        <time>2011-06-11T06:48:09.000Z</time>
      </trkpt>
      <trkpt lat="45.71129" lon="2.91054">
        <ele>908.20001220703</ele>
        <time>2011-06-11T06:48:14.000Z</time>
      </trkpt>
      <trkpt lat="45.7117" lon="2.91018">
        <ele>906.40002441406</ele>
        <time>2011-06-11T06:48:19.000Z</time>
      </trkpt>
      <trkpt lat="45.71201" lon="2.90969">
        <ele>904.59997558594</ele>
        <time>2011-06-11T06:48:24.000Z</time>
      </trkpt>
      <trkpt lat="45.71225" lon="2.90911">
        <ele>902.59997558594</ele>
        <time>2011-06-11T06:48:29.000Z</time>
      </trkpt>
      <trkpt lat="45.71263" lon="2.90796">
        <ele>898.40002441406</ele>
        <time>2011-06-11T06:48:38.000Z</time>
      </trkpt>
      <trkpt lat="45.71309" lon="2.90657">
        <ele>894</ele>
        <time>2011-06-11T06:48:49.000Z</time>
      </trkpt>
      <trkpt lat="45.71363" lon="2.90501">
        <ele>891.20001220703</ele>
        <time>2011-06-11T06:49:02.000Z</time>
      </trkpt>
      <trkpt lat="45.71407" lon="2.90388">
        <ele>890.20001220703</ele>
        <time>2011-06-11T06:49:12.000Z</time>
      </trkpt>
      <trkpt lat="45.71444" lon="2.90295">
        <ele>889</ele>
        <time>2011-06-11T06:49:21.000Z</time>
      </trkpt>
      <trkpt lat="45.71475" lon="2.90236">
        <ele>888</ele>
        <time>2011-06-11T06:49:27.000Z</time>
      </trkpt>
      <trkpt lat="45.71509" lon="2.90194">
        <ele>887</ele>
        <time>2011-06-11T06:49:32.000Z</time>
      </trkpt>
      <trkpt lat="45.7155" lon="2.90162">
        <ele>885.40002441406</ele>
        <time>2011-06-11T06:49:37.000Z</time>
      </trkpt>
      <trkpt lat="45.7162" lon="2.90127">
        <ele>883.40002441406</ele>
        <time>2011-06-11T06:49:45.000Z</time>
      </trkpt>
      <trkpt lat="45.71692" lon="2.90092">
        <ele>879.79998779297</ele>
        <time>2011-06-11T06:49:53.000Z</time>
      </trkpt>
      <trkpt lat="45.71783" lon="2.90041">
        <ele>874.40002441406</ele>
        <time>2011-06-11T06:50:03.000Z</time>
      </trkpt>
      <trkpt lat="45.71824" lon="2.89998">
        <ele>872.20001220703</ele>
        <time>2011-06-11T06:50:08.000Z</time>
      </trkpt>
      <trkpt lat="45.71858" lon="2.89942">
        <ele>870.20001220703</ele>
        <time>2011-06-11T06:50:13.000Z</time>
      </trkpt>
      <trkpt lat="45.7192" lon="2.89818">
        <ele>865.20001220703</ele>
        <time>2011-06-11T06:50:23.000Z</time>
      </trkpt>
      <trkpt lat="45.71975" lon="2.89722">
        <ele>861</ele>
        <time>2011-06-11T06:50:31.000Z</time>
      </trkpt>
      <trkpt lat="45.72023" lon="2.89675">
        <ele>858.59997558594</ele>
        <time>2011-06-11T06:50:36.000Z</time>
      </trkpt>
      <trkpt lat="45.72068" lon="2.89652">
        <ele>856</ele>
        <time>2011-06-11T06:50:40.000Z</time>
      </trkpt>
      <trkpt lat="45.72115" lon="2.89644">
        <ele>853.59997558594</ele>
        <time>2011-06-11T06:50:44.000Z</time>
      </trkpt>
      <trkpt lat="45.72195" lon="2.89648">
        <ele>849.79998779297</ele>
        <time>2011-06-11T06:50:51.000Z</time>
      </trkpt>
      <trkpt lat="45.7232" lon="2.89657">
        <ele>844.79998779297</ele>
        <time>2011-06-11T06:51:02.000Z</time>
      </trkpt>
      <trkpt lat="45.7243" lon="2.89664">
        <ele>839.79998779297</ele>
        <time>2011-06-11T06:51:12.000Z</time>
      </trkpt>
      <trkpt lat="45.72468" lon="2.89659">
        <ele>838</ele>
        <time>2011-06-11T06:51:16.000Z</time>
      </trkpt>
      <trkpt lat="45.72503" lon="2.89638">
        <ele>836</ele>
        <time>2011-06-11T06:51:20.000Z</time>
      </trkpt>
      <trkpt lat="45.72576" lon="2.8958">
        <ele>831.79998779297</ele>
        <time>2011-06-11T06:51:28.000Z</time>
      </trkpt>
      <trkpt lat="45.72586" lon="2.89571">
        <ele>831.40002441406</ele>
        <time>2011-06-11T06:51:29.000Z</time>
      </trkpt>
      <trkpt lat="45.72625" lon="2.89515">
        <ele>829.40002441406</ele>
        <time>2011-06-11T06:51:34.000Z</time>
      </trkpt>
      <trkpt lat="45.72678" lon="2.89383">
        <ele>824.20001220703</ele>
        <time>2011-06-11T06:51:44.000Z</time>
      </trkpt>
      <trkpt lat="45.72736" lon="2.89239">
        <ele>819.40002441406</ele>
        <time>2011-06-11T06:51:55.000Z</time>
      </trkpt>
      <trkpt lat="45.72762" lon="2.89156">
        <ele>817.20001220703</ele>
        <time>2011-06-11T06:52:01.000Z</time>
      </trkpt>
      <trkpt lat="45.72773" lon="2.89079">
        <ele>815.20001220703</ele>
        <time>2011-06-11T06:52:07.000Z</time>
      </trkpt>
      <trkpt lat="45.72778" lon="2.89048">
        <ele>814.40002441406</ele>
        <time>2011-06-11T06:52:10.000Z</time>
      </trkpt>
      <trkpt lat="45.72792" lon="2.8902">
        <ele>814</ele>
        <time>2011-06-11T06:52:14.000Z</time>
      </trkpt>
      <trkpt lat="45.72801" lon="2.88993">
        <ele>814</ele>
        <time>2011-06-11T06:52:18.000Z</time>
      </trkpt>
      <trkpt lat="45.72794" lon="2.88974">
        <ele>813.79998779297</ele>
        <time>2011-06-11T06:52:21.000Z</time>
      </trkpt>
      <trkpt lat="45.72781" lon="2.88961">
        <ele>813.20001220703</ele>
        <time>2011-06-11T06:52:24.000Z</time>
      </trkpt>
      <trkpt lat="45.72765" lon="2.88962">
        <ele>812.59997558594</ele>
        <time>2011-06-11T06:52:27.000Z</time>
      </trkpt>
      <trkpt lat="45.72755" lon="2.8897">
        <ele>812.40002441406</ele>
        <time>2011-06-11T06:52:29.000Z</time>
      </trkpt>
      <trkpt lat="45.72732" lon="2.88987">
        <ele>812.59997558594</ele>
        <time>2011-06-11T06:52:34.000Z</time>
      </trkpt>
      <trkpt lat="45.72696" lon="2.88984">
        <ele>812.20001220703</ele>
        <time>2011-06-11T06:52:41.000Z</time>
      </trkpt>
      <trkpt lat="45.72671" lon="2.88972">
        <ele>811.79998779297</ele>
        <time>2011-06-11T06:52:46.000Z</time>
      </trkpt>
      <trkpt lat="45.72645" lon="2.88945">
        <ele>811.59997558594</ele>
        <time>2011-06-11T06:52:52.000Z</time>
      </trkpt>
      <trkpt lat="45.72624" lon="2.88904">
        <ele>811.20001220703</ele>
        <time>2011-06-11T06:52:58.000Z</time>
      </trkpt>
      <trkpt lat="45.7261" lon="2.88843">
        <ele>810.79998779297</ele>
        <time>2011-06-11T06:53:06.000Z</time>
      </trkpt>
      <trkpt lat="45.72603" lon="2.88806">
        <ele>810</ele>
        <time>2011-06-11T06:53:13.000Z</time>
      </trkpt>
      <trkpt lat="45.72603" lon="2.88798">
        <ele>809.59997558594</ele>
        <time>2011-06-11T06:53:17.000Z</time>
      </trkpt>
      <trkpt lat="45.72599" lon="2.88779">
        <ele>809.40002441406</ele>
        <time>2011-06-11T06:53:30.000Z</time>
      </trkpt>
      <trkpt lat="45.7259" lon="2.88746">
        <ele>809</ele>
        <time>2011-06-11T06:53:35.000Z</time>
      </trkpt>
      <trkpt lat="45.72577" lon="2.88707">
        <ele>808</ele>
        <time>2011-06-11T06:53:39.000Z</time>
      </trkpt>
      <trkpt lat="45.72547" lon="2.88626">
        <ele>805.79998779297</ele>
        <time>2011-06-11T06:53:47.000Z</time>
      </trkpt>
      <trkpt lat="45.72527" lon="2.88569">
        <ele>804</ele>
        <time>2011-06-11T06:53:53.000Z</time>
      </trkpt>
      <trkpt lat="45.72491" lon="2.88467">
        <ele>801</ele>
        <time>2011-06-11T06:54:03.000Z</time>
      </trkpt>
      <trkpt lat="45.7246" lon="2.88375">
        <ele>799.20001220703</ele>
        <time>2011-06-11T06:54:12.000Z</time>
      </trkpt>
      <trkpt lat="45.72433" lon="2.88302">
        <ele>797.59997558594</ele>
        <time>2011-06-11T06:54:20.000Z</time>
      </trkpt>
      <trkpt lat="45.72414" lon="2.88253">
        <ele>797.20001220703</ele>
        <time>2011-06-11T06:54:26.000Z</time>
      </trkpt>
      <trkpt lat="45.72397" lon="2.88232">
        <ele>796.79998779297</ele>
        <time>2011-06-11T06:54:30.000Z</time>
      </trkpt>
      <trkpt lat="45.72359" lon="2.88212">
        <ele>795.79998779297</ele>
        <time>2011-06-11T06:54:37.000Z</time>
      </trkpt>
      <trkpt lat="45.72304" lon="2.88188">
        <ele>794</ele>
        <time>2011-06-11T06:54:46.000Z</time>
      </trkpt>
      <trkpt lat="45.72262" lon="2.88182">
        <ele>792.20001220703</ele>
        <time>2011-06-11T06:54:52.000Z</time>
      </trkpt>
      <trkpt lat="45.72194" lon="2.88185">
        <ele>789.79998779297</ele>
        <time>2011-06-11T06:55:01.000Z</time>
      </trkpt>
      <trkpt lat="45.72186" lon="2.88185">
        <ele>789.59997558594</ele>
        <time>2011-06-11T06:55:02.000Z</time>
      </trkpt>
      <trkpt lat="45.72156" lon="2.8817">
        <ele>788</ele>
        <time>2011-06-11T06:55:06.000Z</time>
      </trkpt>
      <trkpt lat="45.72149" lon="2.88162">
        <ele>787.59997558594</ele>
        <time>2011-06-11T06:55:07.000Z</time>
      </trkpt>
      <trkpt lat="45.72102" lon="2.88092">
        <ele>784.20001220703</ele>
        <time>2011-06-11T06:55:14.000Z</time>
      </trkpt>
      <trkpt lat="45.72076" lon="2.8803">
        <ele>781.20001220703</ele>
        <time>2011-06-11T06:55:19.000Z</time>
      </trkpt>
      <trkpt lat="45.72063" lon="2.87989">
        <ele>779</ele>
        <time>2011-06-11T06:55:22.000Z</time>
      </trkpt>
      <trkpt lat="45.72059" lon="2.87932">
        <ele>777</ele>
        <time>2011-06-11T06:55:26.000Z</time>
      </trkpt>
      <trkpt lat="45.72053" lon="2.87863">
        <ele>776.20001220703</ele>
        <time>2011-06-11T06:55:32.000Z</time>
      </trkpt>
      <trkpt lat="45.7204" lon="2.87843">
        <ele>777</ele>
        <time>2011-06-11T06:55:35.000Z</time>
      </trkpt>
      <trkpt lat="45.72029" lon="2.87837">
        <ele>777.59997558594</ele>
        <time>2011-06-11T06:55:37.000Z</time>
      </trkpt>
      <trkpt lat="45.71998" lon="2.87824">
        <ele>779.40002441406</ele>
        <time>2011-06-11T06:55:44.000Z</time>
      </trkpt>
      <trkpt lat="45.71976" lon="2.8781">
        <ele>781</ele>
        <time>2011-06-11T06:55:50.000Z</time>
      </trkpt>
      <trkpt lat="45.71962" lon="2.8779">
        <ele>782.79998779297</ele>
        <time>2011-06-11T06:55:55.000Z</time>
      </trkpt>
      <trkpt lat="45.71954" lon="2.87762">
        <ele>784.59997558594</ele>
        <time>2011-06-11T06:56:01.000Z</time>
      </trkpt>
      <trkpt lat="45.71946" lon="2.87727">
        <ele>786</ele>
        <time>2011-06-11T06:56:08.000Z</time>
      </trkpt>
      <trkpt lat="45.71941" lon="2.87692">
        <ele>787.20001220703</ele>
        <time>2011-06-11T06:56:15.000Z</time>
      </trkpt>
      <trkpt lat="45.71937" lon="2.87657">
        <ele>788.40002441406</ele>
        <time>2011-06-11T06:56:22.000Z</time>
      </trkpt>
      <trkpt lat="45.71933" lon="2.87617">
        <ele>789.40002441406</ele>
        <time>2011-06-11T06:56:29.000Z</time>
      </trkpt>
      <trkpt lat="45.71928" lon="2.8757">
        <ele>790.40002441406</ele>
        <time>2011-06-11T06:56:37.000Z</time>
      </trkpt>
      <trkpt lat="45.71924" lon="2.87523">
        <ele>791.79998779297</ele>
        <time>2011-06-11T06:56:45.000Z</time>
      </trkpt>
      <trkpt lat="45.7192" lon="2.8746">
        <ele>792.79998779297</ele>
        <time>2011-06-11T06:56:55.000Z</time>
      </trkpt>
      <trkpt lat="45.71917" lon="2.8741">
        <ele>793.59997558594</ele>
        <time>2011-06-11T06:57:03.000Z</time>
      </trkpt>
      <trkpt lat="45.71908" lon="2.87351">
        <ele>794.59997558594</ele>
        <time>2011-06-11T06:57:13.000Z</time>
      </trkpt>
      <trkpt lat="45.71892" lon="2.87305">
        <ele>795.79998779297</ele>
        <time>2011-06-11T06:57:21.000Z</time>
      </trkpt>
      <trkpt lat="45.71865" lon="2.87256">
        <ele>797</ele>
        <time>2011-06-11T06:57:31.000Z</time>
      </trkpt>
      <trkpt lat="45.71836" lon="2.87213">
        <ele>798.79998779297</ele>
        <time>2011-06-11T06:57:41.000Z</time>
      </trkpt>
      <trkpt lat="45.71804" lon="2.87167">
        <ele>799.79998779297</ele>
        <time>2011-06-11T06:57:51.000Z</time>
      </trkpt>
      <trkpt lat="45.71787" lon="2.87128">
        <ele>799.79998779297</ele>
        <time>2011-06-11T06:57:57.000Z</time>
      </trkpt>
      <trkpt lat="45.71775" lon="2.87076">
        <ele>798.79998779297</ele>
        <time>2011-06-11T06:58:03.000Z</time>
      </trkpt>
      <trkpt lat="45.71757" lon="2.87002">
        <ele>797.59997558594</ele>
        <time>2011-06-11T06:58:11.000Z</time>
      </trkpt>
      <trkpt lat="45.71741" lon="2.86928">
        <ele>796.20001220703</ele>
        <time>2011-06-11T06:58:19.000Z</time>
      </trkpt>
      <trkpt lat="45.71724" lon="2.86852">
        <ele>795.59997558594</ele>
        <time>2011-06-11T06:58:28.000Z</time>
      </trkpt>
      <trkpt lat="45.71705" lon="2.86768">
        <ele>796</ele>
        <time>2011-06-11T06:58:39.000Z</time>
      </trkpt>
      <trkpt lat="45.71688" lon="2.86694">
        <ele>796.79998779297</ele>
        <time>2011-06-11T06:58:49.000Z</time>
      </trkpt>
      <trkpt lat="45.71677" lon="2.86645">
        <ele>798.59997558594</ele>
        <time>2011-06-11T06:58:57.000Z</time>
      </trkpt>
      <trkpt lat="45.71668" lon="2.86605">
        <ele>800.20001220703</ele>
        <time>2011-06-11T06:59:04.000Z</time>
      </trkpt>
      <trkpt lat="45.71659" lon="2.86561">
        <ele>802.20001220703</ele>
        <time>2011-06-11T06:59:12.000Z</time>
      </trkpt>
      <trkpt lat="45.7165" lon="2.86521">
        <ele>804.59997558594</ele>
        <time>2011-06-11T06:59:19.000Z</time>
      </trkpt>
      <trkpt lat="45.71637" lon="2.86469">
        <ele>807.40002441406</ele>
        <time>2011-06-11T06:59:29.000Z</time>
      </trkpt>
      <trkpt lat="45.71629" lon="2.86433">
        <ele>809</ele>
        <time>2011-06-11T06:59:36.000Z</time>
      </trkpt>
      <trkpt lat="45.71621" lon="2.86402">
        <ele>810.59997558594</ele>
        <time>2011-06-11T06:59:42.000Z</time>
      </trkpt>
      <trkpt lat="45.71613" lon="2.86367">
        <ele>812.59997558594</ele>
        <time>2011-06-11T06:59:49.000Z</time>
      </trkpt>
      <trkpt lat="45.716" lon="2.86331">
        <ele>814.20001220703</ele>
        <time>2011-06-11T06:59:57.000Z</time>
      </trkpt>
      <trkpt lat="45.71585" lon="2.86309">
        <ele>816.20001220703</ele>
        <time>2011-06-11T07:00:04.000Z</time>
      </trkpt>
      <trkpt lat="45.71559" lon="2.86291">
        <ele>818.59997558594</ele>
        <time>2011-06-11T07:00:13.000Z</time>
      </trkpt>
      <trkpt lat="45.71535" lon="2.86279">
        <ele>819.79998779297</ele>
        <time>2011-06-11T07:00:20.000Z</time>
      </trkpt>
      <trkpt lat="45.71492" lon="2.86263">
        <ele>822.40002441406</ele>
        <time>2011-06-11T07:00:32.000Z</time>
      </trkpt>
      <trkpt lat="45.71457" lon="2.86249">
        <ele>824.40002441406</ele>
        <time>2011-06-11T07:00:42.000Z</time>
      </trkpt>
      <trkpt lat="45.71416" lon="2.86234">
        <ele>826.20001220703</ele>
        <time>2011-06-11T07:00:53.000Z</time>
      </trkpt>
      <trkpt lat="45.71367" lon="2.86216">
        <ele>828</ele>
        <time>2011-06-11T07:01:06.000Z</time>
      </trkpt>
      <trkpt lat="45.71334" lon="2.86194">
        <ele>828.59997558594</ele>
        <time>2011-06-11T07:01:15.000Z</time>
      </trkpt>
      <trkpt lat="45.71306" lon="2.86162">
        <ele>829.40002441406</ele>
        <time>2011-06-11T07:01:23.000Z</time>
      </trkpt>
      <trkpt lat="45.71282" lon="2.86118">
        <ele>830.20001220703</ele>
        <time>2011-06-11T07:01:32.000Z</time>
      </trkpt>
      <trkpt lat="45.71251" lon="2.86059">
        <ele>831.79998779297</ele>
        <time>2011-06-11T07:01:43.000Z</time>
      </trkpt>
      <trkpt lat="45.71223" lon="2.85993">
        <ele>833.20001220703</ele>
        <time>2011-06-11T07:01:55.000Z</time>
      </trkpt>
      <trkpt lat="45.71199" lon="2.85925">
        <ele>835.40002441406</ele>
        <time>2011-06-11T07:02:07.000Z</time>
      </trkpt>
      <trkpt lat="45.71181" lon="2.85862">
        <ele>837.40002441406</ele>
        <time>2011-06-11T07:02:18.000Z</time>
      </trkpt>
      <trkpt lat="45.71162" lon="2.8582">
        <ele>838.79998779297</ele>
        <time>2011-06-11T07:02:26.000Z</time>
      </trkpt>
      <trkpt lat="45.71138" lon="2.85791">
        <ele>840</ele>
        <time>2011-06-11T07:02:33.000Z</time>
      </trkpt>
      <trkpt lat="45.71106" lon="2.85772">
        <ele>841.59997558594</ele>
        <time>2011-06-11T07:02:41.000Z</time>
      </trkpt>
      <trkpt lat="45.71063" lon="2.85761">
        <ele>843.40002441406</ele>
        <time>2011-06-11T07:02:51.000Z</time>
      </trkpt>
      <trkpt lat="45.71019" lon="2.85754">
        <ele>844.79998779297</ele>
        <time>2011-06-11T07:03:01.000Z</time>
      </trkpt>
      <trkpt lat="45.70975" lon="2.85748">
        <ele>846.79998779297</ele>
        <time>2011-06-11T07:03:11.000Z</time>
      </trkpt>
      <trkpt lat="45.7095" lon="2.8574">
        <ele>848.79998779297</ele>
        <time>2011-06-11T07:03:18.000Z</time>
      </trkpt>
      <trkpt lat="45.70924" lon="2.85727">
        <ele>851</ele>
        <time>2011-06-11T07:03:26.000Z</time>
      </trkpt>
      <trkpt lat="45.70897" lon="2.857">
        <ele>854</ele>
        <time>2011-06-11T07:03:36.000Z</time>
      </trkpt>
      <trkpt lat="45.70875" lon="2.85669">
        <ele>856.20001220703</ele>
        <time>2011-06-11T07:03:45.000Z</time>
      </trkpt>
      <trkpt lat="45.70855" lon="2.8563">
        <ele>858.79998779297</ele>
        <time>2011-06-11T07:03:55.000Z</time>
      </trkpt>
      <trkpt lat="45.70841" lon="2.85583">
        <ele>860.79998779297</ele>
        <time>2011-06-11T07:04:06.000Z</time>
      </trkpt>
      <trkpt lat="45.70841" lon="2.8556">
        <ele>862</ele>
        <time>2011-06-11T07:04:12.000Z</time>
      </trkpt>
      <trkpt lat="45.70849" lon="2.85545">
        <ele>862</ele>
        <time>2011-06-11T07:04:18.000Z</time>
      </trkpt>
      <trkpt lat="45.70857" lon="2.85532">
        <ele>861.59997558594</ele>
        <time>2011-06-11T07:04:22.000Z</time>
      </trkpt>
      <trkpt lat="45.70862" lon="2.85498">
        <ele>860.59997558594</ele>
        <time>2011-06-11T07:04:27.000Z</time>
      </trkpt>
      <trkpt lat="45.70861" lon="2.8544">
        <ele>858</ele>
        <time>2011-06-11T07:04:33.000Z</time>
      </trkpt>
      <trkpt lat="45.70854" lon="2.8539">
        <ele>855.40002441406</ele>
        <time>2011-06-11T07:04:37.000Z</time>
      </trkpt>
      <trkpt lat="45.70836" lon="2.85338">
        <ele>852.20001220703</ele>
        <time>2011-06-11T07:04:41.000Z</time>
      </trkpt>
      <trkpt lat="45.70811" lon="2.85304">
        <ele>849.40002441406</ele>
        <time>2011-06-11T07:04:44.000Z</time>
      </trkpt>
      <trkpt lat="45.70782" lon="2.85273">
        <ele>846.59997558594</ele>
        <time>2011-06-11T07:04:47.000Z</time>
      </trkpt>
      <trkpt lat="45.7076" lon="2.85216">
        <ele>843</ele>
        <time>2011-06-11T07:04:51.000Z</time>
      </trkpt>
      <trkpt lat="45.70751" lon="2.85135">
        <ele>839.79998779297</ele>
        <time>2011-06-11T07:04:56.000Z</time>
      </trkpt>
      <trkpt lat="45.70749" lon="2.85102">
        <ele>838.59997558594</ele>
        <time>2011-06-11T07:04:58.000Z</time>
      </trkpt>
      <trkpt lat="45.70754" lon="2.84975">
        <ele>832.40002441406</ele>
        <time>2011-06-11T07:05:05.000Z</time>
      </trkpt>
      <trkpt lat="45.70756" lon="2.84943">
        <ele>830</ele>
        <time>2011-06-11T07:05:07.000Z</time>
      </trkpt>
      <trkpt lat="45.70746" lon="2.84899">
        <ele>826.40002441406</ele>
        <time>2011-06-11T07:05:10.000Z</time>
      </trkpt>
      <trkpt lat="45.70739" lon="2.84886">
        <ele>825</ele>
        <time>2011-06-11T07:05:11.000Z</time>
      </trkpt>
      <trkpt lat="45.70686" lon="2.84818">
        <ele>818.40002441406</ele>
        <time>2011-06-11T07:05:17.000Z</time>
      </trkpt>
      <trkpt lat="45.70679" lon="2.8481">
        <ele>817.20001220703</ele>
        <time>2011-06-11T07:05:18.000Z</time>
      </trkpt>
      <trkpt lat="45.7067" lon="2.84783">
        <ele>814.20001220703</ele>
        <time>2011-06-11T07:05:21.000Z</time>
      </trkpt>
      <trkpt lat="45.70674" lon="2.84773">
        <ele>814.20001220703</ele>
        <time>2011-06-11T07:05:22.000Z</time>
      </trkpt>
      <trkpt lat="45.70682" lon="2.84767">
        <ele>813.20001220703</ele>
        <time>2011-06-11T07:05:23.000Z</time>
      </trkpt>
      <trkpt lat="45.70735" lon="2.84727">
        <ele>807.20001220703</ele>
        <time>2011-06-11T07:05:29.000Z</time>
      </trkpt>
      <trkpt lat="45.70786" lon="2.84685">
        <ele>802.20001220703</ele>
        <time>2011-06-11T07:05:34.000Z</time>
      </trkpt>
      <trkpt lat="45.70797" lon="2.84676">
        <ele>801</ele>
        <time>2011-06-11T07:05:35.000Z</time>
      </trkpt>
      <trkpt lat="45.70831" lon="2.84625">
        <ele>796.20001220703</ele>
        <time>2011-06-11T07:05:39.000Z</time>
      </trkpt>
      <trkpt lat="45.70861" lon="2.84571">
        <ele>792.79998779297</ele>
        <time>2011-06-11T07:05:43.000Z</time>
      </trkpt>
      <trkpt lat="45.7089" lon="2.84556">
        <ele>792</ele>
        <time>2011-06-11T07:05:46.000Z</time>
      </trkpt>
      <trkpt lat="45.70912" lon="2.84539">
        <ele>792.40002441406</ele>
        <time>2011-06-11T07:05:49.000Z</time>
      </trkpt>
      <trkpt lat="45.70918" lon="2.84514">
        <ele>793.40002441406</ele>
        <time>2011-06-11T07:05:52.000Z</time>
      </trkpt>
      <trkpt lat="45.70912" lon="2.84492">
        <ele>794.59997558594</ele>
        <time>2011-06-11T07:05:55.000Z</time>
      </trkpt>
      <trkpt lat="45.70889" lon="2.84456">
        <ele>798</ele>
        <time>2011-06-11T07:06:03.000Z</time>
      </trkpt>
      <trkpt lat="45.70871" lon="2.84428">
        <ele>800.40002441406</ele>
        <time>2011-06-11T07:06:11.000Z</time>
      </trkpt>
      <trkpt lat="45.70851" lon="2.84396">
        <ele>802.40002441406</ele>
        <time>2011-06-11T07:06:20.000Z</time>
      </trkpt>
      <trkpt lat="45.70828" lon="2.84359">
        <ele>804.59997558594</ele>
        <time>2011-06-11T07:06:30.000Z</time>
      </trkpt>
      <trkpt lat="45.70797" lon="2.84313">
        <ele>807.40002441406</ele>
        <time>2011-06-11T07:06:43.000Z</time>
      </trkpt>
      <trkpt lat="45.70768" lon="2.84284">
        <ele>809.59997558594</ele>
        <time>2011-06-11T07:06:53.000Z</time>
      </trkpt>
      <trkpt lat="45.70733" lon="2.84259">
        <ele>811.59997558594</ele>
        <time>2011-06-11T07:07:04.000Z</time>
      </trkpt>
      <trkpt lat="45.70711" lon="2.8423">
        <ele>813</ele>
        <time>2011-06-11T07:07:12.000Z</time>
      </trkpt>
      <trkpt lat="45.70697" lon="2.84191">
        <ele>814.20001220703</ele>
        <time>2011-06-11T07:07:20.000Z</time>
      </trkpt>
      <trkpt lat="45.70691" lon="2.84151">
        <ele>815</ele>
        <time>2011-06-11T07:07:27.000Z</time>
      </trkpt>
      <trkpt lat="45.70693" lon="2.84121">
        <ele>815.40002441406</ele>
        <time>2011-06-11T07:07:32.000Z</time>
      </trkpt>
      <trkpt lat="45.70701" lon="2.84086">
        <ele>817.20001220703</ele>
        <time>2011-06-11T07:07:39.000Z</time>
      </trkpt>
      <trkpt lat="45.70701" lon="2.8406">
        <ele>819</ele>
        <time>2011-06-11T07:07:44.000Z</time>
      </trkpt>
      <trkpt lat="45.70692" lon="2.84034">
        <ele>820</ele>
        <time>2011-06-11T07:07:49.000Z</time>
      </trkpt>
      <trkpt lat="45.70676" lon="2.83994">
        <ele>821.20001220703</ele>
        <time>2011-06-11T07:07:57.000Z</time>
      </trkpt>
      <trkpt lat="45.70658" lon="2.83947">
        <ele>821.79998779297</ele>
        <time>2011-06-11T07:08:06.000Z</time>
      </trkpt>
      <trkpt lat="45.70643" lon="2.83907">
        <ele>820.79998779297</ele>
        <time>2011-06-11T07:08:11.000Z</time>
      </trkpt>
      <trkpt lat="45.70639" lon="2.83886">
        <ele>820</ele>
        <time>2011-06-11T07:08:13.000Z</time>
      </trkpt>
      <trkpt lat="45.70641" lon="2.83838">
        <ele>818.20001220703</ele>
        <time>2011-06-11T07:08:17.000Z</time>
      </trkpt>
      <trkpt lat="45.70644" lon="2.83825">
        <ele>817.79998779297</ele>
        <time>2011-06-11T07:08:18.000Z</time>
      </trkpt>
      <trkpt lat="45.70664" lon="2.8377">
        <ele>815.40002441406</ele>
        <time>2011-06-11T07:08:22.000Z</time>
      </trkpt>
      <trkpt lat="45.70677" lon="2.83707">
        <ele>811.20001220703</ele>
        <time>2011-06-11T07:08:26.000Z</time>
      </trkpt>
      <trkpt lat="45.70679" lon="2.83603">
        <ele>805</ele>
        <time>2011-06-11T07:08:32.000Z</time>
      </trkpt>
      <trkpt lat="45.70682" lon="2.83573">
        <ele>803</ele>
        <time>2011-06-11T07:08:34.000Z</time>
      </trkpt>
      <trkpt lat="45.70695" lon="2.83521">
        <ele>799.40002441406</ele>
        <time>2011-06-11T07:08:38.000Z</time>
      </trkpt>
      <trkpt lat="45.70715" lon="2.83498">
        <ele>796.59997558594</ele>
        <time>2011-06-11T07:08:41.000Z</time>
      </trkpt>
      <trkpt lat="45.70744" lon="2.83511">
        <ele>795</ele>
        <time>2011-06-11T07:08:44.000Z</time>
      </trkpt>
      <trkpt lat="45.70751" lon="2.83517">
        <ele>794</ele>
        <time>2011-06-11T07:08:45.000Z</time>
      </trkpt>
      <trkpt lat="45.70771" lon="2.8352">
        <ele>791.20001220703</ele>
        <time>2011-06-11T07:08:49.000Z</time>
      </trkpt>
      <trkpt lat="45.70767" lon="2.83506">
        <ele>790</ele>
        <time>2011-06-11T07:08:51.000Z</time>
      </trkpt>
      <trkpt lat="45.70755" lon="2.83494">
        <ele>788.79998779297</ele>
        <time>2011-06-11T07:08:53.000Z</time>
      </trkpt>
      <trkpt lat="45.70715" lon="2.83463">
        <ele>786</ele>
        <time>2011-06-11T07:08:59.000Z</time>
      </trkpt>
      <trkpt lat="45.70695" lon="2.83422">
        <ele>783.59997558594</ele>
        <time>2011-06-11T07:09:03.000Z</time>
      </trkpt>
      <trkpt lat="45.70693" lon="2.83384">
        <ele>782.20001220703</ele>
        <time>2011-06-11T07:09:06.000Z</time>
      </trkpt>
      <trkpt lat="45.70695" lon="2.83321">
        <ele>781.79998779297</ele>
        <time>2011-06-11T07:09:12.000Z</time>
      </trkpt>
      <trkpt lat="45.70699" lon="2.83297">
        <ele>782.59997558594</ele>
        <time>2011-06-11T07:09:15.000Z</time>
      </trkpt>
      <trkpt lat="45.70704" lon="2.83283">
        <ele>783.20001220703</ele>
        <time>2011-06-11T07:09:17.000Z</time>
      </trkpt>
      <trkpt lat="45.70715" lon="2.83263">
        <ele>784.59997558594</ele>
        <time>2011-06-11T07:09:21.000Z</time>
      </trkpt>
      <trkpt lat="45.70749" lon="2.83229">
        <ele>787.79998779297</ele>
        <time>2011-06-11T07:09:31.000Z</time>
      </trkpt>
      <trkpt lat="45.7078" lon="2.83197">
        <ele>790</ele>
        <time>2011-06-11T07:09:41.000Z</time>
      </trkpt>
      <trkpt lat="45.70807" lon="2.8317">
        <ele>792.59997558594</ele>
        <time>2011-06-11T07:09:50.000Z</time>
      </trkpt>
      <trkpt lat="45.7083" lon="2.83149">
        <ele>794.79998779297</ele>
        <time>2011-06-11T07:09:58.000Z</time>
      </trkpt>
      <trkpt lat="45.70848" lon="2.8314">
        <ele>795.79998779297</ele>
        <time>2011-06-11T07:10:04.000Z</time>
      </trkpt>
      <trkpt lat="45.70858" lon="2.8313">
        <ele>797.20001220703</ele>
        <time>2011-06-11T07:10:08.000Z</time>
      </trkpt>
      <trkpt lat="45.70853" lon="2.83115">
        <ele>798.59997558594</ele>
        <time>2011-06-11T07:10:12.000Z</time>
      </trkpt>
      <trkpt lat="45.70843" lon="2.83109">
        <ele>799.20001220703</ele>
        <time>2011-06-11T07:10:15.000Z</time>
      </trkpt>
      <trkpt lat="45.70813" lon="2.83105">
        <ele>801.40002441406</ele>
        <time>2011-06-11T07:10:24.000Z</time>
      </trkpt>
      <trkpt lat="45.70781" lon="2.83104">
        <ele>803.79998779297</ele>
        <time>2011-06-11T07:10:34.000Z</time>
      </trkpt>
      <trkpt lat="45.70764" lon="2.83098">
        <ele>805.40002441406</ele>
        <time>2011-06-11T07:10:41.000Z</time>
      </trkpt>
      <trkpt lat="45.70747" lon="2.83093">
        <ele>807.40002441406</ele>
        <time>2011-06-11T07:10:47.000Z</time>
      </trkpt>
      <trkpt lat="45.70727" lon="2.83085">
        <ele>808.79998779297</ele>
        <time>2011-06-11T07:10:55.000Z</time>
      </trkpt>
      <trkpt lat="45.70712" lon="2.83079">
        <ele>810.79998779297</ele>
        <time>2011-06-11T07:11:01.000Z</time>
      </trkpt>
      <trkpt lat="45.70692" lon="2.83066">
        <ele>813</ele>
        <time>2011-06-11T07:11:09.000Z</time>
      </trkpt>
      <trkpt lat="45.7067" lon="2.83046">
        <ele>815</ele>
        <time>2011-06-11T07:11:18.000Z</time>
      </trkpt>
      <trkpt lat="45.70658" lon="2.83034">
        <ele>816.40002441406</ele>
        <time>2011-06-11T07:11:23.000Z</time>
      </trkpt>
      <trkpt lat="45.70641" lon="2.83011">
        <ele>818.79998779297</ele>
        <time>2011-06-11T07:11:31.000Z</time>
      </trkpt>
      <trkpt lat="45.70628" lon="2.82989">
        <ele>820.59997558594</ele>
        <time>2011-06-11T07:11:38.000Z</time>
      </trkpt>
      <trkpt lat="45.70615" lon="2.82965">
        <ele>822</ele>
        <time>2011-06-11T07:11:45.000Z</time>
      </trkpt>
      <trkpt lat="45.70603" lon="2.82929">
        <ele>824.20001220703</ele>
        <time>2011-06-11T07:11:54.000Z</time>
      </trkpt>
      <trkpt lat="45.706" lon="2.82897">
        <ele>826</ele>
        <time>2011-06-11T07:12:02.000Z</time>
      </trkpt>
      <trkpt lat="45.70598" lon="2.82865">
        <ele>828</ele>
        <time>2011-06-11T07:12:10.000Z</time>
      </trkpt>
      <trkpt lat="45.70593" lon="2.82832">
        <ele>830.59997558594</ele>
        <time>2011-06-11T07:12:18.000Z</time>
      </trkpt>
      <trkpt lat="45.7058" lon="2.82799">
        <ele>832.59997558594</ele>
        <time>2011-06-11T07:12:27.000Z</time>
      </trkpt>
      <trkpt lat="45.70566" lon="2.82781">
        <ele>834</ele>
        <time>2011-06-11T07:12:34.000Z</time>
      </trkpt>
      <trkpt lat="45.70547" lon="2.82773">
        <ele>835.59997558594</ele>
        <time>2011-06-11T07:12:41.000Z</time>
      </trkpt>
      <trkpt lat="45.7053" lon="2.82775">
        <ele>837.20001220703</ele>
        <time>2011-06-11T07:12:47.000Z</time>
      </trkpt>
      <trkpt lat="45.70512" lon="2.82781">
        <ele>839</ele>
        <time>2011-06-11T07:12:54.000Z</time>
      </trkpt>
      <trkpt lat="45.70492" lon="2.82788">
        <ele>840.59997558594</ele>
        <time>2011-06-11T07:13:01.000Z</time>
      </trkpt>
      <trkpt lat="45.70474" lon="2.82794">
        <ele>842.59997558594</ele>
        <time>2011-06-11T07:13:08.000Z</time>
      </trkpt>
      <trkpt lat="45.70456" lon="2.82803">
        <ele>844.40002441406</ele>
        <time>2011-06-11T07:13:15.000Z</time>
      </trkpt>
      <trkpt lat="45.70439" lon="2.82818">
        <ele>846</ele>
        <time>2011-06-11T07:13:22.000Z</time>
      </trkpt>
      <trkpt lat="45.70428" lon="2.82837">
        <ele>847.59997558594</ele>
        <time>2011-06-11T07:13:29.000Z</time>
      </trkpt>
      <trkpt lat="45.70418" lon="2.82856">
        <ele>849.40002441406</ele>
        <time>2011-06-11T07:13:35.000Z</time>
      </trkpt>
      <trkpt lat="45.70406" lon="2.82876">
        <ele>851.40002441406</ele>
        <time>2011-06-11T07:13:42.000Z</time>
      </trkpt>
      <trkpt lat="45.70397" lon="2.82889">
        <ele>852.59997558594</ele>
        <time>2011-06-11T07:13:47.000Z</time>
      </trkpt>
      <trkpt lat="45.70383" lon="2.82906">
        <ele>854.20001220703</ele>
        <time>2011-06-11T07:13:54.000Z</time>
      </trkpt>
      <trkpt lat="45.70374" lon="2.82924">
        <ele>855.59997558594</ele>
        <time>2011-06-11T07:14:00.000Z</time>
      </trkpt>
      <trkpt lat="45.70365" lon="2.82947">
        <ele>856.59997558594</ele>
        <time>2011-06-11T07:14:06.000Z</time>
      </trkpt>
      <trkpt lat="45.70363" lon="2.82951">
        <ele>856.79998779297</ele>
        <time>2011-06-11T07:14:07.000Z</time>
      </trkpt>
      <trkpt lat="45.70353" lon="2.82951">
        <ele>857.59997558594</ele>
        <time>2011-06-11T07:14:11.000Z</time>
      </trkpt>
      <trkpt lat="45.70351" lon="2.82943">
        <ele>858</ele>
        <time>2011-06-11T07:14:13.000Z</time>
      </trkpt>
      <trkpt lat="45.70356" lon="2.82907">
        <ele>860.59997558594</ele>
        <time>2011-06-11T07:14:21.000Z</time>
      </trkpt>
      <trkpt lat="45.70358" lon="2.82879">
        <ele>862.59997558594</ele>
        <time>2011-06-11T07:14:28.000Z</time>
      </trkpt>
      <trkpt lat="45.70361" lon="2.82857">
        <ele>864.40002441406</ele>
        <time>2011-06-11T07:14:34.000Z</time>
      </trkpt>
      <trkpt lat="45.70361" lon="2.82832">
        <ele>865.59997558594</ele>
        <time>2011-06-11T07:14:40.000Z</time>
      </trkpt>
      <trkpt lat="45.70356" lon="2.82803">
        <ele>867.20001220703</ele>
        <time>2011-06-11T07:14:47.000Z</time>
      </trkpt>
      <trkpt lat="45.70347" lon="2.82775">
        <ele>868.79998779297</ele>
        <time>2011-06-11T07:14:54.000Z</time>
      </trkpt>
      <trkpt lat="45.70334" lon="2.82751">
        <ele>870.59997558594</ele>
        <time>2011-06-11T07:15:01.000Z</time>
      </trkpt>
      <trkpt lat="45.70311" lon="2.82722">
        <ele>872.40002441406</ele>
        <time>2011-06-11T07:15:11.000Z</time>
      </trkpt>
      <trkpt lat="45.70289" lon="2.82701">
        <ele>874</ele>
        <time>2011-06-11T07:15:20.000Z</time>
      </trkpt>
      <trkpt lat="45.70262" lon="2.82678">
        <ele>875.40002441406</ele>
        <time>2011-06-11T07:15:29.000Z</time>
      </trkpt>
      <trkpt lat="45.70227" lon="2.82646">
        <ele>876.59997558594</ele>
        <time>2011-06-11T07:15:40.000Z</time>
      </trkpt>
      <trkpt lat="45.70192" lon="2.82615">
        <ele>877.40002441406</ele>
        <time>2011-06-11T07:15:50.000Z</time>
      </trkpt>
      <trkpt lat="45.70155" lon="2.82581">
        <ele>878.40002441406</ele>
        <time>2011-06-11T07:16:00.000Z</time>
      </trkpt>
      <trkpt lat="45.70113" lon="2.82543">
        <ele>879.79998779297</ele>
        <time>2011-06-11T07:16:11.000Z</time>
      </trkpt>
      <trkpt lat="45.70065" lon="2.825">
        <ele>881</ele>
        <time>2011-06-11T07:16:23.000Z</time>
      </trkpt>
      <trkpt lat="45.70021" lon="2.8246">
        <ele>881.79998779297</ele>
        <time>2011-06-11T07:16:34.000Z</time>
      </trkpt>
      <trkpt lat="45.69979" lon="2.82424">
        <ele>882.59997558594</ele>
        <time>2011-06-11T07:16:44.000Z</time>
      </trkpt>
      <trkpt lat="45.69929" lon="2.82379">
        <ele>883.40002441406</ele>
        <time>2011-06-11T07:16:56.000Z</time>
      </trkpt>
      <trkpt lat="45.69893" lon="2.82346">
        <ele>884.20001220703</ele>
        <time>2011-06-11T07:17:05.000Z</time>
      </trkpt>
      <trkpt lat="45.69849" lon="2.82306">
        <ele>885.40002441406</ele>
        <time>2011-06-11T07:17:16.000Z</time>
      </trkpt>
      <trkpt lat="45.69796" lon="2.82258">
        <ele>886.79998779297</ele>
        <time>2011-06-11T07:17:29.000Z</time>
      </trkpt>
      <trkpt lat="45.69743" lon="2.82209">
        <ele>887.79998779297</ele>
        <time>2011-06-11T07:17:42.000Z</time>
      </trkpt>
      <trkpt lat="45.69706" lon="2.82176">
        <ele>888.40002441406</ele>
        <time>2011-06-11T07:17:51.000Z</time>
      </trkpt>
      <trkpt lat="45.69664" lon="2.82137">
        <ele>889</ele>
        <time>2011-06-11T07:18:01.000Z</time>
      </trkpt>
      <trkpt lat="45.69609" lon="2.82088">
        <ele>889.40002441406</ele>
        <time>2011-06-11T07:18:13.000Z</time>
      </trkpt>
      <trkpt lat="45.69564" lon="2.82048">
        <ele>889.79998779297</ele>
        <time>2011-06-11T07:18:23.000Z</time>
      </trkpt>
      <trkpt lat="45.69526" lon="2.82014">
        <ele>890.40002441406</ele>
        <time>2011-06-11T07:18:32.000Z</time>
      </trkpt>
      <trkpt lat="45.69481" lon="2.81975">
        <ele>891.20001220703</ele>
        <time>2011-06-11T07:18:43.000Z</time>
      </trkpt>
      <trkpt lat="45.69439" lon="2.81934">
        <ele>892.59997558594</ele>
        <time>2011-06-11T07:18:54.000Z</time>
      </trkpt>
      <trkpt lat="45.69423" lon="2.81908">
        <ele>893.20001220703</ele>
        <time>2011-06-11T07:18:59.000Z</time>
      </trkpt>
      <trkpt lat="45.69412" lon="2.81861">
        <ele>894.59997558594</ele>
        <time>2011-06-11T07:19:07.000Z</time>
      </trkpt>
      <trkpt lat="45.69406" lon="2.81813">
        <ele>896.79998779297</ele>
        <time>2011-06-11T07:19:16.000Z</time>
      </trkpt>
      <trkpt lat="45.694" lon="2.81768">
        <ele>898.79998779297</ele>
        <time>2011-06-11T07:19:25.000Z</time>
      </trkpt>
      <trkpt lat="45.69396" lon="2.81736">
        <ele>900.59997558594</ele>
        <time>2011-06-11T07:19:32.000Z</time>
      </trkpt>
      <trkpt lat="45.69389" lon="2.81697">
        <ele>902.79998779297</ele>
        <time>2011-06-11T07:19:41.000Z</time>
      </trkpt>
      <trkpt lat="45.69381" lon="2.81669">
        <ele>904.59997558594</ele>
        <time>2011-06-11T07:19:48.000Z</time>
      </trkpt>
      <trkpt lat="45.69373" lon="2.81646">
        <ele>906</ele>
        <time>2011-06-11T07:19:54.000Z</time>
      </trkpt>
      <trkpt lat="45.69365" lon="2.81624">
        <ele>907.40002441406</ele>
        <time>2011-06-11T07:20:00.000Z</time>
      </trkpt>
      <trkpt lat="45.69365" lon="2.81623">
        <ele>908</ele>
        <time>2011-06-11T07:20:02.000Z</time>
      </trkpt>
      <trkpt lat="45.69364" lon="2.81624">
        <ele>908.59997558594</ele>
        <time>2011-06-11T07:20:47.000Z</time>
      </trkpt>
      <trkpt lat="45.69362" lon="2.81619">
        <ele>909</ele>
        <time>2011-06-11T07:20:52.000Z</time>
      </trkpt>
      <trkpt lat="45.69355" lon="2.81601">
        <ele>909.59997558594</ele>
        <time>2011-06-11T07:20:57.000Z</time>
      </trkpt>
      <trkpt lat="45.69341" lon="2.81567">
        <ele>911</ele>
        <time>2011-06-11T07:21:04.000Z</time>
      </trkpt>
      <trkpt lat="45.6932" lon="2.81514">
        <ele>914.79998779297</ele>
        <time>2011-06-11T07:21:14.000Z</time>
      </trkpt>
      <trkpt lat="45.69294" lon="2.81451">
        <ele>918.40002441406</ele>
        <time>2011-06-11T07:21:26.000Z</time>
      </trkpt>
      <trkpt lat="45.69269" lon="2.81387">
        <ele>922.20001220703</ele>
        <time>2011-06-11T07:21:38.000Z</time>
      </trkpt>
      <trkpt lat="45.69243" lon="2.81325">
        <ele>925</ele>
        <time>2011-06-11T07:21:49.000Z</time>
      </trkpt>
      <trkpt lat="45.69214" lon="2.81255">
        <ele>928</ele>
        <time>2011-06-11T07:22:01.000Z</time>
      </trkpt>
      <trkpt lat="45.69187" lon="2.81188">
        <ele>929.40002441406</ele>
        <time>2011-06-11T07:22:11.000Z</time>
      </trkpt>
      <trkpt lat="45.69161" lon="2.81127">
        <ele>930</ele>
        <time>2011-06-11T07:22:19.000Z</time>
      </trkpt>
      <trkpt lat="45.69139" lon="2.81107">
        <ele>929.79998779297</ele>
        <time>2011-06-11T07:22:23.000Z</time>
      </trkpt>
      <trkpt lat="45.69117" lon="2.81115">
        <ele>929</ele>
        <time>2011-06-11T07:22:26.000Z</time>
      </trkpt>
      <trkpt lat="45.69065" lon="2.81148">
        <ele>925</ele>
        <time>2011-06-11T07:22:32.000Z</time>
      </trkpt>
      <trkpt lat="45.69021" lon="2.81154">
        <ele>921.59997558594</ele>
        <time>2011-06-11T07:22:36.000Z</time>
      </trkpt>
      <trkpt lat="45.68988" lon="2.81138">
        <ele>919.79998779297</ele>
        <time>2011-06-11T07:22:39.000Z</time>
      </trkpt>
      <trkpt lat="45.68978" lon="2.81129">
        <ele>918.79998779297</ele>
        <time>2011-06-11T07:22:40.000Z</time>
      </trkpt>
      <trkpt lat="45.68909" lon="2.8106">
        <ele>912.59997558594</ele>
        <time>2011-06-11T07:22:47.000Z</time>
      </trkpt>
      <trkpt lat="45.68856" lon="2.81001">
        <ele>907.79998779297</ele>
        <time>2011-06-11T07:22:52.000Z</time>
      </trkpt>
      <trkpt lat="45.68798" lon="2.80914">
        <ele>901.40002441406</ele>
        <time>2011-06-11T07:22:58.000Z</time>
      </trkpt>
      <trkpt lat="45.6877" lon="2.80849">
        <ele>897.40002441406</ele>
        <time>2011-06-11T07:23:02.000Z</time>
      </trkpt>
      <trkpt lat="45.68761" lon="2.80814">
        <ele>896.59997558594</ele>
        <time>2011-06-11T07:23:04.000Z</time>
      </trkpt>
      <trkpt lat="45.68735" lon="2.80691">
        <ele>890</ele>
        <time>2011-06-11T07:23:11.000Z</time>
      </trkpt>
      <trkpt lat="45.68715" lon="2.80616">
        <ele>884.40002441406</ele>
        <time>2011-06-11T07:23:16.000Z</time>
      </trkpt>
      <trkpt lat="45.68698" lon="2.80571">
        <ele>880.40002441406</ele>
        <time>2011-06-11T07:23:20.000Z</time>
      </trkpt>
      <trkpt lat="45.68678" lon="2.80542">
        <ele>876.79998779297</ele>
        <time>2011-06-11T07:23:24.000Z</time>
      </trkpt>
      <trkpt lat="45.68661" lon="2.80523">
        <ele>874.40002441406</ele>
        <time>2011-06-11T07:23:28.000Z</time>
      </trkpt>
      <trkpt lat="45.68658" lon="2.8052">
        <ele>874</ele>
        <time>2011-06-11T07:23:29.000Z</time>
      </trkpt>
      <trkpt lat="45.68659" lon="2.80506">
        <ele>872.20001220703</ele>
        <time>2011-06-11T07:23:34.000Z</time>
      </trkpt>
      <trkpt lat="45.68664" lon="2.80501">
        <ele>870.40002441406</ele>
        <time>2011-06-11T07:23:39.000Z</time>
      </trkpt>
      <trkpt lat="45.68665" lon="2.80486">
        <ele>869.79998779297</ele>
        <time>2011-06-11T07:23:52.000Z</time>
      </trkpt>
      <trkpt lat="45.6865" lon="2.80467">
        <ele>870</ele>
        <time>2011-06-11T07:23:57.000Z</time>
      </trkpt>
      <trkpt lat="45.68613" lon="2.80424">
        <ele>870.40002441406</ele>
        <time>2011-06-11T07:24:06.000Z</time>
      </trkpt>
      <trkpt lat="45.68574" lon="2.80378">
        <ele>871.40002441406</ele>
        <time>2011-06-11T07:24:16.000Z</time>
      </trkpt>
      <trkpt lat="45.68533" lon="2.8033">
        <ele>872.40002441406</ele>
        <time>2011-06-11T07:24:27.000Z</time>
      </trkpt>
      <trkpt lat="45.68521" lon="2.80316">
        <ele>873</ele>
        <time>2011-06-11T07:24:30.000Z</time>
      </trkpt>
      <trkpt lat="45.68502" lon="2.80275">
        <ele>873.59997558594</ele>
        <time>2011-06-11T07:24:38.000Z</time>
      </trkpt>
      <trkpt lat="45.685" lon="2.80253">
        <ele>874.59997558594</ele>
        <time>2011-06-11T07:24:43.000Z</time>
      </trkpt>
      <trkpt lat="45.68502" lon="2.80236">
        <ele>875.20001220703</ele>
        <time>2011-06-11T07:24:48.000Z</time>
      </trkpt>
      <trkpt lat="45.68501" lon="2.80228">
        <ele>875.79998779297</ele>
        <time>2011-06-11T07:24:52.000Z</time>
      </trkpt>
      <trkpt lat="45.685" lon="2.80225">
        <ele>876.40002441406</ele>
        <time>2011-06-11T07:24:56.000Z</time>
      </trkpt>
      <trkpt lat="45.685" lon="2.80222">
        <ele>876.59997558594</ele>
        <time>2011-06-11T07:25:08.000Z</time>
      </trkpt>
      <trkpt lat="45.68497" lon="2.80211">
        <ele>877</ele>
        <time>2011-06-11T07:25:16.000Z</time>
      </trkpt>
      <trkpt lat="45.68495" lon="2.80196">
        <ele>877.59997558594</ele>
        <time>2011-06-11T07:25:21.000Z</time>
      </trkpt>
      <trkpt lat="45.68497" lon="2.80175">
        <ele>878.59997558594</ele>
        <time>2011-06-11T07:25:26.000Z</time>
      </trkpt>
      <trkpt lat="45.68504" lon="2.80127">
        <ele>881</ele>
        <time>2011-06-11T07:25:35.000Z</time>
      </trkpt>
      <trkpt lat="45.68516" lon="2.80077">
        <ele>883.59997558594</ele>
        <time>2011-06-11T07:25:44.000Z</time>
      </trkpt>
      <trkpt lat="45.68534" lon="2.80005">
        <ele>887</ele>
        <time>2011-06-11T07:25:57.000Z</time>
      </trkpt>
      <trkpt lat="45.68545" lon="2.79961">
        <ele>888.40002441406</ele>
        <time>2011-06-11T07:26:04.000Z</time>
      </trkpt>
      <trkpt lat="45.68552" lon="2.79913">
        <ele>890.59997558594</ele>
        <time>2011-06-11T07:26:12.000Z</time>
      </trkpt>
      <trkpt lat="45.68552" lon="2.79866">
        <ele>892.20001220703</ele>
        <time>2011-06-11T07:26:20.000Z</time>
      </trkpt>
      <trkpt lat="45.68545" lon="2.79824">
        <ele>893.40002441406</ele>
        <time>2011-06-11T07:26:27.000Z</time>
      </trkpt>
      <trkpt lat="45.68528" lon="2.7978">
        <ele>895.40002441406</ele>
        <time>2011-06-11T07:26:35.000Z</time>
      </trkpt>
      <trkpt lat="45.68504" lon="2.79742">
        <ele>897</ele>
        <time>2011-06-11T07:26:43.000Z</time>
      </trkpt>
      <trkpt lat="45.68473" lon="2.79714">
        <ele>898.40002441406</ele>
        <time>2011-06-11T07:26:51.000Z</time>
      </trkpt>
      <trkpt lat="45.68446" lon="2.797">
        <ele>899.79998779297</ele>
        <time>2011-06-11T07:26:58.000Z</time>
      </trkpt>
      <trkpt lat="45.68419" lon="2.79695">
        <ele>901</ele>
        <time>2011-06-11T07:27:05.000Z</time>
      </trkpt>
      <trkpt lat="45.68385" lon="2.79696">
        <ele>902.59997558594</ele>
        <time>2011-06-11T07:27:14.000Z</time>
      </trkpt>
      <trkpt lat="45.68342" lon="2.79701">
        <ele>904.79998779297</ele>
        <time>2011-06-11T07:27:25.000Z</time>
      </trkpt>
      <trkpt lat="45.68304" lon="2.79705">
        <ele>906.79998779297</ele>
        <time>2011-06-11T07:27:35.000Z</time>
      </trkpt>
      <trkpt lat="45.68274" lon="2.79709">
        <ele>908</ele>
        <time>2011-06-11T07:27:43.000Z</time>
      </trkpt>
      <trkpt lat="45.68244" lon="2.79712">
        <ele>909.20001220703</ele>
        <time>2011-06-11T07:27:51.000Z</time>
      </trkpt>
      <trkpt lat="45.68198" lon="2.79718">
        <ele>912</ele>
        <time>2011-06-11T07:28:03.000Z</time>
      </trkpt>
      <trkpt lat="45.68157" lon="2.79723">
        <ele>914</ele>
        <time>2011-06-11T07:28:14.000Z</time>
      </trkpt>
      <trkpt lat="45.68122" lon="2.79727">
        <ele>916.20001220703</ele>
        <time>2011-06-11T07:28:24.000Z</time>
      </trkpt>
      <trkpt lat="45.68091" lon="2.7973">
        <ele>916.59997558594</ele>
        <time>2011-06-11T07:28:33.000Z</time>
      </trkpt>
      <trkpt lat="45.68067" lon="2.79733">
        <ele>917.40002441406</ele>
        <time>2011-06-11T07:28:40.000Z</time>
      </trkpt>
      <trkpt lat="45.68028" lon="2.79738">
        <ele>920.40002441406</ele>
        <time>2011-06-11T07:28:51.000Z</time>
      </trkpt>
      <trkpt lat="45.67995" lon="2.79742">
        <ele>921.20001220703</ele>
        <time>2011-06-11T07:29:00.000Z</time>
      </trkpt>
      <trkpt lat="45.67953" lon="2.79747">
        <ele>921.79998779297</ele>
        <time>2011-06-11T07:29:10.000Z</time>
      </trkpt>
      <trkpt lat="45.67911" lon="2.79751">
        <ele>922.20001220703</ele>
        <time>2011-06-11T07:29:19.000Z</time>
      </trkpt>
      <trkpt lat="45.67863" lon="2.79749">
        <ele>921.40002441406</ele>
        <time>2011-06-11T07:29:27.000Z</time>
      </trkpt>
      <trkpt lat="45.67821" lon="2.79737">
        <ele>920</ele>
        <time>2011-06-11T07:29:33.000Z</time>
      </trkpt>
      <trkpt lat="45.67766" lon="2.79712">
        <ele>917.59997558594</ele>
        <time>2011-06-11T07:29:40.000Z</time>
      </trkpt>
      <trkpt lat="45.67696" lon="2.79674">
        <ele>914.20001220703</ele>
        <time>2011-06-11T07:29:48.000Z</time>
      </trkpt>
      <trkpt lat="45.67673" lon="2.79659">
        <ele>913.40002441406</ele>
        <time>2011-06-11T07:29:51.000Z</time>
      </trkpt>
      <trkpt lat="45.67622" lon="2.79614">
        <ele>910.79998779297</ele>
        <time>2011-06-11T07:29:59.000Z</time>
      </trkpt>
      <trkpt lat="45.67588" lon="2.79566">
        <ele>911</ele>
        <time>2011-06-11T07:30:05.000Z</time>
      </trkpt>
      <trkpt lat="45.67569" lon="2.7953">
        <ele>912</ele>
        <time>2011-06-11T07:30:10.000Z</time>
      </trkpt>
      <trkpt lat="45.67553" lon="2.7949">
        <ele>913.59997558594</ele>
        <time>2011-06-11T07:30:17.000Z</time>
      </trkpt>
      <trkpt lat="45.67541" lon="2.79454">
        <ele>916</ele>
        <time>2011-06-11T07:30:24.000Z</time>
      </trkpt>
      <trkpt lat="45.67533" lon="2.79414">
        <ele>918.79998779297</ele>
        <time>2011-06-11T07:30:31.000Z</time>
      </trkpt>
      <trkpt lat="45.67524" lon="2.79371">
        <ele>921</ele>
        <time>2011-06-11T07:30:40.000Z</time>
      </trkpt>
      <trkpt lat="45.67517" lon="2.79336">
        <ele>923.20001220703</ele>
        <time>2011-06-11T07:30:48.000Z</time>
      </trkpt>
      <trkpt lat="45.67509" lon="2.79298">
        <ele>925.59997558594</ele>
        <time>2011-06-11T07:30:57.000Z</time>
      </trkpt>
      <trkpt lat="45.67502" lon="2.79266">
        <ele>927.79998779297</ele>
        <time>2011-06-11T07:31:05.000Z</time>
      </trkpt>
      <trkpt lat="45.67495" lon="2.79233">
        <ele>929.59997558594</ele>
        <time>2011-06-11T07:31:13.000Z</time>
      </trkpt>
      <trkpt lat="45.67487" lon="2.79197">
        <ele>931.40002441406</ele>
        <time>2011-06-11T07:31:22.000Z</time>
      </trkpt>
      <trkpt lat="45.67481" lon="2.79165">
        <ele>933.20001220703</ele>
        <time>2011-06-11T07:31:30.000Z</time>
      </trkpt>
      <trkpt lat="45.67474" lon="2.79132">
        <ele>935.40002441406</ele>
        <time>2011-06-11T07:31:38.000Z</time>
      </trkpt>
      <trkpt lat="45.67466" lon="2.79096">
        <ele>937.79998779297</ele>
        <time>2011-06-11T07:31:47.000Z</time>
      </trkpt>
      <trkpt lat="45.67457" lon="2.79065">
        <ele>939.79998779297</ele>
        <time>2011-06-11T07:31:55.000Z</time>
      </trkpt>
      <trkpt lat="45.67448" lon="2.79039">
        <ele>941</ele>
        <time>2011-06-11T07:32:02.000Z</time>
      </trkpt>
      <trkpt lat="45.67437" lon="2.79012">
        <ele>943.20001220703</ele>
        <time>2011-06-11T07:32:10.000Z</time>
      </trkpt>
      <trkpt lat="45.67424" lon="2.78985">
        <ele>945.40002441406</ele>
        <time>2011-06-11T07:32:18.000Z</time>
      </trkpt>
      <trkpt lat="45.67408" lon="2.78958">
        <ele>947.20001220703</ele>
        <time>2011-06-11T07:32:27.000Z</time>
      </trkpt>
      <trkpt lat="45.67388" lon="2.78932">
        <ele>949.20001220703</ele>
        <time>2011-06-11T07:32:36.000Z</time>
      </trkpt>
      <trkpt lat="45.67369" lon="2.78909">
        <ele>951</ele>
        <time>2011-06-11T07:32:44.000Z</time>
      </trkpt>
      <trkpt lat="45.67346" lon="2.78887">
        <ele>953.20001220703</ele>
        <time>2011-06-11T07:32:53.000Z</time>
      </trkpt>
      <trkpt lat="45.67318" lon="2.78866">
        <ele>955.40002441406</ele>
        <time>2011-06-11T07:33:03.000Z</time>
      </trkpt>
      <trkpt lat="45.673" lon="2.78856">
        <ele>956.79998779297</ele>
        <time>2011-06-11T07:33:07.000Z</time>
      </trkpt>
      <trkpt lat="45.67263" lon="2.78832">
        <ele>959.40002441406</ele>
        <time>2011-06-11T07:33:15.000Z</time>
      </trkpt>
      <trkpt lat="45.6723" lon="2.78811">
        <ele>962.20001220703</ele>
        <time>2011-06-11T07:33:23.000Z</time>
      </trkpt>
      <trkpt lat="45.67188" lon="2.78786">
        <ele>966</ele>
        <time>2011-06-11T07:33:34.000Z</time>
      </trkpt>
      <trkpt lat="45.67146" lon="2.78761">
        <ele>969.20001220703</ele>
        <time>2011-06-11T07:33:45.000Z</time>
      </trkpt>
      <trkpt lat="45.67113" lon="2.7874">
        <ele>972.40002441406</ele>
        <time>2011-06-11T07:33:54.000Z</time>
      </trkpt>
      <trkpt lat="45.67083" lon="2.78716">
        <ele>975</ele>
        <time>2011-06-11T07:34:02.000Z</time>
      </trkpt>
      <trkpt lat="45.67071" lon="2.78708">
        <ele>976.40002441406</ele>
        <time>2011-06-11T07:34:07.000Z</time>
      </trkpt>
      <trkpt lat="45.67071" lon="2.78708">
        <ele>976.59997558594</ele>
        <time>2011-06-11T07:34:08.000Z</time>
      </trkpt>
      <trkpt lat="45.67066" lon="2.78706">
        <ele>977</ele>
        <time>2011-06-11T07:34:56.000Z</time>
      </trkpt>
      <trkpt lat="45.67047" lon="2.78696">
        <ele>978</ele>
        <time>2011-06-11T07:35:02.000Z</time>
      </trkpt>
      <trkpt lat="45.67013" lon="2.78671">
        <ele>981</ele>
        <time>2011-06-11T07:35:11.000Z</time>
      </trkpt>
      <trkpt lat="45.6697" lon="2.7864">
        <ele>985</ele>
        <time>2011-06-11T07:35:23.000Z</time>
      </trkpt>
      <trkpt lat="45.66922" lon="2.78604">
        <ele>988.20001220703</ele>
        <time>2011-06-11T07:35:36.000Z</time>
      </trkpt>
      <trkpt lat="45.6688" lon="2.78574">
        <ele>990.40002441406</ele>
        <time>2011-06-11T07:35:47.000Z</time>
      </trkpt>
      <trkpt lat="45.66845" lon="2.78548">
        <ele>992</ele>
        <time>2011-06-11T07:35:56.000Z</time>
      </trkpt>
      <trkpt lat="45.66811" lon="2.78522">
        <ele>993.40002441406</ele>
        <time>2011-06-11T07:36:04.000Z</time>
      </trkpt>
      <trkpt lat="45.66766" lon="2.78482">
        <ele>994.59997558594</ele>
        <time>2011-06-11T07:36:15.000Z</time>
      </trkpt>
      <trkpt lat="45.66734" lon="2.78449">
        <ele>995.40002441406</ele>
        <time>2011-06-11T07:36:23.000Z</time>
      </trkpt>
      <trkpt lat="45.66698" lon="2.78402">
        <ele>995</ele>
        <time>2011-06-11T07:36:32.000Z</time>
      </trkpt>
      <trkpt lat="45.6666" lon="2.78344">
        <ele>994.59997558594</ele>
        <time>2011-06-11T07:36:41.000Z</time>
      </trkpt>
      <trkpt lat="45.66629" lon="2.78287">
        <ele>994.20001220703</ele>
        <time>2011-06-11T07:36:50.000Z</time>
      </trkpt>
      <trkpt lat="45.6659" lon="2.78204">
        <ele>995</ele>
        <time>2011-06-11T07:37:02.000Z</time>
      </trkpt>
      <trkpt lat="45.66557" lon="2.78134">
        <ele>995.59997558594</ele>
        <time>2011-06-11T07:37:13.000Z</time>
      </trkpt>
      <trkpt lat="45.66532" lon="2.78078">
        <ele>996.40002441406</ele>
        <time>2011-06-11T07:37:22.000Z</time>
      </trkpt>
      <trkpt lat="45.66505" lon="2.78013">
        <ele>997.40002441406</ele>
        <time>2011-06-11T07:37:33.000Z</time>
      </trkpt>
      <trkpt lat="45.66471" lon="2.77931">
        <ele>999.79998779297</ele>
        <time>2011-06-11T07:37:47.000Z</time>
      </trkpt>
      <trkpt lat="45.66444" lon="2.77865">
        <ele>1000.4000244141</ele>
        <time>2011-06-11T07:37:58.000Z</time>
      </trkpt>
      <trkpt lat="45.66418" lon="2.77801">
        <ele>1001.200012207</ele>
        <time>2011-06-11T07:38:09.000Z</time>
      </trkpt>
      <trkpt lat="45.66393" lon="2.77739">
        <ele>1002.4000244141</ele>
        <time>2011-06-11T07:38:19.000Z</time>
      </trkpt>
      <trkpt lat="45.66362" lon="2.77659">
        <ele>1003</ele>
        <time>2011-06-11T07:38:32.000Z</time>
      </trkpt>
      <trkpt lat="45.66337" lon="2.77596">
        <ele>1003.4000244141</ele>
        <time>2011-06-11T07:38:42.000Z</time>
      </trkpt>
      <trkpt lat="45.66308" lon="2.77525">
        <ele>1003.5999755859</ele>
        <time>2011-06-11T07:38:53.000Z</time>
      </trkpt>
      <trkpt lat="45.66276" lon="2.77445">
        <ele>1004.4000244141</ele>
        <time>2011-06-11T07:39:06.000Z</time>
      </trkpt>
      <trkpt lat="45.66243" lon="2.77359">
        <ele>1006</ele>
        <time>2011-06-11T07:39:20.000Z</time>
      </trkpt>
      <trkpt lat="45.6621" lon="2.77276">
        <ele>1007.4000244141</ele>
        <time>2011-06-11T07:39:33.000Z</time>
      </trkpt>
      <trkpt lat="45.66179" lon="2.77199">
        <ele>1007.799987793</ele>
        <time>2011-06-11T07:39:45.000Z</time>
      </trkpt>
      <trkpt lat="45.66155" lon="2.7714">
        <ele>1008</ele>
        <time>2011-06-11T07:39:54.000Z</time>
      </trkpt>
      <trkpt lat="45.66127" lon="2.77072">
        <ele>1007.5999755859</ele>
        <time>2011-06-11T07:40:04.000Z</time>
      </trkpt>
      <trkpt lat="45.66101" lon="2.77009">
        <ele>1006.4000244141</ele>
        <time>2011-06-11T07:40:12.000Z</time>
      </trkpt>
      <trkpt lat="45.66069" lon="2.76925">
        <ele>1005</ele>
        <time>2011-06-11T07:40:22.000Z</time>
      </trkpt>
      <trkpt lat="45.66053" lon="2.76865">
        <ele>1003</ele>
        <time>2011-06-11T07:40:28.000Z</time>
      </trkpt>
      <trkpt lat="45.66043" lon="2.7679">
        <ele>1001.5999755859</ele>
        <time>2011-06-11T07:40:35.000Z</time>
      </trkpt>
      <trkpt lat="45.66039" lon="2.76716">
        <ele>1001.4000244141</ele>
        <time>2011-06-11T07:40:43.000Z</time>
      </trkpt>
      <trkpt lat="45.66036" lon="2.76646">
        <ele>1002.4000244141</ele>
        <time>2011-06-11T07:40:52.000Z</time>
      </trkpt>
      <trkpt lat="45.66033" lon="2.76594">
        <ele>1004.5999755859</ele>
        <time>2011-06-11T07:41:00.000Z</time>
      </trkpt>
      <trkpt lat="45.66032" lon="2.76538">
        <ele>1007.5999755859</ele>
        <time>2011-06-11T07:41:09.000Z</time>
      </trkpt>
      <trkpt lat="45.66029" lon="2.76479">
        <ele>1009.799987793</ele>
        <time>2011-06-11T07:41:19.000Z</time>
      </trkpt>
      <trkpt lat="45.66026" lon="2.7641">
        <ele>1012</ele>
        <time>2011-06-11T07:41:30.000Z</time>
      </trkpt>
      <trkpt lat="45.66022" lon="2.76353">
        <ele>1013.200012207</ele>
        <time>2011-06-11T07:41:39.000Z</time>
      </trkpt>
      <trkpt lat="45.66016" lon="2.76269">
        <ele>1014.4000244141</ele>
        <time>2011-06-11T07:41:52.000Z</time>
      </trkpt>
      <trkpt lat="45.66013" lon="2.76186">
        <ele>1014.799987793</ele>
        <time>2011-06-11T07:42:04.000Z</time>
      </trkpt>
      <trkpt lat="45.66017" lon="2.76125">
        <ele>1015.4000244141</ele>
        <time>2011-06-11T07:42:13.000Z</time>
      </trkpt>
      <trkpt lat="45.66027" lon="2.76066">
        <ele>1017.5999755859</ele>
        <time>2011-06-11T07:42:23.000Z</time>
      </trkpt>
      <trkpt lat="45.66036" lon="2.76012">
        <ele>1019.200012207</ele>
        <time>2011-06-11T07:42:33.000Z</time>
      </trkpt>
      <trkpt lat="45.66047" lon="2.75959">
        <ele>1021.5999755859</ele>
        <time>2011-06-11T07:42:43.000Z</time>
      </trkpt>
      <trkpt lat="45.6605" lon="2.75943">
        <ele>1022.4000244141</ele>
        <time>2011-06-11T07:42:48.000Z</time>
      </trkpt>
      <trkpt lat="45.6605" lon="2.75941">
        <ele>1022.799987793</ele>
        <time>2011-06-11T07:42:51.000Z</time>
      </trkpt>
      <trkpt lat="45.66051" lon="2.75941">
        <ele>1023.200012207</ele>
        <time>2011-06-11T07:43:08.000Z</time>
      </trkpt>
      <trkpt lat="45.66057" lon="2.75931">
        <ele>1023.4000244141</ele>
        <time>2011-06-11T07:43:15.000Z</time>
      </trkpt>
      <trkpt lat="45.66066" lon="2.75915">
        <ele>1023.799987793</ele>
        <time>2011-06-11T07:43:21.000Z</time>
      </trkpt>
      <trkpt lat="45.66073" lon="2.7589">
        <ele>1024.5999755859</ele>
        <time>2011-06-11T07:43:27.000Z</time>
      </trkpt>
      <trkpt lat="45.66073" lon="2.7589">
        <ele>1025.1999511719</ele>
        <time>2011-06-11T07:43:29.000Z</time>
      </trkpt>
      <trkpt lat="45.66069" lon="2.75889">
        <ele>1025.4000244141</ele>
        <time>2011-06-11T07:44:18.000Z</time>
      </trkpt>
      <trkpt lat="45.66068" lon="2.75891">
        <ele>1025.4000244141</ele>
        <time>2011-06-11T07:44:22.000Z</time>
      </trkpt>
      <trkpt lat="45.66065" lon="2.75883">
        <ele>1025.4000244141</ele>
        <time>2011-06-11T07:45:06.000Z</time>
      </trkpt>
      <trkpt lat="45.66062" lon="2.75877">
        <ele>1025.4000244141</ele>
        <time>2011-06-11T07:45:10.000Z</time>
      </trkpt>
      <trkpt lat="45.66064" lon="2.75864">
        <ele>1025</ele>
        <time>2011-06-11T07:45:15.000Z</time>
      </trkpt>
      <trkpt lat="45.66069" lon="2.75834">
        <ele>1025.4000244141</ele>
        <time>2011-06-11T07:45:20.000Z</time>
      </trkpt>
      <trkpt lat="45.66076" lon="2.75781">
        <ele>1025.8000488281</ele>
        <time>2011-06-11T07:45:27.000Z</time>
      </trkpt>
      <trkpt lat="45.66082" lon="2.75744">
        <ele>1026</ele>
        <time>2011-06-11T07:45:33.000Z</time>
      </trkpt>
      <trkpt lat="45.66085" lon="2.75728">
        <ele>1026</ele>
        <time>2011-06-11T07:45:38.000Z</time>
      </trkpt>
      <trkpt lat="45.66086" lon="2.75723">
        <ele>1026.1999511719</ele>
        <time>2011-06-11T07:45:42.000Z</time>
      </trkpt>
      <trkpt lat="45.66088" lon="2.75713">
        <ele>1026</ele>
        <time>2011-06-11T07:45:47.000Z</time>
      </trkpt>
      <trkpt lat="45.66093" lon="2.75684">
        <ele>1025.8000488281</ele>
        <time>2011-06-11T07:45:52.000Z</time>
      </trkpt>
      <trkpt lat="45.66101" lon="2.75635">
        <ele>1025.8000488281</ele>
        <time>2011-06-11T07:45:58.000Z</time>
      </trkpt>
      <trkpt lat="45.66116" lon="2.75571">
        <ele>1025</ele>
        <time>2011-06-11T07:46:05.000Z</time>
      </trkpt>
      <trkpt lat="45.66137" lon="2.75484">
        <ele>1023.799987793</ele>
        <time>2011-06-11T07:46:14.000Z</time>
      </trkpt>
      <trkpt lat="45.66161" lon="2.75396">
        <ele>1022.200012207</ele>
        <time>2011-06-11T07:46:23.000Z</time>
      </trkpt>
      <trkpt lat="45.66183" lon="2.75319">
        <ele>1020.200012207</ele>
        <time>2011-06-11T07:46:31.000Z</time>
      </trkpt>
      <trkpt lat="45.66209" lon="2.7524">
        <ele>1018.200012207</ele>
        <time>2011-06-11T07:46:40.000Z</time>
      </trkpt>
      <trkpt lat="45.66235" lon="2.75165">
        <ele>1015.799987793</ele>
        <time>2011-06-11T07:46:48.000Z</time>
      </trkpt>
      <trkpt lat="45.66264" lon="2.7508">
        <ele>1012.799987793</ele>
        <time>2011-06-11T07:46:56.000Z</time>
      </trkpt>
      <trkpt lat="45.66301" lon="2.74978">
        <ele>1009.799987793</ele>
        <time>2011-06-11T07:47:05.000Z</time>
      </trkpt>
      <trkpt lat="45.66324" lon="2.74915">
        <ele>1007.200012207</ele>
        <time>2011-06-11T07:47:11.000Z</time>
      </trkpt>
      <trkpt lat="45.66355" lon="2.74835">
        <ele>1004.200012207</ele>
        <time>2011-06-11T07:47:18.000Z</time>
      </trkpt>
      <trkpt lat="45.66382" lon="2.74765">
        <ele>1000.799987793</ele>
        <time>2011-06-11T07:47:24.000Z</time>
      </trkpt>
      <trkpt lat="45.66406" lon="2.74701">
        <ele>997.59997558594</ele>
        <time>2011-06-11T07:47:30.000Z</time>
      </trkpt>
      <trkpt lat="45.66438" lon="2.74618">
        <ele>993.59997558594</ele>
        <time>2011-06-11T07:47:37.000Z</time>
      </trkpt>
      <trkpt lat="45.6648" lon="2.74509">
        <ele>988.59997558594</ele>
        <time>2011-06-11T07:47:45.000Z</time>
      </trkpt>
      <trkpt lat="45.66518" lon="2.74386">
        <ele>982.59997558594</ele>
        <time>2011-06-11T07:47:53.000Z</time>
      </trkpt>
      <trkpt lat="45.66533" lon="2.74324">
        <ele>980.40002441406</ele>
        <time>2011-06-11T07:47:57.000Z</time>
      </trkpt>
      <trkpt lat="45.6655" lon="2.7421">
        <ele>975</ele>
        <time>2011-06-11T07:48:04.000Z</time>
      </trkpt>
      <trkpt lat="45.66557" lon="2.74104">
        <ele>970.40002441406</ele>
        <time>2011-06-11T07:48:10.000Z</time>
      </trkpt>
      <trkpt lat="45.66555" lon="2.73998">
        <ele>965.79998779297</ele>
        <time>2011-06-11T07:48:16.000Z</time>
      </trkpt>
      <trkpt lat="45.66544" lon="2.73894">
        <ele>960.79998779297</ele>
        <time>2011-06-11T07:48:22.000Z</time>
      </trkpt>
      <trkpt lat="45.66542" lon="2.73876">
        <ele>960.79998779297</ele>
        <time>2011-06-11T07:48:23.000Z</time>
      </trkpt>
      <trkpt lat="45.6652" lon="2.73771">
        <ele>956</ele>
        <time>2011-06-11T07:48:29.000Z</time>
      </trkpt>
      <trkpt lat="45.66495" lon="2.73686">
        <ele>951.59997558594</ele>
        <time>2011-06-11T07:48:34.000Z</time>
      </trkpt>
      <trkpt lat="45.66459" lon="2.73573">
        <ele>945.20001220703</ele>
        <time>2011-06-11T07:48:41.000Z</time>
      </trkpt>
      <trkpt lat="45.6644" lon="2.7349">
        <ele>941.40002441406</ele>
        <time>2011-06-11T07:48:46.000Z</time>
      </trkpt>
      <trkpt lat="45.66435" lon="2.73455">
        <ele>940.59997558594</ele>
        <time>2011-06-11T07:48:48.000Z</time>
      </trkpt>
      <trkpt lat="45.6643" lon="2.73369">
        <ele>936.59997558594</ele>
        <time>2011-06-11T07:48:53.000Z</time>
      </trkpt>
      <trkpt lat="45.66435" lon="2.73281">
        <ele>932.40002441406</ele>
        <time>2011-06-11T07:48:58.000Z</time>
      </trkpt>
      <trkpt lat="45.66449" lon="2.73195">
        <ele>928.40002441406</ele>
        <time>2011-06-11T07:49:03.000Z</time>
      </trkpt>
      <trkpt lat="45.66471" lon="2.73119">
        <ele>924</ele>
        <time>2011-06-11T07:49:08.000Z</time>
      </trkpt>
      <trkpt lat="45.665" lon="2.73048">
        <ele>920.59997558594</ele>
        <time>2011-06-11T07:49:13.000Z</time>
      </trkpt>
      <trkpt lat="45.66536" lon="2.72982">
        <ele>916.20001220703</ele>
        <time>2011-06-11T07:49:19.000Z</time>
      </trkpt>
      <trkpt lat="45.66583" lon="2.72899">
        <ele>912</ele>
        <time>2011-06-11T07:49:26.000Z</time>
      </trkpt>
      <trkpt lat="45.66629" lon="2.72805">
        <ele>908.40002441406</ele>
        <time>2011-06-11T07:49:33.000Z</time>
      </trkpt>
      <trkpt lat="45.66653" lon="2.72747">
        <ele>906.59997558594</ele>
        <time>2011-06-11T07:49:37.000Z</time>
      </trkpt>
      <trkpt lat="45.66668" lon="2.72702">
        <ele>904.79998779297</ele>
        <time>2011-06-11T07:49:40.000Z</time>
      </trkpt>
      <trkpt lat="45.66698" lon="2.72595">
        <ele>900.79998779297</ele>
        <time>2011-06-11T07:49:47.000Z</time>
      </trkpt>
      <trkpt lat="45.66718" lon="2.7249">
        <ele>897</ele>
        <time>2011-06-11T07:49:54.000Z</time>
      </trkpt>
      <trkpt lat="45.66726" lon="2.72421">
        <ele>895.20001220703</ele>
        <time>2011-06-11T07:49:59.000Z</time>
      </trkpt>
      <trkpt lat="45.66732" lon="2.72334">
        <ele>894.20001220703</ele>
        <time>2011-06-11T07:50:06.000Z</time>
      </trkpt>
      <trkpt lat="45.66734" lon="2.7226">
        <ele>894.20001220703</ele>
        <time>2011-06-11T07:50:13.000Z</time>
      </trkpt>
      <trkpt lat="45.66731" lon="2.72179">
        <ele>894.20001220703</ele>
        <time>2011-06-11T07:50:22.000Z</time>
      </trkpt>
      <trkpt lat="45.66722" lon="2.72097">
        <ele>895</ele>
        <time>2011-06-11T07:50:32.000Z</time>
      </trkpt>
      <trkpt lat="45.66711" lon="2.72023">
        <ele>896.40002441406</ele>
        <time>2011-06-11T07:50:42.000Z</time>
      </trkpt>
      <trkpt lat="45.66701" lon="2.71971">
        <ele>898.40002441406</ele>
        <time>2011-06-11T07:50:50.000Z</time>
      </trkpt>
      <trkpt lat="45.66689" lon="2.71919">
        <ele>899.59997558594</ele>
        <time>2011-06-11T07:50:59.000Z</time>
      </trkpt>
      <trkpt lat="45.66676" lon="2.71874">
        <ele>901.20001220703</ele>
        <time>2011-06-11T07:51:07.000Z</time>
      </trkpt>
      <trkpt lat="45.66658" lon="2.71818">
        <ele>903</ele>
        <time>2011-06-11T07:51:17.000Z</time>
      </trkpt>
      <trkpt lat="45.6664" lon="2.7177">
        <ele>904.59997558594</ele>
        <time>2011-06-11T07:51:26.000Z</time>
      </trkpt>
      <trkpt lat="45.66618" lon="2.71716">
        <ele>906.40002441406</ele>
        <time>2011-06-11T07:51:37.000Z</time>
      </trkpt>
      <trkpt lat="45.66605" lon="2.7169">
        <ele>907.20001220703</ele>
        <time>2011-06-11T07:51:43.000Z</time>
      </trkpt>
      <trkpt lat="45.66583" lon="2.71646">
        <ele>908.79998779297</ele>
        <time>2011-06-11T07:51:52.000Z</time>
      </trkpt>
      <trkpt lat="45.66565" lon="2.71608">
        <ele>910.40002441406</ele>
        <time>2011-06-11T07:52:00.000Z</time>
      </trkpt>
      <trkpt lat="45.6654" lon="2.71556">
        <ele>912.40002441406</ele>
        <time>2011-06-11T07:52:10.000Z</time>
      </trkpt>
      <trkpt lat="45.6651" lon="2.71492">
        <ele>913.79998779297</ele>
        <time>2011-06-11T07:52:23.000Z</time>
      </trkpt>
      <trkpt lat="45.66484" lon="2.71428">
        <ele>915.59997558594</ele>
        <time>2011-06-11T07:52:35.000Z</time>
      </trkpt>
      <trkpt lat="45.66455" lon="2.71357">
        <ele>917</ele>
        <time>2011-06-11T07:52:48.000Z</time>
      </trkpt>
      <trkpt lat="45.66432" lon="2.71295">
        <ele>918.59997558594</ele>
        <time>2011-06-11T07:52:59.000Z</time>
      </trkpt>
      <trkpt lat="45.66408" lon="2.71233">
        <ele>919.40002441406</ele>
        <time>2011-06-11T07:53:10.000Z</time>
      </trkpt>
      <trkpt lat="45.66381" lon="2.71166">
        <ele>921</ele>
        <time>2011-06-11T07:53:22.000Z</time>
      </trkpt>
      <trkpt lat="45.66356" lon="2.71102">
        <ele>922.20001220703</ele>
        <time>2011-06-11T07:53:33.000Z</time>
      </trkpt>
      <trkpt lat="45.66329" lon="2.71033">
        <ele>923.59997558594</ele>
        <time>2011-06-11T07:53:45.000Z</time>
      </trkpt>
      <trkpt lat="45.66307" lon="2.70974">
        <ele>924.79998779297</ele>
        <time>2011-06-11T07:53:55.000Z</time>
      </trkpt>
      <trkpt lat="45.66284" lon="2.70913">
        <ele>925</ele>
        <time>2011-06-11T07:54:06.000Z</time>
      </trkpt>
      <trkpt lat="45.66259" lon="2.70849">
        <ele>927.59997558594</ele>
        <time>2011-06-11T07:54:17.000Z</time>
      </trkpt>
      <trkpt lat="45.66228" lon="2.70774">
        <ele>929.40002441406</ele>
        <time>2011-06-11T07:54:30.000Z</time>
      </trkpt>
      <trkpt lat="45.66203" lon="2.70723">
        <ele>930.59997558594</ele>
        <time>2011-06-11T07:54:39.000Z</time>
      </trkpt>
      <trkpt lat="45.66183" lon="2.70686">
        <ele>932</ele>
        <time>2011-06-11T07:54:46.000Z</time>
      </trkpt>
      <trkpt lat="45.66156" lon="2.70641">
        <ele>933</ele>
        <time>2011-06-11T07:54:55.000Z</time>
      </trkpt>
      <trkpt lat="45.66122" lon="2.70592">
        <ele>935</ele>
        <time>2011-06-11T07:55:06.000Z</time>
      </trkpt>
      <trkpt lat="45.66099" lon="2.70565">
        <ele>936</ele>
        <time>2011-06-11T07:55:13.000Z</time>
      </trkpt>
      <trkpt lat="45.66068" lon="2.70527">
        <ele>937.79998779297</ele>
        <time>2011-06-11T07:55:22.000Z</time>
      </trkpt>
      <trkpt lat="45.6602" lon="2.70478">
        <ele>940.20001220703</ele>
        <time>2011-06-11T07:55:35.000Z</time>
      </trkpt>
      <trkpt lat="45.65976" lon="2.70439">
        <ele>942.40002441406</ele>
        <time>2011-06-11T07:55:47.000Z</time>
      </trkpt>
      <trkpt lat="45.6594" lon="2.70412">
        <ele>944.59997558594</ele>
        <time>2011-06-11T07:55:57.000Z</time>
      </trkpt>
      <trkpt lat="45.65891" lon="2.70382">
        <ele>947.20001220703</ele>
        <time>2011-06-11T07:56:10.000Z</time>
      </trkpt>
      <trkpt lat="45.65845" lon="2.70357">
        <ele>949.59997558594</ele>
        <time>2011-06-11T07:56:22.000Z</time>
      </trkpt>
      <trkpt lat="45.65807" lon="2.70336">
        <ele>951.40002441406</ele>
        <time>2011-06-11T07:56:32.000Z</time>
      </trkpt>
      <trkpt lat="45.65773" lon="2.70316">
        <ele>953.40002441406</ele>
        <time>2011-06-11T07:56:41.000Z</time>
      </trkpt>
      <trkpt lat="45.65728" lon="2.70283">
        <ele>955.79998779297</ele>
        <time>2011-06-11T07:56:53.000Z</time>
      </trkpt>
      <trkpt lat="45.65695" lon="2.70253">
        <ele>957.79998779297</ele>
        <time>2011-06-11T07:57:02.000Z</time>
      </trkpt>
      <trkpt lat="45.65656" lon="2.70209">
        <ele>960</ele>
        <time>2011-06-11T07:57:13.000Z</time>
      </trkpt>
      <trkpt lat="45.65624" lon="2.70166">
        <ele>961.20001220703</ele>
        <time>2011-06-11T07:57:22.000Z</time>
      </trkpt>
      <trkpt lat="45.6559" lon="2.70112">
        <ele>962.40002441406</ele>
        <time>2011-06-11T07:57:32.000Z</time>
      </trkpt>
      <trkpt lat="45.65558" lon="2.70049">
        <ele>962.40002441406</ele>
        <time>2011-06-11T07:57:42.000Z</time>
      </trkpt>
      <trkpt lat="45.65533" lon="2.6999">
        <ele>962.40002441406</ele>
        <time>2011-06-11T07:57:50.000Z</time>
      </trkpt>
      <trkpt lat="45.65508" lon="2.69918">
        <ele>962</ele>
        <time>2011-06-11T07:57:59.000Z</time>
      </trkpt>
      <trkpt lat="45.65488" lon="2.69845">
        <ele>961</ele>
        <time>2011-06-11T07:58:07.000Z</time>
      </trkpt>
      <trkpt lat="45.65475" lon="2.69772">
        <ele>959.59997558594</ele>
        <time>2011-06-11T07:58:14.000Z</time>
      </trkpt>
      <trkpt lat="45.65465" lon="2.69683">
        <ele>957.59997558594</ele>
        <time>2011-06-11T07:58:22.000Z</time>
      </trkpt>
      <trkpt lat="45.65463" lon="2.69595">
        <ele>955.79998779297</ele>
        <time>2011-06-11T07:58:30.000Z</time>
      </trkpt>
      <trkpt lat="45.65466" lon="2.69516">
        <ele>954.20001220703</ele>
        <time>2011-06-11T07:58:37.000Z</time>
      </trkpt>
      <trkpt lat="45.65479" lon="2.69419">
        <ele>952</ele>
        <time>2011-06-11T07:58:46.000Z</time>
      </trkpt>
      <trkpt lat="45.655" lon="2.69329">
        <ele>950.40002441406</ele>
        <time>2011-06-11T07:58:55.000Z</time>
      </trkpt>
      <trkpt lat="45.65521" lon="2.69253">
        <ele>949.20001220703</ele>
        <time>2011-06-11T07:59:03.000Z</time>
      </trkpt>
      <trkpt lat="45.65548" lon="2.69167">
        <ele>948.20001220703</ele>
        <time>2011-06-11T07:59:12.000Z</time>
      </trkpt>
      <trkpt lat="45.65562" lon="2.69101">
        <ele>947.59997558594</ele>
        <time>2011-06-11T07:59:19.000Z</time>
      </trkpt>
      <trkpt lat="45.65566" lon="2.69065">
        <ele>947.40002441406</ele>
        <time>2011-06-11T07:59:24.000Z</time>
      </trkpt>
      <trkpt lat="45.65567" lon="2.69059">
        <ele>947.40002441406</ele>
        <time>2011-06-11T07:59:25.000Z</time>
      </trkpt>
      <trkpt lat="45.65581" lon="2.69034">
        <ele>947.59997558594</ele>
        <time>2011-06-11T07:59:30.000Z</time>
      </trkpt>
      <trkpt lat="45.65585" lon="2.69028">
        <ele>948</ele>
        <time>2011-06-11T07:59:31.000Z</time>
      </trkpt>
      <trkpt lat="45.65596" lon="2.68991">
        <ele>948.59997558594</ele>
        <time>2011-06-11T07:59:36.000Z</time>
      </trkpt>
      <trkpt lat="45.65593" lon="2.68965">
        <ele>949</ele>
        <time>2011-06-11T07:59:39.000Z</time>
      </trkpt>
      <trkpt lat="45.65577" lon="2.68939">
        <ele>948.79998779297</ele>
        <time>2011-06-11T07:59:43.000Z</time>
      </trkpt>
      <trkpt lat="45.65572" lon="2.68935">
        <ele>948.79998779297</ele>
        <time>2011-06-11T07:59:44.000Z</time>
      </trkpt>
      <trkpt lat="45.65548" lon="2.68903">
        <ele>948.40002441406</ele>
        <time>2011-06-11T07:59:49.000Z</time>
      </trkpt>
      <trkpt lat="45.65546" lon="2.68893">
        <ele>948.20001220703</ele>
        <time>2011-06-11T07:59:50.000Z</time>
      </trkpt>
      <trkpt lat="45.65524" lon="2.6881">
        <ele>946.20001220703</ele>
        <time>2011-06-11T07:59:58.000Z</time>
      </trkpt>
      <trkpt lat="45.65495" lon="2.68717">
        <ele>943.79998779297</ele>
        <time>2011-06-11T08:00:07.000Z</time>
      </trkpt>
      <trkpt lat="45.65462" lon="2.68611">
        <ele>940.79998779297</ele>
        <time>2011-06-11T08:00:17.000Z</time>
      </trkpt>
      <trkpt lat="45.65425" lon="2.68516">
        <ele>938.79998779297</ele>
        <time>2011-06-11T08:00:26.000Z</time>
      </trkpt>
      <trkpt lat="45.65381" lon="2.68414">
        <ele>936.40002441406</ele>
        <time>2011-06-11T08:00:36.000Z</time>
      </trkpt>
      <trkpt lat="45.65352" lon="2.68341">
        <ele>936.79998779297</ele>
        <time>2011-06-11T08:00:44.000Z</time>
      </trkpt>
      <trkpt lat="45.65332" lon="2.68285">
        <ele>937.40002441406</ele>
        <time>2011-06-11T08:00:51.000Z</time>
      </trkpt>
      <trkpt lat="45.65307" lon="2.68205">
        <ele>938.40002441406</ele>
        <time>2011-06-11T08:01:01.000Z</time>
      </trkpt>
      <trkpt lat="45.65283" lon="2.68128">
        <ele>938.59997558594</ele>
        <time>2011-06-11T08:01:10.000Z</time>
      </trkpt>
      <trkpt lat="45.65259" lon="2.68047">
        <ele>938</ele>
        <time>2011-06-11T08:01:19.000Z</time>
      </trkpt>
      <trkpt lat="45.65232" lon="2.67961">
        <ele>936.59997558594</ele>
        <time>2011-06-11T08:01:28.000Z</time>
      </trkpt>
      <trkpt lat="45.65197" lon="2.67843">
        <ele>934</ele>
        <time>2011-06-11T08:01:39.000Z</time>
      </trkpt>
      <trkpt lat="45.65169" lon="2.67753">
        <ele>931.79998779297</ele>
        <time>2011-06-11T08:01:47.000Z</time>
      </trkpt>
      <trkpt lat="45.6513" lon="2.67624">
        <ele>928.59997558594</ele>
        <time>2011-06-11T08:01:58.000Z</time>
      </trkpt>
      <trkpt lat="45.65106" lon="2.67544">
        <ele>926.59997558594</ele>
        <time>2011-06-11T08:02:05.000Z</time>
      </trkpt>
      <trkpt lat="45.65072" lon="2.67433">
        <ele>923.59997558594</ele>
        <time>2011-06-11T08:02:15.000Z</time>
      </trkpt>
      <trkpt lat="45.65049" lon="2.67355">
        <ele>923</ele>
        <time>2011-06-11T08:02:23.000Z</time>
      </trkpt>
      <trkpt lat="45.65032" lon="2.67301">
        <ele>923.59997558594</ele>
        <time>2011-06-11T08:02:30.000Z</time>
      </trkpt>
      <trkpt lat="45.65016" lon="2.67248">
        <ele>925.20001220703</ele>
        <time>2011-06-11T08:02:38.000Z</time>
      </trkpt>
      <trkpt lat="45.65005" lon="2.67209">
        <ele>927</ele>
        <time>2011-06-11T08:02:45.000Z</time>
      </trkpt>
      <trkpt lat="45.64993" lon="2.6717">
        <ele>928.79998779297</ele>
        <time>2011-06-11T08:02:53.000Z</time>
      </trkpt>
      <trkpt lat="45.64983" lon="2.67137">
        <ele>930.59997558594</ele>
        <time>2011-06-11T08:03:01.000Z</time>
      </trkpt>
      <trkpt lat="45.64973" lon="2.67105">
        <ele>932.20001220703</ele>
        <time>2011-06-11T08:03:08.000Z</time>
      </trkpt>
      <trkpt lat="45.64963" lon="2.67073">
        <ele>933.79998779297</ele>
        <time>2011-06-11T08:03:15.000Z</time>
      </trkpt>
      <trkpt lat="45.64951" lon="2.67036">
        <ele>936</ele>
        <time>2011-06-11T08:03:23.000Z</time>
      </trkpt>
      <trkpt lat="45.64942" lon="2.67004">
        <ele>937.40002441406</ele>
        <time>2011-06-11T08:03:30.000Z</time>
      </trkpt>
      <trkpt lat="45.64933" lon="2.66966">
        <ele>939</ele>
        <time>2011-06-11T08:03:38.000Z</time>
      </trkpt>
      <trkpt lat="45.64925" lon="2.66928">
        <ele>940.59997558594</ele>
        <time>2011-06-11T08:03:45.000Z</time>
      </trkpt>
      <trkpt lat="45.64918" lon="2.66879">
        <ele>943.20001220703</ele>
        <time>2011-06-11T08:03:55.000Z</time>
      </trkpt>
      <trkpt lat="45.64914" lon="2.66822">
        <ele>944.79998779297</ele>
        <time>2011-06-11T08:04:06.000Z</time>
      </trkpt>
      <trkpt lat="45.64914" lon="2.66776">
        <ele>946.79998779297</ele>
        <time>2011-06-11T08:04:15.000Z</time>
      </trkpt>
      <trkpt lat="45.64918" lon="2.66717">
        <ele>948.40002441406</ele>
        <time>2011-06-11T08:04:26.000Z</time>
      </trkpt>
      <trkpt lat="45.64926" lon="2.66665">
        <ele>949.59997558594</ele>
        <time>2011-06-11T08:04:35.000Z</time>
      </trkpt>
      <trkpt lat="45.64936" lon="2.66619">
        <ele>950.40002441406</ele>
        <time>2011-06-11T08:04:43.000Z</time>
      </trkpt>
      <trkpt lat="45.6495" lon="2.66563">
        <ele>950.59997558594</ele>
        <time>2011-06-11T08:04:52.000Z</time>
      </trkpt>
      <trkpt lat="45.64964" lon="2.66509">
        <ele>950.59997558594</ele>
        <time>2011-06-11T08:05:00.000Z</time>
      </trkpt>
      <trkpt lat="45.64982" lon="2.66437">
        <ele>950.20001220703</ele>
        <time>2011-06-11T08:05:10.000Z</time>
      </trkpt>
      <trkpt lat="45.65" lon="2.66366">
        <ele>949.59997558594</ele>
        <time>2011-06-11T08:05:20.000Z</time>
      </trkpt>
      <trkpt lat="45.65004" lon="2.66354">
        <ele>949.40002441406</ele>
        <time>2011-06-11T08:05:24.000Z</time>
      </trkpt>
      <trkpt lat="45.65004" lon="2.66354">
        <ele>949</ele>
        <time>2011-06-11T08:05:25.000Z</time>
      </trkpt>
      <trkpt lat="45.65007" lon="2.66341">
        <ele>948.20001220703</ele>
        <time>2011-06-11T08:05:53.000Z</time>
      </trkpt>
      <trkpt lat="45.65015" lon="2.66312">
        <ele>948</ele>
        <time>2011-06-11T08:05:58.000Z</time>
      </trkpt>
      <trkpt lat="45.65029" lon="2.66256">
        <ele>947.20001220703</ele>
        <time>2011-06-11T08:06:05.000Z</time>
      </trkpt>
      <trkpt lat="45.65043" lon="2.66188">
        <ele>945.20001220703</ele>
        <time>2011-06-11T08:06:12.000Z</time>
      </trkpt>
      <trkpt lat="45.65055" lon="2.66126">
        <ele>943.59997558594</ele>
        <time>2011-06-11T08:06:17.000Z</time>
      </trkpt>
      <trkpt lat="45.65071" lon="2.66036">
        <ele>939.40002441406</ele>
        <time>2011-06-11T08:06:23.000Z</time>
      </trkpt>
      <trkpt lat="45.65091" lon="2.65924">
        <ele>935.40002441406</ele>
        <time>2011-06-11T08:06:30.000Z</time>
      </trkpt>
      <trkpt lat="45.65111" lon="2.65787">
        <ele>929</ele>
        <time>2011-06-11T08:06:38.000Z</time>
      </trkpt>
      <trkpt lat="45.65126" lon="2.65637">
        <ele>920.59997558594</ele>
        <time>2011-06-11T08:06:46.000Z</time>
      </trkpt>
      <trkpt lat="45.65136" lon="2.65459">
        <ele>910.59997558594</ele>
        <time>2011-06-11T08:06:55.000Z</time>
      </trkpt>
      <trkpt lat="45.65137" lon="2.65439">
        <ele>910.59997558594</ele>
        <time>2011-06-11T08:06:56.000Z</time>
      </trkpt>
      <trkpt lat="45.65137" lon="2.65255">
        <ele>900.40002441406</ele>
        <time>2011-06-11T08:07:05.000Z</time>
      </trkpt>
      <trkpt lat="45.6513" lon="2.65092">
        <ele>891.20001220703</ele>
        <time>2011-06-11T08:07:13.000Z</time>
      </trkpt>
      <trkpt lat="45.6512" lon="2.6497">
        <ele>885</ele>
        <time>2011-06-11T08:07:19.000Z</time>
      </trkpt>
      <trkpt lat="45.65113" lon="2.64909">
        <ele>881.40002441406</ele>
        <time>2011-06-11T08:07:22.000Z</time>
      </trkpt>
      <trkpt lat="45.65093" lon="2.64727">
        <ele>871.20001220703</ele>
        <time>2011-06-11T08:07:31.000Z</time>
      </trkpt>
      <trkpt lat="45.65081" lon="2.64585">
        <ele>862.79998779297</ele>
        <time>2011-06-11T08:07:38.000Z</time>
      </trkpt>
      <trkpt lat="45.65082" lon="2.64482">
        <ele>856.79998779297</ele>
        <time>2011-06-11T08:07:43.000Z</time>
      </trkpt>
      <trkpt lat="45.65087" lon="2.64421">
        <ele>854.79998779297</ele>
        <time>2011-06-11T08:07:46.000Z</time>
      </trkpt>
      <trkpt lat="45.65101" lon="2.64327">
        <ele>852</ele>
        <time>2011-06-11T08:07:51.000Z</time>
      </trkpt>
      <trkpt lat="45.65119" lon="2.64249">
        <ele>851</ele>
        <time>2011-06-11T08:07:56.000Z</time>
      </trkpt>
      <trkpt lat="45.65137" lon="2.64187">
        <ele>852</ele>
        <time>2011-06-11T08:08:01.000Z</time>
      </trkpt>
      <trkpt lat="45.6516" lon="2.64119">
        <ele>854.59997558594</ele>
        <time>2011-06-11T08:08:08.000Z</time>
      </trkpt>
      <trkpt lat="45.65178" lon="2.64065">
        <ele>856.79998779297</ele>
        <time>2011-06-11T08:08:15.000Z</time>
      </trkpt>
      <trkpt lat="45.65194" lon="2.64015">
        <ele>859.59997558594</ele>
        <time>2011-06-11T08:08:23.000Z</time>
      </trkpt>
      <trkpt lat="45.65211" lon="2.63963">
        <ele>861.79998779297</ele>
        <time>2011-06-11T08:08:32.000Z</time>
      </trkpt>
      <trkpt lat="45.65232" lon="2.63894">
        <ele>864.79998779297</ele>
        <time>2011-06-11T08:08:44.000Z</time>
      </trkpt>
      <trkpt lat="45.65259" lon="2.63808">
        <ele>868.20001220703</ele>
        <time>2011-06-11T08:08:58.000Z</time>
      </trkpt>
      <trkpt lat="45.65278" lon="2.63746">
        <ele>870.79998779297</ele>
        <time>2011-06-11T08:09:08.000Z</time>
      </trkpt>
      <trkpt lat="45.65298" lon="2.6368">
        <ele>873.59997558594</ele>
        <time>2011-06-11T08:09:18.000Z</time>
      </trkpt>
      <trkpt lat="45.65313" lon="2.63633">
        <ele>875.79998779297</ele>
        <time>2011-06-11T08:09:25.000Z</time>
      </trkpt>
      <trkpt lat="45.65329" lon="2.63582">
        <ele>877.79998779297</ele>
        <time>2011-06-11T08:09:33.000Z</time>
      </trkpt>
      <trkpt lat="45.65353" lon="2.63507">
        <ele>881.59997558594</ele>
        <time>2011-06-11T08:09:45.000Z</time>
      </trkpt>
      <trkpt lat="45.65378" lon="2.63431">
        <ele>884.59997558594</ele>
        <time>2011-06-11T08:09:57.000Z</time>
      </trkpt>
      <trkpt lat="45.65396" lon="2.63374">
        <ele>887</ele>
        <time>2011-06-11T08:10:07.000Z</time>
      </trkpt>
      <trkpt lat="45.65425" lon="2.63283">
        <ele>890.59997558594</ele>
        <time>2011-06-11T08:10:23.000Z</time>
      </trkpt>
      <trkpt lat="45.65448" lon="2.63209">
        <ele>893.40002441406</ele>
        <time>2011-06-11T08:10:36.000Z</time>
      </trkpt>
      <trkpt lat="45.65469" lon="2.63145">
        <ele>895.79998779297</ele>
        <time>2011-06-11T08:10:47.000Z</time>
      </trkpt>
      <trkpt lat="45.65484" lon="2.63093">
        <ele>898</ele>
        <time>2011-06-11T08:10:56.000Z</time>
      </trkpt>
      <trkpt lat="45.65495" lon="2.63046">
        <ele>899.59997558594</ele>
        <time>2011-06-11T08:11:04.000Z</time>
      </trkpt>
      <trkpt lat="45.65495" lon="2.63041">
        <ele>899.59997558594</ele>
        <time>2011-06-11T08:11:05.000Z</time>
      </trkpt>
      <trkpt lat="45.65507" lon="2.62999">
        <ele>900.40002441406</ele>
        <time>2011-06-11T08:11:11.000Z</time>
      </trkpt>
      <trkpt lat="45.65521" lon="2.62927">
        <ele>902.20001220703</ele>
        <time>2011-06-11T08:11:22.000Z</time>
      </trkpt>
      <trkpt lat="45.65529" lon="2.62857">
        <ele>903.40002441406</ele>
        <time>2011-06-11T08:11:32.000Z</time>
      </trkpt>
      <trkpt lat="45.65532" lon="2.62792">
        <ele>904</ele>
        <time>2011-06-11T08:11:41.000Z</time>
      </trkpt>
      <trkpt lat="45.65534" lon="2.62717">
        <ele>904.59997558594</ele>
        <time>2011-06-11T08:11:51.000Z</time>
      </trkpt>
      <trkpt lat="45.65535" lon="2.62655">
        <ele>904.79998779297</ele>
        <time>2011-06-11T08:11:59.000Z</time>
      </trkpt>
      <trkpt lat="45.65534" lon="2.62606">
        <ele>905.40002441406</ele>
        <time>2011-06-11T08:12:06.000Z</time>
      </trkpt>
      <trkpt lat="45.65535" lon="2.62547">
        <ele>906</ele>
        <time>2011-06-11T08:12:15.000Z</time>
      </trkpt>
      <trkpt lat="45.65534" lon="2.62483">
        <ele>906.40002441406</ele>
        <time>2011-06-11T08:12:24.000Z</time>
      </trkpt>
      <trkpt lat="45.65534" lon="2.62396">
        <ele>905.79998779297</ele>
        <time>2011-06-11T08:12:35.000Z</time>
      </trkpt>
      <trkpt lat="45.65533" lon="2.62312">
        <ele>904.20001220703</ele>
        <time>2011-06-11T08:12:45.000Z</time>
      </trkpt>
      <trkpt lat="45.65531" lon="2.62214">
        <ele>903.20001220703</ele>
        <time>2011-06-11T08:12:56.000Z</time>
      </trkpt>
      <trkpt lat="45.65531" lon="2.62103">
        <ele>902.20001220703</ele>
        <time>2011-06-11T08:13:09.000Z</time>
      </trkpt>
      <trkpt lat="45.65527" lon="2.62032">
        <ele>901.40002441406</ele>
        <time>2011-06-11T08:13:18.000Z</time>
      </trkpt>
      <trkpt lat="45.65518" lon="2.61972">
        <ele>901.20001220703</ele>
        <time>2011-06-11T08:13:25.000Z</time>
      </trkpt>
      <trkpt lat="45.655" lon="2.61893">
        <ele>900.59997558594</ele>
        <time>2011-06-11T08:13:34.000Z</time>
      </trkpt>
      <trkpt lat="45.65476" lon="2.61824">
        <ele>900.59997558594</ele>
        <time>2011-06-11T08:13:43.000Z</time>
      </trkpt>
      <trkpt lat="45.65452" lon="2.61773">
        <ele>901.20001220703</ele>
        <time>2011-06-11T08:13:51.000Z</time>
      </trkpt>
      <trkpt lat="45.65414" lon="2.61708">
        <ele>901.79998779297</ele>
        <time>2011-06-11T08:14:02.000Z</time>
      </trkpt>
      <trkpt lat="45.65374" lon="2.61648">
        <ele>901.20001220703</ele>
        <time>2011-06-11T08:14:12.000Z</time>
      </trkpt>
      <trkpt lat="45.65332" lon="2.61583">
        <ele>898.40002441406</ele>
        <time>2011-06-11T08:14:21.000Z</time>
      </trkpt>
      <trkpt lat="45.65297" lon="2.61524">
        <ele>895.79998779297</ele>
        <time>2011-06-11T08:14:28.000Z</time>
      </trkpt>
      <trkpt lat="45.65256" lon="2.61434">
        <ele>892.79998779297</ele>
        <time>2011-06-11T08:14:37.000Z</time>
      </trkpt>
      <trkpt lat="45.65231" lon="2.61359">
        <ele>890</ele>
        <time>2011-06-11T08:14:44.000Z</time>
      </trkpt>
      <trkpt lat="45.6521" lon="2.61267">
        <ele>886.40002441406</ele>
        <time>2011-06-11T08:14:52.000Z</time>
      </trkpt>
      <trkpt lat="45.65192" lon="2.61197">
        <ele>884.40002441406</ele>
        <time>2011-06-11T08:14:58.000Z</time>
      </trkpt>
      <trkpt lat="45.65171" lon="2.61147">
        <ele>882.79998779297</ele>
        <time>2011-06-11T08:15:02.000Z</time>
      </trkpt>
      <trkpt lat="45.65142" lon="2.61101">
        <ele>880.59997558594</ele>
        <time>2011-06-11T08:15:06.000Z</time>
      </trkpt>
      <trkpt lat="45.65098" lon="2.61061">
        <ele>878</ele>
        <time>2011-06-11T08:15:11.000Z</time>
      </trkpt>
      <trkpt lat="45.6505" lon="2.61029">
        <ele>877</ele>
        <time>2011-06-11T08:15:17.000Z</time>
      </trkpt>
      <trkpt lat="45.65013" lon="2.60992">
        <ele>877</ele>
        <time>2011-06-11T08:15:23.000Z</time>
      </trkpt>
      <trkpt lat="45.64986" lon="2.60947">
        <ele>877.79998779297</ele>
        <time>2011-06-11T08:15:29.000Z</time>
      </trkpt>
      <trkpt lat="45.64965" lon="2.60884">
        <ele>878</ele>
        <time>2011-06-11T08:15:36.000Z</time>
      </trkpt>
      <trkpt lat="45.64939" lon="2.6079">
        <ele>876.79998779297</ele>
        <time>2011-06-11T08:15:46.000Z</time>
      </trkpt>
      <trkpt lat="45.64913" lon="2.60696">
        <ele>875.59997558594</ele>
        <time>2011-06-11T08:15:56.000Z</time>
      </trkpt>
      <trkpt lat="45.64889" lon="2.60607">
        <ele>873</ele>
        <time>2011-06-11T08:16:04.000Z</time>
      </trkpt>
      <trkpt lat="45.64857" lon="2.60495">
        <ele>869.59997558594</ele>
        <time>2011-06-11T08:16:13.000Z</time>
      </trkpt>
      <trkpt lat="45.64821" lon="2.60365">
        <ele>864.79998779297</ele>
        <time>2011-06-11T08:16:23.000Z</time>
      </trkpt>
      <trkpt lat="45.6477" lon="2.60183">
        <ele>859.59997558594</ele>
        <time>2011-06-11T08:16:37.000Z</time>
      </trkpt>
      <trkpt lat="45.64724" lon="2.60017">
        <ele>854.40002441406</ele>
        <time>2011-06-11T08:16:50.000Z</time>
      </trkpt>
      <trkpt lat="45.64698" lon="2.59923">
        <ele>852.59997558594</ele>
        <time>2011-06-11T08:16:58.000Z</time>
      </trkpt>
      <trkpt lat="45.6466" lon="2.59788">
        <ele>850.59997558594</ele>
        <time>2011-06-11T08:17:10.000Z</time>
      </trkpt>
      <trkpt lat="45.64638" lon="2.59683">
        <ele>848.59997558594</ele>
        <time>2011-06-11T08:17:19.000Z</time>
      </trkpt>
      <trkpt lat="45.64626" lon="2.59574">
        <ele>845.20001220703</ele>
        <time>2011-06-11T08:17:28.000Z</time>
      </trkpt>
      <trkpt lat="45.64624" lon="2.59474">
        <ele>843</ele>
        <time>2011-06-11T08:17:36.000Z</time>
      </trkpt>
      <trkpt lat="45.6463" lon="2.59376">
        <ele>840</ele>
        <time>2011-06-11T08:17:44.000Z</time>
      </trkpt>
      <trkpt lat="45.64646" lon="2.5927">
        <ele>837.59997558594</ele>
        <time>2011-06-11T08:17:53.000Z</time>
      </trkpt>
      <trkpt lat="45.6467" lon="2.59171">
        <ele>835.20001220703</ele>
        <time>2011-06-11T08:18:02.000Z</time>
      </trkpt>
      <trkpt lat="45.647" lon="2.59072">
        <ele>833.59997558594</ele>
        <time>2011-06-11T08:18:12.000Z</time>
      </trkpt>
      <trkpt lat="45.64712" lon="2.59033">
        <ele>832.79998779297</ele>
        <time>2011-06-11T08:18:17.000Z</time>
      </trkpt>
      <trkpt lat="45.64715" lon="2.5903">
        <ele>832.40002441406</ele>
        <time>2011-06-11T08:18:20.000Z</time>
      </trkpt>
      <trkpt lat="45.64715" lon="2.5903">
        <ele>831.79998779297</ele>
        <time>2011-06-11T08:18:22.000Z</time>
      </trkpt>
      <trkpt lat="45.64717" lon="2.59017">
        <ele>832</ele>
        <time>2011-06-11T08:19:13.000Z</time>
      </trkpt>
      <trkpt lat="45.64725" lon="2.58993">
        <ele>831.79998779297</ele>
        <time>2011-06-11T08:19:17.000Z</time>
      </trkpt>
      <trkpt lat="45.64737" lon="2.58951">
        <ele>831</ele>
        <time>2011-06-11T08:19:22.000Z</time>
      </trkpt>
      <trkpt lat="45.64756" lon="2.58886">
        <ele>829.20001220703</ele>
        <time>2011-06-11T08:19:28.000Z</time>
      </trkpt>
      <trkpt lat="45.64781" lon="2.58803">
        <ele>827.59997558594</ele>
        <time>2011-06-11T08:19:35.000Z</time>
      </trkpt>
      <trkpt lat="45.6482" lon="2.58672">
        <ele>823.79998779297</ele>
        <time>2011-06-11T08:19:45.000Z</time>
      </trkpt>
      <trkpt lat="45.6487" lon="2.58506">
        <ele>819.20001220703</ele>
        <time>2011-06-11T08:19:57.000Z</time>
      </trkpt>
      <trkpt lat="45.6491" lon="2.5837">
        <ele>816.59997558594</ele>
        <time>2011-06-11T08:20:07.000Z</time>
      </trkpt>
      <trkpt lat="45.64952" lon="2.58231">
        <ele>816.40002441406</ele>
        <time>2011-06-11T08:20:18.000Z</time>
      </trkpt>
      <trkpt lat="45.64985" lon="2.58106">
        <ele>814.40002441406</ele>
        <time>2011-06-11T08:20:28.000Z</time>
      </trkpt>
      <trkpt lat="45.6502" lon="2.5795">
        <ele>809.20001220703</ele>
        <time>2011-06-11T08:20:40.000Z</time>
      </trkpt>
      <trkpt lat="45.65038" lon="2.57832">
        <ele>805.20001220703</ele>
        <time>2011-06-11T08:20:49.000Z</time>
      </trkpt>
      <trkpt lat="45.65047" lon="2.57723">
        <ele>802</ele>
        <time>2011-06-11T08:20:57.000Z</time>
      </trkpt>
      <trkpt lat="45.65053" lon="2.57584">
        <ele>797</ele>
        <time>2011-06-11T08:21:07.000Z</time>
      </trkpt>
      <trkpt lat="45.65054" lon="2.57447">
        <ele>793.40002441406</ele>
        <time>2011-06-11T08:21:17.000Z</time>
      </trkpt>
      <trkpt lat="45.65049" lon="2.5733">
        <ele>791.20001220703</ele>
        <time>2011-06-11T08:21:26.000Z</time>
      </trkpt>
      <trkpt lat="45.65035" lon="2.57185">
        <ele>788.79998779297</ele>
        <time>2011-06-11T08:21:37.000Z</time>
      </trkpt>
      <trkpt lat="45.65024" lon="2.57101">
        <ele>787.20001220703</ele>
        <time>2011-06-11T08:21:44.000Z</time>
      </trkpt>
      <trkpt lat="45.65021" lon="2.57074">
        <ele>786.20001220703</ele>
        <time>2011-06-11T08:21:48.000Z</time>
      </trkpt>
      <trkpt lat="45.65021" lon="2.57071">
        <ele>785.59997558594</ele>
        <time>2011-06-11T08:21:50.000Z</time>
      </trkpt>
      <trkpt lat="45.65019" lon="2.57067">
        <ele>785.20001220703</ele>
        <time>2011-06-11T08:22:18.000Z</time>
      </trkpt>
      <trkpt lat="45.65015" lon="2.57043">
        <ele>784.79998779297</ele>
        <time>2011-06-11T08:22:23.000Z</time>
      </trkpt>
      <trkpt lat="45.65008" lon="2.57001">
        <ele>783.79998779297</ele>
        <time>2011-06-11T08:22:28.000Z</time>
      </trkpt>
      <trkpt lat="45.64997" lon="2.56936">
        <ele>782.40002441406</ele>
        <time>2011-06-11T08:22:34.000Z</time>
      </trkpt>
      <trkpt lat="45.64979" lon="2.5684">
        <ele>779.59997558594</ele>
        <time>2011-06-11T08:22:42.000Z</time>
      </trkpt>
      <trkpt lat="45.64954" lon="2.56701">
        <ele>775.40002441406</ele>
        <time>2011-06-11T08:22:53.000Z</time>
      </trkpt>
      <trkpt lat="45.64947" lon="2.56666">
        <ele>774.40002441406</ele>
        <time>2011-06-11T08:22:56.000Z</time>
      </trkpt>
      <trkpt lat="45.64951" lon="2.56627">
        <ele>773.79998779297</ele>
        <time>2011-06-11T08:23:00.000Z</time>
      </trkpt>
      <trkpt lat="45.64944" lon="2.56612">
        <ele>773.40002441406</ele>
        <time>2011-06-11T08:23:02.000Z</time>
      </trkpt>
      <trkpt lat="45.64933" lon="2.56586">
        <ele>773</ele>
        <time>2011-06-11T08:23:05.000Z</time>
      </trkpt>
      <trkpt lat="45.64919" lon="2.56507">
        <ele>771.59997558594</ele>
        <time>2011-06-11T08:23:13.000Z</time>
      </trkpt>
      <trkpt lat="45.64902" lon="2.56408">
        <ele>771.40002441406</ele>
        <time>2011-06-11T08:23:23.000Z</time>
      </trkpt>
      <trkpt lat="45.64898" lon="2.56389">
        <ele>771.40002441406</ele>
        <time>2011-06-11T08:23:25.000Z</time>
      </trkpt>
      <trkpt lat="45.64888" lon="2.56329">
        <ele>771.40002441406</ele>
        <time>2011-06-11T08:23:31.000Z</time>
      </trkpt>
      <trkpt lat="45.64869" lon="2.56232">
        <ele>771.40002441406</ele>
        <time>2011-06-11T08:23:41.000Z</time>
      </trkpt>
      <trkpt lat="45.64855" lon="2.56158">
        <ele>771.20001220703</ele>
        <time>2011-06-11T08:23:50.000Z</time>
      </trkpt>
      <trkpt lat="45.64851" lon="2.56136">
        <ele>770.79998779297</ele>
        <time>2011-06-11T08:23:53.000Z</time>
      </trkpt>
      <trkpt lat="45.64852" lon="2.5613">
        <ele>770.79998779297</ele>
        <time>2011-06-11T08:23:57.000Z</time>
      </trkpt>
      <trkpt lat="45.64852" lon="2.5612">
        <ele>770.79998779297</ele>
        <time>2011-06-11T08:24:17.000Z</time>
      </trkpt>
      <trkpt lat="45.64853" lon="2.56119">
        <ele>770.79998779297</ele>
        <time>2011-06-11T08:24:19.000Z</time>
      </trkpt>
      <trkpt lat="45.64848" lon="2.56108">
        <ele>776</ele>
        <time>2011-06-11T08:36:07.000Z</time>
      </trkpt>
      <trkpt lat="45.64842" lon="2.56083">
        <ele>775.79998779297</ele>
        <time>2011-06-11T08:36:12.000Z</time>
      </trkpt>
      <trkpt lat="45.64835" lon="2.5604">
        <ele>775.79998779297</ele>
        <time>2011-06-11T08:36:18.000Z</time>
      </trkpt>
      <trkpt lat="45.6482" lon="2.55955">
        <ele>775.79998779297</ele>
        <time>2011-06-11T08:36:28.000Z</time>
      </trkpt>
      <trkpt lat="45.64802" lon="2.55887">
        <ele>775.79998779297</ele>
        <time>2011-06-11T08:36:36.000Z</time>
      </trkpt>
      <trkpt lat="45.64796" lon="2.55863">
        <ele>775.59997558594</ele>
        <time>2011-06-11T08:36:39.000Z</time>
      </trkpt>
      <trkpt lat="45.64794" lon="2.55805">
        <ele>775.59997558594</ele>
        <time>2011-06-11T08:36:46.000Z</time>
      </trkpt>
      <trkpt lat="45.64803" lon="2.55754">
        <ele>775.59997558594</ele>
        <time>2011-06-11T08:36:53.000Z</time>
      </trkpt>
      <trkpt lat="45.64815" lon="2.55675">
        <ele>775.20001220703</ele>
        <time>2011-06-11T08:37:04.000Z</time>
      </trkpt>
      <trkpt lat="45.64833" lon="2.55611">
        <ele>775.20001220703</ele>
        <time>2011-06-11T08:37:13.000Z</time>
      </trkpt>
      <trkpt lat="45.64857" lon="2.55548">
        <ele>775</ele>
        <time>2011-06-11T08:37:22.000Z</time>
      </trkpt>
      <trkpt lat="45.64883" lon="2.55484">
        <ele>775</ele>
        <time>2011-06-11T08:37:31.000Z</time>
      </trkpt>
      <trkpt lat="45.64914" lon="2.55406">
        <ele>775.59997558594</ele>
        <time>2011-06-11T08:37:43.000Z</time>
      </trkpt>
      <trkpt lat="45.64932" lon="2.55348">
        <ele>775.20001220703</ele>
        <time>2011-06-11T08:37:51.000Z</time>
      </trkpt>
      <trkpt lat="45.64951" lon="2.5527">
        <ele>774.20001220703</ele>
        <time>2011-06-11T08:38:00.000Z</time>
      </trkpt>
      <trkpt lat="45.6497" lon="2.55188">
        <ele>772.20001220703</ele>
        <time>2011-06-11T08:38:08.000Z</time>
      </trkpt>
      <trkpt lat="45.64993" lon="2.55084">
        <ele>770.20001220703</ele>
        <time>2011-06-11T08:38:18.000Z</time>
      </trkpt>
      <trkpt lat="45.65013" lon="2.55">
        <ele>768</ele>
        <time>2011-06-11T08:38:26.000Z</time>
      </trkpt>
      <trkpt lat="45.65028" lon="2.54936">
        <ele>766.59997558594</ele>
        <time>2011-06-11T08:38:31.000Z</time>
      </trkpt>
      <trkpt lat="45.6505" lon="2.5485">
        <ele>764.40002441406</ele>
        <time>2011-06-11T08:38:37.000Z</time>
      </trkpt>
      <trkpt lat="45.6509" lon="2.54683">
        <ele>758.59997558594</ele>
        <time>2011-06-11T08:38:49.000Z</time>
      </trkpt>
      <trkpt lat="45.65121" lon="2.54548">
        <ele>755.20001220703</ele>
        <time>2011-06-11T08:38:59.000Z</time>
      </trkpt>
      <trkpt lat="45.65145" lon="2.5445">
        <ele>754.20001220703</ele>
        <time>2011-06-11T08:39:07.000Z</time>
      </trkpt>
      <trkpt lat="45.65175" lon="2.54323">
        <ele>753.79998779297</ele>
        <time>2011-06-11T08:39:18.000Z</time>
      </trkpt>
      <trkpt lat="45.65192" lon="2.5423">
        <ele>753</ele>
        <time>2011-06-11T08:39:26.000Z</time>
      </trkpt>
      <trkpt lat="45.65197" lon="2.5414">
        <ele>750.20001220703</ele>
        <time>2011-06-11T08:39:33.000Z</time>
      </trkpt>
      <trkpt lat="45.65199" lon="2.54017">
        <ele>746.40002441406</ele>
        <time>2011-06-11T08:39:42.000Z</time>
      </trkpt>
      <trkpt lat="45.652" lon="2.53866">
        <ele>742.59997558594</ele>
        <time>2011-06-11T08:39:53.000Z</time>
      </trkpt>
      <trkpt lat="45.65197" lon="2.53748">
        <ele>740.20001220703</ele>
        <time>2011-06-11T08:40:02.000Z</time>
      </trkpt>
      <trkpt lat="45.65182" lon="2.537">
        <ele>739.20001220703</ele>
        <time>2011-06-11T08:40:06.000Z</time>
      </trkpt>
      <trkpt lat="45.65144" lon="2.53622">
        <ele>735.59997558594</ele>
        <time>2011-06-11T08:40:12.000Z</time>
      </trkpt>
      <trkpt lat="45.65124" lon="2.53582">
        <ele>734.20001220703</ele>
        <time>2011-06-11T08:40:15.000Z</time>
      </trkpt>
      <trkpt lat="45.65087" lon="2.53496">
        <ele>729.40002441406</ele>
        <time>2011-06-11T08:40:21.000Z</time>
      </trkpt>
      <trkpt lat="45.6507" lon="2.53429">
        <ele>725.20001220703</ele>
        <time>2011-06-11T08:40:25.000Z</time>
      </trkpt>
      <trkpt lat="45.65069" lon="2.53356">
        <ele>720.59997558594</ele>
        <time>2011-06-11T08:40:29.000Z</time>
      </trkpt>
      <trkpt lat="45.65074" lon="2.53318">
        <ele>718.59997558594</ele>
        <time>2011-06-11T08:40:31.000Z</time>
      </trkpt>
      <trkpt lat="45.65082" lon="2.53221">
        <ele>712.40002441406</ele>
        <time>2011-06-11T08:40:36.000Z</time>
      </trkpt>
      <trkpt lat="45.6509" lon="2.53163">
        <ele>708.59997558594</ele>
        <time>2011-06-11T08:40:39.000Z</time>
      </trkpt>
      <trkpt lat="45.65085" lon="2.53088">
        <ele>705</ele>
        <time>2011-06-11T08:40:43.000Z</time>
      </trkpt>
      <trkpt lat="45.65087" lon="2.53032">
        <ele>701.59997558594</ele>
        <time>2011-06-11T08:40:46.000Z</time>
      </trkpt>
      <trkpt lat="45.65089" lon="2.52975">
        <ele>698</ele>
        <time>2011-06-11T08:40:49.000Z</time>
      </trkpt>
      <trkpt lat="45.65071" lon="2.52923">
        <ele>694.40002441406</ele>
        <time>2011-06-11T08:40:52.000Z</time>
      </trkpt>
      <trkpt lat="45.65055" lon="2.52869">
        <ele>690.79998779297</ele>
        <time>2011-06-11T08:40:55.000Z</time>
      </trkpt>
      <trkpt lat="45.65054" lon="2.52809">
        <ele>686.79998779297</ele>
        <time>2011-06-11T08:40:58.000Z</time>
      </trkpt>
      <trkpt lat="45.65063" lon="2.5277">
        <ele>684.40002441406</ele>
        <time>2011-06-11T08:41:00.000Z</time>
      </trkpt>
      <trkpt lat="45.6507" lon="2.52752">
        <ele>683.20001220703</ele>
        <time>2011-06-11T08:41:01.000Z</time>
      </trkpt>
      <trkpt lat="45.65106" lon="2.52683">
        <ele>679.40002441406</ele>
        <time>2011-06-11T08:41:05.000Z</time>
      </trkpt>
      <trkpt lat="45.65126" lon="2.52649">
        <ele>677</ele>
        <time>2011-06-11T08:41:07.000Z</time>
      </trkpt>
      <trkpt lat="45.65141" lon="2.52589">
        <ele>673</ele>
        <time>2011-06-11T08:41:10.000Z</time>
      </trkpt>
      <trkpt lat="45.65133" lon="2.52547">
        <ele>670.59997558594</ele>
        <time>2011-06-11T08:41:12.000Z</time>
      </trkpt>
      <trkpt lat="45.65106" lon="2.52503">
        <ele>666.79998779297</ele>
        <time>2011-06-11T08:41:15.000Z</time>
      </trkpt>
      <trkpt lat="45.65086" lon="2.5245">
        <ele>663</ele>
        <time>2011-06-11T08:41:18.000Z</time>
      </trkpt>
      <trkpt lat="45.6509" lon="2.52411">
        <ele>660.59997558594</ele>
        <time>2011-06-11T08:41:20.000Z</time>
      </trkpt>
      <trkpt lat="45.65106" lon="2.52378">
        <ele>658.20001220703</ele>
        <time>2011-06-11T08:41:22.000Z</time>
      </trkpt>
      <trkpt lat="45.65157" lon="2.52293">
        <ele>652.59997558594</ele>
        <time>2011-06-11T08:41:28.000Z</time>
      </trkpt>
      <trkpt lat="45.65172" lon="2.52268">
        <ele>651.79998779297</ele>
        <time>2011-06-11T08:41:30.000Z</time>
      </trkpt>
      <trkpt lat="45.65178" lon="2.52256">
        <ele>651.79998779297</ele>
        <time>2011-06-11T08:41:31.000Z</time>
      </trkpt>
      <trkpt lat="45.65189" lon="2.52207">
        <ele>651.59997558594</ele>
        <time>2011-06-11T08:41:35.000Z</time>
      </trkpt>
      <trkpt lat="45.65179" lon="2.52178">
        <ele>652.40002441406</ele>
        <time>2011-06-11T08:41:38.000Z</time>
      </trkpt>
      <trkpt lat="45.65174" lon="2.52171">
        <ele>652.59997558594</ele>
        <time>2011-06-11T08:41:39.000Z</time>
      </trkpt>
      <trkpt lat="45.65143" lon="2.52132">
        <ele>654.59997558594</ele>
        <time>2011-06-11T08:41:46.000Z</time>
      </trkpt>
      <trkpt lat="45.65111" lon="2.52094">
        <ele>656</ele>
        <time>2011-06-11T08:41:54.000Z</time>
      </trkpt>
      <trkpt lat="45.65089" lon="2.52067">
        <ele>657.79998779297</ele>
        <time>2011-06-11T08:42:01.000Z</time>
      </trkpt>
      <trkpt lat="45.65065" lon="2.52037">
        <ele>660.59997558594</ele>
        <time>2011-06-11T08:42:10.000Z</time>
      </trkpt>
      <trkpt lat="45.65038" lon="2.52009">
        <ele>663</ele>
        <time>2011-06-11T08:42:20.000Z</time>
      </trkpt>
      <trkpt lat="45.65003" lon="2.51986">
        <ele>664.79998779297</ele>
        <time>2011-06-11T08:42:31.000Z</time>
      </trkpt>
      <trkpt lat="45.64969" lon="2.51965">
        <ele>667.79998779297</ele>
        <time>2011-06-11T08:42:42.000Z</time>
      </trkpt>
      <trkpt lat="45.6493" lon="2.51937">
        <ele>671</ele>
        <time>2011-06-11T08:42:55.000Z</time>
      </trkpt>
      <trkpt lat="45.64909" lon="2.51914">
        <ele>672.59997558594</ele>
        <time>2011-06-11T08:43:03.000Z</time>
      </trkpt>
      <trkpt lat="45.64896" lon="2.51888">
        <ele>674.20001220703</ele>
        <time>2011-06-11T08:43:10.000Z</time>
      </trkpt>
      <trkpt lat="45.64894" lon="2.51863">
        <ele>675.79998779297</ele>
        <time>2011-06-11T08:43:16.000Z</time>
      </trkpt>
      <trkpt lat="45.64902" lon="2.51826">
        <ele>678.59997558594</ele>
        <time>2011-06-11T08:43:25.000Z</time>
      </trkpt>
      <trkpt lat="45.64913" lon="2.51798">
        <ele>680.40002441406</ele>
        <time>2011-06-11T08:43:32.000Z</time>
      </trkpt>
      <trkpt lat="45.64916" lon="2.51764">
        <ele>681.59997558594</ele>
        <time>2011-06-11T08:43:39.000Z</time>
      </trkpt>
      <trkpt lat="45.6491" lon="2.51724">
        <ele>683.59997558594</ele>
        <time>2011-06-11T08:43:47.000Z</time>
      </trkpt>
      <trkpt lat="45.64912" lon="2.51691">
        <ele>684.79998779297</ele>
        <time>2011-06-11T08:43:53.000Z</time>
      </trkpt>
      <trkpt lat="45.64921" lon="2.51643">
        <ele>686.79998779297</ele>
        <time>2011-06-11T08:44:03.000Z</time>
      </trkpt>
      <trkpt lat="45.64934" lon="2.51607">
        <ele>688.79998779297</ele>
        <time>2011-06-11T08:44:12.000Z</time>
      </trkpt>
      <trkpt lat="45.64953" lon="2.51577">
        <ele>690.40002441406</ele>
        <time>2011-06-11T08:44:21.000Z</time>
      </trkpt>
      <trkpt lat="45.64979" lon="2.51558">
        <ele>692.20001220703</ele>
        <time>2011-06-11T08:44:30.000Z</time>
      </trkpt>
      <trkpt lat="45.65009" lon="2.51529">
        <ele>694.59997558594</ele>
        <time>2011-06-11T08:44:41.000Z</time>
      </trkpt>
      <trkpt lat="45.65035" lon="2.51496">
        <ele>696.59997558594</ele>
        <time>2011-06-11T08:44:52.000Z</time>
      </trkpt>
      <trkpt lat="45.65061" lon="2.51471">
        <ele>698.59997558594</ele>
        <time>2011-06-11T08:45:02.000Z</time>
      </trkpt>
      <trkpt lat="45.65097" lon="2.51446">
        <ele>701</ele>
        <time>2011-06-11T08:45:14.000Z</time>
      </trkpt>
      <trkpt lat="45.65136" lon="2.51421">
        <ele>703.59997558594</ele>
        <time>2011-06-11T08:45:27.000Z</time>
      </trkpt>
      <trkpt lat="45.65167" lon="2.51398">
        <ele>706</ele>
        <time>2011-06-11T08:45:38.000Z</time>
      </trkpt>
      <trkpt lat="45.65196" lon="2.51371">
        <ele>708</ele>
        <time>2011-06-11T08:45:48.000Z</time>
      </trkpt>
      <trkpt lat="45.65221" lon="2.51348">
        <ele>709.59997558594</ele>
        <time>2011-06-11T08:45:57.000Z</time>
      </trkpt>
      <trkpt lat="45.65255" lon="2.51327">
        <ele>712</ele>
        <time>2011-06-11T08:46:08.000Z</time>
      </trkpt>
      <trkpt lat="45.65278" lon="2.51314">
        <ele>713.79998779297</ele>
        <time>2011-06-11T08:46:15.000Z</time>
      </trkpt>
      <trkpt lat="45.65301" lon="2.51301">
        <ele>715</ele>
        <time>2011-06-11T08:46:22.000Z</time>
      </trkpt>
      <trkpt lat="45.65324" lon="2.51292">
        <ele>716.20001220703</ele>
        <time>2011-06-11T08:46:29.000Z</time>
      </trkpt>
      <trkpt lat="45.65355" lon="2.51277">
        <ele>718.40002441406</ele>
        <time>2011-06-11T08:46:39.000Z</time>
      </trkpt>
      <trkpt lat="45.65373" lon="2.51254">
        <ele>720.20001220703</ele>
        <time>2011-06-11T08:46:46.000Z</time>
      </trkpt>
      <trkpt lat="45.65392" lon="2.51207">
        <ele>722.59997558594</ele>
        <time>2011-06-11T08:46:57.000Z</time>
      </trkpt>
      <trkpt lat="45.65414" lon="2.51171">
        <ele>724.79998779297</ele>
        <time>2011-06-11T08:47:07.000Z</time>
      </trkpt>
      <trkpt lat="45.65444" lon="2.51126">
        <ele>727.59997558594</ele>
        <time>2011-06-11T08:47:20.000Z</time>
      </trkpt>
      <trkpt lat="45.65478" lon="2.51084">
        <ele>729.79998779297</ele>
        <time>2011-06-11T08:47:33.000Z</time>
      </trkpt>
      <trkpt lat="45.65514" lon="2.51057">
        <ele>732</ele>
        <time>2011-06-11T08:47:44.000Z</time>
      </trkpt>
      <trkpt lat="45.65553" lon="2.51034">
        <ele>733.79998779297</ele>
        <time>2011-06-11T08:47:55.000Z</time>
      </trkpt>
      <trkpt lat="45.65593" lon="2.51014">
        <ele>737</ele>
        <time>2011-06-11T08:48:07.000Z</time>
      </trkpt>
      <trkpt lat="45.6562" lon="2.50997">
        <ele>739.20001220703</ele>
        <time>2011-06-11T08:48:16.000Z</time>
      </trkpt>
      <trkpt lat="45.65649" lon="2.50972">
        <ele>741.59997558594</ele>
        <time>2011-06-11T08:48:26.000Z</time>
      </trkpt>
      <trkpt lat="45.65671" lon="2.50944">
        <ele>744</ele>
        <time>2011-06-11T08:48:35.000Z</time>
      </trkpt>
      <trkpt lat="45.65689" lon="2.50916">
        <ele>745.79998779297</ele>
        <time>2011-06-11T08:48:43.000Z</time>
      </trkpt>
      <trkpt lat="45.65709" lon="2.50876">
        <ele>748.40002441406</ele>
        <time>2011-06-11T08:48:53.000Z</time>
      </trkpt>
      <trkpt lat="45.65724" lon="2.50831">
        <ele>751</ele>
        <time>2011-06-11T08:49:03.000Z</time>
      </trkpt>
      <trkpt lat="45.65733" lon="2.50793">
        <ele>752.79998779297</ele>
        <time>2011-06-11T08:49:11.000Z</time>
      </trkpt>
      <trkpt lat="45.65741" lon="2.5074">
        <ele>755.40002441406</ele>
        <time>2011-06-11T08:49:22.000Z</time>
      </trkpt>
      <trkpt lat="45.65747" lon="2.50676">
        <ele>757.59997558594</ele>
        <time>2011-06-11T08:49:34.000Z</time>
      </trkpt>
      <trkpt lat="45.65758" lon="2.5061">
        <ele>760</ele>
        <time>2011-06-11T08:49:46.000Z</time>
      </trkpt>
      <trkpt lat="45.65773" lon="2.50558">
        <ele>761.59997558594</ele>
        <time>2011-06-11T08:49:56.000Z</time>
      </trkpt>
      <trkpt lat="45.65794" lon="2.50497">
        <ele>763.79998779297</ele>
        <time>2011-06-11T08:50:08.000Z</time>
      </trkpt>
      <trkpt lat="45.65812" lon="2.50441">
        <ele>765.59997558594</ele>
        <time>2011-06-11T08:50:18.000Z</time>
      </trkpt>
      <trkpt lat="45.65825" lon="2.50402">
        <ele>766.59997558594</ele>
        <time>2011-06-11T08:50:25.000Z</time>
      </trkpt>
      <trkpt lat="45.65842" lon="2.50348">
        <ele>766.79998779297</ele>
        <time>2011-06-11T08:50:33.000Z</time>
      </trkpt>
      <trkpt lat="45.65864" lon="2.50281">
        <ele>766.59997558594</ele>
        <time>2011-06-11T08:50:42.000Z</time>
      </trkpt>
      <trkpt lat="45.65892" lon="2.50195">
        <ele>766.59997558594</ele>
        <time>2011-06-11T08:50:53.000Z</time>
      </trkpt>
      <trkpt lat="45.65921" lon="2.50106">
        <ele>766.40002441406</ele>
        <time>2011-06-11T08:51:04.000Z</time>
      </trkpt>
      <trkpt lat="45.65951" lon="2.50016">
        <ele>766.20001220703</ele>
        <time>2011-06-11T08:51:15.000Z</time>
      </trkpt>
      <trkpt lat="45.65987" lon="2.4991">
        <ele>765.79998779297</ele>
        <time>2011-06-11T08:51:28.000Z</time>
      </trkpt>
      <trkpt lat="45.66017" lon="2.49824">
        <ele>765</ele>
        <time>2011-06-11T08:51:38.000Z</time>
      </trkpt>
      <trkpt lat="45.66044" lon="2.49742">
        <ele>764.59997558594</ele>
        <time>2011-06-11T08:51:47.000Z</time>
      </trkpt>
      <trkpt lat="45.66067" lon="2.49676">
        <ele>764.79998779297</ele>
        <time>2011-06-11T08:51:55.000Z</time>
      </trkpt>
      <trkpt lat="45.66095" lon="2.49596">
        <ele>766.20001220703</ele>
        <time>2011-06-11T08:52:06.000Z</time>
      </trkpt>
      <trkpt lat="45.66122" lon="2.49513">
        <ele>767.20001220703</ele>
        <time>2011-06-11T08:52:17.000Z</time>
      </trkpt>
      <trkpt lat="45.66144" lon="2.49445">
        <ele>765.79998779297</ele>
        <time>2011-06-11T08:52:24.000Z</time>
      </trkpt>
      <trkpt lat="45.6617" lon="2.49363">
        <ele>762.79998779297</ele>
        <time>2011-06-11T08:52:31.000Z</time>
      </trkpt>
      <trkpt lat="45.66196" lon="2.49287">
        <ele>759.40002441406</ele>
        <time>2011-06-11T08:52:37.000Z</time>
      </trkpt>
      <trkpt lat="45.6623" lon="2.49187">
        <ele>754.79998779297</ele>
        <time>2011-06-11T08:52:44.000Z</time>
      </trkpt>
      <trkpt lat="45.66265" lon="2.4909">
        <ele>751</ele>
        <time>2011-06-11T08:52:51.000Z</time>
      </trkpt>
      <trkpt lat="45.66311" lon="2.4896">
        <ele>747.59997558594</ele>
        <time>2011-06-11T08:53:01.000Z</time>
      </trkpt>
      <trkpt lat="45.6635" lon="2.48856">
        <ele>744.79998779297</ele>
        <time>2011-06-11T08:53:09.000Z</time>
      </trkpt>
      <trkpt lat="45.66354" lon="2.48842">
        <ele>744.40002441406</ele>
        <time>2011-06-11T08:53:10.000Z</time>
      </trkpt>
      <trkpt lat="45.66354" lon="2.48784">
        <ele>742.79998779297</ele>
        <time>2011-06-11T08:53:14.000Z</time>
      </trkpt>
      <trkpt lat="45.66334" lon="2.48749">
        <ele>741.40002441406</ele>
        <time>2011-06-11T08:53:17.000Z</time>
      </trkpt>
      <trkpt lat="45.66287" lon="2.48686">
        <ele>739</ele>
        <time>2011-06-11T08:53:23.000Z</time>
      </trkpt>
      <trkpt lat="45.66246" lon="2.48617">
        <ele>735.59997558594</ele>
        <time>2011-06-11T08:53:29.000Z</time>
      </trkpt>
      <trkpt lat="45.66218" lon="2.48561">
        <ele>733.59997558594</ele>
        <time>2011-06-11T08:53:34.000Z</time>
      </trkpt>
      <trkpt lat="45.66209" lon="2.48505">
        <ele>733.40002441406</ele>
        <time>2011-06-11T08:53:39.000Z</time>
      </trkpt>
      <trkpt lat="45.66205" lon="2.48417">
        <ele>734</ele>
        <time>2011-06-11T08:53:48.000Z</time>
      </trkpt>
      <trkpt lat="45.66202" lon="2.48361">
        <ele>735.40002441406</ele>
        <time>2011-06-11T08:53:55.000Z</time>
      </trkpt>
      <trkpt lat="45.66201" lon="2.48332">
        <ele>736</ele>
        <time>2011-06-11T08:53:59.000Z</time>
      </trkpt>
      <trkpt lat="45.6621" lon="2.48286">
        <ele>738</ele>
        <time>2011-06-11T08:54:06.000Z</time>
      </trkpt>
      <trkpt lat="45.66217" lon="2.48242">
        <ele>739.59997558594</ele>
        <time>2011-06-11T08:54:13.000Z</time>
      </trkpt>
      <trkpt lat="45.66213" lon="2.482">
        <ele>741</ele>
        <time>2011-06-11T08:54:19.000Z</time>
      </trkpt>
      <trkpt lat="45.66196" lon="2.4816">
        <ele>742.20001220703</ele>
        <time>2011-06-11T08:54:26.000Z</time>
      </trkpt>
      <trkpt lat="45.66167" lon="2.48116">
        <ele>743.20001220703</ele>
        <time>2011-06-11T08:54:35.000Z</time>
      </trkpt>
      <trkpt lat="45.66132" lon="2.4806">
        <ele>744.40002441406</ele>
        <time>2011-06-11T08:54:46.000Z</time>
      </trkpt>
      <trkpt lat="45.66108" lon="2.48022">
        <ele>744</ele>
        <time>2011-06-11T08:54:52.000Z</time>
      </trkpt>
      <trkpt lat="45.6608" lon="2.47973">
        <ele>742.20001220703</ele>
        <time>2011-06-11T08:54:58.000Z</time>
      </trkpt>
      <trkpt lat="45.66067" lon="2.47927">
        <ele>741</ele>
        <time>2011-06-11T08:55:02.000Z</time>
      </trkpt>
      <trkpt lat="45.66052" lon="2.47823">
        <ele>737.40002441406</ele>
        <time>2011-06-11T08:55:10.000Z</time>
      </trkpt>
      <trkpt lat="45.66042" lon="2.47784">
        <ele>736</ele>
        <time>2011-06-11T08:55:13.000Z</time>
      </trkpt>
      <trkpt lat="45.66018" lon="2.47738">
        <ele>733.79998779297</ele>
        <time>2011-06-11T08:55:17.000Z</time>
      </trkpt>
      <trkpt lat="45.66011" lon="2.47728">
        <ele>733.20001220703</ele>
        <time>2011-06-11T08:55:18.000Z</time>
      </trkpt>
      <trkpt lat="45.65985" lon="2.47702">
        <ele>731.40002441406</ele>
        <time>2011-06-11T08:55:21.000Z</time>
      </trkpt>
      <trkpt lat="45.65945" lon="2.4768">
        <ele>729.59997558594</ele>
        <time>2011-06-11T08:55:25.000Z</time>
      </trkpt>
      <trkpt lat="45.65909" lon="2.47645">
        <ele>727</ele>
        <time>2011-06-11T08:55:29.000Z</time>
      </trkpt>
      <trkpt lat="45.65901" lon="2.47634">
        <ele>726.59997558594</ele>
        <time>2011-06-11T08:55:30.000Z</time>
      </trkpt>
      <trkpt lat="45.65868" lon="2.47566">
        <ele>725.20001220703</ele>
        <time>2011-06-11T08:55:36.000Z</time>
      </trkpt>
      <trkpt lat="45.65844" lon="2.47506">
        <ele>724.59997558594</ele>
        <time>2011-06-11T08:55:42.000Z</time>
      </trkpt>
      <trkpt lat="45.65818" lon="2.47438">
        <ele>723.79998779297</ele>
        <time>2011-06-11T08:55:49.000Z</time>
      </trkpt>
      <trkpt lat="45.65795" lon="2.47367">
        <ele>721.79998779297</ele>
        <time>2011-06-11T08:55:55.000Z</time>
      </trkpt>
      <trkpt lat="45.6577" lon="2.47305">
        <ele>719</ele>
        <time>2011-06-11T08:56:00.000Z</time>
      </trkpt>
      <trkpt lat="45.65729" lon="2.47227">
        <ele>715.59997558594</ele>
        <time>2011-06-11T08:56:07.000Z</time>
      </trkpt>
      <trkpt lat="45.65688" lon="2.47151">
        <ele>714.40002441406</ele>
        <time>2011-06-11T08:56:15.000Z</time>
      </trkpt>
      <trkpt lat="45.65662" lon="2.47102">
        <ele>714.59997558594</ele>
        <time>2011-06-11T08:56:21.000Z</time>
      </trkpt>
      <trkpt lat="45.65638" lon="2.47057">
        <ele>716</ele>
        <time>2011-06-11T08:56:28.000Z</time>
      </trkpt>
      <trkpt lat="45.65605" lon="2.46995">
        <ele>718.79998779297</ele>
        <time>2011-06-11T08:56:39.000Z</time>
      </trkpt>
      <trkpt lat="45.65579" lon="2.46947">
        <ele>721.20001220703</ele>
        <time>2011-06-11T08:56:49.000Z</time>
      </trkpt>
      <trkpt lat="45.65558" lon="2.46909">
        <ele>723</ele>
        <time>2011-06-11T08:56:57.000Z</time>
      </trkpt>
      <trkpt lat="45.65532" lon="2.46861">
        <ele>724.79998779297</ele>
        <time>2011-06-11T08:57:07.000Z</time>
      </trkpt>
      <trkpt lat="45.65516" lon="2.46828">
        <ele>725.79998779297</ele>
        <time>2011-06-11T08:57:13.000Z</time>
      </trkpt>
      <trkpt lat="45.65496" lon="2.46791">
        <ele>727</ele>
        <time>2011-06-11T08:57:21.000Z</time>
      </trkpt>
      <trkpt lat="45.65463" lon="2.46731">
        <ele>730</ele>
        <time>2011-06-11T08:57:34.000Z</time>
      </trkpt>
      <trkpt lat="45.65434" lon="2.46676">
        <ele>731.59997558594</ele>
        <time>2011-06-11T08:57:44.000Z</time>
      </trkpt>
      <trkpt lat="45.65412" lon="2.46636">
        <ele>731.40002441406</ele>
        <time>2011-06-11T08:57:50.000Z</time>
      </trkpt>
      <trkpt lat="45.65382" lon="2.46579">
        <ele>729.59997558594</ele>
        <time>2011-06-11T08:57:57.000Z</time>
      </trkpt>
      <trkpt lat="45.65348" lon="2.46515">
        <ele>726.79998779297</ele>
        <time>2011-06-11T08:58:04.000Z</time>
      </trkpt>
      <trkpt lat="45.65318" lon="2.46447">
        <ele>724.40002441406</ele>
        <time>2011-06-11T08:58:11.000Z</time>
      </trkpt>
      <trkpt lat="45.65282" lon="2.46356">
        <ele>721.40002441406</ele>
        <time>2011-06-11T08:58:20.000Z</time>
      </trkpt>
      <trkpt lat="45.65257" lon="2.46306">
        <ele>719.40002441406</ele>
        <time>2011-06-11T08:58:25.000Z</time>
      </trkpt>
      <trkpt lat="45.65211" lon="2.46237">
        <ele>715.20001220703</ele>
        <time>2011-06-11T08:58:32.000Z</time>
      </trkpt>
      <trkpt lat="45.65164" lon="2.46176">
        <ele>712</ele>
        <time>2011-06-11T08:58:39.000Z</time>
      </trkpt>
      <trkpt lat="45.65134" lon="2.46141">
        <ele>711</ele>
        <time>2011-06-11T08:58:44.000Z</time>
      </trkpt>
      <trkpt lat="45.65107" lon="2.46109">
        <ele>711.40002441406</ele>
        <time>2011-06-11T08:58:50.000Z</time>
      </trkpt>
      <trkpt lat="45.6507" lon="2.46067">
        <ele>714.59997558594</ele>
        <time>2011-06-11T08:59:00.000Z</time>
      </trkpt>
      <trkpt lat="45.65033" lon="2.46039">
        <ele>717</ele>
        <time>2011-06-11T08:59:09.000Z</time>
      </trkpt>
      <trkpt lat="45.64972" lon="2.46">
        <ele>719.79998779297</ele>
        <time>2011-06-11T08:59:23.000Z</time>
      </trkpt>
      <trkpt lat="45.6491" lon="2.45962">
        <ele>721.79998779297</ele>
        <time>2011-06-11T08:59:36.000Z</time>
      </trkpt>
      <trkpt lat="45.64854" lon="2.45927">
        <ele>723.59997558594</ele>
        <time>2011-06-11T08:59:48.000Z</time>
      </trkpt>
      <trkpt lat="45.6481" lon="2.45899">
        <ele>724.79998779297</ele>
        <time>2011-06-11T08:59:58.000Z</time>
      </trkpt>
      <trkpt lat="45.6476" lon="2.45869">
        <ele>726.59997558594</ele>
        <time>2011-06-11T09:00:10.000Z</time>
      </trkpt>
      <trkpt lat="45.64713" lon="2.45838">
        <ele>728.59997558594</ele>
        <time>2011-06-11T09:00:21.000Z</time>
      </trkpt>
      <trkpt lat="45.6468" lon="2.45811">
        <ele>729.59997558594</ele>
        <time>2011-06-11T09:00:29.000Z</time>
      </trkpt>
      <trkpt lat="45.64665" lon="2.45784">
        <ele>730</ele>
        <time>2011-06-11T09:00:34.000Z</time>
      </trkpt>
      <trkpt lat="45.64658" lon="2.45759">
        <ele>730.59997558594</ele>
        <time>2011-06-11T09:00:38.000Z</time>
      </trkpt>
      <trkpt lat="45.64654" lon="2.4569">
        <ele>733.20001220703</ele>
        <time>2011-06-11T09:00:49.000Z</time>
      </trkpt>
      <trkpt lat="45.64652" lon="2.45638">
        <ele>735.59997558594</ele>
        <time>2011-06-11T09:00:58.000Z</time>
      </trkpt>
      <trkpt lat="45.64649" lon="2.45586">
        <ele>737.59997558594</ele>
        <time>2011-06-11T09:01:07.000Z</time>
      </trkpt>
      <trkpt lat="45.64646" lon="2.45529">
        <ele>740</ele>
        <time>2011-06-11T09:01:17.000Z</time>
      </trkpt>
      <trkpt lat="45.64643" lon="2.45471">
        <ele>741.40002441406</ele>
        <time>2011-06-11T09:01:26.000Z</time>
      </trkpt>
      <trkpt lat="45.64638" lon="2.45389">
        <ele>742.20001220703</ele>
        <time>2011-06-11T09:01:38.000Z</time>
      </trkpt>
      <trkpt lat="45.64633" lon="2.45317">
        <ele>743.40002441406</ele>
        <time>2011-06-11T09:01:48.000Z</time>
      </trkpt>
      <trkpt lat="45.64629" lon="2.45228">
        <ele>744</ele>
        <time>2011-06-11T09:02:00.000Z</time>
      </trkpt>
      <trkpt lat="45.64625" lon="2.45158">
        <ele>744.20001220703</ele>
        <time>2011-06-11T09:02:09.000Z</time>
      </trkpt>
      <trkpt lat="45.64621" lon="2.45076">
        <ele>744</ele>
        <time>2011-06-11T09:02:19.000Z</time>
      </trkpt>
      <trkpt lat="45.64617" lon="2.45011">
        <ele>743.40002441406</ele>
        <time>2011-06-11T09:02:26.000Z</time>
      </trkpt>
      <trkpt lat="45.64612" lon="2.44936">
        <ele>743</ele>
        <time>2011-06-11T09:02:34.000Z</time>
      </trkpt>
      <trkpt lat="45.64607" lon="2.44856">
        <ele>743.20001220703</ele>
        <time>2011-06-11T09:02:43.000Z</time>
      </trkpt>
      <trkpt lat="45.64602" lon="2.44784">
        <ele>744.79998779297</ele>
        <time>2011-06-11T09:02:52.000Z</time>
      </trkpt>
      <trkpt lat="45.64597" lon="2.44715">
        <ele>746.20001220703</ele>
        <time>2011-06-11T09:03:02.000Z</time>
      </trkpt>
      <trkpt lat="45.64592" lon="2.44631">
        <ele>749.20001220703</ele>
        <time>2011-06-11T09:03:15.000Z</time>
      </trkpt>
      <trkpt lat="45.64587" lon="2.4456">
        <ele>751.20001220703</ele>
        <time>2011-06-11T09:03:26.000Z</time>
      </trkpt>
      <trkpt lat="45.64584" lon="2.44495">
        <ele>753.20001220703</ele>
        <time>2011-06-11T09:03:36.000Z</time>
      </trkpt>
      <trkpt lat="45.64578" lon="2.44408">
        <ele>755</ele>
        <time>2011-06-11T09:03:49.000Z</time>
      </trkpt>
      <trkpt lat="45.64573" lon="2.44331">
        <ele>756.20001220703</ele>
        <time>2011-06-11T09:04:00.000Z</time>
      </trkpt>
      <trkpt lat="45.6457" lon="2.44275">
        <ele>757</ele>
        <time>2011-06-11T09:04:08.000Z</time>
      </trkpt>
      <trkpt lat="45.64564" lon="2.44208">
        <ele>757.59997558594</ele>
        <time>2011-06-11T09:04:17.000Z</time>
      </trkpt>
      <trkpt lat="45.64554" lon="2.44138">
        <ele>758.40002441406</ele>
        <time>2011-06-11T09:04:26.000Z</time>
      </trkpt>
      <trkpt lat="45.64537" lon="2.44067">
        <ele>758.79998779297</ele>
        <time>2011-06-11T09:04:35.000Z</time>
      </trkpt>
      <trkpt lat="45.64514" lon="2.43999">
        <ele>759.20001220703</ele>
        <time>2011-06-11T09:04:44.000Z</time>
      </trkpt>
      <trkpt lat="45.64513" lon="2.43994">
        <ele>759.20001220703</ele>
        <time>2011-06-11T09:04:45.000Z</time>
      </trkpt>
      <trkpt lat="45.6452" lon="2.4399">
        <ele>759.59997558594</ele>
        <time>2011-06-11T09:04:49.000Z</time>
      </trkpt>
      <trkpt lat="45.64527" lon="2.43992">
        <ele>760.20001220703</ele>
        <time>2011-06-11T09:04:54.000Z</time>
      </trkpt>
      <trkpt lat="45.64513" lon="2.43988">
        <ele>760.40002441406</ele>
        <time>2011-06-11T09:05:20.000Z</time>
      </trkpt>
      <trkpt lat="45.64506" lon="2.4398">
        <ele>760.20001220703</ele>
        <time>2011-06-11T09:05:22.000Z</time>
      </trkpt>
      <trkpt lat="45.64485" lon="2.43929">
        <ele>760</ele>
        <time>2011-06-11T09:05:29.000Z</time>
      </trkpt>
      <trkpt lat="45.64449" lon="2.43867">
        <ele>760.40002441406</ele>
        <time>2011-06-11T09:05:37.000Z</time>
      </trkpt>
      <trkpt lat="45.64404" lon="2.43802">
        <ele>761.79998779297</ele>
        <time>2011-06-11T09:05:46.000Z</time>
      </trkpt>
      <trkpt lat="45.64361" lon="2.43743">
        <ele>764</ele>
        <time>2011-06-11T09:05:56.000Z</time>
      </trkpt>
      <trkpt lat="45.64313" lon="2.43678">
        <ele>765.59997558594</ele>
        <time>2011-06-11T09:06:07.000Z</time>
      </trkpt>
      <trkpt lat="45.64256" lon="2.436">
        <ele>766.59997558594</ele>
        <time>2011-06-11T09:06:19.000Z</time>
      </trkpt>
      <trkpt lat="45.64206" lon="2.43532">
        <ele>768.20001220703</ele>
        <time>2011-06-11T09:06:30.000Z</time>
      </trkpt>
      <trkpt lat="45.64142" lon="2.43443">
        <ele>771.20001220703</ele>
        <time>2011-06-11T09:06:45.000Z</time>
      </trkpt>
      <trkpt lat="45.64094" lon="2.43376">
        <ele>773.40002441406</ele>
        <time>2011-06-11T09:06:57.000Z</time>
      </trkpt>
      <trkpt lat="45.64058" lon="2.43325">
        <ele>774</ele>
        <time>2011-06-11T09:07:05.000Z</time>
      </trkpt>
      <trkpt lat="45.64013" lon="2.43263">
        <ele>773.40002441406</ele>
        <time>2011-06-11T09:07:13.000Z</time>
      </trkpt>
      <trkpt lat="45.63962" lon="2.43193">
        <ele>770.79998779297</ele>
        <time>2011-06-11T09:07:21.000Z</time>
      </trkpt>
      <trkpt lat="45.63892" lon="2.43096">
        <ele>765.79998779297</ele>
        <time>2011-06-11T09:07:31.000Z</time>
      </trkpt>
      <trkpt lat="45.63832" lon="2.43012">
        <ele>760.79998779297</ele>
        <time>2011-06-11T09:07:39.000Z</time>
      </trkpt>
      <trkpt lat="45.63758" lon="2.42909">
        <ele>754.40002441406</ele>
        <time>2011-06-11T09:07:48.000Z</time>
      </trkpt>
      <trkpt lat="45.63716" lon="2.42852">
        <ele>751.40002441406</ele>
        <time>2011-06-11T09:07:53.000Z</time>
      </trkpt>
      <trkpt lat="45.63693" lon="2.4282">
        <ele>750.20001220703</ele>
        <time>2011-06-11T09:07:56.000Z</time>
      </trkpt>
      <trkpt lat="45.63618" lon="2.42716">
        <ele>746.79998779297</ele>
        <time>2011-06-11T09:08:06.000Z</time>
      </trkpt>
      <trkpt lat="45.63554" lon="2.42627">
        <ele>744.59997558594</ele>
        <time>2011-06-11T09:08:15.000Z</time>
      </trkpt>
      <trkpt lat="45.63482" lon="2.42527">
        <ele>741.20001220703</ele>
        <time>2011-06-11T09:08:25.000Z</time>
      </trkpt>
      <trkpt lat="45.634" lon="2.42411">
        <ele>737.79998779297</ele>
        <time>2011-06-11T09:08:37.000Z</time>
      </trkpt>
      <trkpt lat="45.63333" lon="2.42319">
        <ele>735</ele>
        <time>2011-06-11T09:08:47.000Z</time>
      </trkpt>
      <trkpt lat="45.63271" lon="2.42234">
        <ele>734.40002441406</ele>
        <time>2011-06-11T09:08:57.000Z</time>
      </trkpt>
      <trkpt lat="45.63235" lon="2.42185">
        <ele>735.59997558594</ele>
        <time>2011-06-11T09:09:04.000Z</time>
      </trkpt>
      <trkpt lat="45.63217" lon="2.4216">
        <ele>737.20001220703</ele>
        <time>2011-06-11T09:09:09.000Z</time>
      </trkpt>
      <trkpt lat="45.63188" lon="2.42119">
        <ele>739.79998779297</ele>
        <time>2011-06-11T09:09:18.000Z</time>
      </trkpt>
      <trkpt lat="45.6316" lon="2.42078">
        <ele>742</ele>
        <time>2011-06-11T09:09:27.000Z</time>
      </trkpt>
      <trkpt lat="45.63139" lon="2.42049">
        <ele>743.20001220703</ele>
        <time>2011-06-11T09:09:33.000Z</time>
      </trkpt>
      <trkpt lat="45.63112" lon="2.4201">
        <ele>744.59997558594</ele>
        <time>2011-06-11T09:09:41.000Z</time>
      </trkpt>
      <trkpt lat="45.6308" lon="2.41967">
        <ele>746.59997558594</ele>
        <time>2011-06-11T09:09:51.000Z</time>
      </trkpt>
      <trkpt lat="45.63057" lon="2.41935">
        <ele>748.59997558594</ele>
        <time>2011-06-11T09:09:59.000Z</time>
      </trkpt>
      <trkpt lat="45.63027" lon="2.41894">
        <ele>751</ele>
        <time>2011-06-11T09:10:09.000Z</time>
      </trkpt>
      <trkpt lat="45.62999" lon="2.41856">
        <ele>753.20001220703</ele>
        <time>2011-06-11T09:10:19.000Z</time>
      </trkpt>
      <trkpt lat="45.62976" lon="2.41823">
        <ele>754.59997558594</ele>
        <time>2011-06-11T09:10:27.000Z</time>
      </trkpt>
      <trkpt lat="45.62944" lon="2.41779">
        <ele>756</ele>
        <time>2011-06-11T09:10:37.000Z</time>
      </trkpt>
      <trkpt lat="45.62911" lon="2.41732">
        <ele>757.20001220703</ele>
        <time>2011-06-11T09:10:47.000Z</time>
      </trkpt>
      <trkpt lat="45.62869" lon="2.41673">
        <ele>758.59997558594</ele>
        <time>2011-06-11T09:10:59.000Z</time>
      </trkpt>
      <trkpt lat="45.62844" lon="2.41624">
        <ele>759.20001220703</ele>
        <time>2011-06-11T09:11:07.000Z</time>
      </trkpt>
      <trkpt lat="45.62829" lon="2.41567">
        <ele>759.59997558594</ele>
        <time>2011-06-11T09:11:15.000Z</time>
      </trkpt>
      <trkpt lat="45.62815" lon="2.41501">
        <ele>759.20001220703</ele>
        <time>2011-06-11T09:11:23.000Z</time>
      </trkpt>
      <trkpt lat="45.62792" lon="2.41397">
        <ele>758.79998779297</ele>
        <time>2011-06-11T09:11:35.000Z</time>
      </trkpt>
      <trkpt lat="45.6278" lon="2.41342">
        <ele>759.59997558594</ele>
        <time>2011-06-11T09:11:42.000Z</time>
      </trkpt>
      <trkpt lat="45.62767" lon="2.41287">
        <ele>760.59997558594</ele>
        <time>2011-06-11T09:11:49.000Z</time>
      </trkpt>
      <trkpt lat="45.62753" lon="2.41226">
        <ele>761.59997558594</ele>
        <time>2011-06-11T09:11:57.000Z</time>
      </trkpt>
      <trkpt lat="45.62731" lon="2.41129">
        <ele>763.40002441406</ele>
        <time>2011-06-11T09:12:10.000Z</time>
      </trkpt>
      <trkpt lat="45.62715" lon="2.41057">
        <ele>764.20001220703</ele>
        <time>2011-06-11T09:12:20.000Z</time>
      </trkpt>
      <trkpt lat="45.62702" lon="2.40998">
        <ele>766</ele>
        <time>2011-06-11T09:12:29.000Z</time>
      </trkpt>
      <trkpt lat="45.62688" lon="2.40953">
        <ele>768.40002441406</ele>
        <time>2011-06-11T09:12:37.000Z</time>
      </trkpt>
      <trkpt lat="45.6267" lon="2.40913">
        <ele>770</ele>
        <time>2011-06-11T09:12:45.000Z</time>
      </trkpt>
      <trkpt lat="45.62647" lon="2.40879">
        <ele>772.40002441406</ele>
        <time>2011-06-11T09:12:53.000Z</time>
      </trkpt>
      <trkpt lat="45.62626" lon="2.40858">
        <ele>773.79998779297</ele>
        <time>2011-06-11T09:12:59.000Z</time>
      </trkpt>
      <trkpt lat="45.62605" lon="2.40841">
        <ele>775</ele>
        <time>2011-06-11T09:13:05.000Z</time>
      </trkpt>
      <trkpt lat="45.62564" lon="2.40824">
        <ele>777.20001220703</ele>
        <time>2011-06-11T09:13:15.000Z</time>
      </trkpt>
      <trkpt lat="45.62533" lon="2.40821">
        <ele>778.40002441406</ele>
        <time>2011-06-11T09:13:22.000Z</time>
      </trkpt>
      <trkpt lat="45.62474" lon="2.40822">
        <ele>780.40002441406</ele>
        <time>2011-06-11T09:13:35.000Z</time>
      </trkpt>
      <trkpt lat="45.62426" lon="2.40832">
        <ele>781.59997558594</ele>
        <time>2011-06-11T09:13:45.000Z</time>
      </trkpt>
      <trkpt lat="45.62378" lon="2.40848">
        <ele>782.20001220703</ele>
        <time>2011-06-11T09:13:55.000Z</time>
      </trkpt>
      <trkpt lat="45.62329" lon="2.40867">
        <ele>782</ele>
        <time>2011-06-11T09:14:04.000Z</time>
      </trkpt>
      <trkpt lat="45.62296" lon="2.40887">
        <ele>780.40002441406</ele>
        <time>2011-06-11T09:14:09.000Z</time>
      </trkpt>
      <trkpt lat="45.62261" lon="2.40922">
        <ele>778.59997558594</ele>
        <time>2011-06-11T09:14:14.000Z</time>
      </trkpt>
      <trkpt lat="45.62214" lon="2.40973">
        <ele>775.59997558594</ele>
        <time>2011-06-11T09:14:20.000Z</time>
      </trkpt>
      <trkpt lat="45.62157" lon="2.41034">
        <ele>772.59997558594</ele>
        <time>2011-06-11T09:14:27.000Z</time>
      </trkpt>
      <trkpt lat="45.62121" lon="2.41069">
        <ele>770.79998779297</ele>
        <time>2011-06-11T09:14:31.000Z</time>
      </trkpt>
      <trkpt lat="45.6207" lon="2.41094">
        <ele>768.59997558594</ele>
        <time>2011-06-11T09:14:36.000Z</time>
      </trkpt>
      <trkpt lat="45.62025" lon="2.4111">
        <ele>767.40002441406</ele>
        <time>2011-06-11T09:14:41.000Z</time>
      </trkpt>
      <trkpt lat="45.61967" lon="2.41135">
        <ele>766.20001220703</ele>
        <time>2011-06-11T09:14:48.000Z</time>
      </trkpt>
      <trkpt lat="45.61909" lon="2.41176">
        <ele>764.20001220703</ele>
        <time>2011-06-11T09:14:55.000Z</time>
      </trkpt>
      <trkpt lat="45.61874" lon="2.41194">
        <ele>763</ele>
        <time>2011-06-11T09:14:59.000Z</time>
      </trkpt>
      <trkpt lat="45.6182" lon="2.41198">
        <ele>762</ele>
        <time>2011-06-11T09:15:05.000Z</time>
      </trkpt>
      <trkpt lat="45.6178" lon="2.41206">
        <ele>762</ele>
        <time>2011-06-11T09:15:10.000Z</time>
      </trkpt>
      <trkpt lat="45.61773" lon="2.4121">
        <ele>761.79998779297</ele>
        <time>2011-06-11T09:15:11.000Z</time>
      </trkpt>
      <trkpt lat="45.61716" lon="2.41257">
        <ele>761.20001220703</ele>
        <time>2011-06-11T09:15:19.000Z</time>
      </trkpt>
      <trkpt lat="45.61652" lon="2.41309">
        <ele>760.59997558594</ele>
        <time>2011-06-11T09:15:28.000Z</time>
      </trkpt>
      <trkpt lat="45.61587" lon="2.41349">
        <ele>759.40002441406</ele>
        <time>2011-06-11T09:15:37.000Z</time>
      </trkpt>
      <trkpt lat="45.61523" lon="2.41387">
        <ele>757.40002441406</ele>
        <time>2011-06-11T09:15:45.000Z</time>
      </trkpt>
      <trkpt lat="45.61435" lon="2.41439">
        <ele>753.79998779297</ele>
        <time>2011-06-11T09:15:55.000Z</time>
      </trkpt>
      <trkpt lat="45.61389" lon="2.41455">
        <ele>752.59997558594</ele>
        <time>2011-06-11T09:16:00.000Z</time>
      </trkpt>
      <trkpt lat="45.61352" lon="2.41451">
        <ele>751.59997558594</ele>
        <time>2011-06-11T09:16:04.000Z</time>
      </trkpt>
      <trkpt lat="45.61309" lon="2.41445">
        <ele>751.20001220703</ele>
        <time>2011-06-11T09:16:09.000Z</time>
      </trkpt>
      <trkpt lat="45.61277" lon="2.41454">
        <ele>751.20001220703</ele>
        <time>2011-06-11T09:16:13.000Z</time>
      </trkpt>
      <trkpt lat="45.61222" lon="2.41487">
        <ele>751</ele>
        <time>2011-06-11T09:16:21.000Z</time>
      </trkpt>
      <trkpt lat="45.61184" lon="2.41494">
        <ele>750.59997558594</ele>
        <time>2011-06-11T09:16:26.000Z</time>
      </trkpt>
      <trkpt lat="45.61142" lon="2.4149">
        <ele>751.20001220703</ele>
        <time>2011-06-11T09:16:32.000Z</time>
      </trkpt>
      <trkpt lat="45.61101" lon="2.41484">
        <ele>753.20001220703</ele>
        <time>2011-06-11T09:16:39.000Z</time>
      </trkpt>
      <trkpt lat="45.61091" lon="2.41481">
        <ele>753.79998779297</ele>
        <time>2011-06-11T09:16:41.000Z</time>
      </trkpt>
      <trkpt lat="45.61036" lon="2.41472">
        <ele>756.40002441406</ele>
        <time>2011-06-11T09:16:51.000Z</time>
      </trkpt>
      <trkpt lat="45.60984" lon="2.41464">
        <ele>755.79998779297</ele>
        <time>2011-06-11T09:16:59.000Z</time>
      </trkpt>
      <trkpt lat="45.60937" lon="2.41455">
        <ele>753.79998779297</ele>
        <time>2011-06-11T09:17:05.000Z</time>
      </trkpt>
      <trkpt lat="45.60881" lon="2.41444">
        <ele>751.59997558594</ele>
        <time>2011-06-11T09:17:11.000Z</time>
      </trkpt>
      <trkpt lat="45.60793" lon="2.41431">
        <ele>747.79998779297</ele>
        <time>2011-06-11T09:17:20.000Z</time>
      </trkpt>
      <trkpt lat="45.60728" lon="2.41417">
        <ele>746.20001220703</ele>
        <time>2011-06-11T09:17:27.000Z</time>
      </trkpt>
      <trkpt lat="45.60693" lon="2.41395">
        <ele>746.59997558594</ele>
        <time>2011-06-11T09:17:32.000Z</time>
      </trkpt>
      <trkpt lat="45.6066" lon="2.41373">
        <ele>749</ele>
        <time>2011-06-11T09:17:38.000Z</time>
      </trkpt>
      <trkpt lat="45.60625" lon="2.41358">
        <ele>751</ele>
        <time>2011-06-11T09:17:45.000Z</time>
      </trkpt>
      <trkpt lat="45.60581" lon="2.41348">
        <ele>753</ele>
        <time>2011-06-11T09:17:54.000Z</time>
      </trkpt>
      <trkpt lat="45.60562" lon="2.41344">
        <ele>753.59997558594</ele>
        <time>2011-06-11T09:17:58.000Z</time>
      </trkpt>
      <trkpt lat="45.60527" lon="2.4133">
        <ele>755.59997558594</ele>
        <time>2011-06-11T09:18:06.000Z</time>
      </trkpt>
      <trkpt lat="45.60502" lon="2.41314">
        <ele>756.59997558594</ele>
        <time>2011-06-11T09:18:12.000Z</time>
      </trkpt>
      <trkpt lat="45.6049" lon="2.41306">
        <ele>757</ele>
        <time>2011-06-11T09:18:15.000Z</time>
      </trkpt>
      <trkpt lat="45.60469" lon="2.41286">
        <ele>758.40002441406</ele>
        <time>2011-06-11T09:18:20.000Z</time>
      </trkpt>
      <trkpt lat="45.60444" lon="2.41256">
        <ele>759.79998779297</ele>
        <time>2011-06-11T09:18:27.000Z</time>
      </trkpt>
      <trkpt lat="45.60434" lon="2.41235">
        <ele>760.79998779297</ele>
        <time>2011-06-11T09:18:31.000Z</time>
      </trkpt>
      <trkpt lat="45.60424" lon="2.4119">
        <ele>761.79998779297</ele>
        <time>2011-06-11T09:18:38.000Z</time>
      </trkpt>
      <trkpt lat="45.60424" lon="2.41146">
        <ele>763.40002441406</ele>
        <time>2011-06-11T09:18:45.000Z</time>
      </trkpt>
      <trkpt lat="45.60422" lon="2.41112">
        <ele>765.59997558594</ele>
        <time>2011-06-11T09:18:52.000Z</time>
      </trkpt>
      <trkpt lat="45.6042" lon="2.41081">
        <ele>766.59997558594</ele>
        <time>2011-06-11T09:18:58.000Z</time>
      </trkpt>
      <trkpt lat="45.60421" lon="2.41075">
        <ele>767.20001220703</ele>
        <time>2011-06-11T09:19:01.000Z</time>
      </trkpt>
      <trkpt lat="45.60422" lon="2.41074">
        <ele>767.20001220703</ele>
        <time>2011-06-11T09:19:04.000Z</time>
      </trkpt>
      <trkpt lat="45.60419" lon="2.41074">
        <ele>767.40002441406</ele>
        <time>2011-06-11T09:19:52.000Z</time>
      </trkpt>
      <trkpt lat="45.60416" lon="2.41072">
        <ele>767.40002441406</ele>
        <time>2011-06-11T09:19:56.000Z</time>
      </trkpt>
      <trkpt lat="45.60405" lon="2.41057">
        <ele>767.79998779297</ele>
        <time>2011-06-11T09:20:01.000Z</time>
      </trkpt>
      <trkpt lat="45.60382" lon="2.41024">
        <ele>768.20001220703</ele>
        <time>2011-06-11T09:20:07.000Z</time>
      </trkpt>
      <trkpt lat="45.60354" lon="2.40981">
        <ele>768.79998779297</ele>
        <time>2011-06-11T09:20:13.000Z</time>
      </trkpt>
      <trkpt lat="45.6034" lon="2.40942">
        <ele>769.40002441406</ele>
        <time>2011-06-11T09:20:18.000Z</time>
      </trkpt>
      <trkpt lat="45.60329" lon="2.40889">
        <ele>771.79998779297</ele>
        <time>2011-06-11T09:20:26.000Z</time>
      </trkpt>
      <trkpt lat="45.60318" lon="2.40829">
        <ele>775.20001220703</ele>
        <time>2011-06-11T09:20:36.000Z</time>
      </trkpt>
      <trkpt lat="45.60302" lon="2.40761">
        <ele>778.20001220703</ele>
        <time>2011-06-11T09:20:47.000Z</time>
      </trkpt>
      <trkpt lat="45.60282" lon="2.40701">
        <ele>781.59997558594</ele>
        <time>2011-06-11T09:20:57.000Z</time>
      </trkpt>
      <trkpt lat="45.6025" lon="2.40647">
        <ele>784</ele>
        <time>2011-06-11T09:21:07.000Z</time>
      </trkpt>
      <trkpt lat="45.60222" lon="2.40604">
        <ele>783.59997558594</ele>
        <time>2011-06-11T09:21:13.000Z</time>
      </trkpt>
      <trkpt lat="45.60189" lon="2.4055">
        <ele>781.40002441406</ele>
        <time>2011-06-11T09:21:19.000Z</time>
      </trkpt>
      <trkpt lat="45.6011" lon="2.40426">
        <ele>776</ele>
        <time>2011-06-11T09:21:32.000Z</time>
      </trkpt>
      <trkpt lat="45.60066" lon="2.40356">
        <ele>776</ele>
        <time>2011-06-11T09:21:40.000Z</time>
      </trkpt>
      <trkpt lat="45.6003" lon="2.40298">
        <ele>777.79998779297</ele>
        <time>2011-06-11T09:21:48.000Z</time>
      </trkpt>
      <trkpt lat="45.6" lon="2.40252">
        <ele>780.20001220703</ele>
        <time>2011-06-11T09:21:56.000Z</time>
      </trkpt>
      <trkpt lat="45.59957" lon="2.40182">
        <ele>783.20001220703</ele>
        <time>2011-06-11T09:22:09.000Z</time>
      </trkpt>
      <trkpt lat="45.59915" lon="2.40117">
        <ele>786.20001220703</ele>
        <time>2011-06-11T09:22:22.000Z</time>
      </trkpt>
      <trkpt lat="45.59872" lon="2.40049">
        <ele>788.79998779297</ele>
        <time>2011-06-11T09:22:35.000Z</time>
      </trkpt>
      <trkpt lat="45.59836" lon="2.39991">
        <ele>791.59997558594</ele>
        <time>2011-06-11T09:22:46.000Z</time>
      </trkpt>
      <trkpt lat="45.59787" lon="2.39914">
        <ele>795.59997558594</ele>
        <time>2011-06-11T09:23:01.000Z</time>
      </trkpt>
      <trkpt lat="45.59758" lon="2.39867">
        <ele>797.20001220703</ele>
        <time>2011-06-11T09:23:09.000Z</time>
      </trkpt>
      <trkpt lat="45.59721" lon="2.39809">
        <ele>797</ele>
        <time>2011-06-11T09:23:17.000Z</time>
      </trkpt>
      <trkpt lat="45.59676" lon="2.39738">
        <ele>796.20001220703</ele>
        <time>2011-06-11T09:23:26.000Z</time>
      </trkpt>
      <trkpt lat="45.59618" lon="2.39647">
        <ele>794</ele>
        <time>2011-06-11T09:23:36.000Z</time>
      </trkpt>
      <trkpt lat="45.59575" lon="2.39578">
        <ele>792.40002441406</ele>
        <time>2011-06-11T09:23:43.000Z</time>
      </trkpt>
      <trkpt lat="45.59539" lon="2.39521">
        <ele>790.59997558594</ele>
        <time>2011-06-11T09:23:48.000Z</time>
      </trkpt>
      <trkpt lat="45.59453" lon="2.39384">
        <ele>784.20001220703</ele>
        <time>2011-06-11T09:24:00.000Z</time>
      </trkpt>
      <trkpt lat="45.59405" lon="2.3931">
        <ele>782</ele>
        <time>2011-06-11T09:24:07.000Z</time>
      </trkpt>
      <trkpt lat="45.59366" lon="2.39247">
        <ele>782.59997558594</ele>
        <time>2011-06-11T09:24:14.000Z</time>
      </trkpt>
      <trkpt lat="45.59327" lon="2.39186">
        <ele>783.59997558594</ele>
        <time>2011-06-11T09:24:22.000Z</time>
      </trkpt>
      <trkpt lat="45.59281" lon="2.39111">
        <ele>785.20001220703</ele>
        <time>2011-06-11T09:24:33.000Z</time>
      </trkpt>
      <trkpt lat="45.59263" lon="2.39082">
        <ele>787.59997558594</ele>
        <time>2011-06-11T09:24:39.000Z</time>
      </trkpt>
      <trkpt lat="45.59238" lon="2.39043">
        <ele>790.59997558594</ele>
        <time>2011-06-11T09:24:48.000Z</time>
      </trkpt>
      <trkpt lat="45.59212" lon="2.38999">
        <ele>793</ele>
        <time>2011-06-11T09:24:58.000Z</time>
      </trkpt>
      <trkpt lat="45.59183" lon="2.38953">
        <ele>796</ele>
        <time>2011-06-11T09:25:08.000Z</time>
      </trkpt>
      <trkpt lat="45.59148" lon="2.38898">
        <ele>799.40002441406</ele>
        <time>2011-06-11T09:25:20.000Z</time>
      </trkpt>
      <trkpt lat="45.59112" lon="2.38844">
        <ele>802.79998779297</ele>
        <time>2011-06-11T09:25:32.000Z</time>
      </trkpt>
      <trkpt lat="45.5909" lon="2.388">
        <ele>805.79998779297</ele>
        <time>2011-06-11T09:25:41.000Z</time>
      </trkpt>
      <trkpt lat="45.59083" lon="2.38768">
        <ele>807.40002441406</ele>
        <time>2011-06-11T09:25:47.000Z</time>
      </trkpt>
      <trkpt lat="45.59077" lon="2.38731">
        <ele>807.79998779297</ele>
        <time>2011-06-11T09:25:53.000Z</time>
      </trkpt>
      <trkpt lat="45.59065" lon="2.38689">
        <ele>807.40002441406</ele>
        <time>2011-06-11T09:25:59.000Z</time>
      </trkpt>
      <trkpt lat="45.59044" lon="2.38634">
        <ele>805.79998779297</ele>
        <time>2011-06-11T09:26:05.000Z</time>
      </trkpt>
      <trkpt lat="45.59018" lon="2.38566">
        <ele>802.79998779297</ele>
        <time>2011-06-11T09:26:11.000Z</time>
      </trkpt>
      <trkpt lat="45.58988" lon="2.38486">
        <ele>799.79998779297</ele>
        <time>2011-06-11T09:26:17.000Z</time>
      </trkpt>
      <trkpt lat="45.58945" lon="2.38371">
        <ele>794.20001220703</ele>
        <time>2011-06-11T09:26:25.000Z</time>
      </trkpt>
      <trkpt lat="45.58915" lon="2.38288">
        <ele>791.59997558594</ele>
        <time>2011-06-11T09:26:31.000Z</time>
      </trkpt>
      <trkpt lat="45.58872" lon="2.38172">
        <ele>789.20001220703</ele>
        <time>2011-06-11T09:26:40.000Z</time>
      </trkpt>
      <trkpt lat="45.58847" lon="2.38103">
        <ele>788</ele>
        <time>2011-06-11T09:26:46.000Z</time>
      </trkpt>
      <trkpt lat="45.58823" lon="2.38056">
        <ele>787</ele>
        <time>2011-06-11T09:26:51.000Z</time>
      </trkpt>
      <trkpt lat="45.58782" lon="2.3801">
        <ele>785.79998779297</ele>
        <time>2011-06-11T09:26:57.000Z</time>
      </trkpt>
      <trkpt lat="45.58734" lon="2.37948">
        <ele>783.59997558594</ele>
        <time>2011-06-11T09:27:04.000Z</time>
      </trkpt>
      <trkpt lat="45.58698" lon="2.37889">
        <ele>781.59997558594</ele>
        <time>2011-06-11T09:27:10.000Z</time>
      </trkpt>
      <trkpt lat="45.58693" lon="2.37879">
        <ele>781.40002441406</ele>
        <time>2011-06-11T09:27:11.000Z</time>
      </trkpt>
      <trkpt lat="45.58682" lon="2.37837">
        <ele>779.40002441406</ele>
        <time>2011-06-11T09:27:15.000Z</time>
      </trkpt>
      <trkpt lat="45.58678" lon="2.37778">
        <ele>777.20001220703</ele>
        <time>2011-06-11T09:27:20.000Z</time>
      </trkpt>
      <trkpt lat="45.58664" lon="2.3773">
        <ele>775.79998779297</ele>
        <time>2011-06-11T09:27:24.000Z</time>
      </trkpt>
      <trkpt lat="45.5865" lon="2.37709">
        <ele>775</ele>
        <time>2011-06-11T09:27:26.000Z</time>
      </trkpt>
      <trkpt lat="45.58634" lon="2.3769">
        <ele>774</ele>
        <time>2011-06-11T09:27:28.000Z</time>
      </trkpt>
      <trkpt lat="45.58609" lon="2.37639">
        <ele>772.40002441406</ele>
        <time>2011-06-11T09:27:32.000Z</time>
      </trkpt>
      <trkpt lat="45.58607" lon="2.37603">
        <ele>771.20001220703</ele>
        <time>2011-06-11T09:27:34.000Z</time>
      </trkpt>
      <trkpt lat="45.58607" lon="2.37503">
        <ele>766.59997558594</ele>
        <time>2011-06-11T09:27:40.000Z</time>
      </trkpt>
      <trkpt lat="45.58593" lon="2.37435">
        <ele>763.79998779297</ele>
        <time>2011-06-11T09:27:44.000Z</time>
      </trkpt>
      <trkpt lat="45.58582" lon="2.37405">
        <ele>762.40002441406</ele>
        <time>2011-06-11T09:27:46.000Z</time>
      </trkpt>
      <trkpt lat="45.5852" lon="2.37285">
        <ele>757.40002441406</ele>
        <time>2011-06-11T09:27:54.000Z</time>
      </trkpt>
      <trkpt lat="45.58473" lon="2.37205">
        <ele>752.79998779297</ele>
        <time>2011-06-11T09:28:00.000Z</time>
      </trkpt>
      <trkpt lat="45.58419" lon="2.37134">
        <ele>748.59997558594</ele>
        <time>2011-06-11T09:28:06.000Z</time>
      </trkpt>
      <trkpt lat="45.58392" lon="2.37072">
        <ele>745.59997558594</ele>
        <time>2011-06-11T09:28:10.000Z</time>
      </trkpt>
      <trkpt lat="45.58377" lon="2.37001">
        <ele>742.79998779297</ele>
        <time>2011-06-11T09:28:14.000Z</time>
      </trkpt>
      <trkpt lat="45.58377" lon="2.36934">
        <ele>739.79998779297</ele>
        <time>2011-06-11T09:28:18.000Z</time>
      </trkpt>
      <trkpt lat="45.5836" lon="2.36871">
        <ele>737.40002441406</ele>
        <time>2011-06-11T09:28:22.000Z</time>
      </trkpt>
      <trkpt lat="45.58352" lon="2.36858">
        <ele>736.59997558594</ele>
        <time>2011-06-11T09:28:23.000Z</time>
      </trkpt>
      <trkpt lat="45.58288" lon="2.36779">
        <ele>732</ele>
        <time>2011-06-11T09:28:30.000Z</time>
      </trkpt>
      <trkpt lat="45.58241" lon="2.36758">
        <ele>729.40002441406</ele>
        <time>2011-06-11T09:28:34.000Z</time>
      </trkpt>
      <trkpt lat="45.5822" lon="2.36754">
        <ele>728</ele>
        <time>2011-06-11T09:28:36.000Z</time>
      </trkpt>
      <trkpt lat="45.58193" lon="2.36731">
        <ele>726</ele>
        <time>2011-06-11T09:28:39.000Z</time>
      </trkpt>
      <trkpt lat="45.58183" lon="2.36685">
        <ele>724</ele>
        <time>2011-06-11T09:28:42.000Z</time>
      </trkpt>
      <trkpt lat="45.58174" lon="2.36611">
        <ele>722.40002441406</ele>
        <time>2011-06-11T09:28:47.000Z</time>
      </trkpt>
      <trkpt lat="45.58161" lon="2.36558">
        <ele>724.20001220703</ele>
        <time>2011-06-11T09:28:52.000Z</time>
      </trkpt>
      <trkpt lat="45.5814" lon="2.36515">
        <ele>726.59997558594</ele>
        <time>2011-06-11T09:28:58.000Z</time>
      </trkpt>
      <trkpt lat="45.5812" lon="2.36473">
        <ele>728.40002441406</ele>
        <time>2011-06-11T09:29:04.000Z</time>
      </trkpt>
      <trkpt lat="45.58114" lon="2.3645">
        <ele>729.20001220703</ele>
        <time>2011-06-11T09:29:07.000Z</time>
      </trkpt>
      <trkpt lat="45.58114" lon="2.36413">
        <ele>730.40002441406</ele>
        <time>2011-06-11T09:29:12.000Z</time>
      </trkpt>
      <trkpt lat="45.58124" lon="2.36359">
        <ele>732.79998779297</ele>
        <time>2011-06-11T09:29:20.000Z</time>
      </trkpt>
      <trkpt lat="45.58133" lon="2.36329">
        <ele>733.79998779297</ele>
        <time>2011-06-11T09:29:25.000Z</time>
      </trkpt>
      <trkpt lat="45.5814" lon="2.36301">
        <ele>734.79998779297</ele>
        <time>2011-06-11T09:29:30.000Z</time>
      </trkpt>
      <trkpt lat="45.58153" lon="2.3625">
        <ele>736</ele>
        <time>2011-06-11T09:29:38.000Z</time>
      </trkpt>
      <trkpt lat="45.58157" lon="2.36208">
        <ele>735.79998779297</ele>
        <time>2011-06-11T09:29:43.000Z</time>
      </trkpt>
      <trkpt lat="45.58146" lon="2.3616">
        <ele>734.20001220703</ele>
        <time>2011-06-11T09:29:48.000Z</time>
      </trkpt>
      <trkpt lat="45.58131" lon="2.36134">
        <ele>733.20001220703</ele>
        <time>2011-06-11T09:29:51.000Z</time>
      </trkpt>
      <trkpt lat="45.58077" lon="2.3606">
        <ele>729.59997558594</ele>
        <time>2011-06-11T09:29:59.000Z</time>
      </trkpt>
      <trkpt lat="45.58032" lon="2.35999">
        <ele>728.20001220703</ele>
        <time>2011-06-11T09:30:06.000Z</time>
      </trkpt>
      <trkpt lat="45.57975" lon="2.3592">
        <ele>728.59997558594</ele>
        <time>2011-06-11T09:30:16.000Z</time>
      </trkpt>
      <trkpt lat="45.57927" lon="2.35853">
        <ele>729.79998779297</ele>
        <time>2011-06-11T09:30:25.000Z</time>
      </trkpt>
      <trkpt lat="45.5789" lon="2.35801">
        <ele>730.40002441406</ele>
        <time>2011-06-11T09:30:33.000Z</time>
      </trkpt>
      <trkpt lat="45.57843" lon="2.35737">
        <ele>731</ele>
        <time>2011-06-11T09:30:43.000Z</time>
      </trkpt>
      <trkpt lat="45.57804" lon="2.35682">
        <ele>732</ele>
        <time>2011-06-11T09:30:52.000Z</time>
      </trkpt>
      <trkpt lat="45.57761" lon="2.35621">
        <ele>734.40002441406</ele>
        <time>2011-06-11T09:31:03.000Z</time>
      </trkpt>
      <trkpt lat="45.57729" lon="2.35573">
        <ele>736.59997558594</ele>
        <time>2011-06-11T09:31:12.000Z</time>
      </trkpt>
      <trkpt lat="45.57695" lon="2.35527">
        <ele>737.40002441406</ele>
        <time>2011-06-11T09:31:21.000Z</time>
      </trkpt>
      <trkpt lat="45.57667" lon="2.35488">
        <ele>736.59997558594</ele>
        <time>2011-06-11T09:31:27.000Z</time>
      </trkpt>
      <trkpt lat="45.57632" lon="2.35439">
        <ele>734.59997558594</ele>
        <time>2011-06-11T09:31:33.000Z</time>
      </trkpt>
      <trkpt lat="45.57586" lon="2.35374">
        <ele>731.79998779297</ele>
        <time>2011-06-11T09:31:40.000Z</time>
      </trkpt>
      <trkpt lat="45.57535" lon="2.35303">
        <ele>729.59997558594</ele>
        <time>2011-06-11T09:31:47.000Z</time>
      </trkpt>
      <trkpt lat="45.57486" lon="2.35235">
        <ele>726.40002441406</ele>
        <time>2011-06-11T09:31:53.000Z</time>
      </trkpt>
      <trkpt lat="45.57423" lon="2.35147">
        <ele>721.59997558594</ele>
        <time>2011-06-11T09:32:00.000Z</time>
      </trkpt>
      <trkpt lat="45.57414" lon="2.35133">
        <ele>720.79998779297</ele>
        <time>2011-06-11T09:32:01.000Z</time>
      </trkpt>
      <trkpt lat="45.57391" lon="2.35067">
        <ele>718</ele>
        <time>2011-06-11T09:32:05.000Z</time>
      </trkpt>
      <trkpt lat="45.5739" lon="2.35049">
        <ele>717.20001220703</ele>
        <time>2011-06-11T09:32:06.000Z</time>
      </trkpt>
      <trkpt lat="45.57381" lon="2.34919">
        <ele>712.20001220703</ele>
        <time>2011-06-11T09:32:13.000Z</time>
      </trkpt>
      <trkpt lat="45.57376" lon="2.3483">
        <ele>708.40002441406</ele>
        <time>2011-06-11T09:32:18.000Z</time>
      </trkpt>
      <trkpt lat="45.57391" lon="2.34768">
        <ele>706.20001220703</ele>
        <time>2011-06-11T09:32:22.000Z</time>
      </trkpt>
      <trkpt lat="45.57405" lon="2.34743">
        <ele>705</ele>
        <time>2011-06-11T09:32:24.000Z</time>
      </trkpt>
      <trkpt lat="45.57431" lon="2.34689">
        <ele>703.40002441406</ele>
        <time>2011-06-11T09:32:28.000Z</time>
      </trkpt>
      <trkpt lat="45.5744" lon="2.3462">
        <ele>700.59997558594</ele>
        <time>2011-06-11T09:32:32.000Z</time>
      </trkpt>
      <trkpt lat="45.57438" lon="2.34602">
        <ele>700.40002441406</ele>
        <time>2011-06-11T09:32:33.000Z</time>
      </trkpt>
      <trkpt lat="45.57419" lon="2.34478">
        <ele>695</ele>
        <time>2011-06-11T09:32:40.000Z</time>
      </trkpt>
      <trkpt lat="45.57409" lon="2.34406">
        <ele>694</ele>
        <time>2011-06-11T09:32:45.000Z</time>
      </trkpt>
      <trkpt lat="45.57388" lon="2.34271">
        <ele>693.79998779297</ele>
        <time>2011-06-11T09:32:55.000Z</time>
      </trkpt>
      <trkpt lat="45.5737" lon="2.34157">
        <ele>691.20001220703</ele>
        <time>2011-06-11T09:33:03.000Z</time>
      </trkpt>
      <trkpt lat="45.57353" lon="2.34048">
        <ele>687.59997558594</ele>
        <time>2011-06-11T09:33:10.000Z</time>
      </trkpt>
      <trkpt lat="45.57326" lon="2.33935">
        <ele>682.59997558594</ele>
        <time>2011-06-11T09:33:17.000Z</time>
      </trkpt>
      <trkpt lat="45.57302" lon="2.33835">
        <ele>678.79998779297</ele>
        <time>2011-06-11T09:33:23.000Z</time>
      </trkpt>
      <trkpt lat="45.57272" lon="2.3371">
        <ele>673.79998779297</ele>
        <time>2011-06-11T09:33:31.000Z</time>
      </trkpt>
      <trkpt lat="45.57255" lon="2.33635">
        <ele>672.40002441406</ele>
        <time>2011-06-11T09:33:36.000Z</time>
      </trkpt>
      <trkpt lat="45.57234" lon="2.33543">
        <ele>672.59997558594</ele>
        <time>2011-06-11T09:33:43.000Z</time>
      </trkpt>
      <trkpt lat="45.57215" lon="2.33465">
        <ele>674</ele>
        <time>2011-06-11T09:33:50.000Z</time>
      </trkpt>
      <trkpt lat="45.57198" lon="2.3341">
        <ele>676.20001220703</ele>
        <time>2011-06-11T09:33:56.000Z</time>
      </trkpt>
      <trkpt lat="45.57176" lon="2.33366">
        <ele>678.20001220703</ele>
        <time>2011-06-11T09:34:02.000Z</time>
      </trkpt>
      <trkpt lat="45.5715" lon="2.33333">
        <ele>678.79998779297</ele>
        <time>2011-06-11T09:34:08.000Z</time>
      </trkpt>
      <trkpt lat="45.57121" lon="2.33299">
        <ele>679.59997558594</ele>
        <time>2011-06-11T09:34:14.000Z</time>
      </trkpt>
      <trkpt lat="45.57089" lon="2.33261">
        <ele>680.20001220703</ele>
        <time>2011-06-11T09:34:21.000Z</time>
      </trkpt>
      <trkpt lat="45.57033" lon="2.33195">
        <ele>681.20001220703</ele>
        <time>2011-06-11T09:34:33.000Z</time>
      </trkpt>
      <trkpt lat="45.56981" lon="2.33135">
        <ele>682.40002441406</ele>
        <time>2011-06-11T09:34:45.000Z</time>
      </trkpt>
      <trkpt lat="45.56973" lon="2.33127">
        <ele>682.59997558594</ele>
        <time>2011-06-11T09:34:47.000Z</time>
      </trkpt>
      <trkpt lat="45.56959" lon="2.33101">
        <ele>683.20001220703</ele>
        <time>2011-06-11T09:34:53.000Z</time>
      </trkpt>
      <trkpt lat="45.56944" lon="2.33091">
        <ele>683.79998779297</ele>
        <time>2011-06-11T09:34:57.000Z</time>
      </trkpt>
      <trkpt lat="45.56905" lon="2.33045">
        <ele>684.79998779297</ele>
        <time>2011-06-11T09:35:06.000Z</time>
      </trkpt>
      <trkpt lat="45.56857" lon="2.32988">
        <ele>686.79998779297</ele>
        <time>2011-06-11T09:35:17.000Z</time>
      </trkpt>
      <trkpt lat="45.56821" lon="2.32946">
        <ele>689</ele>
        <time>2011-06-11T09:35:26.000Z</time>
      </trkpt>
      <trkpt lat="45.56782" lon="2.32901">
        <ele>690.40002441406</ele>
        <time>2011-06-11T09:35:35.000Z</time>
      </trkpt>
      <trkpt lat="45.56735" lon="2.32847">
        <ele>690.20001220703</ele>
        <time>2011-06-11T09:35:45.000Z</time>
      </trkpt>
      <trkpt lat="45.5668" lon="2.32782">
        <ele>690.40002441406</ele>
        <time>2011-06-11T09:35:56.000Z</time>
      </trkpt>
      <trkpt lat="45.56625" lon="2.32717">
        <ele>690</ele>
        <time>2011-06-11T09:36:06.000Z</time>
      </trkpt>
      <trkpt lat="45.56576" lon="2.32658">
        <ele>688.20001220703</ele>
        <time>2011-06-11T09:36:14.000Z</time>
      </trkpt>
      <trkpt lat="45.56563" lon="2.3264">
        <ele>687.20001220703</ele>
        <time>2011-06-11T09:36:16.000Z</time>
      </trkpt>
      <trkpt lat="45.56548" lon="2.32626">
        <ele>686.40002441406</ele>
        <time>2011-06-11T09:36:18.000Z</time>
      </trkpt>
      <trkpt lat="45.56473" lon="2.32539">
        <ele>682.59997558594</ele>
        <time>2011-06-11T09:36:28.000Z</time>
      </trkpt>
      <trkpt lat="45.56417" lon="2.32474">
        <ele>679</ele>
        <time>2011-06-11T09:36:36.000Z</time>
      </trkpt>
      <trkpt lat="45.56347" lon="2.32392">
        <ele>675.40002441406</ele>
        <time>2011-06-11T09:36:46.000Z</time>
      </trkpt>
      <trkpt lat="45.56276" lon="2.32309">
        <ele>671.40002441406</ele>
        <time>2011-06-11T09:36:56.000Z</time>
      </trkpt>
      <trkpt lat="45.56239" lon="2.32265">
        <ele>668.40002441406</ele>
        <time>2011-06-11T09:37:02.000Z</time>
      </trkpt>
      <trkpt lat="45.56229" lon="2.32254">
        <ele>666.79998779297</ele>
        <time>2011-06-11T09:37:05.000Z</time>
      </trkpt>
      <trkpt lat="45.56229" lon="2.32253">
        <ele>666</ele>
        <time>2011-06-11T09:37:08.000Z</time>
      </trkpt>
      <trkpt lat="45.56227" lon="2.32251">
        <ele>665.40002441406</ele>
        <time>2011-06-11T09:37:28.000Z</time>
      </trkpt>
      <trkpt lat="45.5621" lon="2.32232">
        <ele>665</ele>
        <time>2011-06-11T09:37:32.000Z</time>
      </trkpt>
      <trkpt lat="45.56189" lon="2.32199">
        <ele>664.20001220703</ele>
        <time>2011-06-11T09:37:36.000Z</time>
      </trkpt>
      <trkpt lat="45.56166" lon="2.32139">
        <ele>661.79998779297</ele>
        <time>2011-06-11T09:37:41.000Z</time>
      </trkpt>
      <trkpt lat="45.56157" lon="2.32105">
        <ele>659.79998779297</ele>
        <time>2011-06-11T09:37:44.000Z</time>
      </trkpt>
      <trkpt lat="45.56159" lon="2.32083">
        <ele>658</ele>
        <time>2011-06-11T09:37:47.000Z</time>
      </trkpt>
      <trkpt lat="45.56152" lon="2.32065">
        <ele>656.59997558594</ele>
        <time>2011-06-11T09:37:51.000Z</time>
      </trkpt>
      <trkpt lat="45.56137" lon="2.32058">
        <ele>655.59997558594</ele>
        <time>2011-06-11T09:37:54.000Z</time>
      </trkpt>
      <trkpt lat="45.56125" lon="2.32043">
        <ele>655</ele>
        <time>2011-06-11T09:37:56.000Z</time>
      </trkpt>
      <trkpt lat="45.56086" lon="2.31998">
        <ele>652.20001220703</ele>
        <time>2011-06-11T09:38:01.000Z</time>
      </trkpt>
      <trkpt lat="45.56077" lon="2.31989">
        <ele>652.20001220703</ele>
        <time>2011-06-11T09:38:02.000Z</time>
      </trkpt>
      <trkpt lat="45.55996" lon="2.31903">
        <ele>647.40002441406</ele>
        <time>2011-06-11T09:38:11.000Z</time>
      </trkpt>
      <trkpt lat="45.55924" lon="2.31819">
        <ele>645.59997558594</ele>
        <time>2011-06-11T09:38:20.000Z</time>
      </trkpt>
      <trkpt lat="45.55848" lon="2.31732">
        <ele>644.59997558594</ele>
        <time>2011-06-11T09:38:30.000Z</time>
      </trkpt>
      <trkpt lat="45.55809" lon="2.31701">
        <ele>644.40002441406</ele>
        <time>2011-06-11T09:38:35.000Z</time>
      </trkpt>
      <trkpt lat="45.5574" lon="2.31666">
        <ele>643.20001220703</ele>
        <time>2011-06-11T09:38:43.000Z</time>
      </trkpt>
      <trkpt lat="45.55731" lon="2.31663">
        <ele>643</ele>
        <time>2011-06-11T09:38:44.000Z</time>
      </trkpt>
      <trkpt lat="45.55694" lon="2.31666">
        <ele>641.79998779297</ele>
        <time>2011-06-11T09:38:48.000Z</time>
      </trkpt>
      <trkpt lat="45.55684" lon="2.3167">
        <ele>641.40002441406</ele>
        <time>2011-06-11T09:38:49.000Z</time>
      </trkpt>
      <trkpt lat="45.55666" lon="2.3168">
        <ele>640.59997558594</ele>
        <time>2011-06-11T09:38:51.000Z</time>
      </trkpt>
      <trkpt lat="45.55629" lon="2.31678">
        <ele>639.59997558594</ele>
        <time>2011-06-11T09:38:55.000Z</time>
      </trkpt>
      <trkpt lat="45.55622" lon="2.31674">
        <ele>639.40002441406</ele>
        <time>2011-06-11T09:38:56.000Z</time>
      </trkpt>
      <trkpt lat="45.55565" lon="2.31634">
        <ele>636.79998779297</ele>
        <time>2011-06-11T09:39:04.000Z</time>
      </trkpt>
      <trkpt lat="45.55527" lon="2.31607">
        <ele>634.59997558594</ele>
        <time>2011-06-11T09:39:10.000Z</time>
      </trkpt>
      <trkpt lat="45.55509" lon="2.31594">
        <ele>632.79998779297</ele>
        <time>2011-06-11T09:39:14.000Z</time>
      </trkpt>
      <trkpt lat="45.55489" lon="2.31578">
        <ele>631</ele>
        <time>2011-06-11T09:39:20.000Z</time>
      </trkpt>
      <trkpt lat="45.55481" lon="2.31573">
        <ele>629.79998779297</ele>
        <time>2011-06-11T09:39:24.000Z</time>
      </trkpt>
      <trkpt lat="45.55471" lon="2.31566">
        <ele>629</ele>
        <time>2011-06-11T09:39:28.000Z</time>
      </trkpt>
      <trkpt lat="45.55444" lon="2.31547">
        <ele>628.20001220703</ele>
        <time>2011-06-11T09:39:35.000Z</time>
      </trkpt>
      <trkpt lat="45.55408" lon="2.31519">
        <ele>626.59997558594</ele>
        <time>2011-06-11T09:39:42.000Z</time>
      </trkpt>
      <trkpt lat="45.55369" lon="2.31492">
        <ele>625.59997558594</ele>
        <time>2011-06-11T09:39:49.000Z</time>
      </trkpt>
      <trkpt lat="45.5533" lon="2.31464">
        <ele>624.20001220703</ele>
        <time>2011-06-11T09:39:56.000Z</time>
      </trkpt>
      <trkpt lat="45.55265" lon="2.31419">
        <ele>622.59997558594</ele>
        <time>2011-06-11T09:40:06.000Z</time>
      </trkpt>
      <trkpt lat="45.55224" lon="2.3139">
        <ele>621.59997558594</ele>
        <time>2011-06-11T09:40:13.000Z</time>
      </trkpt>
      <trkpt lat="45.55212" lon="2.31382">
        <ele>621.20001220703</ele>
        <time>2011-06-11T09:40:17.000Z</time>
      </trkpt>
      <trkpt lat="45.55207" lon="2.31377">
        <ele>620.79998779297</ele>
        <time>2011-06-11T09:40:22.000Z</time>
      </trkpt>
      <trkpt lat="45.55205" lon="2.31376">
        <ele>620.79998779297</ele>
        <time>2011-06-11T09:40:26.000Z</time>
      </trkpt>
      <trkpt lat="45.552" lon="2.31371">
        <ele>620.59997558594</ele>
        <time>2011-06-11T09:40:30.000Z</time>
      </trkpt>
      <trkpt lat="45.55183" lon="2.31361">
        <ele>620.59997558594</ele>
        <time>2011-06-11T09:40:36.000Z</time>
      </trkpt>
      <trkpt lat="45.5517" lon="2.31353">
        <ele>621.20001220703</ele>
        <time>2011-06-11T09:40:41.000Z</time>
      </trkpt>
      <trkpt lat="45.5516" lon="2.31347">
        <ele>621.20001220703</ele>
        <time>2011-06-11T09:40:49.000Z</time>
      </trkpt>
      <trkpt lat="45.55158" lon="2.31345">
        <ele>621.20001220703</ele>
        <time>2011-06-11T09:40:53.000Z</time>
      </trkpt>
      <trkpt lat="45.55157" lon="2.31344">
        <ele>621</ele>
        <time>2011-06-11T09:41:24.000Z</time>
      </trkpt>
      <trkpt lat="45.55142" lon="2.31334">
        <ele>620.79998779297</ele>
        <time>2011-06-11T09:41:30.000Z</time>
      </trkpt>
      <trkpt lat="45.55114" lon="2.31314">
        <ele>621</ele>
        <time>2011-06-11T09:41:37.000Z</time>
      </trkpt>
      <trkpt lat="45.5508" lon="2.31291">
        <ele>620.79998779297</ele>
        <time>2011-06-11T09:41:44.000Z</time>
      </trkpt>
      <trkpt lat="45.55043" lon="2.31265">
        <ele>620.59997558594</ele>
        <time>2011-06-11T09:41:51.000Z</time>
      </trkpt>
      <trkpt lat="45.54998" lon="2.31232">
        <ele>621.40002441406</ele>
        <time>2011-06-11T09:41:58.000Z</time>
      </trkpt>
      <trkpt lat="45.54935" lon="2.31188">
        <ele>622.79998779297</ele>
        <time>2011-06-11T09:42:08.000Z</time>
      </trkpt>
      <trkpt lat="45.54891" lon="2.31159">
        <ele>624.59997558594</ele>
        <time>2011-06-11T09:42:16.000Z</time>
      </trkpt>
      <trkpt lat="45.54853" lon="2.31133">
        <ele>626.40002441406</ele>
        <time>2011-06-11T09:42:24.000Z</time>
      </trkpt>
      <trkpt lat="45.54816" lon="2.31111">
        <ele>627.59997558594</ele>
        <time>2011-06-11T09:42:32.000Z</time>
      </trkpt>
      <trkpt lat="45.5479" lon="2.31091">
        <ele>628.59997558594</ele>
        <time>2011-06-11T09:42:39.000Z</time>
      </trkpt>
      <trkpt lat="45.54787" lon="2.31091">
        <ele>628.59997558594</ele>
        <time>2011-06-11T09:42:40.000Z</time>
      </trkpt>
      <trkpt lat="45.54787" lon="2.31073">
        <ele>629.20001220703</ele>
        <time>2011-06-11T09:42:44.000Z</time>
      </trkpt>
      <trkpt lat="45.54797" lon="2.31063">
        <ele>629.79998779297</ele>
        <time>2011-06-11T09:42:47.000Z</time>
      </trkpt>
      <trkpt lat="45.54827" lon="2.31032">
        <ele>632.20001220703</ele>
        <time>2011-06-11T09:42:54.000Z</time>
      </trkpt>
      <trkpt lat="45.54845" lon="2.31">
        <ele>633.40002441406</ele>
        <time>2011-06-11T09:43:00.000Z</time>
      </trkpt>
      <trkpt lat="45.54853" lon="2.30975">
        <ele>634.59997558594</ele>
        <time>2011-06-11T09:43:05.000Z</time>
      </trkpt>
      <trkpt lat="45.54855" lon="2.30947">
        <ele>636.59997558594</ele>
        <time>2011-06-11T09:43:11.000Z</time>
      </trkpt>
      <trkpt lat="45.54852" lon="2.30914">
        <ele>639.79998779297</ele>
        <time>2011-06-11T09:43:19.000Z</time>
      </trkpt>
      <trkpt lat="45.54845" lon="2.30893">
        <ele>641.59997558594</ele>
        <time>2011-06-11T09:43:24.000Z</time>
      </trkpt>
      <trkpt lat="45.54829" lon="2.30851">
        <ele>643</ele>
        <time>2011-06-11T09:43:33.000Z</time>
      </trkpt>
      <trkpt lat="45.54817" lon="2.30839">
        <ele>643.79998779297</ele>
        <time>2011-06-11T09:43:37.000Z</time>
      </trkpt>
      <trkpt lat="45.54801" lon="2.30833">
        <ele>644</ele>
        <time>2011-06-11T09:43:42.000Z</time>
      </trkpt>
      <trkpt lat="45.54778" lon="2.30828">
        <ele>643.20001220703</ele>
        <time>2011-06-11T09:43:47.000Z</time>
      </trkpt>
      <trkpt lat="45.54742" lon="2.30817">
        <ele>642.20001220703</ele>
        <time>2011-06-11T09:43:54.000Z</time>
      </trkpt>
      <trkpt lat="45.54705" lon="2.3081">
        <ele>641.20001220703</ele>
        <time>2011-06-11T09:44:01.000Z</time>
      </trkpt>
      <trkpt lat="45.54682" lon="2.30808">
        <ele>640</ele>
        <time>2011-06-11T09:44:06.000Z</time>
      </trkpt>
      <trkpt lat="45.54669" lon="2.30812">
        <ele>639.79998779297</ele>
        <time>2011-06-11T09:44:12.000Z</time>
      </trkpt>
      <trkpt lat="45.5466" lon="2.30818">
        <ele>639.79998779297</ele>
        <time>2011-06-11T09:44:18.000Z</time>
      </trkpt>
      <trkpt lat="45.54653" lon="2.30826">
        <ele>639.79998779297</ele>
        <time>2011-06-11T09:44:25.000Z</time>
      </trkpt>
      <trkpt lat="45.54653" lon="2.30827">
        <ele>639.79998779297</ele>
        <time>2011-06-11T09:44:26.000Z</time>
      </trkpt>
      <trkpt lat="45.54644" lon="2.30835">
        <ele>639.79998779297</ele>
        <time>2011-06-11T09:44:31.000Z</time>
      </trkpt>
      <trkpt lat="45.54636" lon="2.30823">
        <ele>639.79998779297</ele>
        <time>2011-06-11T09:44:35.000Z</time>
      </trkpt>
      <trkpt lat="45.54634" lon="2.30808">
        <ele>639.79998779297</ele>
        <time>2011-06-11T09:44:37.000Z</time>
      </trkpt>
      <trkpt lat="45.54627" lon="2.30747">
        <ele>637.79998779297</ele>
        <time>2011-06-11T09:44:43.000Z</time>
      </trkpt>
      <trkpt lat="45.54617" lon="2.30668">
        <ele>635.59997558594</ele>
        <time>2011-06-11T09:44:50.000Z</time>
      </trkpt>
      <trkpt lat="45.54607" lon="2.30593">
        <ele>633.20001220703</ele>
        <time>2011-06-11T09:44:56.000Z</time>
      </trkpt>
      <trkpt lat="45.54594" lon="2.30505">
        <ele>630.79998779297</ele>
        <time>2011-06-11T09:45:03.000Z</time>
      </trkpt>
      <trkpt lat="45.54588" lon="2.30463">
        <ele>630</ele>
        <time>2011-06-11T09:45:07.000Z</time>
      </trkpt>
      <trkpt lat="45.54564" lon="2.30417">
        <ele>629.59997558594</ele>
        <time>2011-06-11T09:45:12.000Z</time>
      </trkpt>
      <trkpt lat="45.54557" lon="2.3041">
        <ele>629.20001220703</ele>
        <time>2011-06-11T09:45:13.000Z</time>
      </trkpt>
      <trkpt lat="45.545" lon="2.30354">
        <ele>627</ele>
        <time>2011-06-11T09:45:21.000Z</time>
      </trkpt>
      <trkpt lat="45.54461" lon="2.30318">
        <ele>625.40002441406</ele>
        <time>2011-06-11T09:45:26.000Z</time>
      </trkpt>
      <trkpt lat="45.54397" lon="2.30254">
        <ele>621.79998779297</ele>
        <time>2011-06-11T09:45:34.000Z</time>
      </trkpt>
      <trkpt lat="45.54371" lon="2.30229">
        <ele>620.40002441406</ele>
        <time>2011-06-11T09:45:37.000Z</time>
      </trkpt>
      <trkpt lat="45.54272" lon="2.30132">
        <ele>613.40002441406</ele>
        <time>2011-06-11T09:45:48.000Z</time>
      </trkpt>
      <trkpt lat="45.54179" lon="2.30041">
        <ele>606.20001220703</ele>
        <time>2011-06-11T09:45:58.000Z</time>
      </trkpt>
      <trkpt lat="45.5414" lon="2.30002">
        <ele>605.20001220703</ele>
        <time>2011-06-11T09:46:03.000Z</time>
      </trkpt>
      <trkpt lat="45.54095" lon="2.29957">
        <ele>605</ele>
        <time>2011-06-11T09:46:10.000Z</time>
      </trkpt>
      <trkpt lat="45.54078" lon="2.2994">
        <ele>605.20001220703</ele>
        <time>2011-06-11T09:46:13.000Z</time>
      </trkpt>
      <trkpt lat="45.54069" lon="2.29927">
        <ele>605.40002441406</ele>
        <time>2011-06-11T09:46:15.000Z</time>
      </trkpt>
      <trkpt lat="45.54048" lon="2.29922">
        <ele>606</ele>
        <time>2011-06-11T09:46:19.000Z</time>
      </trkpt>
      <trkpt lat="45.54044" lon="2.29928">
        <ele>606.20001220703</ele>
        <time>2011-06-11T09:46:20.000Z</time>
      </trkpt>
      <trkpt lat="45.54014" lon="2.29961">
        <ele>606.59997558594</ele>
        <time>2011-06-11T09:46:26.000Z</time>
      </trkpt>
      <trkpt lat="45.53932" lon="2.29998">
        <ele>605.59997558594</ele>
        <time>2011-06-11T09:46:38.000Z</time>
      </trkpt>
      <trkpt lat="45.5388" lon="2.30012">
        <ele>605.20001220703</ele>
        <time>2011-06-11T09:46:45.000Z</time>
      </trkpt>
      <trkpt lat="45.53834" lon="2.30008">
        <ele>604.79998779297</ele>
        <time>2011-06-11T09:46:51.000Z</time>
      </trkpt>
      <trkpt lat="45.53759" lon="2.29984">
        <ele>604.79998779297</ele>
        <time>2011-06-11T09:47:01.000Z</time>
      </trkpt>
      <trkpt lat="45.53692" lon="2.29967">
        <ele>605</ele>
        <time>2011-06-11T09:47:10.000Z</time>
      </trkpt>
      <trkpt lat="45.53629" lon="2.29968">
        <ele>605.20001220703</ele>
        <time>2011-06-11T09:47:18.000Z</time>
      </trkpt>
      <trkpt lat="45.53568" lon="2.29978">
        <ele>605.40002441406</ele>
        <time>2011-06-11T09:47:26.000Z</time>
      </trkpt>
      <trkpt lat="45.53488" lon="2.29988">
        <ele>605.40002441406</ele>
        <time>2011-06-11T09:47:37.000Z</time>
      </trkpt>
      <trkpt lat="45.53421" lon="2.29984">
        <ele>605.79998779297</ele>
        <time>2011-06-11T09:47:47.000Z</time>
      </trkpt>
      <trkpt lat="45.53337" lon="2.29972">
        <ele>606.79998779297</ele>
        <time>2011-06-11T09:48:00.000Z</time>
      </trkpt>
      <trkpt lat="45.53243" lon="2.29958">
        <ele>608.20001220703</ele>
        <time>2011-06-11T09:48:15.000Z</time>
      </trkpt>
      <trkpt lat="45.53188" lon="2.29939">
        <ele>609.20001220703</ele>
        <time>2011-06-11T09:48:24.000Z</time>
      </trkpt>
      <trkpt lat="45.53136" lon="2.29907">
        <ele>609.79998779297</ele>
        <time>2011-06-11T09:48:33.000Z</time>
      </trkpt>
      <trkpt lat="45.5309" lon="2.29862">
        <ele>611.20001220703</ele>
        <time>2011-06-11T09:48:42.000Z</time>
      </trkpt>
      <trkpt lat="45.53047" lon="2.29804">
        <ele>612.79998779297</ele>
        <time>2011-06-11T09:48:52.000Z</time>
      </trkpt>
      <trkpt lat="45.52995" lon="2.29732">
        <ele>614.79998779297</ele>
        <time>2011-06-11T09:49:05.000Z</time>
      </trkpt>
      <trkpt lat="45.52959" lon="2.29682">
        <ele>616.79998779297</ele>
        <time>2011-06-11T09:49:15.000Z</time>
      </trkpt>
      <trkpt lat="45.52913" lon="2.29618">
        <ele>620</ele>
        <time>2011-06-11T09:49:29.000Z</time>
      </trkpt>
      <trkpt lat="45.52884" lon="2.29578">
        <ele>621.79998779297</ele>
        <time>2011-06-11T09:49:38.000Z</time>
      </trkpt>
      <trkpt lat="45.52837" lon="2.29519">
        <ele>624.79998779297</ele>
        <time>2011-06-11T09:49:51.000Z</time>
      </trkpt>
      <trkpt lat="45.52794" lon="2.29473">
        <ele>627.40002441406</ele>
        <time>2011-06-11T09:50:02.000Z</time>
      </trkpt>
      <trkpt lat="45.52767" lon="2.29446">
        <ele>628.79998779297</ele>
        <time>2011-06-11T09:50:09.000Z</time>
      </trkpt>
      <trkpt lat="45.52727" lon="2.29411">
        <ele>630.79998779297</ele>
        <time>2011-06-11T09:50:18.000Z</time>
      </trkpt>
      <trkpt lat="45.5266" lon="2.29359">
        <ele>634.40002441406</ele>
        <time>2011-06-11T09:50:33.000Z</time>
      </trkpt>
      <trkpt lat="45.52634" lon="2.29338">
        <ele>635.40002441406</ele>
        <time>2011-06-11T09:50:40.000Z</time>
      </trkpt>
      <trkpt lat="45.52633" lon="2.29337">
        <ele>635.59997558594</ele>
        <time>2011-06-11T09:50:42.000Z</time>
      </trkpt>
      <trkpt lat="45.52631" lon="2.29337">
        <ele>636</ele>
        <time>2011-06-11T09:51:16.000Z</time>
      </trkpt>
      <trkpt lat="45.52618" lon="2.29329">
        <ele>636.20001220703</ele>
        <time>2011-06-11T09:51:21.000Z</time>
      </trkpt>
      <trkpt lat="45.52592" lon="2.29313">
        <ele>636.40002441406</ele>
        <time>2011-06-11T09:51:26.000Z</time>
      </trkpt>
      <trkpt lat="45.52531" lon="2.29274">
        <ele>637</ele>
        <time>2011-06-11T09:51:36.000Z</time>
      </trkpt>
      <trkpt lat="45.52449" lon="2.29222">
        <ele>636.59997558594</ele>
        <time>2011-06-11T09:51:48.000Z</time>
      </trkpt>
      <trkpt lat="45.52371" lon="2.29173">
        <ele>636</ele>
        <time>2011-06-11T09:51:59.000Z</time>
      </trkpt>
      <trkpt lat="45.52288" lon="2.29118">
        <ele>635.59997558594</ele>
        <time>2011-06-11T09:52:11.000Z</time>
      </trkpt>
      <trkpt lat="45.52234" lon="2.29072">
        <ele>635.20001220703</ele>
        <time>2011-06-11T09:52:19.000Z</time>
      </trkpt>
      <trkpt lat="45.52195" lon="2.29023">
        <ele>635</ele>
        <time>2011-06-11T09:52:26.000Z</time>
      </trkpt>
      <trkpt lat="45.52163" lon="2.28967">
        <ele>634.59997558594</ele>
        <time>2011-06-11T09:52:33.000Z</time>
      </trkpt>
      <trkpt lat="45.52139" lon="2.28906">
        <ele>634</ele>
        <time>2011-06-11T09:52:40.000Z</time>
      </trkpt>
      <trkpt lat="45.52121" lon="2.2884">
        <ele>634.20001220703</ele>
        <time>2011-06-11T09:52:47.000Z</time>
      </trkpt>
      <trkpt lat="45.52111" lon="2.28763">
        <ele>634</ele>
        <time>2011-06-11T09:52:55.000Z</time>
      </trkpt>
      <trkpt lat="45.52111" lon="2.28687">
        <ele>634</ele>
        <time>2011-06-11T09:53:03.000Z</time>
      </trkpt>
      <trkpt lat="45.5212" lon="2.28616">
        <ele>634.40002441406</ele>
        <time>2011-06-11T09:53:11.000Z</time>
      </trkpt>
      <trkpt lat="45.52135" lon="2.28542">
        <ele>635.20001220703</ele>
        <time>2011-06-11T09:53:20.000Z</time>
      </trkpt>
      <trkpt lat="45.52153" lon="2.28457">
        <ele>636.20001220703</ele>
        <time>2011-06-11T09:53:31.000Z</time>
      </trkpt>
      <trkpt lat="45.52166" lon="2.28369">
        <ele>637.59997558594</ele>
        <time>2011-06-11T09:53:43.000Z</time>
      </trkpt>
      <trkpt lat="45.5217" lon="2.28313">
        <ele>638.59997558594</ele>
        <time>2011-06-11T09:53:51.000Z</time>
      </trkpt>
      <trkpt lat="45.52171" lon="2.28239">
        <ele>640.40002441406</ele>
        <time>2011-06-11T09:54:02.000Z</time>
      </trkpt>
      <trkpt lat="45.52168" lon="2.28182">
        <ele>641.59997558594</ele>
        <time>2011-06-11T09:54:11.000Z</time>
      </trkpt>
      <trkpt lat="45.52158" lon="2.2811">
        <ele>643.59997558594</ele>
        <time>2011-06-11T09:54:22.000Z</time>
      </trkpt>
      <trkpt lat="45.52146" lon="2.28045">
        <ele>645.20001220703</ele>
        <time>2011-06-11T09:54:33.000Z</time>
      </trkpt>
      <trkpt lat="45.52138" lon="2.28004">
        <ele>646.79998779297</ele>
        <time>2011-06-11T09:54:41.000Z</time>
      </trkpt>
      <trkpt lat="45.52128" lon="2.27956">
        <ele>648.59997558594</ele>
        <time>2011-06-11T09:54:49.000Z</time>
      </trkpt>
      <trkpt lat="45.52118" lon="2.27902">
        <ele>650</ele>
        <time>2011-06-11T09:54:58.000Z</time>
      </trkpt>
      <trkpt lat="45.52106" lon="2.27835">
        <ele>652.20001220703</ele>
        <time>2011-06-11T09:55:09.000Z</time>
      </trkpt>
      <trkpt lat="45.52095" lon="2.27767">
        <ele>654.20001220703</ele>
        <time>2011-06-11T09:55:20.000Z</time>
      </trkpt>
      <trkpt lat="45.52083" lon="2.27708">
        <ele>656.20001220703</ele>
        <time>2011-06-11T09:55:30.000Z</time>
      </trkpt>
      <trkpt lat="45.52072" lon="2.27649">
        <ele>658.40002441406</ele>
        <time>2011-06-11T09:55:40.000Z</time>
      </trkpt>
      <trkpt lat="45.5206" lon="2.27579">
        <ele>660.40002441406</ele>
        <time>2011-06-11T09:55:51.000Z</time>
      </trkpt>
      <trkpt lat="45.52046" lon="2.27498">
        <ele>661.79998779297</ele>
        <time>2011-06-11T09:56:03.000Z</time>
      </trkpt>
      <trkpt lat="45.52033" lon="2.27429">
        <ele>662.40002441406</ele>
        <time>2011-06-11T09:56:12.000Z</time>
      </trkpt>
      <trkpt lat="45.52018" lon="2.27354">
        <ele>663</ele>
        <time>2011-06-11T09:56:21.000Z</time>
      </trkpt>
      <trkpt lat="45.52005" lon="2.27274">
        <ele>664</ele>
        <time>2011-06-11T09:56:31.000Z</time>
      </trkpt>
      <trkpt lat="45.51998" lon="2.27221">
        <ele>664.40002441406</ele>
        <time>2011-06-11T09:56:38.000Z</time>
      </trkpt>
      <trkpt lat="45.5199" lon="2.27167">
        <ele>665</ele>
        <time>2011-06-11T09:56:45.000Z</time>
      </trkpt>
      <trkpt lat="45.51981" lon="2.27113">
        <ele>665.59997558594</ele>
        <time>2011-06-11T09:56:52.000Z</time>
      </trkpt>
      <trkpt lat="45.51977" lon="2.27083">
        <ele>666</ele>
        <time>2011-06-11T09:56:56.000Z</time>
      </trkpt>
      <trkpt lat="45.51978" lon="2.27059">
        <ele>666.40002441406</ele>
        <time>2011-06-11T09:56:59.000Z</time>
      </trkpt>
      <trkpt lat="45.51988" lon="2.27029">
        <ele>666.79998779297</ele>
        <time>2011-06-11T09:57:03.000Z</time>
      </trkpt>
      <trkpt lat="45.52" lon="2.26989">
        <ele>667</ele>
        <time>2011-06-11T09:57:08.000Z</time>
      </trkpt>
      <trkpt lat="45.51992" lon="2.26966">
        <ele>667.20001220703</ele>
        <time>2011-06-11T09:57:11.000Z</time>
      </trkpt>
      <trkpt lat="45.51978" lon="2.26952">
        <ele>667.59997558594</ele>
        <time>2011-06-11T09:57:14.000Z</time>
      </trkpt>
      <trkpt lat="45.51973" lon="2.26951">
        <ele>667.79998779297</ele>
        <time>2011-06-11T09:57:15.000Z</time>
      </trkpt>
      <trkpt lat="45.51962" lon="2.26948">
        <ele>668</ele>
        <time>2011-06-11T09:57:17.000Z</time>
      </trkpt>
      <trkpt lat="45.51938" lon="2.26925">
        <ele>668.20001220703</ele>
        <time>2011-06-11T09:57:22.000Z</time>
      </trkpt>
      <trkpt lat="45.51934" lon="2.26918">
        <ele>668.20001220703</ele>
        <time>2011-06-11T09:57:23.000Z</time>
      </trkpt>
      <trkpt lat="45.51888" lon="2.26834">
        <ele>666.79998779297</ele>
        <time>2011-06-11T09:57:34.000Z</time>
      </trkpt>
      <trkpt lat="45.51853" lon="2.26767">
        <ele>667.20001220703</ele>
        <time>2011-06-11T09:57:43.000Z</time>
      </trkpt>
      <trkpt lat="45.51829" lon="2.26708">
        <ele>667.59997558594</ele>
        <time>2011-06-11T09:57:51.000Z</time>
      </trkpt>
      <trkpt lat="45.51811" lon="2.26647">
        <ele>668.20001220703</ele>
        <time>2011-06-11T09:57:59.000Z</time>
      </trkpt>
      <trkpt lat="45.51798" lon="2.26572">
        <ele>669.40002441406</ele>
        <time>2011-06-11T09:58:08.000Z</time>
      </trkpt>
      <trkpt lat="45.51791" lon="2.26486">
        <ele>670.20001220703</ele>
        <time>2011-06-11T09:58:18.000Z</time>
      </trkpt>
      <trkpt lat="45.51785" lon="2.26413">
        <ele>670.59997558594</ele>
        <time>2011-06-11T09:58:27.000Z</time>
      </trkpt>
      <trkpt lat="45.51776" lon="2.2635">
        <ele>670.59997558594</ele>
        <time>2011-06-11T09:58:35.000Z</time>
      </trkpt>
      <trkpt lat="45.51761" lon="2.26289">
        <ele>671.40002441406</ele>
        <time>2011-06-11T09:58:43.000Z</time>
      </trkpt>
      <trkpt lat="45.51739" lon="2.26227">
        <ele>674</ele>
        <time>2011-06-11T09:58:52.000Z</time>
      </trkpt>
      <trkpt lat="45.51708" lon="2.26165">
        <ele>676.59997558594</ele>
        <time>2011-06-11T09:59:02.000Z</time>
      </trkpt>
      <trkpt lat="45.51678" lon="2.26119">
        <ele>678</ele>
        <time>2011-06-11T09:59:11.000Z</time>
      </trkpt>
      <trkpt lat="45.51651" lon="2.26078">
        <ele>680</ele>
        <time>2011-06-11T09:59:19.000Z</time>
      </trkpt>
      <trkpt lat="45.51648" lon="2.26073">
        <ele>680.20001220703</ele>
        <time>2011-06-11T09:59:20.000Z</time>
      </trkpt>
      <trkpt lat="45.51628" lon="2.26047">
        <ele>681.59997558594</ele>
        <time>2011-06-11T09:59:26.000Z</time>
      </trkpt>
      <trkpt lat="45.51601" lon="2.26006">
        <ele>683.20001220703</ele>
        <time>2011-06-11T09:59:35.000Z</time>
      </trkpt>
      <trkpt lat="45.51562" lon="2.25948">
        <ele>685</ele>
        <time>2011-06-11T09:59:47.000Z</time>
      </trkpt>
      <trkpt lat="45.51523" lon="2.25889">
        <ele>687.40002441406</ele>
        <time>2011-06-11T09:59:59.000Z</time>
      </trkpt>
      <trkpt lat="45.51484" lon="2.25831">
        <ele>689.20001220703</ele>
        <time>2011-06-11T10:00:10.000Z</time>
      </trkpt>
      <trkpt lat="45.51451" lon="2.25782">
        <ele>690.59997558594</ele>
        <time>2011-06-11T10:00:19.000Z</time>
      </trkpt>
      <trkpt lat="45.51417" lon="2.2573">
        <ele>691</ele>
        <time>2011-06-11T10:00:28.000Z</time>
      </trkpt>
      <trkpt lat="45.5138" lon="2.25676">
        <ele>691.79998779297</ele>
        <time>2011-06-11T10:00:37.000Z</time>
      </trkpt>
      <trkpt lat="45.51342" lon="2.25622">
        <ele>692.20001220703</ele>
        <time>2011-06-11T10:00:46.000Z</time>
      </trkpt>
      <trkpt lat="45.51307" lon="2.2558">
        <ele>691.59997558594</ele>
        <time>2011-06-11T10:00:53.000Z</time>
      </trkpt>
      <trkpt lat="45.51265" lon="2.25542">
        <ele>691.59997558594</ele>
        <time>2011-06-11T10:01:01.000Z</time>
      </trkpt>
      <trkpt lat="45.5126" lon="2.25537">
        <ele>691.59997558594</ele>
        <time>2011-06-11T10:01:02.000Z</time>
      </trkpt>
      <trkpt lat="45.51247" lon="2.25507">
        <ele>691.40002441406</ele>
        <time>2011-06-11T10:01:06.000Z</time>
      </trkpt>
      <trkpt lat="45.51232" lon="2.25479">
        <ele>691.59997558594</ele>
        <time>2011-06-11T10:01:10.000Z</time>
      </trkpt>
      <trkpt lat="45.51211" lon="2.25444">
        <ele>691.79998779297</ele>
        <time>2011-06-11T10:01:15.000Z</time>
      </trkpt>
      <trkpt lat="45.51189" lon="2.25364">
        <ele>690.20001220703</ele>
        <time>2011-06-11T10:01:23.000Z</time>
      </trkpt>
      <trkpt lat="45.51157" lon="2.25282">
        <ele>687.59997558594</ele>
        <time>2011-06-11T10:01:31.000Z</time>
      </trkpt>
      <trkpt lat="45.51121" lon="2.25191">
        <ele>685.40002441406</ele>
        <time>2011-06-11T10:01:40.000Z</time>
      </trkpt>
      <trkpt lat="45.51086" lon="2.25093">
        <ele>684.40002441406</ele>
        <time>2011-06-11T10:01:49.000Z</time>
      </trkpt>
      <trkpt lat="45.51058" lon="2.25002">
        <ele>684</ele>
        <time>2011-06-11T10:01:57.000Z</time>
      </trkpt>
      <trkpt lat="45.51039" lon="2.24941">
        <ele>680.59997558594</ele>
        <time>2011-06-11T10:02:03.000Z</time>
      </trkpt>
      <trkpt lat="45.51037" lon="2.24932">
        <ele>680.59997558594</ele>
        <time>2011-06-11T10:02:04.000Z</time>
      </trkpt>
      <trkpt lat="45.51019" lon="2.24875">
        <ele>678.79998779297</ele>
        <time>2011-06-11T10:02:11.000Z</time>
      </trkpt>
      <trkpt lat="45.51006" lon="2.24836">
        <ele>677.79998779297</ele>
        <time>2011-06-11T10:02:18.000Z</time>
      </trkpt>
      <trkpt lat="45.51" lon="2.24821">
        <ele>677</ele>
        <time>2011-06-11T10:02:25.000Z</time>
      </trkpt>
      <trkpt lat="45.50994" lon="2.24803">
        <ele>676.79998779297</ele>
        <time>2011-06-11T10:02:31.000Z</time>
      </trkpt>
      <trkpt lat="45.5098" lon="2.24777">
        <ele>676.40002441406</ele>
        <time>2011-06-11T10:02:37.000Z</time>
      </trkpt>
      <trkpt lat="45.50959" lon="2.24744">
        <ele>675.79998779297</ele>
        <time>2011-06-11T10:02:42.000Z</time>
      </trkpt>
      <trkpt lat="45.50926" lon="2.24694">
        <ele>674.40002441406</ele>
        <time>2011-06-11T10:02:48.000Z</time>
      </trkpt>
      <trkpt lat="45.50871" lon="2.24612">
        <ele>671.20001220703</ele>
        <time>2011-06-11T10:02:57.000Z</time>
      </trkpt>
      <trkpt lat="45.508" lon="2.24504">
        <ele>667.40002441406</ele>
        <time>2011-06-11T10:03:08.000Z</time>
      </trkpt>
      <trkpt lat="45.50734" lon="2.24404">
        <ele>663.40002441406</ele>
        <time>2011-06-11T10:03:18.000Z</time>
      </trkpt>
      <trkpt lat="45.50661" lon="2.24295">
        <ele>659.79998779297</ele>
        <time>2011-06-11T10:03:29.000Z</time>
      </trkpt>
      <trkpt lat="45.50596" lon="2.2419">
        <ele>656.59997558594</ele>
        <time>2011-06-11T10:03:39.000Z</time>
      </trkpt>
      <trkpt lat="45.50565" lon="2.2412">
        <ele>654.59997558594</ele>
        <time>2011-06-11T10:03:45.000Z</time>
      </trkpt>
      <trkpt lat="45.5056" lon="2.24053">
        <ele>653.40002441406</ele>
        <time>2011-06-11T10:03:50.000Z</time>
      </trkpt>
      <trkpt lat="45.50571" lon="2.24">
        <ele>652.20001220703</ele>
        <time>2011-06-11T10:03:54.000Z</time>
      </trkpt>
      <trkpt lat="45.50603" lon="2.23917">
        <ele>650.59997558594</ele>
        <time>2011-06-11T10:04:01.000Z</time>
      </trkpt>
      <trkpt lat="45.5061" lon="2.23892">
        <ele>650.20001220703</ele>
        <time>2011-06-11T10:04:03.000Z</time>
      </trkpt>
      <trkpt lat="45.50614" lon="2.23838">
        <ele>649.20001220703</ele>
        <time>2011-06-11T10:04:07.000Z</time>
      </trkpt>
      <trkpt lat="45.50602" lon="2.23783">
        <ele>648.59997558594</ele>
        <time>2011-06-11T10:04:11.000Z</time>
      </trkpt>
      <trkpt lat="45.50557" lon="2.23671">
        <ele>644.59997558594</ele>
        <time>2011-06-11T10:04:20.000Z</time>
      </trkpt>
      <trkpt lat="45.50516" lon="2.23568">
        <ele>642.20001220703</ele>
        <time>2011-06-11T10:04:29.000Z</time>
      </trkpt>
      <trkpt lat="45.50486" lon="2.23495">
        <ele>641.79998779297</ele>
        <time>2011-06-11T10:04:36.000Z</time>
      </trkpt>
      <trkpt lat="45.5045" lon="2.23405">
        <ele>642.20001220703</ele>
        <time>2011-06-11T10:04:45.000Z</time>
      </trkpt>
      <trkpt lat="45.50398" lon="2.23279">
        <ele>642.40002441406</ele>
        <time>2011-06-11T10:04:58.000Z</time>
      </trkpt>
      <trkpt lat="45.50372" lon="2.23214">
        <ele>642.59997558594</ele>
        <time>2011-06-11T10:05:05.000Z</time>
      </trkpt>
      <trkpt lat="45.50368" lon="2.23206">
        <ele>642.59997558594</ele>
        <time>2011-06-11T10:05:06.000Z</time>
      </trkpt>
      <trkpt lat="45.50345" lon="2.23184">
        <ele>643.40002441406</ele>
        <time>2011-06-11T10:05:10.000Z</time>
      </trkpt>
      <trkpt lat="45.50293" lon="2.2317">
        <ele>644.79998779297</ele>
        <time>2011-06-11T10:05:18.000Z</time>
      </trkpt>
      <trkpt lat="45.50271" lon="2.23151">
        <ele>645</ele>
        <time>2011-06-11T10:05:22.000Z</time>
      </trkpt>
      <trkpt lat="45.50219" lon="2.23071">
        <ele>646</ele>
        <time>2011-06-11T10:05:33.000Z</time>
      </trkpt>
      <trkpt lat="45.5019" lon="2.23018">
        <ele>646.59997558594</ele>
        <time>2011-06-11T10:05:40.000Z</time>
      </trkpt>
      <trkpt lat="45.50146" lon="2.22932">
        <ele>648</ele>
        <time>2011-06-11T10:05:51.000Z</time>
      </trkpt>
      <trkpt lat="45.50097" lon="2.22837">
        <ele>649.40002441406</ele>
        <time>2011-06-11T10:06:03.000Z</time>
      </trkpt>
      <trkpt lat="45.50062" lon="2.22768">
        <ele>650.20001220703</ele>
        <time>2011-06-11T10:06:11.000Z</time>
      </trkpt>
      <trkpt lat="45.5002" lon="2.2268">
        <ele>649.59997558594</ele>
        <time>2011-06-11T10:06:21.000Z</time>
      </trkpt>
      <trkpt lat="45.4997" lon="2.22574">
        <ele>649</ele>
        <time>2011-06-11T10:06:33.000Z</time>
      </trkpt>
      <trkpt lat="45.49936" lon="2.22509">
        <ele>649.20001220703</ele>
        <time>2011-06-11T10:06:41.000Z</time>
      </trkpt>
      <trkpt lat="45.49906" lon="2.22452">
        <ele>649.40002441406</ele>
        <time>2011-06-11T10:06:48.000Z</time>
      </trkpt>
      <trkpt lat="45.49878" lon="2.22399">
        <ele>649.20001220703</ele>
        <time>2011-06-11T10:06:56.000Z</time>
      </trkpt>
      <trkpt lat="45.49839" lon="2.22323">
        <ele>649.59997558594</ele>
        <time>2011-06-11T10:07:07.000Z</time>
      </trkpt>
      <trkpt lat="45.49808" lon="2.22262">
        <ele>649.59997558594</ele>
        <time>2011-06-11T10:07:16.000Z</time>
      </trkpt>
      <trkpt lat="45.49773" lon="2.22193">
        <ele>650.79998779297</ele>
        <time>2011-06-11T10:07:26.000Z</time>
      </trkpt>
      <trkpt lat="45.49735" lon="2.22118">
        <ele>650.79998779297</ele>
        <time>2011-06-11T10:07:37.000Z</time>
      </trkpt>
      <trkpt lat="45.49696" lon="2.22041">
        <ele>651.20001220703</ele>
        <time>2011-06-11T10:07:48.000Z</time>
      </trkpt>
      <trkpt lat="45.49667" lon="2.21986">
        <ele>651.59997558594</ele>
        <time>2011-06-11T10:07:55.000Z</time>
      </trkpt>
      <trkpt lat="45.49637" lon="2.21925">
        <ele>652</ele>
        <time>2011-06-11T10:08:03.000Z</time>
      </trkpt>
      <trkpt lat="45.49596" lon="2.21845">
        <ele>653.40002441406</ele>
        <time>2011-06-11T10:08:14.000Z</time>
      </trkpt>
      <trkpt lat="45.49564" lon="2.21782">
        <ele>654.59997558594</ele>
        <time>2011-06-11T10:08:23.000Z</time>
      </trkpt>
      <trkpt lat="45.49539" lon="2.21732">
        <ele>656.40002441406</ele>
        <time>2011-06-11T10:08:31.000Z</time>
      </trkpt>
      <trkpt lat="45.49511" lon="2.21674">
        <ele>657.79998779297</ele>
        <time>2011-06-11T10:08:41.000Z</time>
      </trkpt>
      <trkpt lat="45.49481" lon="2.21617">
        <ele>659.20001220703</ele>
        <time>2011-06-11T10:08:50.000Z</time>
      </trkpt>
      <trkpt lat="45.49443" lon="2.21543">
        <ele>660.20001220703</ele>
        <time>2011-06-11T10:09:01.000Z</time>
      </trkpt>
      <trkpt lat="45.49407" lon="2.21473">
        <ele>660.59997558594</ele>
        <time>2011-06-11T10:09:11.000Z</time>
      </trkpt>
      <trkpt lat="45.49369" lon="2.21399">
        <ele>660.79998779297</ele>
        <time>2011-06-11T10:09:21.000Z</time>
      </trkpt>
      <trkpt lat="45.49314" lon="2.21288">
        <ele>661.20001220703</ele>
        <time>2011-06-11T10:09:36.000Z</time>
      </trkpt>
      <trkpt lat="45.49282" lon="2.21227">
        <ele>661.79998779297</ele>
        <time>2011-06-11T10:09:45.000Z</time>
      </trkpt>
      <trkpt lat="45.49268" lon="2.21196">
        <ele>663.20001220703</ele>
        <time>2011-06-11T10:09:51.000Z</time>
      </trkpt>
      <trkpt lat="45.4924" lon="2.2114">
        <ele>665.20001220703</ele>
        <time>2011-06-11T10:10:01.000Z</time>
      </trkpt>
      <trkpt lat="45.49209" lon="2.21079">
        <ele>667.40002441406</ele>
        <time>2011-06-11T10:10:12.000Z</time>
      </trkpt>
      <trkpt lat="45.49179" lon="2.21014">
        <ele>670</ele>
        <time>2011-06-11T10:10:23.000Z</time>
      </trkpt>
      <trkpt lat="45.49161" lon="2.20963">
        <ele>669.79998779297</ele>
        <time>2011-06-11T10:10:30.000Z</time>
      </trkpt>
      <trkpt lat="45.49131" lon="2.20874">
        <ele>668.59997558594</ele>
        <time>2011-06-11T10:10:41.000Z</time>
      </trkpt>
      <trkpt lat="45.49105" lon="2.20801">
        <ele>666.79998779297</ele>
        <time>2011-06-11T10:10:49.000Z</time>
      </trkpt>
      <trkpt lat="45.49081" lon="2.2073">
        <ele>664.79998779297</ele>
        <time>2011-06-11T10:10:56.000Z</time>
      </trkpt>
      <trkpt lat="45.49046" lon="2.20628">
        <ele>661.40002441406</ele>
        <time>2011-06-11T10:11:05.000Z</time>
      </trkpt>
      <trkpt lat="45.4902" lon="2.2055">
        <ele>660</ele>
        <time>2011-06-11T10:11:12.000Z</time>
      </trkpt>
      <trkpt lat="45.48994" lon="2.20473">
        <ele>659.79998779297</ele>
        <time>2011-06-11T10:11:20.000Z</time>
      </trkpt>
      <trkpt lat="45.48969" lon="2.20399">
        <ele>661</ele>
        <time>2011-06-11T10:11:29.000Z</time>
      </trkpt>
      <trkpt lat="45.48948" lon="2.20338">
        <ele>662</ele>
        <time>2011-06-11T10:11:37.000Z</time>
      </trkpt>
      <trkpt lat="45.48931" lon="2.20289">
        <ele>663.40002441406</ele>
        <time>2011-06-11T10:11:44.000Z</time>
      </trkpt>
      <trkpt lat="45.48907" lon="2.2022">
        <ele>665.20001220703</ele>
        <time>2011-06-11T10:11:54.000Z</time>
      </trkpt>
      <trkpt lat="45.48881" lon="2.20142">
        <ele>666.79998779297</ele>
        <time>2011-06-11T10:12:05.000Z</time>
      </trkpt>
      <trkpt lat="45.48862" lon="2.20086">
        <ele>666.79998779297</ele>
        <time>2011-06-11T10:12:12.000Z</time>
      </trkpt>
      <trkpt lat="45.4883" lon="2.19992">
        <ele>666.20001220703</ele>
        <time>2011-06-11T10:12:22.000Z</time>
      </trkpt>
      <trkpt lat="45.48791" lon="2.19884">
        <ele>664.40002441406</ele>
        <time>2011-06-11T10:12:33.000Z</time>
      </trkpt>
      <trkpt lat="45.48753" lon="2.19803">
        <ele>663.79998779297</ele>
        <time>2011-06-11T10:12:42.000Z</time>
      </trkpt>
      <trkpt lat="45.4871" lon="2.19737">
        <ele>663.79998779297</ele>
        <time>2011-06-11T10:12:51.000Z</time>
      </trkpt>
      <trkpt lat="45.48667" lon="2.19685">
        <ele>664.59997558594</ele>
        <time>2011-06-11T10:13:00.000Z</time>
      </trkpt>
      <trkpt lat="45.48622" lon="2.19645">
        <ele>666.40002441406</ele>
        <time>2011-06-11T10:13:09.000Z</time>
      </trkpt>
      <trkpt lat="45.48587" lon="2.19618">
        <ele>668</ele>
        <time>2011-06-11T10:13:17.000Z</time>
      </trkpt>
      <trkpt lat="45.48568" lon="2.19606">
        <ele>669</ele>
        <time>2011-06-11T10:13:22.000Z</time>
      </trkpt>
      <trkpt lat="45.48556" lon="2.19595">
        <ele>670.20001220703</ele>
        <time>2011-06-11T10:13:28.000Z</time>
      </trkpt>
      <trkpt lat="45.48552" lon="2.19593">
        <ele>670.79998779297</ele>
        <time>2011-06-11T10:13:33.000Z</time>
      </trkpt>
      <trkpt lat="45.48551" lon="2.19592">
        <ele>671</ele>
        <time>2011-06-11T10:13:38.000Z</time>
      </trkpt>
      <trkpt lat="45.48553" lon="2.19595">
        <ele>671</ele>
        <time>2011-06-11T10:15:22.000Z</time>
      </trkpt>
      <trkpt lat="45.48554" lon="2.19598">
        <ele>673.59997558594</ele>
        <time>2011-06-11T10:48:50.000Z</time>
      </trkpt>
      <trkpt lat="45.48555" lon="2.19598">
        <ele>673.40002441406</ele>
        <time>2011-06-11T10:48:52.000Z</time>
      </trkpt>
      <trkpt lat="45.48556" lon="2.196">
        <ele>673</ele>
        <time>2011-06-11T10:49:02.000Z</time>
      </trkpt>
      <trkpt lat="45.48547" lon="2.19599">
        <ele>673.40002441406</ele>
        <time>2011-06-11T10:50:38.000Z</time>
      </trkpt>
      <trkpt lat="45.48543" lon="2.19598">
        <ele>673.79998779297</ele>
        <time>2011-06-11T10:50:40.000Z</time>
      </trkpt>
      <trkpt lat="45.48528" lon="2.19591">
        <ele>674.20001220703</ele>
        <time>2011-06-11T10:50:47.000Z</time>
      </trkpt>
      <trkpt lat="45.48507" lon="2.19583">
        <ele>675.20001220703</ele>
        <time>2011-06-11T10:50:54.000Z</time>
      </trkpt>
      <trkpt lat="45.48492" lon="2.19578">
        <ele>676.40002441406</ele>
        <time>2011-06-11T10:51:00.000Z</time>
      </trkpt>
      <trkpt lat="45.48472" lon="2.1957">
        <ele>677.59997558594</ele>
        <time>2011-06-11T10:51:07.000Z</time>
      </trkpt>
      <trkpt lat="45.48451" lon="2.19561">
        <ele>678.59997558594</ele>
        <time>2011-06-11T10:51:14.000Z</time>
      </trkpt>
      <trkpt lat="45.48432" lon="2.19556">
        <ele>679.79998779297</ele>
        <time>2011-06-11T10:51:20.000Z</time>
      </trkpt>
      <trkpt lat="45.48401" lon="2.19547">
        <ele>681.20001220703</ele>
        <time>2011-06-11T10:51:30.000Z</time>
      </trkpt>
      <trkpt lat="45.48373" lon="2.19538">
        <ele>681.59997558594</ele>
        <time>2011-06-11T10:51:39.000Z</time>
      </trkpt>
      <trkpt lat="45.48338" lon="2.19526">
        <ele>684.20001220703</ele>
        <time>2011-06-11T10:51:50.000Z</time>
      </trkpt>
      <trkpt lat="45.48297" lon="2.19514">
        <ele>686.79998779297</ele>
        <time>2011-06-11T10:52:02.000Z</time>
      </trkpt>
      <trkpt lat="45.48263" lon="2.19502">
        <ele>688.40002441406</ele>
        <time>2011-06-11T10:52:12.000Z</time>
      </trkpt>
      <trkpt lat="45.4822" lon="2.19487">
        <ele>690</ele>
        <time>2011-06-11T10:52:24.000Z</time>
      </trkpt>
      <trkpt lat="45.48186" lon="2.19475">
        <ele>691.20001220703</ele>
        <time>2011-06-11T10:52:33.000Z</time>
      </trkpt>
      <trkpt lat="45.48139" lon="2.19459">
        <ele>692.59997558594</ele>
        <time>2011-06-11T10:52:45.000Z</time>
      </trkpt>
      <trkpt lat="45.481" lon="2.19441">
        <ele>693.59997558594</ele>
        <time>2011-06-11T10:52:55.000Z</time>
      </trkpt>
      <trkpt lat="45.48056" lon="2.19413">
        <ele>694.20001220703</ele>
        <time>2011-06-11T10:53:06.000Z</time>
      </trkpt>
      <trkpt lat="45.48016" lon="2.19381">
        <ele>695</ele>
        <time>2011-06-11T10:53:16.000Z</time>
      </trkpt>
      <trkpt lat="45.47988" lon="2.19355">
        <ele>695.20001220703</ele>
        <time>2011-06-11T10:53:23.000Z</time>
      </trkpt>
      <trkpt lat="45.47955" lon="2.19316">
        <ele>695.79998779297</ele>
        <time>2011-06-11T10:53:32.000Z</time>
      </trkpt>
      <trkpt lat="45.47926" lon="2.19277">
        <ele>695.40002441406</ele>
        <time>2011-06-11T10:53:40.000Z</time>
      </trkpt>
      <trkpt lat="45.47897" lon="2.19229">
        <ele>695.20001220703</ele>
        <time>2011-06-11T10:53:48.000Z</time>
      </trkpt>
      <trkpt lat="45.47868" lon="2.19169">
        <ele>695.20001220703</ele>
        <time>2011-06-11T10:53:57.000Z</time>
      </trkpt>
      <trkpt lat="45.47843" lon="2.19101">
        <ele>694</ele>
        <time>2011-06-11T10:54:06.000Z</time>
      </trkpt>
      <trkpt lat="45.47824" lon="2.19022">
        <ele>692.40002441406</ele>
        <time>2011-06-11T10:54:15.000Z</time>
      </trkpt>
      <trkpt lat="45.47812" lon="2.18935">
        <ele>690.59997558594</ele>
        <time>2011-06-11T10:54:24.000Z</time>
      </trkpt>
      <trkpt lat="45.47803" lon="2.18839">
        <ele>688.20001220703</ele>
        <time>2011-06-11T10:54:33.000Z</time>
      </trkpt>
      <trkpt lat="45.47795" lon="2.18734">
        <ele>685.20001220703</ele>
        <time>2011-06-11T10:54:42.000Z</time>
      </trkpt>
      <trkpt lat="45.47784" lon="2.18607">
        <ele>681.40002441406</ele>
        <time>2011-06-11T10:54:52.000Z</time>
      </trkpt>
      <trkpt lat="45.47773" lon="2.18469">
        <ele>678.59997558594</ele>
        <time>2011-06-11T10:55:03.000Z</time>
      </trkpt>
      <trkpt lat="45.47763" lon="2.18356">
        <ele>676.79998779297</ele>
        <time>2011-06-11T10:55:13.000Z</time>
      </trkpt>
      <trkpt lat="45.47753" lon="2.18241">
        <ele>674.59997558594</ele>
        <time>2011-06-11T10:55:24.000Z</time>
      </trkpt>
      <trkpt lat="45.47747" lon="2.18153">
        <ele>673.20001220703</ele>
        <time>2011-06-11T10:55:32.000Z</time>
      </trkpt>
      <trkpt lat="45.47736" lon="2.18028">
        <ele>670.79998779297</ele>
        <time>2011-06-11T10:55:43.000Z</time>
      </trkpt>
      <trkpt lat="45.47721" lon="2.17914">
        <ele>669.59997558594</ele>
        <time>2011-06-11T10:55:53.000Z</time>
      </trkpt>
      <trkpt lat="45.477" lon="2.17819">
        <ele>667.79998779297</ele>
        <time>2011-06-11T10:56:01.000Z</time>
      </trkpt>
      <trkpt lat="45.47672" lon="2.17729">
        <ele>665</ele>
        <time>2011-06-11T10:56:08.000Z</time>
      </trkpt>
      <trkpt lat="45.4764" lon="2.17639">
        <ele>661.59997558594</ele>
        <time>2011-06-11T10:56:15.000Z</time>
      </trkpt>
      <trkpt lat="45.47599" lon="2.17525">
        <ele>657.59997558594</ele>
        <time>2011-06-11T10:56:24.000Z</time>
      </trkpt>
      <trkpt lat="45.47559" lon="2.17426">
        <ele>653.40002441406</ele>
        <time>2011-06-11T10:56:32.000Z</time>
      </trkpt>
      <trkpt lat="45.47522" lon="2.17358">
        <ele>651</ele>
        <time>2011-06-11T10:56:38.000Z</time>
      </trkpt>
      <trkpt lat="45.4748" lon="2.17298">
        <ele>648.79998779297</ele>
        <time>2011-06-11T10:56:44.000Z</time>
      </trkpt>
      <trkpt lat="45.47411" lon="2.1721">
        <ele>647</ele>
        <time>2011-06-11T10:56:54.000Z</time>
      </trkpt>
      <trkpt lat="45.47343" lon="2.17123">
        <ele>645.20001220703</ele>
        <time>2011-06-11T10:57:04.000Z</time>
      </trkpt>
      <trkpt lat="45.47276" lon="2.17029">
        <ele>643</ele>
        <time>2011-06-11T10:57:14.000Z</time>
      </trkpt>
      <trkpt lat="45.4724" lon="2.16962">
        <ele>640.79998779297</ele>
        <time>2011-06-11T10:57:20.000Z</time>
      </trkpt>
      <trkpt lat="45.47202" lon="2.16873">
        <ele>637.20001220703</ele>
        <time>2011-06-11T10:57:27.000Z</time>
      </trkpt>
      <trkpt lat="45.47178" lon="2.16789">
        <ele>633.40002441406</ele>
        <time>2011-06-11T10:57:33.000Z</time>
      </trkpt>
      <trkpt lat="45.47175" lon="2.16775">
        <ele>633.40002441406</ele>
        <time>2011-06-11T10:57:34.000Z</time>
      </trkpt>
      <trkpt lat="45.47153" lon="2.16668">
        <ele>628.79998779297</ele>
        <time>2011-06-11T10:57:41.000Z</time>
      </trkpt>
      <trkpt lat="45.47137" lon="2.16573">
        <ele>624</ele>
        <time>2011-06-11T10:57:47.000Z</time>
      </trkpt>
      <trkpt lat="45.47113" lon="2.16424">
        <ele>616.79998779297</ele>
        <time>2011-06-11T10:57:56.000Z</time>
      </trkpt>
      <trkpt lat="45.47105" lon="2.16375">
        <ele>615.20001220703</ele>
        <time>2011-06-11T10:57:59.000Z</time>
      </trkpt>
      <trkpt lat="45.47084" lon="2.1622">
        <ele>608.20001220703</ele>
        <time>2011-06-11T10:58:08.000Z</time>
      </trkpt>
      <trkpt lat="45.47063" lon="2.16048">
        <ele>601.40002441406</ele>
        <time>2011-06-11T10:58:18.000Z</time>
      </trkpt>
      <trkpt lat="45.47055" lon="2.15976">
        <ele>599.59997558594</ele>
        <time>2011-06-11T10:58:23.000Z</time>
      </trkpt>
      <trkpt lat="45.47042" lon="2.15887">
        <ele>599.20001220703</ele>
        <time>2011-06-11T10:58:30.000Z</time>
      </trkpt>
      <trkpt lat="45.47025" lon="2.15806">
        <ele>598.79998779297</ele>
        <time>2011-06-11T10:58:37.000Z</time>
      </trkpt>
      <trkpt lat="45.46995" lon="2.15691">
        <ele>597.20001220703</ele>
        <time>2011-06-11T10:58:47.000Z</time>
      </trkpt>
      <trkpt lat="45.46963" lon="2.15565">
        <ele>594.20001220703</ele>
        <time>2011-06-11T10:58:57.000Z</time>
      </trkpt>
      <trkpt lat="45.4694" lon="2.15465">
        <ele>590.79998779297</ele>
        <time>2011-06-11T10:59:04.000Z</time>
      </trkpt>
      <trkpt lat="45.46914" lon="2.15345">
        <ele>585.40002441406</ele>
        <time>2011-06-11T10:59:12.000Z</time>
      </trkpt>
      <trkpt lat="45.46905" lon="2.153">
        <ele>584</ele>
        <time>2011-06-11T10:59:15.000Z</time>
      </trkpt>
      <trkpt lat="45.46883" lon="2.15188">
        <ele>579.20001220703</ele>
        <time>2011-06-11T10:59:22.000Z</time>
      </trkpt>
      <trkpt lat="45.46864" lon="2.15096">
        <ele>575.59997558594</ele>
        <time>2011-06-11T10:59:28.000Z</time>
      </trkpt>
      <trkpt lat="45.46853" lon="2.15038">
        <ele>576</ele>
        <time>2011-06-11T10:59:33.000Z</time>
      </trkpt>
      <trkpt lat="45.46847" lon="2.14986">
        <ele>577.79998779297</ele>
        <time>2011-06-11T10:59:39.000Z</time>
      </trkpt>
      <trkpt lat="45.46845" lon="2.14927">
        <ele>579.79998779297</ele>
        <time>2011-06-11T10:59:47.000Z</time>
      </trkpt>
      <trkpt lat="45.46846" lon="2.1485">
        <ele>582.79998779297</ele>
        <time>2011-06-11T10:59:58.000Z</time>
      </trkpt>
      <trkpt lat="45.46848" lon="2.14767">
        <ele>585.79998779297</ele>
        <time>2011-06-11T11:00:11.000Z</time>
      </trkpt>
      <trkpt lat="45.46848" lon="2.14707">
        <ele>588.20001220703</ele>
        <time>2011-06-11T11:00:21.000Z</time>
      </trkpt>
      <trkpt lat="45.46843" lon="2.14654">
        <ele>590.59997558594</ele>
        <time>2011-06-11T11:00:30.000Z</time>
      </trkpt>
      <trkpt lat="45.46835" lon="2.14598">
        <ele>593</ele>
        <time>2011-06-11T11:00:40.000Z</time>
      </trkpt>
      <trkpt lat="45.46824" lon="2.1455">
        <ele>595.59997558594</ele>
        <time>2011-06-11T11:00:49.000Z</time>
      </trkpt>
      <trkpt lat="45.46813" lon="2.14511">
        <ele>597.59997558594</ele>
        <time>2011-06-11T11:00:57.000Z</time>
      </trkpt>
      <trkpt lat="45.46796" lon="2.14466">
        <ele>599.79998779297</ele>
        <time>2011-06-11T11:01:06.000Z</time>
      </trkpt>
      <trkpt lat="45.46772" lon="2.1442">
        <ele>602.40002441406</ele>
        <time>2011-06-11T11:01:16.000Z</time>
      </trkpt>
      <trkpt lat="45.46749" lon="2.14379">
        <ele>603.59997558594</ele>
        <time>2011-06-11T11:01:25.000Z</time>
      </trkpt>
      <trkpt lat="45.46718" lon="2.14332">
        <ele>604.40002441406</ele>
        <time>2011-06-11T11:01:35.000Z</time>
      </trkpt>
      <trkpt lat="45.46682" lon="2.14289">
        <ele>603.40002441406</ele>
        <time>2011-06-11T11:01:43.000Z</time>
      </trkpt>
      <trkpt lat="45.46637" lon="2.14238">
        <ele>601.40002441406</ele>
        <time>2011-06-11T11:01:51.000Z</time>
      </trkpt>
      <trkpt lat="45.4659" lon="2.14185">
        <ele>598.40002441406</ele>
        <time>2011-06-11T11:01:58.000Z</time>
      </trkpt>
      <trkpt lat="45.46541" lon="2.14129">
        <ele>595.40002441406</ele>
        <time>2011-06-11T11:02:05.000Z</time>
      </trkpt>
      <trkpt lat="45.46489" lon="2.1407">
        <ele>592.40002441406</ele>
        <time>2011-06-11T11:02:12.000Z</time>
      </trkpt>
      <trkpt lat="45.46417" lon="2.13988">
        <ele>587.40002441406</ele>
        <time>2011-06-11T11:02:21.000Z</time>
      </trkpt>
      <trkpt lat="45.46356" lon="2.13917">
        <ele>582.79998779297</ele>
        <time>2011-06-11T11:02:29.000Z</time>
      </trkpt>
      <trkpt lat="45.46316" lon="2.13871">
        <ele>581.79998779297</ele>
        <time>2011-06-11T11:02:35.000Z</time>
      </trkpt>
      <trkpt lat="45.46285" lon="2.13836">
        <ele>582</ele>
        <time>2011-06-11T11:02:41.000Z</time>
      </trkpt>
      <trkpt lat="45.46249" lon="2.13783">
        <ele>584</ele>
        <time>2011-06-11T11:02:50.000Z</time>
      </trkpt>
      <trkpt lat="45.46223" lon="2.13729">
        <ele>586.20001220703</ele>
        <time>2011-06-11T11:02:59.000Z</time>
      </trkpt>
      <trkpt lat="45.46199" lon="2.13661">
        <ele>588.79998779297</ele>
        <time>2011-06-11T11:03:10.000Z</time>
      </trkpt>
      <trkpt lat="45.46184" lon="2.13598">
        <ele>591</ele>
        <time>2011-06-11T11:03:20.000Z</time>
      </trkpt>
      <trkpt lat="45.46172" lon="2.13522">
        <ele>593.59997558594</ele>
        <time>2011-06-11T11:03:32.000Z</time>
      </trkpt>
      <trkpt lat="45.46158" lon="2.13462">
        <ele>596</ele>
        <time>2011-06-11T11:03:41.000Z</time>
      </trkpt>
      <trkpt lat="45.46142" lon="2.13415">
        <ele>598</ele>
        <time>2011-06-11T11:03:49.000Z</time>
      </trkpt>
      <trkpt lat="45.46119" lon="2.13362">
        <ele>599.59997558594</ele>
        <time>2011-06-11T11:03:58.000Z</time>
      </trkpt>
      <trkpt lat="45.46095" lon="2.13311">
        <ele>601.59997558594</ele>
        <time>2011-06-11T11:04:08.000Z</time>
      </trkpt>
      <trkpt lat="45.46068" lon="2.13253">
        <ele>603.79998779297</ele>
        <time>2011-06-11T11:04:20.000Z</time>
      </trkpt>
      <trkpt lat="45.46048" lon="2.13209">
        <ele>605.40002441406</ele>
        <time>2011-06-11T11:04:29.000Z</time>
      </trkpt>
      <trkpt lat="45.46022" lon="2.13158">
        <ele>607.79998779297</ele>
        <time>2011-06-11T11:04:40.000Z</time>
      </trkpt>
      <trkpt lat="45.45988" lon="2.13098">
        <ele>610.20001220703</ele>
        <time>2011-06-11T11:04:53.000Z</time>
      </trkpt>
      <trkpt lat="45.45959" lon="2.13043">
        <ele>612.40002441406</ele>
        <time>2011-06-11T11:05:05.000Z</time>
      </trkpt>
      <trkpt lat="45.45938" lon="2.12993">
        <ele>614.40002441406</ele>
        <time>2011-06-11T11:05:15.000Z</time>
      </trkpt>
      <trkpt lat="45.45918" lon="2.12931">
        <ele>616.79998779297</ele>
        <time>2011-06-11T11:05:27.000Z</time>
      </trkpt>
      <trkpt lat="45.45912" lon="2.129">
        <ele>618.40002441406</ele>
        <time>2011-06-11T11:05:33.000Z</time>
      </trkpt>
      <trkpt lat="45.4591" lon="2.12895">
        <ele>618.40002441406</ele>
        <time>2011-06-11T11:05:34.000Z</time>
      </trkpt>
      <trkpt lat="45.45904" lon="2.12859">
        <ele>619.40002441406</ele>
        <time>2011-06-11T11:05:39.000Z</time>
      </trkpt>
      <trkpt lat="45.45903" lon="2.12852">
        <ele>619.59997558594</ele>
        <time>2011-06-11T11:05:40.000Z</time>
      </trkpt>
      <trkpt lat="45.45897" lon="2.12789">
        <ele>622</ele>
        <time>2011-06-11T11:05:49.000Z</time>
      </trkpt>
      <trkpt lat="45.45891" lon="2.1274">
        <ele>624.20001220703</ele>
        <time>2011-06-11T11:05:57.000Z</time>
      </trkpt>
      <trkpt lat="45.45882" lon="2.12697">
        <ele>625.79998779297</ele>
        <time>2011-06-11T11:06:05.000Z</time>
      </trkpt>
      <trkpt lat="45.45876" lon="2.1267">
        <ele>626.79998779297</ele>
        <time>2011-06-11T11:06:10.000Z</time>
      </trkpt>
      <trkpt lat="45.45868" lon="2.12618">
        <ele>628.40002441406</ele>
        <time>2011-06-11T11:06:18.000Z</time>
      </trkpt>
      <trkpt lat="45.45862" lon="2.12546">
        <ele>631.20001220703</ele>
        <time>2011-06-11T11:06:30.000Z</time>
      </trkpt>
      <trkpt lat="45.45851" lon="2.12494">
        <ele>633</ele>
        <time>2011-06-11T11:06:39.000Z</time>
      </trkpt>
      <trkpt lat="45.45836" lon="2.12442">
        <ele>634.59997558594</ele>
        <time>2011-06-11T11:06:48.000Z</time>
      </trkpt>
      <trkpt lat="45.45829" lon="2.12392">
        <ele>635.40002441406</ele>
        <time>2011-06-11T11:06:56.000Z</time>
      </trkpt>
      <trkpt lat="45.4583" lon="2.1233">
        <ele>637.59997558594</ele>
        <time>2011-06-11T11:07:06.000Z</time>
      </trkpt>
      <trkpt lat="45.45834" lon="2.12257">
        <ele>640.59997558594</ele>
        <time>2011-06-11T11:07:18.000Z</time>
      </trkpt>
      <trkpt lat="45.45829" lon="2.12206">
        <ele>641.79998779297</ele>
        <time>2011-06-11T11:07:26.000Z</time>
      </trkpt>
      <trkpt lat="45.45816" lon="2.1215">
        <ele>641.59997558594</ele>
        <time>2011-06-11T11:07:33.000Z</time>
      </trkpt>
      <trkpt lat="45.45796" lon="2.12074">
        <ele>640.40002441406</ele>
        <time>2011-06-11T11:07:41.000Z</time>
      </trkpt>
      <trkpt lat="45.45774" lon="2.11985">
        <ele>638</ele>
        <time>2011-06-11T11:07:49.000Z</time>
      </trkpt>
      <trkpt lat="45.45752" lon="2.11896">
        <ele>635.20001220703</ele>
        <time>2011-06-11T11:07:56.000Z</time>
      </trkpt>
      <trkpt lat="45.4572" lon="2.11771">
        <ele>630</ele>
        <time>2011-06-11T11:08:05.000Z</time>
      </trkpt>
      <trkpt lat="45.45688" lon="2.11646">
        <ele>626.20001220703</ele>
        <time>2011-06-11T11:08:14.000Z</time>
      </trkpt>
      <trkpt lat="45.4568" lon="2.1162">
        <ele>625</ele>
        <time>2011-06-11T11:08:16.000Z</time>
      </trkpt>
      <trkpt lat="45.45651" lon="2.11572">
        <ele>622.59997558594</ele>
        <time>2011-06-11T11:08:20.000Z</time>
      </trkpt>
      <trkpt lat="45.45597" lon="2.11513">
        <ele>618.40002441406</ele>
        <time>2011-06-11T11:08:26.000Z</time>
      </trkpt>
      <trkpt lat="45.45552" lon="2.11463">
        <ele>615.59997558594</ele>
        <time>2011-06-11T11:08:31.000Z</time>
      </trkpt>
      <trkpt lat="45.45465" lon="2.11367">
        <ele>609.40002441406</ele>
        <time>2011-06-11T11:08:41.000Z</time>
      </trkpt>
      <trkpt lat="45.4541" lon="2.11306">
        <ele>606.79998779297</ele>
        <time>2011-06-11T11:08:48.000Z</time>
      </trkpt>
      <trkpt lat="45.45375" lon="2.11276">
        <ele>606.40002441406</ele>
        <time>2011-06-11T11:08:53.000Z</time>
      </trkpt>
      <trkpt lat="45.45329" lon="2.11255">
        <ele>606.20001220703</ele>
        <time>2011-06-11T11:08:59.000Z</time>
      </trkpt>
      <trkpt lat="45.45232" lon="2.11212">
        <ele>605.20001220703</ele>
        <time>2011-06-11T11:09:12.000Z</time>
      </trkpt>
      <trkpt lat="45.45136" lon="2.11172">
        <ele>604.20001220703</ele>
        <time>2011-06-11T11:09:25.000Z</time>
      </trkpt>
      <trkpt lat="45.45052" lon="2.11135">
        <ele>603</ele>
        <time>2011-06-11T11:09:37.000Z</time>
      </trkpt>
      <trkpt lat="45.44982" lon="2.11099">
        <ele>602.79998779297</ele>
        <time>2011-06-11T11:09:47.000Z</time>
      </trkpt>
      <trkpt lat="45.44892" lon="2.11039">
        <ele>602.20001220703</ele>
        <time>2011-06-11T11:10:00.000Z</time>
      </trkpt>
      <trkpt lat="45.44821" lon="2.10993">
        <ele>600.79998779297</ele>
        <time>2011-06-11T11:10:10.000Z</time>
      </trkpt>
      <trkpt lat="45.44749" lon="2.10947">
        <ele>600.79998779297</ele>
        <time>2011-06-11T11:10:20.000Z</time>
      </trkpt>
      <trkpt lat="45.44666" lon="2.10895">
        <ele>600.79998779297</ele>
        <time>2011-06-11T11:10:32.000Z</time>
      </trkpt>
      <trkpt lat="45.44586" lon="2.10843">
        <ele>601.20001220703</ele>
        <time>2011-06-11T11:10:44.000Z</time>
      </trkpt>
      <trkpt lat="45.44557" lon="2.10811">
        <ele>601.40002441406</ele>
        <time>2011-06-11T11:10:49.000Z</time>
      </trkpt>
      <trkpt lat="45.44518" lon="2.10753">
        <ele>601.40002441406</ele>
        <time>2011-06-11T11:10:57.000Z</time>
      </trkpt>
      <trkpt lat="45.44484" lon="2.10698">
        <ele>602.59997558594</ele>
        <time>2011-06-11T11:11:05.000Z</time>
      </trkpt>
      <trkpt lat="45.44459" lon="2.10639">
        <ele>604.20001220703</ele>
        <time>2011-06-11T11:11:13.000Z</time>
      </trkpt>
      <trkpt lat="45.44431" lon="2.10569">
        <ele>606.20001220703</ele>
        <time>2011-06-11T11:11:23.000Z</time>
      </trkpt>
      <trkpt lat="45.44404" lon="2.10499">
        <ele>608.20001220703</ele>
        <time>2011-06-11T11:11:33.000Z</time>
      </trkpt>
      <trkpt lat="45.44383" lon="2.10446">
        <ele>609.79998779297</ele>
        <time>2011-06-11T11:11:41.000Z</time>
      </trkpt>
      <trkpt lat="45.44363" lon="2.10395">
        <ele>612</ele>
        <time>2011-06-11T11:11:49.000Z</time>
      </trkpt>
      <trkpt lat="45.44335" lon="2.10326">
        <ele>614.20001220703</ele>
        <time>2011-06-11T11:12:00.000Z</time>
      </trkpt>
      <trkpt lat="45.44311" lon="2.10276">
        <ele>616</ele>
        <time>2011-06-11T11:12:09.000Z</time>
      </trkpt>
      <trkpt lat="45.44269" lon="2.10206">
        <ele>618.59997558594</ele>
        <time>2011-06-11T11:12:22.000Z</time>
      </trkpt>
      <trkpt lat="45.44237" lon="2.10155">
        <ele>620.40002441406</ele>
        <time>2011-06-11T11:12:32.000Z</time>
      </trkpt>
      <trkpt lat="45.44202" lon="2.101">
        <ele>622.59997558594</ele>
        <time>2011-06-11T11:12:43.000Z</time>
      </trkpt>
      <trkpt lat="45.44179" lon="2.10059">
        <ele>623.79998779297</ele>
        <time>2011-06-11T11:12:51.000Z</time>
      </trkpt>
      <trkpt lat="45.44152" lon="2.10004">
        <ele>626</ele>
        <time>2011-06-11T11:13:01.000Z</time>
      </trkpt>
      <trkpt lat="45.44134" lon="2.09961">
        <ele>627.79998779297</ele>
        <time>2011-06-11T11:13:09.000Z</time>
      </trkpt>
      <trkpt lat="45.4411" lon="2.09897">
        <ele>630</ele>
        <time>2011-06-11T11:13:20.000Z</time>
      </trkpt>
      <trkpt lat="45.44084" lon="2.0982">
        <ele>631.79998779297</ele>
        <time>2011-06-11T11:13:32.000Z</time>
      </trkpt>
      <trkpt lat="45.44062" lon="2.09757">
        <ele>633</ele>
        <time>2011-06-11T11:13:42.000Z</time>
      </trkpt>
      <trkpt lat="45.44031" lon="2.0968">
        <ele>634</ele>
        <time>2011-06-11T11:13:54.000Z</time>
      </trkpt>
      <trkpt lat="45.43993" lon="2.09607">
        <ele>634.20001220703</ele>
        <time>2011-06-11T11:14:05.000Z</time>
      </trkpt>
      <trkpt lat="45.43955" lon="2.09546">
        <ele>633.79998779297</ele>
        <time>2011-06-11T11:14:14.000Z</time>
      </trkpt>
      <trkpt lat="45.43908" lon="2.09482">
        <ele>632.79998779297</ele>
        <time>2011-06-11T11:14:23.000Z</time>
      </trkpt>
      <trkpt lat="45.4385" lon="2.09405">
        <ele>630.79998779297</ele>
        <time>2011-06-11T11:14:33.000Z</time>
      </trkpt>
      <trkpt lat="45.43801" lon="2.09338">
        <ele>628.20001220703</ele>
        <time>2011-06-11T11:14:41.000Z</time>
      </trkpt>
      <trkpt lat="45.43745" lon="2.09262">
        <ele>624.20001220703</ele>
        <time>2011-06-11T11:14:49.000Z</time>
      </trkpt>
      <trkpt lat="45.43676" lon="2.09169">
        <ele>619</ele>
        <time>2011-06-11T11:14:58.000Z</time>
      </trkpt>
      <trkpt lat="45.4362" lon="2.09093">
        <ele>614.59997558594</ele>
        <time>2011-06-11T11:15:05.000Z</time>
      </trkpt>
      <trkpt lat="45.43569" lon="2.09033">
        <ele>610.79998779297</ele>
        <time>2011-06-11T11:15:11.000Z</time>
      </trkpt>
      <trkpt lat="45.4352" lon="2.08993">
        <ele>608.20001220703</ele>
        <time>2011-06-11T11:15:16.000Z</time>
      </trkpt>
      <trkpt lat="45.43484" lon="2.08949">
        <ele>605.20001220703</ele>
        <time>2011-06-11T11:15:20.000Z</time>
      </trkpt>
      <trkpt lat="45.43454" lon="2.08874">
        <ele>600.59997558594</ele>
        <time>2011-06-11T11:15:25.000Z</time>
      </trkpt>
      <trkpt lat="45.43438" lon="2.08773">
        <ele>595</ele>
        <time>2011-06-11T11:15:31.000Z</time>
      </trkpt>
      <trkpt lat="45.43423" lon="2.08726">
        <ele>592.40002441406</ele>
        <time>2011-06-11T11:15:34.000Z</time>
      </trkpt>
      <trkpt lat="45.43391" lon="2.08671">
        <ele>588.59997558594</ele>
        <time>2011-06-11T11:15:38.000Z</time>
      </trkpt>
      <trkpt lat="45.43359" lon="2.08644">
        <ele>586.20001220703</ele>
        <time>2011-06-11T11:15:41.000Z</time>
      </trkpt>
      <trkpt lat="45.43347" lon="2.08637">
        <ele>586.20001220703</ele>
        <time>2011-06-11T11:15:42.000Z</time>
      </trkpt>
      <trkpt lat="45.43311" lon="2.08629">
        <ele>583.59997558594</ele>
        <time>2011-06-11T11:15:45.000Z</time>
      </trkpt>
      <trkpt lat="45.43286" lon="2.08629">
        <ele>581.79998779297</ele>
        <time>2011-06-11T11:15:47.000Z</time>
      </trkpt>
      <trkpt lat="45.43223" lon="2.08632">
        <ele>577.40002441406</ele>
        <time>2011-06-11T11:15:52.000Z</time>
      </trkpt>
      <trkpt lat="45.43174" lon="2.08611">
        <ele>574</ele>
        <time>2011-06-11T11:15:56.000Z</time>
      </trkpt>
      <trkpt lat="45.43143" lon="2.0858">
        <ele>571.59997558594</ele>
        <time>2011-06-11T11:15:59.000Z</time>
      </trkpt>
      <trkpt lat="45.4312" lon="2.08537">
        <ele>569</ele>
        <time>2011-06-11T11:16:02.000Z</time>
      </trkpt>
      <trkpt lat="45.43092" lon="2.08457">
        <ele>565.20001220703</ele>
        <time>2011-06-11T11:16:07.000Z</time>
      </trkpt>
      <trkpt lat="45.43054" lon="2.08348">
        <ele>559.20001220703</ele>
        <time>2011-06-11T11:16:14.000Z</time>
      </trkpt>
      <trkpt lat="45.43019" lon="2.08261">
        <ele>554.40002441406</ele>
        <time>2011-06-11T11:16:20.000Z</time>
      </trkpt>
      <trkpt lat="45.42993" lon="2.08213">
        <ele>552.59997558594</ele>
        <time>2011-06-11T11:16:24.000Z</time>
      </trkpt>
      <trkpt lat="45.4295" lon="2.08154">
        <ele>551.20001220703</ele>
        <time>2011-06-11T11:16:30.000Z</time>
      </trkpt>
      <trkpt lat="45.42895" lon="2.08097">
        <ele>550</ele>
        <time>2011-06-11T11:16:37.000Z</time>
      </trkpt>
      <trkpt lat="45.42838" lon="2.08051">
        <ele>546.79998779297</ele>
        <time>2011-06-11T11:16:43.000Z</time>
      </trkpt>
      <trkpt lat="45.42773" lon="2.08002">
        <ele>541.59997558594</ele>
        <time>2011-06-11T11:16:49.000Z</time>
      </trkpt>
      <trkpt lat="45.42703" lon="2.07948">
        <ele>538.20001220703</ele>
        <time>2011-06-11T11:16:56.000Z</time>
      </trkpt>
      <trkpt lat="45.42645" lon="2.07902">
        <ele>538.79998779297</ele>
        <time>2011-06-11T11:17:03.000Z</time>
      </trkpt>
      <trkpt lat="45.42602" lon="2.07869">
        <ele>540.20001220703</ele>
        <time>2011-06-11T11:17:09.000Z</time>
      </trkpt>
      <trkpt lat="45.42559" lon="2.07837">
        <ele>541.40002441406</ele>
        <time>2011-06-11T11:17:16.000Z</time>
      </trkpt>
      <trkpt lat="45.42495" lon="2.07784">
        <ele>542.20001220703</ele>
        <time>2011-06-11T11:17:27.000Z</time>
      </trkpt>
      <trkpt lat="45.42448" lon="2.07735">
        <ele>543.20001220703</ele>
        <time>2011-06-11T11:17:36.000Z</time>
      </trkpt>
      <trkpt lat="45.42412" lon="2.07695">
        <ele>544.59997558594</ele>
        <time>2011-06-11T11:17:44.000Z</time>
      </trkpt>
      <trkpt lat="45.42369" lon="2.07651">
        <ele>546.40002441406</ele>
        <time>2011-06-11T11:17:54.000Z</time>
      </trkpt>
      <trkpt lat="45.42323" lon="2.07599">
        <ele>548.40002441406</ele>
        <time>2011-06-11T11:18:06.000Z</time>
      </trkpt>
      <trkpt lat="45.42284" lon="2.07558">
        <ele>549.59997558594</ele>
        <time>2011-06-11T11:18:16.000Z</time>
      </trkpt>
      <trkpt lat="45.42242" lon="2.07512">
        <ele>551.59997558594</ele>
        <time>2011-06-11T11:18:27.000Z</time>
      </trkpt>
      <trkpt lat="45.42201" lon="2.07469">
        <ele>553.20001220703</ele>
        <time>2011-06-11T11:18:37.000Z</time>
      </trkpt>
      <trkpt lat="45.42155" lon="2.0742">
        <ele>555</ele>
        <time>2011-06-11T11:18:48.000Z</time>
      </trkpt>
      <trkpt lat="45.42118" lon="2.07379">
        <ele>557.20001220703</ele>
        <time>2011-06-11T11:18:58.000Z</time>
      </trkpt>
      <trkpt lat="45.42074" lon="2.07322">
        <ele>560</ele>
        <time>2011-06-11T11:19:11.000Z</time>
      </trkpt>
      <trkpt lat="45.42046" lon="2.07279">
        <ele>562</ele>
        <time>2011-06-11T11:19:20.000Z</time>
      </trkpt>
      <trkpt lat="45.42015" lon="2.07217">
        <ele>563</ele>
        <time>2011-06-11T11:19:31.000Z</time>
      </trkpt>
      <trkpt lat="45.41987" lon="2.0714">
        <ele>564.40002441406</ele>
        <time>2011-06-11T11:19:43.000Z</time>
      </trkpt>
      <trkpt lat="45.41967" lon="2.07065">
        <ele>565.20001220703</ele>
        <time>2011-06-11T11:19:54.000Z</time>
      </trkpt>
      <trkpt lat="45.41954" lon="2.06996">
        <ele>565.79998779297</ele>
        <time>2011-06-11T11:20:03.000Z</time>
      </trkpt>
      <trkpt lat="45.41941" lon="2.06903">
        <ele>565.20001220703</ele>
        <time>2011-06-11T11:20:14.000Z</time>
      </trkpt>
      <trkpt lat="45.41929" lon="2.06812">
        <ele>564.59997558594</ele>
        <time>2011-06-11T11:20:24.000Z</time>
      </trkpt>
      <trkpt lat="45.41912" lon="2.06696">
        <ele>562.79998779297</ele>
        <time>2011-06-11T11:20:36.000Z</time>
      </trkpt>
      <trkpt lat="45.419" lon="2.06608">
        <ele>561.20001220703</ele>
        <time>2011-06-11T11:20:45.000Z</time>
      </trkpt>
      <trkpt lat="45.41885" lon="2.06496">
        <ele>560</ele>
        <time>2011-06-11T11:20:56.000Z</time>
      </trkpt>
      <trkpt lat="45.41869" lon="2.06381">
        <ele>558</ele>
        <time>2011-06-11T11:21:07.000Z</time>
      </trkpt>
      <trkpt lat="45.41852" lon="2.0626">
        <ele>554.79998779297</ele>
        <time>2011-06-11T11:21:18.000Z</time>
      </trkpt>
      <trkpt lat="45.41836" lon="2.06168">
        <ele>551.79998779297</ele>
        <time>2011-06-11T11:21:26.000Z</time>
      </trkpt>
      <trkpt lat="45.41812" lon="2.06078">
        <ele>550</ele>
        <time>2011-06-11T11:21:34.000Z</time>
      </trkpt>
      <trkpt lat="45.41786" lon="2.0601">
        <ele>549.79998779297</ele>
        <time>2011-06-11T11:21:41.000Z</time>
      </trkpt>
      <trkpt lat="45.41759" lon="2.05958">
        <ele>551.40002441406</ele>
        <time>2011-06-11T11:21:48.000Z</time>
      </trkpt>
      <trkpt lat="45.41738" lon="2.05923">
        <ele>552.79998779297</ele>
        <time>2011-06-11T11:21:54.000Z</time>
      </trkpt>
      <trkpt lat="45.41705" lon="2.05876">
        <ele>555</ele>
        <time>2011-06-11T11:22:04.000Z</time>
      </trkpt>
      <trkpt lat="45.41681" lon="2.05842">
        <ele>557.40002441406</ele>
        <time>2011-06-11T11:22:12.000Z</time>
      </trkpt>
      <trkpt lat="45.41643" lon="2.0579">
        <ele>560.59997558594</ele>
        <time>2011-06-11T11:22:25.000Z</time>
      </trkpt>
      <trkpt lat="45.41617" lon="2.05756">
        <ele>562.59997558594</ele>
        <time>2011-06-11T11:22:34.000Z</time>
      </trkpt>
      <trkpt lat="45.41596" lon="2.05728">
        <ele>564.20001220703</ele>
        <time>2011-06-11T11:22:41.000Z</time>
      </trkpt>
      <trkpt lat="45.41573" lon="2.05697">
        <ele>566.40002441406</ele>
        <time>2011-06-11T11:22:49.000Z</time>
      </trkpt>
      <trkpt lat="45.41545" lon="2.05665">
        <ele>568.40002441406</ele>
        <time>2011-06-11T11:22:58.000Z</time>
      </trkpt>
      <trkpt lat="45.41506" lon="2.05636">
        <ele>570.59997558594</ele>
        <time>2011-06-11T11:23:09.000Z</time>
      </trkpt>
      <trkpt lat="45.41469" lon="2.05617">
        <ele>572.59997558594</ele>
        <time>2011-06-11T11:23:19.000Z</time>
      </trkpt>
      <trkpt lat="45.41433" lon="2.05598">
        <ele>574.40002441406</ele>
        <time>2011-06-11T11:23:29.000Z</time>
      </trkpt>
      <trkpt lat="45.41404" lon="2.05584">
        <ele>576.40002441406</ele>
        <time>2011-06-11T11:23:37.000Z</time>
      </trkpt>
      <trkpt lat="45.4138" lon="2.05572">
        <ele>578</ele>
        <time>2011-06-11T11:23:44.000Z</time>
      </trkpt>
      <trkpt lat="45.4134" lon="2.05552">
        <ele>580.59997558594</ele>
        <time>2011-06-11T11:23:56.000Z</time>
      </trkpt>
      <trkpt lat="45.41297" lon="2.0553">
        <ele>583.59997558594</ele>
        <time>2011-06-11T11:24:08.000Z</time>
      </trkpt>
      <trkpt lat="45.41245" lon="2.05504">
        <ele>587.40002441406</ele>
        <time>2011-06-11T11:24:23.000Z</time>
      </trkpt>
      <trkpt lat="45.41206" lon="2.05477">
        <ele>589.79998779297</ele>
        <time>2011-06-11T11:24:35.000Z</time>
      </trkpt>
      <trkpt lat="45.41178" lon="2.05445">
        <ele>592.40002441406</ele>
        <time>2011-06-11T11:24:45.000Z</time>
      </trkpt>
      <trkpt lat="45.41158" lon="2.0541">
        <ele>595</ele>
        <time>2011-06-11T11:24:54.000Z</time>
      </trkpt>
      <trkpt lat="45.41141" lon="2.05367">
        <ele>597.40002441406</ele>
        <time>2011-06-11T11:25:04.000Z</time>
      </trkpt>
      <trkpt lat="45.41122" lon="2.05319">
        <ele>600</ele>
        <time>2011-06-11T11:25:15.000Z</time>
      </trkpt>
      <trkpt lat="45.41108" lon="2.05283">
        <ele>602</ele>
        <time>2011-06-11T11:25:23.000Z</time>
      </trkpt>
      <trkpt lat="45.41093" lon="2.05244">
        <ele>603.59997558594</ele>
        <time>2011-06-11T11:25:31.000Z</time>
      </trkpt>
      <trkpt lat="45.4107" lon="2.05195">
        <ele>606</ele>
        <time>2011-06-11T11:25:42.000Z</time>
      </trkpt>
      <trkpt lat="45.41051" lon="2.0517">
        <ele>607.20001220703</ele>
        <time>2011-06-11T11:25:49.000Z</time>
      </trkpt>
      <trkpt lat="45.41017" lon="2.05143">
        <ele>609.40002441406</ele>
        <time>2011-06-11T11:25:59.000Z</time>
      </trkpt>
      <trkpt lat="45.40984" lon="2.05132">
        <ele>611.79998779297</ele>
        <time>2011-06-11T11:26:08.000Z</time>
      </trkpt>
      <trkpt lat="45.4094" lon="2.05132">
        <ele>613.59997558594</ele>
        <time>2011-06-11T11:26:19.000Z</time>
      </trkpt>
      <trkpt lat="45.40906" lon="2.05138">
        <ele>614.40002441406</ele>
        <time>2011-06-11T11:26:27.000Z</time>
      </trkpt>
      <trkpt lat="45.40861" lon="2.05147">
        <ele>615.79998779297</ele>
        <time>2011-06-11T11:26:37.000Z</time>
      </trkpt>
      <trkpt lat="45.40823" lon="2.05154">
        <ele>616.79998779297</ele>
        <time>2011-06-11T11:26:46.000Z</time>
      </trkpt>
      <trkpt lat="45.40779" lon="2.05157">
        <ele>618.79998779297</ele>
        <time>2011-06-11T11:26:57.000Z</time>
      </trkpt>
      <trkpt lat="45.40757" lon="2.05144">
        <ele>620.20001220703</ele>
        <time>2011-06-11T11:27:03.000Z</time>
      </trkpt>
      <trkpt lat="45.40742" lon="2.0512">
        <ele>621.59997558594</ele>
        <time>2011-06-11T11:27:09.000Z</time>
      </trkpt>
      <trkpt lat="45.40723" lon="2.05074">
        <ele>624.40002441406</ele>
        <time>2011-06-11T11:27:19.000Z</time>
      </trkpt>
      <trkpt lat="45.40702" lon="2.05022">
        <ele>626.59997558594</ele>
        <time>2011-06-11T11:27:31.000Z</time>
      </trkpt>
      <trkpt lat="45.40687" lon="2.04984">
        <ele>628</ele>
        <time>2011-06-11T11:27:39.000Z</time>
      </trkpt>
      <trkpt lat="45.40673" lon="2.04944">
        <ele>630.20001220703</ele>
        <time>2011-06-11T11:27:48.000Z</time>
      </trkpt>
      <trkpt lat="45.40664" lon="2.04917">
        <ele>631.59997558594</ele>
        <time>2011-06-11T11:27:54.000Z</time>
      </trkpt>
      <trkpt lat="45.40652" lon="2.0489">
        <ele>632.79998779297</ele>
        <time>2011-06-11T11:28:00.000Z</time>
      </trkpt>
      <trkpt lat="45.40632" lon="2.04835">
        <ele>635.20001220703</ele>
        <time>2011-06-11T11:28:12.000Z</time>
      </trkpt>
      <trkpt lat="45.40616" lon="2.04797">
        <ele>637</ele>
        <time>2011-06-11T11:28:21.000Z</time>
      </trkpt>
      <trkpt lat="45.40612" lon="2.04783">
        <ele>637.79998779297</ele>
        <time>2011-06-11T11:28:27.000Z</time>
      </trkpt>
      <trkpt lat="45.40611" lon="2.04778">
        <ele>638.59997558594</ele>
        <time>2011-06-11T11:28:31.000Z</time>
      </trkpt>
      <trkpt lat="45.40611" lon="2.04776">
        <ele>639</ele>
        <time>2011-06-11T11:28:36.000Z</time>
      </trkpt>
      <trkpt lat="45.40612" lon="2.04773">
        <ele>639</ele>
        <time>2011-06-11T11:28:42.000Z</time>
      </trkpt>
      <trkpt lat="45.40617" lon="2.04776">
        <ele>639</ele>
        <time>2011-06-11T11:39:05.000Z</time>
      </trkpt>
      <trkpt lat="45.40615" lon="2.04779">
        <ele>639.40002441406</ele>
        <time>2011-06-11T11:39:50.000Z</time>
      </trkpt>
      <trkpt lat="45.40607" lon="2.04765">
        <ele>639</ele>
        <time>2011-06-11T11:40:10.000Z</time>
      </trkpt>
      <trkpt lat="45.40606" lon="2.04762">
        <ele>639</ele>
        <time>2011-06-11T11:40:11.000Z</time>
      </trkpt>
      <trkpt lat="45.40596" lon="2.04736">
        <ele>639.59997558594</ele>
        <time>2011-06-11T11:40:19.000Z</time>
      </trkpt>
      <trkpt lat="45.40582" lon="2.04701">
        <ele>640.59997558594</ele>
        <time>2011-06-11T11:40:28.000Z</time>
      </trkpt>
      <trkpt lat="45.40567" lon="2.04673">
        <ele>641.20001220703</ele>
        <time>2011-06-11T11:40:35.000Z</time>
      </trkpt>
      <trkpt lat="45.40548" lon="2.0465">
        <ele>641.79998779297</ele>
        <time>2011-06-11T11:40:42.000Z</time>
      </trkpt>
      <trkpt lat="45.40517" lon="2.04621">
        <ele>642.20001220703</ele>
        <time>2011-06-11T11:40:51.000Z</time>
      </trkpt>
      <trkpt lat="45.40493" lon="2.04599">
        <ele>641.59997558594</ele>
        <time>2011-06-11T11:40:56.000Z</time>
      </trkpt>
      <trkpt lat="45.40467" lon="2.04589">
        <ele>640.79998779297</ele>
        <time>2011-06-11T11:41:00.000Z</time>
      </trkpt>
      <trkpt lat="45.40452" lon="2.04592">
        <ele>640</ele>
        <time>2011-06-11T11:41:02.000Z</time>
      </trkpt>
      <trkpt lat="45.40382" lon="2.04613">
        <ele>636.40002441406</ele>
        <time>2011-06-11T11:41:11.000Z</time>
      </trkpt>
      <trkpt lat="45.40328" lon="2.04628">
        <ele>634.40002441406</ele>
        <time>2011-06-11T11:41:19.000Z</time>
      </trkpt>
      <trkpt lat="45.40297" lon="2.04635">
        <ele>632.79998779297</ele>
        <time>2011-06-11T11:41:24.000Z</time>
      </trkpt>
      <trkpt lat="45.40277" lon="2.04624">
        <ele>631.59997558594</ele>
        <time>2011-06-11T11:41:28.000Z</time>
      </trkpt>
      <trkpt lat="45.40256" lon="2.04604">
        <ele>630</ele>
        <time>2011-06-11T11:41:34.000Z</time>
      </trkpt>
      <trkpt lat="45.40251" lon="2.04603">
        <ele>629.59997558594</ele>
        <time>2011-06-11T11:41:36.000Z</time>
      </trkpt>
      <trkpt lat="45.40245" lon="2.04603">
        <ele>629.20001220703</ele>
        <time>2011-06-11T11:41:39.000Z</time>
      </trkpt>
      <trkpt lat="45.40237" lon="2.04598">
        <ele>629</ele>
        <time>2011-06-11T11:41:43.000Z</time>
      </trkpt>
      <trkpt lat="45.40222" lon="2.0458">
        <ele>628.79998779297</ele>
        <time>2011-06-11T11:41:49.000Z</time>
      </trkpt>
      <trkpt lat="45.40201" lon="2.04543">
        <ele>627.59997558594</ele>
        <time>2011-06-11T11:41:56.000Z</time>
      </trkpt>
      <trkpt lat="45.40187" lon="2.04496">
        <ele>626.59997558594</ele>
        <time>2011-06-11T11:42:02.000Z</time>
      </trkpt>
      <trkpt lat="45.40182" lon="2.04447">
        <ele>625.59997558594</ele>
        <time>2011-06-11T11:42:07.000Z</time>
      </trkpt>
      <trkpt lat="45.40181" lon="2.04369">
        <ele>623.79998779297</ele>
        <time>2011-06-11T11:42:14.000Z</time>
      </trkpt>
      <trkpt lat="45.4019" lon="2.04294">
        <ele>622.79998779297</ele>
        <time>2011-06-11T11:42:21.000Z</time>
      </trkpt>
      <trkpt lat="45.40209" lon="2.04204">
        <ele>621.40002441406</ele>
        <time>2011-06-11T11:42:30.000Z</time>
      </trkpt>
      <trkpt lat="45.40205" lon="2.04151">
        <ele>620.59997558594</ele>
        <time>2011-06-11T11:42:35.000Z</time>
      </trkpt>
      <trkpt lat="45.40174" lon="2.0405">
        <ele>618.59997558594</ele>
        <time>2011-06-11T11:42:45.000Z</time>
      </trkpt>
      <trkpt lat="45.40153" lon="2.0399">
        <ele>617.40002441406</ele>
        <time>2011-06-11T11:42:51.000Z</time>
      </trkpt>
      <trkpt lat="45.40119" lon="2.03945">
        <ele>616.40002441406</ele>
        <time>2011-06-11T11:42:57.000Z</time>
      </trkpt>
      <trkpt lat="45.40096" lon="2.03912">
        <ele>615.20001220703</ele>
        <time>2011-06-11T11:43:01.000Z</time>
      </trkpt>
      <trkpt lat="45.40069" lon="2.03885">
        <ele>613.79998779297</ele>
        <time>2011-06-11T11:43:05.000Z</time>
      </trkpt>
      <trkpt lat="45.4002" lon="2.0382">
        <ele>610.59997558594</ele>
        <time>2011-06-11T11:43:12.000Z</time>
      </trkpt>
      <trkpt lat="45.39957" lon="2.03741">
        <ele>605.79998779297</ele>
        <time>2011-06-11T11:43:20.000Z</time>
      </trkpt>
      <trkpt lat="45.39875" lon="2.03639">
        <ele>598.59997558594</ele>
        <time>2011-06-11T11:43:30.000Z</time>
      </trkpt>
      <trkpt lat="45.39866" lon="2.03629">
        <ele>598.59997558594</ele>
        <time>2011-06-11T11:43:31.000Z</time>
      </trkpt>
      <trkpt lat="45.39815" lon="2.03564">
        <ele>595.20001220703</ele>
        <time>2011-06-11T11:43:38.000Z</time>
      </trkpt>
      <trkpt lat="45.39769" lon="2.03506">
        <ele>594.20001220703</ele>
        <time>2011-06-11T11:43:45.000Z</time>
      </trkpt>
      <trkpt lat="45.39722" lon="2.03447">
        <ele>594.79998779297</ele>
        <time>2011-06-11T11:43:53.000Z</time>
      </trkpt>
      <trkpt lat="45.39682" lon="2.03396">
        <ele>595.40002441406</ele>
        <time>2011-06-11T11:44:01.000Z</time>
      </trkpt>
      <trkpt lat="45.39643" lon="2.03347">
        <ele>597.20001220703</ele>
        <time>2011-06-11T11:44:10.000Z</time>
      </trkpt>
      <trkpt lat="45.39601" lon="2.03295">
        <ele>597</ele>
        <time>2011-06-11T11:44:19.000Z</time>
      </trkpt>
      <trkpt lat="45.39552" lon="2.03234">
        <ele>596</ele>
        <time>2011-06-11T11:44:28.000Z</time>
      </trkpt>
      <trkpt lat="45.39517" lon="2.03188">
        <ele>594.59997558594</ele>
        <time>2011-06-11T11:44:34.000Z</time>
      </trkpt>
      <trkpt lat="45.39489" lon="2.03161">
        <ele>593.20001220703</ele>
        <time>2011-06-11T11:44:38.000Z</time>
      </trkpt>
      <trkpt lat="45.39449" lon="2.03138">
        <ele>592.40002441406</ele>
        <time>2011-06-11T11:44:43.000Z</time>
      </trkpt>
      <trkpt lat="45.39406" lon="2.03126">
        <ele>591.40002441406</ele>
        <time>2011-06-11T11:44:48.000Z</time>
      </trkpt>
      <trkpt lat="45.3936" lon="2.03127">
        <ele>590.20001220703</ele>
        <time>2011-06-11T11:44:53.000Z</time>
      </trkpt>
      <trkpt lat="45.39308" lon="2.03141">
        <ele>588.20001220703</ele>
        <time>2011-06-11T11:44:59.000Z</time>
      </trkpt>
      <trkpt lat="45.39291" lon="2.03143">
        <ele>587.59997558594</ele>
        <time>2011-06-11T11:45:01.000Z</time>
      </trkpt>
      <trkpt lat="45.3926" lon="2.03134">
        <ele>587.20001220703</ele>
        <time>2011-06-11T11:45:05.000Z</time>
      </trkpt>
      <trkpt lat="45.39246" lon="2.03137">
        <ele>587.40002441406</ele>
        <time>2011-06-11T11:45:07.000Z</time>
      </trkpt>
      <trkpt lat="45.3921" lon="2.03134">
        <ele>587.20001220703</ele>
        <time>2011-06-11T11:45:12.000Z</time>
      </trkpt>
      <trkpt lat="45.39153" lon="2.03107">
        <ele>585.59997558594</ele>
        <time>2011-06-11T11:45:19.000Z</time>
      </trkpt>
      <trkpt lat="45.39089" lon="2.03075">
        <ele>582.59997558594</ele>
        <time>2011-06-11T11:45:26.000Z</time>
      </trkpt>
      <trkpt lat="45.39005" lon="2.03029">
        <ele>579</ele>
        <time>2011-06-11T11:45:35.000Z</time>
      </trkpt>
      <trkpt lat="45.38939" lon="2.02979">
        <ele>578.20001220703</ele>
        <time>2011-06-11T11:45:43.000Z</time>
      </trkpt>
      <trkpt lat="45.38893" lon="2.0294">
        <ele>577.20001220703</ele>
        <time>2011-06-11T11:45:49.000Z</time>
      </trkpt>
      <trkpt lat="45.38829" lon="2.02875">
        <ele>576.40002441406</ele>
        <time>2011-06-11T11:45:58.000Z</time>
      </trkpt>
      <trkpt lat="45.38791" lon="2.02825">
        <ele>576.20001220703</ele>
        <time>2011-06-11T11:46:04.000Z</time>
      </trkpt>
      <trkpt lat="45.38751" lon="2.02749">
        <ele>575.40002441406</ele>
        <time>2011-06-11T11:46:12.000Z</time>
      </trkpt>
      <trkpt lat="45.38711" lon="2.02674">
        <ele>575</ele>
        <time>2011-06-11T11:46:20.000Z</time>
      </trkpt>
      <trkpt lat="45.38676" lon="2.02608">
        <ele>575.40002441406</ele>
        <time>2011-06-11T11:46:28.000Z</time>
      </trkpt>
      <trkpt lat="45.38637" lon="2.02533">
        <ele>575.59997558594</ele>
        <time>2011-06-11T11:46:38.000Z</time>
      </trkpt>
      <trkpt lat="45.38606" lon="2.02473">
        <ele>577.20001220703</ele>
        <time>2011-06-11T11:46:47.000Z</time>
      </trkpt>
      <trkpt lat="45.38568" lon="2.02402">
        <ele>579.20001220703</ele>
        <time>2011-06-11T11:46:59.000Z</time>
      </trkpt>
      <trkpt lat="45.38533" lon="2.0233">
        <ele>581.59997558594</ele>
        <time>2011-06-11T11:47:12.000Z</time>
      </trkpt>
      <trkpt lat="45.38516" lon="2.02286">
        <ele>582.40002441406</ele>
        <time>2011-06-11T11:47:19.000Z</time>
      </trkpt>
      <trkpt lat="45.385" lon="2.02235">
        <ele>584</ele>
        <time>2011-06-11T11:47:27.000Z</time>
      </trkpt>
      <trkpt lat="45.38487" lon="2.02182">
        <ele>585.20001220703</ele>
        <time>2011-06-11T11:47:35.000Z</time>
      </trkpt>
      <trkpt lat="45.38475" lon="2.02122">
        <ele>586.20001220703</ele>
        <time>2011-06-11T11:47:44.000Z</time>
      </trkpt>
      <trkpt lat="45.38459" lon="2.02042">
        <ele>588</ele>
        <time>2011-06-11T11:47:56.000Z</time>
      </trkpt>
      <trkpt lat="45.38442" lon="2.01977">
        <ele>589.79998779297</ele>
        <time>2011-06-11T11:48:06.000Z</time>
      </trkpt>
      <trkpt lat="45.38422" lon="2.01923">
        <ele>591.40002441406</ele>
        <time>2011-06-11T11:48:15.000Z</time>
      </trkpt>
      <trkpt lat="45.38393" lon="2.01855">
        <ele>592.59997558594</ele>
        <time>2011-06-11T11:48:26.000Z</time>
      </trkpt>
      <trkpt lat="45.38363" lon="2.01787">
        <ele>592.79998779297</ele>
        <time>2011-06-11T11:48:36.000Z</time>
      </trkpt>
      <trkpt lat="45.38323" lon="2.01709">
        <ele>593.20001220703</ele>
        <time>2011-06-11T11:48:47.000Z</time>
      </trkpt>
      <trkpt lat="45.38279" lon="2.01638">
        <ele>592.79998779297</ele>
        <time>2011-06-11T11:48:57.000Z</time>
      </trkpt>
      <trkpt lat="45.38233" lon="2.01571">
        <ele>592.79998779297</ele>
        <time>2011-06-11T11:49:07.000Z</time>
      </trkpt>
      <trkpt lat="45.38201" lon="2.01524">
        <ele>593.40002441406</ele>
        <time>2011-06-11T11:49:15.000Z</time>
      </trkpt>
      <trkpt lat="45.38167" lon="2.0148">
        <ele>594.59997558594</ele>
        <time>2011-06-11T11:49:23.000Z</time>
      </trkpt>
      <trkpt lat="45.3813" lon="2.01433">
        <ele>595.40002441406</ele>
        <time>2011-06-11T11:49:32.000Z</time>
      </trkpt>
      <trkpt lat="45.38105" lon="2.01402">
        <ele>596.20001220703</ele>
        <time>2011-06-11T11:49:38.000Z</time>
      </trkpt>
      <trkpt lat="45.38051" lon="2.01336">
        <ele>597.20001220703</ele>
        <time>2011-06-11T11:49:51.000Z</time>
      </trkpt>
      <trkpt lat="45.38007" lon="2.01283">
        <ele>598.79998779297</ele>
        <time>2011-06-11T11:50:02.000Z</time>
      </trkpt>
      <trkpt lat="45.37978" lon="2.01246">
        <ele>599.59997558594</ele>
        <time>2011-06-11T11:50:09.000Z</time>
      </trkpt>
      <trkpt lat="45.37943" lon="2.01203">
        <ele>599.40002441406</ele>
        <time>2011-06-11T11:50:16.000Z</time>
      </trkpt>
      <trkpt lat="45.37898" lon="2.01145">
        <ele>597.79998779297</ele>
        <time>2011-06-11T11:50:24.000Z</time>
      </trkpt>
      <trkpt lat="45.37855" lon="2.01092">
        <ele>595.79998779297</ele>
        <time>2011-06-11T11:50:31.000Z</time>
      </trkpt>
      <trkpt lat="45.37794" lon="2.01016">
        <ele>595</ele>
        <time>2011-06-11T11:50:41.000Z</time>
      </trkpt>
      <trkpt lat="45.37733" lon="2.0094">
        <ele>594.40002441406</ele>
        <time>2011-06-11T11:50:51.000Z</time>
      </trkpt>
      <trkpt lat="45.37693" lon="2.00891">
        <ele>592.40002441406</ele>
        <time>2011-06-11T11:50:57.000Z</time>
      </trkpt>
      <trkpt lat="45.37628" lon="2.00807">
        <ele>589.20001220703</ele>
        <time>2011-06-11T11:51:06.000Z</time>
      </trkpt>
      <trkpt lat="45.37556" lon="2.00717">
        <ele>585.20001220703</ele>
        <time>2011-06-11T11:51:15.000Z</time>
      </trkpt>
      <trkpt lat="45.37491" lon="2.00639">
        <ele>581.59997558594</ele>
        <time>2011-06-11T11:51:23.000Z</time>
      </trkpt>
      <trkpt lat="45.37446" lon="2.00576">
        <ele>579.40002441406</ele>
        <time>2011-06-11T11:51:29.000Z</time>
      </trkpt>
      <trkpt lat="45.37387" lon="2.00502">
        <ele>577.79998779297</ele>
        <time>2011-06-11T11:51:37.000Z</time>
      </trkpt>
      <trkpt lat="45.37333" lon="2.00434">
        <ele>577</ele>
        <time>2011-06-11T11:51:45.000Z</time>
      </trkpt>
      <trkpt lat="45.37293" lon="2.00384">
        <ele>578</ele>
        <time>2011-06-11T11:51:52.000Z</time>
      </trkpt>
      <trkpt lat="45.37261" lon="2.00344">
        <ele>579.20001220703</ele>
        <time>2011-06-11T11:51:59.000Z</time>
      </trkpt>
      <trkpt lat="45.37232" lon="2.00308">
        <ele>581</ele>
        <time>2011-06-11T11:52:06.000Z</time>
      </trkpt>
      <trkpt lat="45.37203" lon="2.00272">
        <ele>582.20001220703</ele>
        <time>2011-06-11T11:52:13.000Z</time>
      </trkpt>
      <trkpt lat="45.37159" lon="2.00215">
        <ele>583.40002441406</ele>
        <time>2011-06-11T11:52:24.000Z</time>
      </trkpt>
      <trkpt lat="45.37122" lon="2.00168">
        <ele>585.40002441406</ele>
        <time>2011-06-11T11:52:34.000Z</time>
      </trkpt>
      <trkpt lat="45.37093" lon="2.00129">
        <ele>587.40002441406</ele>
        <time>2011-06-11T11:52:43.000Z</time>
      </trkpt>
      <trkpt lat="45.37079" lon="2.00108">
        <ele>588.20001220703</ele>
        <time>2011-06-11T11:52:48.000Z</time>
      </trkpt>
      <trkpt lat="45.37053" lon="2.00074">
        <ele>590.20001220703</ele>
        <time>2011-06-11T11:52:56.000Z</time>
      </trkpt>
      <trkpt lat="45.37033" lon="2.0005">
        <ele>591.20001220703</ele>
        <time>2011-06-11T11:53:02.000Z</time>
      </trkpt>
      <trkpt lat="45.37022" lon="2.00029">
        <ele>592.20001220703</ele>
        <time>2011-06-11T11:53:07.000Z</time>
      </trkpt>
      <trkpt lat="45.36996" lon="1.99988">
        <ele>593.59997558594</ele>
        <time>2011-06-11T11:53:15.000Z</time>
      </trkpt>
      <trkpt lat="45.36972" lon="1.99942">
        <ele>595</ele>
        <time>2011-06-11T11:53:24.000Z</time>
      </trkpt>
      <trkpt lat="45.36946" lon="1.9988">
        <ele>596.59997558594</ele>
        <time>2011-06-11T11:53:35.000Z</time>
      </trkpt>
      <trkpt lat="45.36928" lon="1.99832">
        <ele>597.59997558594</ele>
        <time>2011-06-11T11:53:43.000Z</time>
      </trkpt>
      <trkpt lat="45.36901" lon="1.99762">
        <ele>598.59997558594</ele>
        <time>2011-06-11T11:53:54.000Z</time>
      </trkpt>
      <trkpt lat="45.36874" lon="1.99692">
        <ele>600.20001220703</ele>
        <time>2011-06-11T11:54:05.000Z</time>
      </trkpt>
      <trkpt lat="45.36854" lon="1.99642">
        <ele>600.79998779297</ele>
        <time>2011-06-11T11:54:13.000Z</time>
      </trkpt>
      <trkpt lat="45.36821" lon="1.99569">
        <ele>602.59997558594</ele>
        <time>2011-06-11T11:54:25.000Z</time>
      </trkpt>
      <trkpt lat="45.36793" lon="1.99519">
        <ele>603.40002441406</ele>
        <time>2011-06-11T11:54:34.000Z</time>
      </trkpt>
      <trkpt lat="45.3676" lon="1.99471">
        <ele>604.79998779297</ele>
        <time>2011-06-11T11:54:43.000Z</time>
      </trkpt>
      <trkpt lat="45.36723" lon="1.99428">
        <ele>605.59997558594</ele>
        <time>2011-06-11T11:54:52.000Z</time>
      </trkpt>
      <trkpt lat="45.36696" lon="1.994">
        <ele>606.59997558594</ele>
        <time>2011-06-11T11:54:59.000Z</time>
      </trkpt>
      <trkpt lat="45.36671" lon="1.99377">
        <ele>607.20001220703</ele>
        <time>2011-06-11T11:55:05.000Z</time>
      </trkpt>
      <trkpt lat="45.36646" lon="1.99354">
        <ele>608.20001220703</ele>
        <time>2011-06-11T11:55:11.000Z</time>
      </trkpt>
      <trkpt lat="45.36642" lon="1.99351">
        <ele>608.20001220703</ele>
        <time>2011-06-11T11:55:12.000Z</time>
      </trkpt>
      <trkpt lat="45.36614" lon="1.99326">
        <ele>609.20001220703</ele>
        <time>2011-06-11T11:55:19.000Z</time>
      </trkpt>
      <trkpt lat="45.36594" lon="1.99309">
        <ele>609.79998779297</ele>
        <time>2011-06-11T11:55:24.000Z</time>
      </trkpt>
      <trkpt lat="45.36567" lon="1.99285">
        <ele>610.79998779297</ele>
        <time>2011-06-11T11:55:30.000Z</time>
      </trkpt>
      <trkpt lat="45.3656" lon="1.99277">
        <ele>611</ele>
        <time>2011-06-11T11:55:32.000Z</time>
      </trkpt>
      <trkpt lat="45.36521" lon="1.99245">
        <ele>613</ele>
        <time>2011-06-11T11:55:41.000Z</time>
      </trkpt>
      <trkpt lat="45.36485" lon="1.9921">
        <ele>614</ele>
        <time>2011-06-11T11:55:50.000Z</time>
      </trkpt>
      <trkpt lat="45.36447" lon="1.99171">
        <ele>615.40002441406</ele>
        <time>2011-06-11T11:55:59.000Z</time>
      </trkpt>
      <trkpt lat="45.36409" lon="1.99124">
        <ele>616.79998779297</ele>
        <time>2011-06-11T11:56:09.000Z</time>
      </trkpt>
      <trkpt lat="45.36381" lon="1.99084">
        <ele>617.59997558594</ele>
        <time>2011-06-11T11:56:17.000Z</time>
      </trkpt>
      <trkpt lat="45.36337" lon="1.99022">
        <ele>618.59997558594</ele>
        <time>2011-06-11T11:56:29.000Z</time>
      </trkpt>
      <trkpt lat="45.36287" lon="1.98951">
        <ele>619.79998779297</ele>
        <time>2011-06-11T11:56:42.000Z</time>
      </trkpt>
      <trkpt lat="45.36249" lon="1.98895">
        <ele>620.40002441406</ele>
        <time>2011-06-11T11:56:52.000Z</time>
      </trkpt>
      <trkpt lat="45.36204" lon="1.9883">
        <ele>620.79998779297</ele>
        <time>2011-06-11T11:57:03.000Z</time>
      </trkpt>
      <trkpt lat="45.36159" lon="1.98767">
        <ele>621.20001220703</ele>
        <time>2011-06-11T11:57:13.000Z</time>
      </trkpt>
      <trkpt lat="45.36127" lon="1.9872">
        <ele>621.40002441406</ele>
        <time>2011-06-11T11:57:20.000Z</time>
      </trkpt>
      <trkpt lat="45.36086" lon="1.98661">
        <ele>620.79998779297</ele>
        <time>2011-06-11T11:57:29.000Z</time>
      </trkpt>
      <trkpt lat="45.36036" lon="1.98584">
        <ele>620.40002441406</ele>
        <time>2011-06-11T11:57:40.000Z</time>
      </trkpt>
      <trkpt lat="45.36006" lon="1.98525">
        <ele>619.59997558594</ele>
        <time>2011-06-11T11:57:47.000Z</time>
      </trkpt>
      <trkpt lat="45.35964" lon="1.98435">
        <ele>618</ele>
        <time>2011-06-11T11:57:57.000Z</time>
      </trkpt>
      <trkpt lat="45.35926" lon="1.98342">
        <ele>616.40002441406</ele>
        <time>2011-06-11T11:58:07.000Z</time>
      </trkpt>
      <trkpt lat="45.35891" lon="1.98258">
        <ele>615.20001220703</ele>
        <time>2011-06-11T11:58:16.000Z</time>
      </trkpt>
      <trkpt lat="45.3585" lon="1.98162">
        <ele>614.20001220703</ele>
        <time>2011-06-11T11:58:26.000Z</time>
      </trkpt>
      <trkpt lat="45.35818" lon="1.98081">
        <ele>614</ele>
        <time>2011-06-11T11:58:35.000Z</time>
      </trkpt>
      <trkpt lat="45.35785" lon="1.98">
        <ele>615.20001220703</ele>
        <time>2011-06-11T11:58:45.000Z</time>
      </trkpt>
      <trkpt lat="45.35753" lon="1.97922">
        <ele>615.79998779297</ele>
        <time>2011-06-11T11:58:55.000Z</time>
      </trkpt>
      <trkpt lat="45.35725" lon="1.97853">
        <ele>615.20001220703</ele>
        <time>2011-06-11T11:59:03.000Z</time>
      </trkpt>
      <trkpt lat="45.35698" lon="1.97788">
        <ele>614.40002441406</ele>
        <time>2011-06-11T11:59:10.000Z</time>
      </trkpt>
      <trkpt lat="45.35659" lon="1.97694">
        <ele>613.40002441406</ele>
        <time>2011-06-11T11:59:20.000Z</time>
      </trkpt>
      <trkpt lat="45.35625" lon="1.97603">
        <ele>612</ele>
        <time>2011-06-11T11:59:29.000Z</time>
      </trkpt>
      <trkpt lat="45.35603" lon="1.97525">
        <ele>611.20001220703</ele>
        <time>2011-06-11T11:59:36.000Z</time>
      </trkpt>
      <trkpt lat="45.35595" lon="1.9746">
        <ele>610.40002441406</ele>
        <time>2011-06-11T11:59:42.000Z</time>
      </trkpt>
      <trkpt lat="45.35602" lon="1.97391">
        <ele>609.20001220703</ele>
        <time>2011-06-11T11:59:48.000Z</time>
      </trkpt>
      <trkpt lat="45.35614" lon="1.97313">
        <ele>607.40002441406</ele>
        <time>2011-06-11T11:59:54.000Z</time>
      </trkpt>
      <trkpt lat="45.35627" lon="1.97212">
        <ele>604.79998779297</ele>
        <time>2011-06-11T12:00:01.000Z</time>
      </trkpt>
      <trkpt lat="45.35621" lon="1.97141">
        <ele>602.40002441406</ele>
        <time>2011-06-11T12:00:06.000Z</time>
      </trkpt>
      <trkpt lat="45.35604" lon="1.97091">
        <ele>601.20001220703</ele>
        <time>2011-06-11T12:00:10.000Z</time>
      </trkpt>
      <trkpt lat="45.35588" lon="1.97061">
        <ele>600.79998779297</ele>
        <time>2011-06-11T12:00:13.000Z</time>
      </trkpt>
      <trkpt lat="45.35552" lon="1.97022">
        <ele>602.20001220703</ele>
        <time>2011-06-11T12:00:19.000Z</time>
      </trkpt>
      <trkpt lat="45.3552" lon="1.96998">
        <ele>603.79998779297</ele>
        <time>2011-06-11T12:00:25.000Z</time>
      </trkpt>
      <trkpt lat="45.35471" lon="1.96964">
        <ele>604.40002441406</ele>
        <time>2011-06-11T12:00:33.000Z</time>
      </trkpt>
      <trkpt lat="45.35408" lon="1.96917">
        <ele>603.59997558594</ele>
        <time>2011-06-11T12:00:43.000Z</time>
      </trkpt>
      <trkpt lat="45.35373" lon="1.96882">
        <ele>603.20001220703</ele>
        <time>2011-06-11T12:00:49.000Z</time>
      </trkpt>
      <trkpt lat="45.35343" lon="1.96834">
        <ele>602.59997558594</ele>
        <time>2011-06-11T12:00:55.000Z</time>
      </trkpt>
      <trkpt lat="45.35326" lon="1.96782">
        <ele>601.40002441406</ele>
        <time>2011-06-11T12:01:00.000Z</time>
      </trkpt>
      <trkpt lat="45.35299" lon="1.96701">
        <ele>599.20001220703</ele>
        <time>2011-06-11T12:01:07.000Z</time>
      </trkpt>
      <trkpt lat="45.35266" lon="1.96594">
        <ele>596.79998779297</ele>
        <time>2011-06-11T12:01:16.000Z</time>
      </trkpt>
      <trkpt lat="45.35225" lon="1.96467">
        <ele>593.79998779297</ele>
        <time>2011-06-11T12:01:27.000Z</time>
      </trkpt>
      <trkpt lat="45.35195" lon="1.96374">
        <ele>590.79998779297</ele>
        <time>2011-06-11T12:01:34.000Z</time>
      </trkpt>
      <trkpt lat="45.35163" lon="1.96277">
        <ele>587.20001220703</ele>
        <time>2011-06-11T12:01:41.000Z</time>
      </trkpt>
      <trkpt lat="45.35127" lon="1.9616">
        <ele>582</ele>
        <time>2011-06-11T12:01:49.000Z</time>
      </trkpt>
      <trkpt lat="45.35082" lon="1.96017">
        <ele>575.59997558594</ele>
        <time>2011-06-11T12:01:58.000Z</time>
      </trkpt>
      <trkpt lat="45.35044" lon="1.95899">
        <ele>571</ele>
        <time>2011-06-11T12:02:05.000Z</time>
      </trkpt>
      <trkpt lat="45.3501" lon="1.95789">
        <ele>569</ele>
        <time>2011-06-11T12:02:12.000Z</time>
      </trkpt>
      <trkpt lat="45.34983" lon="1.95707">
        <ele>568.79998779297</ele>
        <time>2011-06-11T12:02:18.000Z</time>
      </trkpt>
      <trkpt lat="45.34956" lon="1.95622">
        <ele>568.40002441406</ele>
        <time>2011-06-11T12:02:25.000Z</time>
      </trkpt>
      <trkpt lat="45.34931" lon="1.95543">
        <ele>568.20001220703</ele>
        <time>2011-06-11T12:02:32.000Z</time>
      </trkpt>
      <trkpt lat="45.3489" lon="1.95422">
        <ele>567.20001220703</ele>
        <time>2011-06-11T12:02:43.000Z</time>
      </trkpt>
      <trkpt lat="45.34864" lon="1.95356">
        <ele>567.20001220703</ele>
        <time>2011-06-11T12:02:50.000Z</time>
      </trkpt>
      <trkpt lat="45.34835" lon="1.9529">
        <ele>568.20001220703</ele>
        <time>2011-06-11T12:02:58.000Z</time>
      </trkpt>
      <trkpt lat="45.34806" lon="1.95234">
        <ele>569.59997558594</ele>
        <time>2011-06-11T12:03:06.000Z</time>
      </trkpt>
      <trkpt lat="45.34758" lon="1.95151">
        <ele>570.20001220703</ele>
        <time>2011-06-11T12:03:18.000Z</time>
      </trkpt>
      <trkpt lat="45.34734" lon="1.95105">
        <ele>570.20001220703</ele>
        <time>2011-06-11T12:03:24.000Z</time>
      </trkpt>
      <trkpt lat="45.34698" lon="1.95029">
        <ele>569.20001220703</ele>
        <time>2011-06-11T12:03:33.000Z</time>
      </trkpt>
      <trkpt lat="45.34666" lon="1.94956">
        <ele>568</ele>
        <time>2011-06-11T12:03:41.000Z</time>
      </trkpt>
      <trkpt lat="45.34646" lon="1.94909">
        <ele>567.59997558594</ele>
        <time>2011-06-11T12:03:46.000Z</time>
      </trkpt>
      <trkpt lat="45.34613" lon="1.94839">
        <ele>566.20001220703</ele>
        <time>2011-06-11T12:03:53.000Z</time>
      </trkpt>
      <trkpt lat="45.34578" lon="1.94766">
        <ele>565.20001220703</ele>
        <time>2011-06-11T12:04:00.000Z</time>
      </trkpt>
      <trkpt lat="45.34554" lon="1.94698">
        <ele>564</ele>
        <time>2011-06-11T12:04:06.000Z</time>
      </trkpt>
      <trkpt lat="45.34545" lon="1.94637">
        <ele>563.40002441406</ele>
        <time>2011-06-11T12:04:11.000Z</time>
      </trkpt>
      <trkpt lat="45.34546" lon="1.94576">
        <ele>562.59997558594</ele>
        <time>2011-06-11T12:04:16.000Z</time>
      </trkpt>
      <trkpt lat="45.34557" lon="1.94478">
        <ele>561</ele>
        <time>2011-06-11T12:04:24.000Z</time>
      </trkpt>
      <trkpt lat="45.34566" lon="1.94396">
        <ele>559.20001220703</ele>
        <time>2011-06-11T12:04:30.000Z</time>
      </trkpt>
      <trkpt lat="45.34562" lon="1.94321">
        <ele>555.59997558594</ele>
        <time>2011-06-11T12:04:35.000Z</time>
      </trkpt>
      <trkpt lat="45.34557" lon="1.94289">
        <ele>554.59997558594</ele>
        <time>2011-06-11T12:04:37.000Z</time>
      </trkpt>
      <trkpt lat="45.34541" lon="1.94175">
        <ele>549.40002441406</ele>
        <time>2011-06-11T12:04:44.000Z</time>
      </trkpt>
      <trkpt lat="45.34539" lon="1.94161">
        <ele>549</ele>
        <time>2011-06-11T12:04:45.000Z</time>
      </trkpt>
      <trkpt lat="45.34531" lon="1.94099">
        <ele>549.20001220703</ele>
        <time>2011-06-11T12:04:50.000Z</time>
      </trkpt>
      <trkpt lat="45.34525" lon="1.94055">
        <ele>550.40002441406</ele>
        <time>2011-06-11T12:04:54.000Z</time>
      </trkpt>
      <trkpt lat="45.34513" lon="1.93994">
        <ele>552</ele>
        <time>2011-06-11T12:05:01.000Z</time>
      </trkpt>
      <trkpt lat="45.34498" lon="1.93939">
        <ele>553.20001220703</ele>
        <time>2011-06-11T12:05:08.000Z</time>
      </trkpt>
      <trkpt lat="45.34471" lon="1.93885">
        <ele>554.59997558594</ele>
        <time>2011-06-11T12:05:16.000Z</time>
      </trkpt>
      <trkpt lat="45.34436" lon="1.9384">
        <ele>555.40002441406</ele>
        <time>2011-06-11T12:05:24.000Z</time>
      </trkpt>
      <trkpt lat="45.34384" lon="1.93777">
        <ele>556.59997558594</ele>
        <time>2011-06-11T12:05:36.000Z</time>
      </trkpt>
      <trkpt lat="45.3435" lon="1.93717">
        <ele>556.79998779297</ele>
        <time>2011-06-11T12:05:45.000Z</time>
      </trkpt>
      <trkpt lat="45.34326" lon="1.93654">
        <ele>556.79998779297</ele>
        <time>2011-06-11T12:05:53.000Z</time>
      </trkpt>
      <trkpt lat="45.34294" lon="1.93556">
        <ele>556.20001220703</ele>
        <time>2011-06-11T12:06:04.000Z</time>
      </trkpt>
      <trkpt lat="45.34265" lon="1.93464">
        <ele>555.40002441406</ele>
        <time>2011-06-11T12:06:14.000Z</time>
      </trkpt>
      <trkpt lat="45.34232" lon="1.93365">
        <ele>554.59997558594</ele>
        <time>2011-06-11T12:06:24.000Z</time>
      </trkpt>
      <trkpt lat="45.34199" lon="1.9326">
        <ele>552.59997558594</ele>
        <time>2011-06-11T12:06:34.000Z</time>
      </trkpt>
      <trkpt lat="45.34172" lon="1.93169">
        <ele>553</ele>
        <time>2011-06-11T12:06:43.000Z</time>
      </trkpt>
      <trkpt lat="45.34141" lon="1.93068">
        <ele>553.40002441406</ele>
        <time>2011-06-11T12:06:54.000Z</time>
      </trkpt>
      <trkpt lat="45.34112" lon="1.92983">
        <ele>554.20001220703</ele>
        <time>2011-06-11T12:07:04.000Z</time>
      </trkpt>
      <trkpt lat="45.34076" lon="1.92881">
        <ele>555.59997558594</ele>
        <time>2011-06-11T12:07:16.000Z</time>
      </trkpt>
      <trkpt lat="45.34055" lon="1.92821">
        <ele>556</ele>
        <time>2011-06-11T12:07:23.000Z</time>
      </trkpt>
      <trkpt lat="45.34031" lon="1.92758">
        <ele>556</ele>
        <time>2011-06-11T12:07:30.000Z</time>
      </trkpt>
      <trkpt lat="45.33999" lon="1.92688">
        <ele>555.79998779297</ele>
        <time>2011-06-11T12:07:38.000Z</time>
      </trkpt>
      <trkpt lat="45.33952" lon="1.92603">
        <ele>554.79998779297</ele>
        <time>2011-06-11T12:07:48.000Z</time>
      </trkpt>
      <trkpt lat="45.33902" lon="1.92527">
        <ele>553.40002441406</ele>
        <time>2011-06-11T12:07:57.000Z</time>
      </trkpt>
      <trkpt lat="45.3385" lon="1.92458">
        <ele>551.79998779297</ele>
        <time>2011-06-11T12:08:06.000Z</time>
      </trkpt>
      <trkpt lat="45.33793" lon="1.92383">
        <ele>550.40002441406</ele>
        <time>2011-06-11T12:08:16.000Z</time>
      </trkpt>
      <trkpt lat="45.3374" lon="1.92313">
        <ele>548.79998779297</ele>
        <time>2011-06-11T12:08:25.000Z</time>
      </trkpt>
      <trkpt lat="45.33675" lon="1.92225">
        <ele>546.59997558594</ele>
        <time>2011-06-11T12:08:36.000Z</time>
      </trkpt>
      <trkpt lat="45.33619" lon="1.9215">
        <ele>545.20001220703</ele>
        <time>2011-06-11T12:08:45.000Z</time>
      </trkpt>
      <trkpt lat="45.33566" lon="1.92074">
        <ele>544.79998779297</ele>
        <time>2011-06-11T12:08:54.000Z</time>
      </trkpt>
      <trkpt lat="45.33533" lon="1.92017">
        <ele>545</ele>
        <time>2011-06-11T12:09:01.000Z</time>
      </trkpt>
      <trkpt lat="45.33503" lon="1.91942">
        <ele>546.20001220703</ele>
        <time>2011-06-11T12:09:10.000Z</time>
      </trkpt>
      <trkpt lat="45.33486" lon="1.91883">
        <ele>547</ele>
        <time>2011-06-11T12:09:17.000Z</time>
      </trkpt>
      <trkpt lat="45.33475" lon="1.91811">
        <ele>548</ele>
        <time>2011-06-11T12:09:26.000Z</time>
      </trkpt>
      <trkpt lat="45.33468" lon="1.91728">
        <ele>549</ele>
        <time>2011-06-11T12:09:36.000Z</time>
      </trkpt>
      <trkpt lat="45.3346" lon="1.91656">
        <ele>550</ele>
        <time>2011-06-11T12:09:45.000Z</time>
      </trkpt>
      <trkpt lat="45.33455" lon="1.91597">
        <ele>551</ele>
        <time>2011-06-11T12:09:52.000Z</time>
      </trkpt>
      <trkpt lat="45.3345" lon="1.9153">
        <ele>551.59997558594</ele>
        <time>2011-06-11T12:10:00.000Z</time>
      </trkpt>
      <trkpt lat="45.33445" lon="1.91462">
        <ele>552</ele>
        <time>2011-06-11T12:10:08.000Z</time>
      </trkpt>
      <trkpt lat="45.33441" lon="1.91387">
        <ele>552.59997558594</ele>
        <time>2011-06-11T12:10:17.000Z</time>
      </trkpt>
      <trkpt lat="45.33439" lon="1.91316">
        <ele>553.59997558594</ele>
        <time>2011-06-11T12:10:26.000Z</time>
      </trkpt>
      <trkpt lat="45.33437" lon="1.91229">
        <ele>554.59997558594</ele>
        <time>2011-06-11T12:10:37.000Z</time>
      </trkpt>
      <trkpt lat="45.33441" lon="1.91174">
        <ele>555.40002441406</ele>
        <time>2011-06-11T12:10:44.000Z</time>
      </trkpt>
      <trkpt lat="45.33454" lon="1.9111">
        <ele>556.40002441406</ele>
        <time>2011-06-11T12:10:52.000Z</time>
      </trkpt>
      <trkpt lat="45.3347" lon="1.9104">
        <ele>557</ele>
        <time>2011-06-11T12:11:01.000Z</time>
      </trkpt>
      <trkpt lat="45.33488" lon="1.90963">
        <ele>558</ele>
        <time>2011-06-11T12:11:11.000Z</time>
      </trkpt>
      <trkpt lat="45.33508" lon="1.90887">
        <ele>558.59997558594</ele>
        <time>2011-06-11T12:11:21.000Z</time>
      </trkpt>
      <trkpt lat="45.33521" lon="1.90835">
        <ele>559.20001220703</ele>
        <time>2011-06-11T12:11:28.000Z</time>
      </trkpt>
      <trkpt lat="45.33536" lon="1.90781">
        <ele>559.79998779297</ele>
        <time>2011-06-11T12:11:35.000Z</time>
      </trkpt>
      <trkpt lat="45.33555" lon="1.90711">
        <ele>560.20001220703</ele>
        <time>2011-06-11T12:11:44.000Z</time>
      </trkpt>
      <trkpt lat="45.33573" lon="1.90646">
        <ele>561.20001220703</ele>
        <time>2011-06-11T12:11:53.000Z</time>
      </trkpt>
      <trkpt lat="45.33587" lon="1.90596">
        <ele>561.40002441406</ele>
        <time>2011-06-11T12:11:59.000Z</time>
      </trkpt>
      <trkpt lat="45.33607" lon="1.90527">
        <ele>559.59997558594</ele>
        <time>2011-06-11T12:12:06.000Z</time>
      </trkpt>
      <trkpt lat="45.33614" lon="1.90493">
        <ele>558.59997558594</ele>
        <time>2011-06-11T12:12:09.000Z</time>
      </trkpt>
      <trkpt lat="45.33615" lon="1.9043">
        <ele>557.40002441406</ele>
        <time>2011-06-11T12:12:14.000Z</time>
      </trkpt>
      <trkpt lat="45.33598" lon="1.90322">
        <ele>555.20001220703</ele>
        <time>2011-06-11T12:12:23.000Z</time>
      </trkpt>
      <trkpt lat="45.33592" lon="1.90286">
        <ele>555.40002441406</ele>
        <time>2011-06-11T12:12:27.000Z</time>
      </trkpt>
      <trkpt lat="45.33588" lon="1.90265">
        <ele>555.79998779297</ele>
        <time>2011-06-11T12:12:31.000Z</time>
      </trkpt>
      <trkpt lat="45.33585" lon="1.90245">
        <ele>556.20001220703</ele>
        <time>2011-06-11T12:12:37.000Z</time>
      </trkpt>
      <trkpt lat="45.33585" lon="1.90243">
        <ele>556</ele>
        <time>2011-06-11T12:12:40.000Z</time>
      </trkpt>
      <trkpt lat="45.33576" lon="1.90241">
        <ele>556.59997558594</ele>
        <time>2011-06-11T12:14:06.000Z</time>
      </trkpt>
      <trkpt lat="45.33576" lon="1.90241">
        <ele>556.59997558594</ele>
        <time>2011-06-11T12:14:07.000Z</time>
      </trkpt>
      <trkpt lat="45.33574" lon="1.90223">
        <ele>556.79998779297</ele>
        <time>2011-06-11T12:14:16.000Z</time>
      </trkpt>
      <trkpt lat="45.33574" lon="1.90218">
        <ele>556.79998779297</ele>
        <time>2011-06-11T12:14:20.000Z</time>
      </trkpt>
      <trkpt lat="45.33574" lon="1.90216">
        <ele>556.59997558594</ele>
        <time>2011-06-11T12:14:28.000Z</time>
      </trkpt>
      <trkpt lat="45.33575" lon="1.90215">
        <ele>556.59997558594</ele>
        <time>2011-06-11T12:14:30.000Z</time>
      </trkpt>
      <trkpt lat="45.33568" lon="1.90192">
        <ele>557.20001220703</ele>
        <time>2011-06-11T12:14:53.000Z</time>
      </trkpt>
      <trkpt lat="45.33565" lon="1.90161">
        <ele>557.40002441406</ele>
        <time>2011-06-11T12:14:58.000Z</time>
      </trkpt>
      <trkpt lat="45.33558" lon="1.901">
        <ele>558</ele>
        <time>2011-06-11T12:15:06.000Z</time>
      </trkpt>
      <trkpt lat="45.33557" lon="1.90064">
        <ele>558</ele>
        <time>2011-06-11T12:15:11.000Z</time>
      </trkpt>
      <trkpt lat="45.33567" lon="1.90031">
        <ele>558</ele>
        <time>2011-06-11T12:15:16.000Z</time>
      </trkpt>
      <trkpt lat="45.33571" lon="1.90011">
        <ele>558.20001220703</ele>
        <time>2011-06-11T12:15:19.000Z</time>
      </trkpt>
      <trkpt lat="45.33562" lon="1.89992">
        <ele>558.40002441406</ele>
        <time>2011-06-11T12:15:22.000Z</time>
      </trkpt>
      <trkpt lat="45.33558" lon="1.89988">
        <ele>558.40002441406</ele>
        <time>2011-06-11T12:15:23.000Z</time>
      </trkpt>
      <trkpt lat="45.33539" lon="1.89959">
        <ele>558.20001220703</ele>
        <time>2011-06-11T12:15:28.000Z</time>
      </trkpt>
      <trkpt lat="45.33522" lon="1.89893">
        <ele>556.40002441406</ele>
        <time>2011-06-11T12:15:35.000Z</time>
      </trkpt>
      <trkpt lat="45.3351" lon="1.89821">
        <ele>554</ele>
        <time>2011-06-11T12:15:41.000Z</time>
      </trkpt>
      <trkpt lat="45.33491" lon="1.89705">
        <ele>550</ele>
        <time>2011-06-11T12:15:50.000Z</time>
      </trkpt>
      <trkpt lat="45.33473" lon="1.89593">
        <ele>548.20001220703</ele>
        <time>2011-06-11T12:15:59.000Z</time>
      </trkpt>
      <trkpt lat="45.33457" lon="1.89501">
        <ele>546.79998779297</ele>
        <time>2011-06-11T12:16:06.000Z</time>
      </trkpt>
      <trkpt lat="45.33435" lon="1.89382">
        <ele>545.40002441406</ele>
        <time>2011-06-11T12:16:15.000Z</time>
      </trkpt>
      <trkpt lat="45.33415" lon="1.89256">
        <ele>544.20001220703</ele>
        <time>2011-06-11T12:16:25.000Z</time>
      </trkpt>
      <trkpt lat="45.33399" lon="1.89151">
        <ele>542</ele>
        <time>2011-06-11T12:16:33.000Z</time>
      </trkpt>
      <trkpt lat="45.33377" lon="1.89024">
        <ele>540.40002441406</ele>
        <time>2011-06-11T12:16:43.000Z</time>
      </trkpt>
      <trkpt lat="45.33357" lon="1.88911">
        <ele>538.79998779297</ele>
        <time>2011-06-11T12:16:52.000Z</time>
      </trkpt>
      <trkpt lat="45.33339" lon="1.88804">
        <ele>537.59997558594</ele>
        <time>2011-06-11T12:17:01.000Z</time>
      </trkpt>
      <trkpt lat="45.33326" lon="1.88719">
        <ele>537.40002441406</ele>
        <time>2011-06-11T12:17:09.000Z</time>
      </trkpt>
      <trkpt lat="45.3331" lon="1.88624">
        <ele>538.20001220703</ele>
        <time>2011-06-11T12:17:19.000Z</time>
      </trkpt>
      <trkpt lat="45.33295" lon="1.88542">
        <ele>538.40002441406</ele>
        <time>2011-06-11T12:17:28.000Z</time>
      </trkpt>
      <trkpt lat="45.33282" lon="1.8846">
        <ele>539.20001220703</ele>
        <time>2011-06-11T12:17:37.000Z</time>
      </trkpt>
      <trkpt lat="45.33266" lon="1.88367">
        <ele>539</ele>
        <time>2011-06-11T12:17:47.000Z</time>
      </trkpt>
      <trkpt lat="45.33251" lon="1.88277">
        <ele>538.40002441406</ele>
        <time>2011-06-11T12:17:56.000Z</time>
      </trkpt>
      <trkpt lat="45.33237" lon="1.88183">
        <ele>539</ele>
        <time>2011-06-11T12:18:06.000Z</time>
      </trkpt>
      <trkpt lat="45.33225" lon="1.88112">
        <ele>540.59997558594</ele>
        <time>2011-06-11T12:18:15.000Z</time>
      </trkpt>
      <trkpt lat="45.33213" lon="1.88036">
        <ele>542.40002441406</ele>
        <time>2011-06-11T12:18:25.000Z</time>
      </trkpt>
      <trkpt lat="45.33205" lon="1.87958">
        <ele>542.40002441406</ele>
        <time>2011-06-11T12:18:35.000Z</time>
      </trkpt>
      <trkpt lat="45.33195" lon="1.87925">
        <ele>542</ele>
        <time>2011-06-11T12:18:39.000Z</time>
      </trkpt>
      <trkpt lat="45.33184" lon="1.87875">
        <ele>541.40002441406</ele>
        <time>2011-06-11T12:18:44.000Z</time>
      </trkpt>
      <trkpt lat="45.33168" lon="1.87774">
        <ele>539.79998779297</ele>
        <time>2011-06-11T12:18:53.000Z</time>
      </trkpt>
      <trkpt lat="45.33152" lon="1.87681">
        <ele>537.79998779297</ele>
        <time>2011-06-11T12:19:01.000Z</time>
      </trkpt>
      <trkpt lat="45.33133" lon="1.87563">
        <ele>535.79998779297</ele>
        <time>2011-06-11T12:19:11.000Z</time>
      </trkpt>
      <trkpt lat="45.33111" lon="1.8743">
        <ele>534</ele>
        <time>2011-06-11T12:19:22.000Z</time>
      </trkpt>
      <trkpt lat="45.33098" lon="1.8735">
        <ele>534.79998779297</ele>
        <time>2011-06-11T12:19:30.000Z</time>
      </trkpt>
      <trkpt lat="45.33083" lon="1.87271">
        <ele>536.20001220703</ele>
        <time>2011-06-11T12:19:39.000Z</time>
      </trkpt>
      <trkpt lat="45.33068" lon="1.87203">
        <ele>537.20001220703</ele>
        <time>2011-06-11T12:19:48.000Z</time>
      </trkpt>
      <trkpt lat="45.33043" lon="1.87104">
        <ele>538.40002441406</ele>
        <time>2011-06-11T12:20:01.000Z</time>
      </trkpt>
      <trkpt lat="45.3302" lon="1.8703">
        <ele>539.40002441406</ele>
        <time>2011-06-11T12:20:11.000Z</time>
      </trkpt>
      <trkpt lat="45.32995" lon="1.86964">
        <ele>540</ele>
        <time>2011-06-11T12:20:20.000Z</time>
      </trkpt>
      <trkpt lat="45.32962" lon="1.86883">
        <ele>540.59997558594</ele>
        <time>2011-06-11T12:20:31.000Z</time>
      </trkpt>
      <trkpt lat="45.32934" lon="1.86819">
        <ele>541.59997558594</ele>
        <time>2011-06-11T12:20:40.000Z</time>
      </trkpt>
      <trkpt lat="45.32914" lon="1.86775">
        <ele>542</ele>
        <time>2011-06-11T12:20:46.000Z</time>
      </trkpt>
      <trkpt lat="45.32888" lon="1.86714">
        <ele>542.59997558594</ele>
        <time>2011-06-11T12:20:54.000Z</time>
      </trkpt>
      <trkpt lat="45.3286" lon="1.86652">
        <ele>543.40002441406</ele>
        <time>2011-06-11T12:21:02.000Z</time>
      </trkpt>
      <trkpt lat="45.32824" lon="1.86569">
        <ele>544</ele>
        <time>2011-06-11T12:21:13.000Z</time>
      </trkpt>
      <trkpt lat="45.32786" lon="1.86486">
        <ele>544.79998779297</ele>
        <time>2011-06-11T12:21:24.000Z</time>
      </trkpt>
      <trkpt lat="45.32747" lon="1.86398">
        <ele>545.40002441406</ele>
        <time>2011-06-11T12:21:36.000Z</time>
      </trkpt>
      <trkpt lat="45.32725" lon="1.86346">
        <ele>545.79998779297</ele>
        <time>2011-06-11T12:21:43.000Z</time>
      </trkpt>
      <trkpt lat="45.32696" lon="1.86279">
        <ele>546.20001220703</ele>
        <time>2011-06-11T12:21:52.000Z</time>
      </trkpt>
      <trkpt lat="45.32659" lon="1.8619">
        <ele>547</ele>
        <time>2011-06-11T12:22:04.000Z</time>
      </trkpt>
      <trkpt lat="45.32628" lon="1.86115">
        <ele>547.79998779297</ele>
        <time>2011-06-11T12:22:14.000Z</time>
      </trkpt>
      <trkpt lat="45.32598" lon="1.86041">
        <ele>548.59997558594</ele>
        <time>2011-06-11T12:22:24.000Z</time>
      </trkpt>
      <trkpt lat="45.32569" lon="1.85967">
        <ele>550</ele>
        <time>2011-06-11T12:22:34.000Z</time>
      </trkpt>
      <trkpt lat="45.32538" lon="1.85888">
        <ele>551.40002441406</ele>
        <time>2011-06-11T12:22:45.000Z</time>
      </trkpt>
      <trkpt lat="45.32511" lon="1.85819">
        <ele>552.79998779297</ele>
        <time>2011-06-11T12:22:55.000Z</time>
      </trkpt>
      <trkpt lat="45.32494" lon="1.85778">
        <ele>554.20001220703</ele>
        <time>2011-06-11T12:23:01.000Z</time>
      </trkpt>
      <trkpt lat="45.32477" lon="1.85737">
        <ele>555</ele>
        <time>2011-06-11T12:23:07.000Z</time>
      </trkpt>
      <trkpt lat="45.32452" lon="1.8568">
        <ele>556</ele>
        <time>2011-06-11T12:23:15.000Z</time>
      </trkpt>
      <trkpt lat="45.32431" lon="1.85626">
        <ele>556.79998779297</ele>
        <time>2011-06-11T12:23:23.000Z</time>
      </trkpt>
      <trkpt lat="45.32426" lon="1.85612">
        <ele>557</ele>
        <time>2011-06-11T12:23:25.000Z</time>
      </trkpt>
      <trkpt lat="45.32421" lon="1.85594">
        <ele>557.40002441406</ele>
        <time>2011-06-11T12:23:28.000Z</time>
      </trkpt>
      <trkpt lat="45.32403" lon="1.85555">
        <ele>558.40002441406</ele>
        <time>2011-06-11T12:23:34.000Z</time>
      </trkpt>
      <trkpt lat="45.32387" lon="1.85515">
        <ele>558.79998779297</ele>
        <time>2011-06-11T12:23:40.000Z</time>
      </trkpt>
      <trkpt lat="45.32366" lon="1.85463">
        <ele>559</ele>
        <time>2011-06-11T12:23:47.000Z</time>
      </trkpt>
      <trkpt lat="45.32342" lon="1.85402">
        <ele>559.59997558594</ele>
        <time>2011-06-11T12:23:55.000Z</time>
      </trkpt>
      <trkpt lat="45.32315" lon="1.85334">
        <ele>559.59997558594</ele>
        <time>2011-06-11T12:24:04.000Z</time>
      </trkpt>
      <trkpt lat="45.32292" lon="1.85279">
        <ele>559.20001220703</ele>
        <time>2011-06-11T12:24:11.000Z</time>
      </trkpt>
      <trkpt lat="45.32277" lon="1.85239">
        <ele>559</ele>
        <time>2011-06-11T12:24:16.000Z</time>
      </trkpt>
      <trkpt lat="45.32257" lon="1.85187">
        <ele>558.79998779297</ele>
        <time>2011-06-11T12:24:22.000Z</time>
      </trkpt>
      <trkpt lat="45.32228" lon="1.85122">
        <ele>558</ele>
        <time>2011-06-11T12:24:29.000Z</time>
      </trkpt>
      <trkpt lat="45.322" lon="1.85061">
        <ele>557</ele>
        <time>2011-06-11T12:24:35.000Z</time>
      </trkpt>
      <trkpt lat="45.32188" lon="1.85031">
        <ele>556.20001220703</ele>
        <time>2011-06-11T12:24:38.000Z</time>
      </trkpt>
      <trkpt lat="45.32179" lon="1.84988">
        <ele>555.59997558594</ele>
        <time>2011-06-11T12:24:42.000Z</time>
      </trkpt>
      <trkpt lat="45.32165" lon="1.8495">
        <ele>555.20001220703</ele>
        <time>2011-06-11T12:24:46.000Z</time>
      </trkpt>
      <trkpt lat="45.32148" lon="1.84924">
        <ele>554.59997558594</ele>
        <time>2011-06-11T12:24:49.000Z</time>
      </trkpt>
      <trkpt lat="45.32113" lon="1.84845">
        <ele>552.79998779297</ele>
        <time>2011-06-11T12:24:56.000Z</time>
      </trkpt>
      <trkpt lat="45.32072" lon="1.84743">
        <ele>549.59997558594</ele>
        <time>2011-06-11T12:25:04.000Z</time>
      </trkpt>
      <trkpt lat="45.32028" lon="1.84634">
        <ele>545.40002441406</ele>
        <time>2011-06-11T12:25:12.000Z</time>
      </trkpt>
      <trkpt lat="45.32" lon="1.84563">
        <ele>543</ele>
        <time>2011-06-11T12:25:17.000Z</time>
      </trkpt>
      <trkpt lat="45.31964" lon="1.84466">
        <ele>538.59997558594</ele>
        <time>2011-06-11T12:25:23.000Z</time>
      </trkpt>
      <trkpt lat="45.31928" lon="1.84367">
        <ele>533.20001220703</ele>
        <time>2011-06-11T12:25:29.000Z</time>
      </trkpt>
      <trkpt lat="45.31883" lon="1.84234">
        <ele>526.40002441406</ele>
        <time>2011-06-11T12:25:37.000Z</time>
      </trkpt>
      <trkpt lat="45.31856" lon="1.84148">
        <ele>522.59997558594</ele>
        <time>2011-06-11T12:25:42.000Z</time>
      </trkpt>
      <trkpt lat="45.31811" lon="1.8401">
        <ele>515.20001220703</ele>
        <time>2011-06-11T12:25:50.000Z</time>
      </trkpt>
      <trkpt lat="45.31772" lon="1.83892">
        <ele>508.60000610352</ele>
        <time>2011-06-11T12:25:57.000Z</time>
      </trkpt>
      <trkpt lat="45.31718" lon="1.83729">
        <ele>501.39999389648</ele>
        <time>2011-06-11T12:26:07.000Z</time>
      </trkpt>
      <trkpt lat="45.31676" lon="1.83601">
        <ele>495.79998779297</ele>
        <time>2011-06-11T12:26:15.000Z</time>
      </trkpt>
      <trkpt lat="45.3163" lon="1.83474">
        <ele>490.79998779297</ele>
        <time>2011-06-11T12:26:23.000Z</time>
      </trkpt>
      <trkpt lat="45.31588" lon="1.83369">
        <ele>487</ele>
        <time>2011-06-11T12:26:30.000Z</time>
      </trkpt>
      <trkpt lat="45.31541" lon="1.83267">
        <ele>484</ele>
        <time>2011-06-11T12:26:37.000Z</time>
      </trkpt>
      <trkpt lat="45.31488" lon="1.83189">
        <ele>480.60000610352</ele>
        <time>2011-06-11T12:26:43.000Z</time>
      </trkpt>
      <trkpt lat="45.31437" lon="1.83139">
        <ele>477.20001220703</ele>
        <time>2011-06-11T12:26:48.000Z</time>
      </trkpt>
      <trkpt lat="45.31376" lon="1.83092">
        <ele>472.79998779297</ele>
        <time>2011-06-11T12:26:54.000Z</time>
      </trkpt>
      <trkpt lat="45.31334" lon="1.83055">
        <ele>470.79998779297</ele>
        <time>2011-06-11T12:26:58.000Z</time>
      </trkpt>
      <trkpt lat="45.31284" lon="1.82996">
        <ele>467.20001220703</ele>
        <time>2011-06-11T12:27:03.000Z</time>
      </trkpt>
      <trkpt lat="45.31251" lon="1.82938">
        <ele>464.20001220703</ele>
        <time>2011-06-11T12:27:07.000Z</time>
      </trkpt>
      <trkpt lat="45.31225" lon="1.82875">
        <ele>462</ele>
        <time>2011-06-11T12:27:11.000Z</time>
      </trkpt>
      <trkpt lat="45.3121" lon="1.82813">
        <ele>460.79998779297</ele>
        <time>2011-06-11T12:27:15.000Z</time>
      </trkpt>
      <trkpt lat="45.31186" lon="1.82733">
        <ele>459</ele>
        <time>2011-06-11T12:27:21.000Z</time>
      </trkpt>
      <trkpt lat="45.31155" lon="1.82663">
        <ele>458.60000610352</ele>
        <time>2011-06-11T12:27:27.000Z</time>
      </trkpt>
      <trkpt lat="45.31112" lon="1.82588">
        <ele>457.39999389648</ele>
        <time>2011-06-11T12:27:34.000Z</time>
      </trkpt>
      <trkpt lat="45.3107" lon="1.82536">
        <ele>456.60000610352</ele>
        <time>2011-06-11T12:27:40.000Z</time>
      </trkpt>
      <trkpt lat="45.31008" lon="1.82478">
        <ele>455.60000610352</ele>
        <time>2011-06-11T12:27:48.000Z</time>
      </trkpt>
      <trkpt lat="45.30952" lon="1.82425">
        <ele>454</ele>
        <time>2011-06-11T12:27:55.000Z</time>
      </trkpt>
      <trkpt lat="45.30903" lon="1.8237">
        <ele>453.39999389648</ele>
        <time>2011-06-11T12:28:02.000Z</time>
      </trkpt>
      <trkpt lat="45.30879" lon="1.8234">
        <ele>454.79998779297</ele>
        <time>2011-06-11T12:28:07.000Z</time>
      </trkpt>
      <trkpt lat="45.30852" lon="1.82302">
        <ele>457.60000610352</ele>
        <time>2011-06-11T12:28:15.000Z</time>
      </trkpt>
      <trkpt lat="45.3083" lon="1.82271">
        <ele>460</ele>
        <time>2011-06-11T12:28:22.000Z</time>
      </trkpt>
      <trkpt lat="45.30809" lon="1.82237">
        <ele>462.79998779297</ele>
        <time>2011-06-11T12:28:30.000Z</time>
      </trkpt>
      <trkpt lat="45.3079" lon="1.82206">
        <ele>464.20001220703</ele>
        <time>2011-06-11T12:28:37.000Z</time>
      </trkpt>
      <trkpt lat="45.30768" lon="1.82172">
        <ele>465.79998779297</ele>
        <time>2011-06-11T12:28:45.000Z</time>
      </trkpt>
      <trkpt lat="45.3075" lon="1.82144">
        <ele>467.20001220703</ele>
        <time>2011-06-11T12:28:51.000Z</time>
      </trkpt>
      <trkpt lat="45.30721" lon="1.821">
        <ele>469</ele>
        <time>2011-06-11T12:29:00.000Z</time>
      </trkpt>
      <trkpt lat="45.30691" lon="1.82053">
        <ele>470.79998779297</ele>
        <time>2011-06-11T12:29:10.000Z</time>
      </trkpt>
      <trkpt lat="45.30663" lon="1.82007">
        <ele>472</ele>
        <time>2011-06-11T12:29:19.000Z</time>
      </trkpt>
      <trkpt lat="45.30622" lon="1.81942">
        <ele>473.20001220703</ele>
        <time>2011-06-11T12:29:31.000Z</time>
      </trkpt>
      <trkpt lat="45.30577" lon="1.81879">
        <ele>474.39999389648</ele>
        <time>2011-06-11T12:29:42.000Z</time>
      </trkpt>
      <trkpt lat="45.30534" lon="1.81825">
        <ele>474.60000610352</ele>
        <time>2011-06-11T12:29:51.000Z</time>
      </trkpt>
      <trkpt lat="45.30483" lon="1.81764">
        <ele>474.39999389648</ele>
        <time>2011-06-11T12:30:01.000Z</time>
      </trkpt>
      <trkpt lat="45.30438" lon="1.8171">
        <ele>474</ele>
        <time>2011-06-11T12:30:09.000Z</time>
      </trkpt>
      <trkpt lat="45.30376" lon="1.81638">
        <ele>471.60000610352</ele>
        <time>2011-06-11T12:30:19.000Z</time>
      </trkpt>
      <trkpt lat="45.30318" lon="1.81577">
        <ele>469.39999389648</ele>
        <time>2011-06-11T12:30:27.000Z</time>
      </trkpt>
      <trkpt lat="45.30262" lon="1.81534">
        <ele>466.39999389648</ele>
        <time>2011-06-11T12:30:33.000Z</time>
      </trkpt>
      <trkpt lat="45.30208" lon="1.81504">
        <ele>463.39999389648</ele>
        <time>2011-06-11T12:30:38.000Z</time>
      </trkpt>
      <trkpt lat="45.30146" lon="1.81485">
        <ele>459.60000610352</ele>
        <time>2011-06-11T12:30:43.000Z</time>
      </trkpt>
      <trkpt lat="45.30105" lon="1.81482">
        <ele>457.79998779297</ele>
        <time>2011-06-11T12:30:46.000Z</time>
      </trkpt>
      <trkpt lat="45.30019" lon="1.81484">
        <ele>451.20001220703</ele>
        <time>2011-06-11T12:30:52.000Z</time>
      </trkpt>
      <trkpt lat="45.29903" lon="1.81497">
        <ele>443</ele>
        <time>2011-06-11T12:31:00.000Z</time>
      </trkpt>
      <trkpt lat="45.29845" lon="1.81493">
        <ele>438.39999389648</ele>
        <time>2011-06-11T12:31:04.000Z</time>
      </trkpt>
      <trkpt lat="45.29791" lon="1.81469">
        <ele>434</ele>
        <time>2011-06-11T12:31:08.000Z</time>
      </trkpt>
      <trkpt lat="45.29753" lon="1.81438">
        <ele>431.60000610352</ele>
        <time>2011-06-11T12:31:11.000Z</time>
      </trkpt>
      <trkpt lat="45.2972" lon="1.81396">
        <ele>428.20001220703</ele>
        <time>2011-06-11T12:31:14.000Z</time>
      </trkpt>
      <trkpt lat="45.29686" lon="1.81324">
        <ele>423.60000610352</ele>
        <time>2011-06-11T12:31:18.000Z</time>
      </trkpt>
      <trkpt lat="45.29679" lon="1.81303">
        <ele>422.60000610352</ele>
        <time>2011-06-11T12:31:19.000Z</time>
      </trkpt>
      <trkpt lat="45.29653" lon="1.81172">
        <ele>415.79998779297</ele>
        <time>2011-06-11T12:31:25.000Z</time>
      </trkpt>
      <trkpt lat="45.2964" lon="1.81048">
        <ele>408.60000610352</ele>
        <time>2011-06-11T12:31:31.000Z</time>
      </trkpt>
      <trkpt lat="45.29621" lon="1.80968">
        <ele>404</ele>
        <time>2011-06-11T12:31:35.000Z</time>
      </trkpt>
      <trkpt lat="45.29614" lon="1.80949">
        <ele>404</ele>
        <time>2011-06-11T12:31:36.000Z</time>
      </trkpt>
      <trkpt lat="45.2958" lon="1.80879">
        <ele>399.60000610352</ele>
        <time>2011-06-11T12:31:40.000Z</time>
      </trkpt>
      <trkpt lat="45.29537" lon="1.80825">
        <ele>395.79998779297</ele>
        <time>2011-06-11T12:31:44.000Z</time>
      </trkpt>
      <trkpt lat="45.2949" lon="1.80791">
        <ele>393.60000610352</ele>
        <time>2011-06-11T12:31:48.000Z</time>
      </trkpt>
      <trkpt lat="45.29436" lon="1.80769">
        <ele>392.60000610352</ele>
        <time>2011-06-11T12:31:53.000Z</time>
      </trkpt>
      <trkpt lat="45.29386" lon="1.8076">
        <ele>392.79998779297</ele>
        <time>2011-06-11T12:31:58.000Z</time>
      </trkpt>
      <trkpt lat="45.29326" lon="1.80755">
        <ele>394</ele>
        <time>2011-06-11T12:32:05.000Z</time>
      </trkpt>
      <trkpt lat="45.29283" lon="1.80754">
        <ele>395.60000610352</ele>
        <time>2011-06-11T12:32:11.000Z</time>
      </trkpt>
      <trkpt lat="45.29253" lon="1.80753">
        <ele>396.39999389648</ele>
        <time>2011-06-11T12:32:16.000Z</time>
      </trkpt>
      <trkpt lat="45.29198" lon="1.80751">
        <ele>398.60000610352</ele>
        <time>2011-06-11T12:32:25.000Z</time>
      </trkpt>
      <trkpt lat="45.29139" lon="1.80748">
        <ele>400</ele>
        <time>2011-06-11T12:32:35.000Z</time>
      </trkpt>
      <trkpt lat="45.29095" lon="1.80738">
        <ele>401</ele>
        <time>2011-06-11T12:32:43.000Z</time>
      </trkpt>
      <trkpt lat="45.29059" lon="1.80718">
        <ele>402.20001220703</ele>
        <time>2011-06-11T12:32:50.000Z</time>
      </trkpt>
      <trkpt lat="45.29023" lon="1.80682">
        <ele>403.20001220703</ele>
        <time>2011-06-11T12:32:58.000Z</time>
      </trkpt>
      <trkpt lat="45.28998" lon="1.80643">
        <ele>404.39999389648</ele>
        <time>2011-06-11T12:33:05.000Z</time>
      </trkpt>
      <trkpt lat="45.28974" lon="1.80591">
        <ele>406</ele>
        <time>2011-06-11T12:33:13.000Z</time>
      </trkpt>
      <trkpt lat="45.28948" lon="1.80529">
        <ele>407</ele>
        <time>2011-06-11T12:33:22.000Z</time>
      </trkpt>
      <trkpt lat="45.28912" lon="1.80442">
        <ele>408.79998779297</ele>
        <time>2011-06-11T12:33:35.000Z</time>
      </trkpt>
      <trkpt lat="45.28879" lon="1.80369">
        <ele>410.39999389648</ele>
        <time>2011-06-11T12:33:46.000Z</time>
      </trkpt>
      <trkpt lat="45.28854" lon="1.80324">
        <ele>411.79998779297</ele>
        <time>2011-06-11T12:33:53.000Z</time>
      </trkpt>
      <trkpt lat="45.28826" lon="1.80276">
        <ele>412.79998779297</ele>
        <time>2011-06-11T12:34:01.000Z</time>
      </trkpt>
      <trkpt lat="45.28789" lon="1.80218">
        <ele>414.20001220703</ele>
        <time>2011-06-11T12:34:11.000Z</time>
      </trkpt>
      <trkpt lat="45.28747" lon="1.80155">
        <ele>415.60000610352</ele>
        <time>2011-06-11T12:34:22.000Z</time>
      </trkpt>
      <trkpt lat="45.28717" lon="1.80109">
        <ele>416.60000610352</ele>
        <time>2011-06-11T12:34:30.000Z</time>
      </trkpt>
      <trkpt lat="45.28688" lon="1.80066">
        <ele>417.20001220703</ele>
        <time>2011-06-11T12:34:37.000Z</time>
      </trkpt>
      <trkpt lat="45.28649" lon="1.80007">
        <ele>417.60000610352</ele>
        <time>2011-06-11T12:34:46.000Z</time>
      </trkpt>
      <trkpt lat="45.28609" lon="1.79951">
        <ele>418.20001220703</ele>
        <time>2011-06-11T12:34:55.000Z</time>
      </trkpt>
      <trkpt lat="45.28566" lon="1.79901">
        <ele>418.20001220703</ele>
        <time>2011-06-11T12:35:03.000Z</time>
      </trkpt>
      <trkpt lat="45.28524" lon="1.79865">
        <ele>417.79998779297</ele>
        <time>2011-06-11T12:35:10.000Z</time>
      </trkpt>
      <trkpt lat="45.28467" lon="1.7983">
        <ele>417</ele>
        <time>2011-06-11T12:35:18.000Z</time>
      </trkpt>
      <trkpt lat="45.28393" lon="1.79798">
        <ele>415.20001220703</ele>
        <time>2011-06-11T12:35:27.000Z</time>
      </trkpt>
      <trkpt lat="45.28303" lon="1.79764">
        <ele>412.39999389648</ele>
        <time>2011-06-11T12:35:37.000Z</time>
      </trkpt>
      <trkpt lat="45.28228" lon="1.79731">
        <ele>409</ele>
        <time>2011-06-11T12:35:45.000Z</time>
      </trkpt>
      <trkpt lat="45.28178" lon="1.79698">
        <ele>406.60000610352</ele>
        <time>2011-06-11T12:35:50.000Z</time>
      </trkpt>
      <trkpt lat="45.28132" lon="1.79648">
        <ele>403</ele>
        <time>2011-06-11T12:35:55.000Z</time>
      </trkpt>
      <trkpt lat="45.281" lon="1.79597">
        <ele>399.79998779297</ele>
        <time>2011-06-11T12:35:59.000Z</time>
      </trkpt>
      <trkpt lat="45.28067" lon="1.79521">
        <ele>395.79998779297</ele>
        <time>2011-06-11T12:36:04.000Z</time>
      </trkpt>
      <trkpt lat="45.28026" lon="1.79413">
        <ele>389.60000610352</ele>
        <time>2011-06-11T12:36:11.000Z</time>
      </trkpt>
      <trkpt lat="45.28009" lon="1.79366">
        <ele>387.79998779297</ele>
        <time>2011-06-11T12:36:14.000Z</time>
      </trkpt>
      <trkpt lat="45.27957" lon="1.79242">
        <ele>380.60000610352</ele>
        <time>2011-06-11T12:36:22.000Z</time>
      </trkpt>
      <trkpt lat="45.27919" lon="1.7917">
        <ele>376.39999389648</ele>
        <time>2011-06-11T12:36:27.000Z</time>
      </trkpt>
      <trkpt lat="45.27865" lon="1.7909">
        <ele>370.60000610352</ele>
        <time>2011-06-11T12:36:33.000Z</time>
      </trkpt>
      <trkpt lat="45.27813" lon="1.79031">
        <ele>365.60000610352</ele>
        <time>2011-06-11T12:36:38.000Z</time>
      </trkpt>
      <trkpt lat="45.27791" lon="1.7901">
        <ele>364.60000610352</ele>
        <time>2011-06-11T12:36:40.000Z</time>
      </trkpt>
      <trkpt lat="45.27721" lon="1.78955">
        <ele>359</ele>
        <time>2011-06-11T12:36:46.000Z</time>
      </trkpt>
      <trkpt lat="45.27641" lon="1.78911">
        <ele>353.20001220703</ele>
        <time>2011-06-11T12:36:52.000Z</time>
      </trkpt>
      <trkpt lat="45.27572" lon="1.78887">
        <ele>347.79998779297</ele>
        <time>2011-06-11T12:36:57.000Z</time>
      </trkpt>
      <trkpt lat="45.27492" lon="1.78875">
        <ele>343.20001220703</ele>
        <time>2011-06-11T12:37:03.000Z</time>
      </trkpt>
      <trkpt lat="45.27418" lon="1.78878">
        <ele>341</ele>
        <time>2011-06-11T12:37:09.000Z</time>
      </trkpt>
      <trkpt lat="45.27337" lon="1.78887">
        <ele>338</ele>
        <time>2011-06-11T12:37:16.000Z</time>
      </trkpt>
      <trkpt lat="45.27217" lon="1.78903">
        <ele>333.39999389648</ele>
        <time>2011-06-11T12:37:26.000Z</time>
      </trkpt>
      <trkpt lat="45.27157" lon="1.7892">
        <ele>331.20001220703</ele>
        <time>2011-06-11T12:37:31.000Z</time>
      </trkpt>
      <trkpt lat="45.27083" lon="1.78955">
        <ele>326.79998779297</ele>
        <time>2011-06-11T12:37:37.000Z</time>
      </trkpt>
      <trkpt lat="45.26991" lon="1.79007">
        <ele>320.20001220703</ele>
        <time>2011-06-11T12:37:44.000Z</time>
      </trkpt>
      <trkpt lat="45.26909" lon="1.79045">
        <ele>313.79998779297</ele>
        <time>2011-06-11T12:37:50.000Z</time>
      </trkpt>
      <trkpt lat="45.26896" lon="1.79051">
        <ele>313.79998779297</ele>
        <time>2011-06-11T12:37:51.000Z</time>
      </trkpt>
      <trkpt lat="45.26854" lon="1.7907">
        <ele>311.39999389648</ele>
        <time>2011-06-11T12:37:54.000Z</time>
      </trkpt>
      <trkpt lat="45.26728" lon="1.79126">
        <ele>300.39999389648</ele>
        <time>2011-06-11T12:38:03.000Z</time>
      </trkpt>
      <trkpt lat="45.26669" lon="1.79139">
        <ele>295.79998779297</ele>
        <time>2011-06-11T12:38:07.000Z</time>
      </trkpt>
      <trkpt lat="45.26607" lon="1.7913">
        <ele>291.39999389648</ele>
        <time>2011-06-11T12:38:11.000Z</time>
      </trkpt>
      <trkpt lat="45.26592" lon="1.79124">
        <ele>291.39999389648</ele>
        <time>2011-06-11T12:38:12.000Z</time>
      </trkpt>
      <trkpt lat="45.26533" lon="1.79089">
        <ele>286.79998779297</ele>
        <time>2011-06-11T12:38:16.000Z</time>
      </trkpt>
      <trkpt lat="45.26478" lon="1.79039">
        <ele>282</ele>
        <time>2011-06-11T12:38:20.000Z</time>
      </trkpt>
      <trkpt lat="45.26416" lon="1.78978">
        <ele>276</ele>
        <time>2011-06-11T12:38:25.000Z</time>
      </trkpt>
      <trkpt lat="45.26357" lon="1.78927">
        <ele>270.60000610352</ele>
        <time>2011-06-11T12:38:30.000Z</time>
      </trkpt>
      <trkpt lat="45.26306" lon="1.78899">
        <ele>266</ele>
        <time>2011-06-11T12:38:34.000Z</time>
      </trkpt>
      <trkpt lat="45.26256" lon="1.78883">
        <ele>263</ele>
        <time>2011-06-11T12:38:38.000Z</time>
      </trkpt>
      <trkpt lat="45.26167" lon="1.78855">
        <ele>255.60000610352</ele>
        <time>2011-06-11T12:38:45.000Z</time>
      </trkpt>
      <trkpt lat="45.26116" lon="1.78828">
        <ele>251.80000305176</ele>
        <time>2011-06-11T12:38:49.000Z</time>
      </trkpt>
      <trkpt lat="45.26057" lon="1.78776">
        <ele>247</ele>
        <time>2011-06-11T12:38:54.000Z</time>
      </trkpt>
      <trkpt lat="45.26015" lon="1.78722">
        <ele>242.60000610352</ele>
        <time>2011-06-11T12:38:58.000Z</time>
      </trkpt>
      <trkpt lat="45.25958" lon="1.78632">
        <ele>238</ele>
        <time>2011-06-11T12:39:04.000Z</time>
      </trkpt>
      <trkpt lat="45.25879" lon="1.785">
        <ele>232.60000610352</ele>
        <time>2011-06-11T12:39:13.000Z</time>
      </trkpt>
      <trkpt lat="45.25847" lon="1.78432">
        <ele>230.80000305176</ele>
        <time>2011-06-11T12:39:18.000Z</time>
      </trkpt>
      <trkpt lat="45.2582" lon="1.78353">
        <ele>229</ele>
        <time>2011-06-11T12:39:24.000Z</time>
      </trkpt>
      <trkpt lat="45.25801" lon="1.78258">
        <ele>227.80000305176</ele>
        <time>2011-06-11T12:39:31.000Z</time>
      </trkpt>
      <trkpt lat="45.25785" lon="1.7815">
        <ele>227</ele>
        <time>2011-06-11T12:39:39.000Z</time>
      </trkpt>
      <trkpt lat="45.25767" lon="1.78055">
        <ele>226.39999389648</ele>
        <time>2011-06-11T12:39:46.000Z</time>
      </trkpt>
      <trkpt lat="45.25746" lon="1.77987">
        <ele>225.60000610352</ele>
        <time>2011-06-11T12:39:51.000Z</time>
      </trkpt>
      <trkpt lat="45.25712" lon="1.77906">
        <ele>225</ele>
        <time>2011-06-11T12:39:57.000Z</time>
      </trkpt>
      <trkpt lat="45.25675" lon="1.77838">
        <ele>225.60000610352</ele>
        <time>2011-06-11T12:40:03.000Z</time>
      </trkpt>
      <trkpt lat="45.25646" lon="1.77798">
        <ele>226.60000610352</ele>
        <time>2011-06-11T12:40:08.000Z</time>
      </trkpt>
      <trkpt lat="45.25609" lon="1.77756">
        <ele>227.60000610352</ele>
        <time>2011-06-11T12:40:15.000Z</time>
      </trkpt>
      <trkpt lat="45.25562" lon="1.77716">
        <ele>228.60000610352</ele>
        <time>2011-06-11T12:40:24.000Z</time>
      </trkpt>
      <trkpt lat="45.25528" lon="1.77694">
        <ele>230.39999389648</ele>
        <time>2011-06-11T12:40:31.000Z</time>
      </trkpt>
      <trkpt lat="45.25493" lon="1.77677">
        <ele>231.19999694824</ele>
        <time>2011-06-11T12:40:37.000Z</time>
      </trkpt>
      <trkpt lat="45.25443" lon="1.77661">
        <ele>232</ele>
        <time>2011-06-11T12:40:45.000Z</time>
      </trkpt>
      <trkpt lat="45.25423" lon="1.77656">
        <ele>232.19999694824</ele>
        <time>2011-06-11T12:40:48.000Z</time>
      </trkpt>
      <trkpt lat="45.25363" lon="1.77648">
        <ele>232.39999389648</ele>
        <time>2011-06-11T12:40:57.000Z</time>
      </trkpt>
      <trkpt lat="45.25286" lon="1.77636">
        <ele>233.19999694824</ele>
        <time>2011-06-11T12:41:08.000Z</time>
      </trkpt>
      <trkpt lat="45.25235" lon="1.77627">
        <ele>233</ele>
        <time>2011-06-11T12:41:15.000Z</time>
      </trkpt>
      <trkpt lat="45.25175" lon="1.77607">
        <ele>232.80000305176</ele>
        <time>2011-06-11T12:41:23.000Z</time>
      </trkpt>
      <trkpt lat="45.25114" lon="1.77573">
        <ele>231.60000610352</ele>
        <time>2011-06-11T12:41:31.000Z</time>
      </trkpt>
      <trkpt lat="45.25056" lon="1.77523">
        <ele>230.19999694824</ele>
        <time>2011-06-11T12:41:39.000Z</time>
      </trkpt>
      <trkpt lat="45.25015" lon="1.77471">
        <ele>229</ele>
        <time>2011-06-11T12:41:46.000Z</time>
      </trkpt>
      <trkpt lat="45.24998" lon="1.77438">
        <ele>228</ele>
        <time>2011-06-11T12:41:51.000Z</time>
      </trkpt>
      <trkpt lat="45.24979" lon="1.7739">
        <ele>227</ele>
        <time>2011-06-11T12:41:58.000Z</time>
      </trkpt>
      <trkpt lat="45.24968" lon="1.77337">
        <ele>225.19999694824</ele>
        <time>2011-06-11T12:42:04.000Z</time>
      </trkpt>
      <trkpt lat="45.24957" lon="1.77278">
        <ele>222.19999694824</ele>
        <time>2011-06-11T12:42:09.000Z</time>
      </trkpt>
      <trkpt lat="45.24938" lon="1.77208">
        <ele>218.80000305176</ele>
        <time>2011-06-11T12:42:14.000Z</time>
      </trkpt>
      <trkpt lat="45.24919" lon="1.77139">
        <ele>215.60000610352</ele>
        <time>2011-06-11T12:42:19.000Z</time>
      </trkpt>
      <trkpt lat="45.24915" lon="1.77078">
        <ele>213.19999694824</ele>
        <time>2011-06-11T12:42:24.000Z</time>
      </trkpt>
      <trkpt lat="45.24915" lon="1.77067">
        <ele>213.19999694824</ele>
        <time>2011-06-11T12:42:25.000Z</time>
      </trkpt>
      <trkpt lat="45.24909" lon="1.77025">
        <ele>212</ele>
        <time>2011-06-11T12:42:29.000Z</time>
      </trkpt>
      <trkpt lat="45.24894" lon="1.76984">
        <ele>210.60000610352</ele>
        <time>2011-06-11T12:42:35.000Z</time>
      </trkpt>
      <trkpt lat="45.24888" lon="1.76973">
        <ele>209.60000610352</ele>
        <time>2011-06-11T12:42:39.000Z</time>
      </trkpt>
      <trkpt lat="45.24887" lon="1.76972">
        <ele>209.60000610352</ele>
        <time>2011-06-11T12:42:41.000Z</time>
      </trkpt>
      <trkpt lat="45.24869" lon="1.76981">
        <ele>209.39999389648</ele>
        <time>2011-06-11T12:42:56.000Z</time>
      </trkpt>
      <trkpt lat="45.24866" lon="1.76986">
        <ele>209.39999389648</ele>
        <time>2011-06-11T12:42:57.000Z</time>
      </trkpt>
      <trkpt lat="45.24837" lon="1.77024">
        <ele>209.39999389648</ele>
        <time>2011-06-11T12:43:06.000Z</time>
      </trkpt>
      <trkpt lat="45.24826" lon="1.7704">
        <ele>210.19999694824</ele>
        <time>2011-06-11T12:43:12.000Z</time>
      </trkpt>
      <trkpt lat="45.24817" lon="1.77055">
        <ele>210.19999694824</ele>
        <time>2011-06-11T12:43:18.000Z</time>
      </trkpt>
      <trkpt lat="45.24814" lon="1.77057">
        <ele>210.39999389648</ele>
        <time>2011-06-11T12:43:21.000Z</time>
      </trkpt>
      <trkpt lat="45.24826" lon="1.77061">
        <ele>210.60000610352</ele>
        <time>2011-06-11T12:44:05.000Z</time>
      </trkpt>
      <trkpt lat="45.24832" lon="1.77055">
        <ele>210.60000610352</ele>
        <time>2011-06-11T12:44:07.000Z</time>
      </trkpt>
      <trkpt lat="45.24865" lon="1.77015">
        <ele>209.80000305176</ele>
        <time>2011-06-11T12:44:15.000Z</time>
      </trkpt>
      <trkpt lat="45.24887" lon="1.7698">
        <ele>209</ele>
        <time>2011-06-11T12:44:21.000Z</time>
      </trkpt>
      <trkpt lat="45.24895" lon="1.76961">
        <ele>209</ele>
        <time>2011-06-11T12:44:24.000Z</time>
      </trkpt>
      <trkpt lat="45.2491" lon="1.76912">
        <ele>209.19999694824</ele>
        <time>2011-06-11T12:44:32.000Z</time>
      </trkpt>
      <trkpt lat="45.24914" lon="1.76868">
        <ele>209.19999694824</ele>
        <time>2011-06-11T12:44:38.000Z</time>
      </trkpt>
      <trkpt lat="45.24922" lon="1.76806">
        <ele>208.39999389648</ele>
        <time>2011-06-11T12:44:45.000Z</time>
      </trkpt>
      <trkpt lat="45.24943" lon="1.76745">
        <ele>208.19999694824</ele>
        <time>2011-06-11T12:44:52.000Z</time>
      </trkpt>
      <trkpt lat="45.24969" lon="1.76691">
        <ele>207.60000610352</ele>
        <time>2011-06-11T12:44:59.000Z</time>
      </trkpt>
      <trkpt lat="45.24989" lon="1.76639">
        <ele>208</ele>
        <time>2011-06-11T12:45:05.000Z</time>
      </trkpt>
      <trkpt lat="45.25011" lon="1.7662">
        <ele>207.80000305176</ele>
        <time>2011-06-11T12:45:09.000Z</time>
      </trkpt>
      <trkpt lat="45.25056" lon="1.76593">
        <ele>207.39999389648</ele>
        <time>2011-06-11T12:45:17.000Z</time>
      </trkpt>
      <trkpt lat="45.25092" lon="1.76571">
        <ele>206.60000610352</ele>
        <time>2011-06-11T12:45:25.000Z</time>
      </trkpt>
      <trkpt lat="45.25117" lon="1.76558">
        <ele>206.39999389648</ele>
        <time>2011-06-11T12:45:31.000Z</time>
      </trkpt>
      <trkpt lat="45.25151" lon="1.76538">
        <ele>206.80000305176</ele>
        <time>2011-06-11T12:45:39.000Z</time>
      </trkpt>
      <trkpt lat="45.25194" lon="1.76513">
        <ele>206.80000305176</ele>
        <time>2011-06-11T12:45:49.000Z</time>
      </trkpt>
      <trkpt lat="45.25234" lon="1.76469">
        <ele>207</ele>
        <time>2011-06-11T12:45:58.000Z</time>
      </trkpt>
      <trkpt lat="45.25266" lon="1.76422">
        <ele>207.39999389648</ele>
        <time>2011-06-11T12:46:06.000Z</time>
      </trkpt>
      <trkpt lat="45.25279" lon="1.76407">
        <ele>207.39999389648</ele>
        <time>2011-06-11T12:46:09.000Z</time>
      </trkpt>
      <trkpt lat="45.25306" lon="1.76398">
        <ele>207.39999389648</ele>
        <time>2011-06-11T12:46:14.000Z</time>
      </trkpt>
      <trkpt lat="45.25311" lon="1.76398">
        <ele>207.39999389648</ele>
        <time>2011-06-11T12:46:15.000Z</time>
      </trkpt>
      <trkpt lat="45.25323" lon="1.76401">
        <ele>207.39999389648</ele>
        <time>2011-06-11T12:46:17.000Z</time>
      </trkpt>
      <trkpt lat="45.25353" lon="1.764">
        <ele>207.60000610352</ele>
        <time>2011-06-11T12:46:22.000Z</time>
      </trkpt>
      <trkpt lat="45.2539" lon="1.76384">
        <ele>207.39999389648</ele>
        <time>2011-06-11T12:46:28.000Z</time>
      </trkpt>
      <trkpt lat="45.25438" lon="1.76355">
        <ele>207</ele>
        <time>2011-06-11T12:46:36.000Z</time>
      </trkpt>
      <trkpt lat="45.25478" lon="1.76333">
        <ele>207.19999694824</ele>
        <time>2011-06-11T12:46:43.000Z</time>
      </trkpt>
      <trkpt lat="45.25509" lon="1.76303">
        <ele>207</ele>
        <time>2011-06-11T12:46:49.000Z</time>
      </trkpt>
      <trkpt lat="45.25536" lon="1.76262">
        <ele>207.19999694824</ele>
        <time>2011-06-11T12:46:55.000Z</time>
      </trkpt>
      <trkpt lat="45.25568" lon="1.76195">
        <ele>207.19999694824</ele>
        <time>2011-06-11T12:47:04.000Z</time>
      </trkpt>
      <trkpt lat="45.25592" lon="1.76149">
        <ele>207.80000305176</ele>
        <time>2011-06-11T12:47:11.000Z</time>
      </trkpt>
      <trkpt lat="45.25627" lon="1.76111">
        <ele>208.39999389648</ele>
        <time>2011-06-11T12:47:19.000Z</time>
      </trkpt>
      <trkpt lat="45.2566" lon="1.76081">
        <ele>210.39999389648</ele>
        <time>2011-06-11T12:47:27.000Z</time>
      </trkpt>
      <trkpt lat="45.25692" lon="1.76053">
        <ele>211.39999389648</ele>
        <time>2011-06-11T12:47:35.000Z</time>
      </trkpt>
      <trkpt lat="45.25719" lon="1.76028">
        <ele>212.60000610352</ele>
        <time>2011-06-11T12:47:42.000Z</time>
      </trkpt>
      <trkpt lat="45.25751" lon="1.75989">
        <ele>213.80000305176</ele>
        <time>2011-06-11T12:47:51.000Z</time>
      </trkpt>
      <trkpt lat="45.25778" lon="1.7595">
        <ele>215</ele>
        <time>2011-06-11T12:47:59.000Z</time>
      </trkpt>
      <trkpt lat="45.25799" lon="1.75911">
        <ele>216.39999389648</ele>
        <time>2011-06-11T12:48:06.000Z</time>
      </trkpt>
      <trkpt lat="45.25831" lon="1.75851">
        <ele>216.19999694824</ele>
        <time>2011-06-11T12:48:16.000Z</time>
      </trkpt>
      <trkpt lat="45.25852" lon="1.75792">
        <ele>216</ele>
        <time>2011-06-11T12:48:24.000Z</time>
      </trkpt>
      <trkpt lat="45.25873" lon="1.75742">
        <ele>215.60000610352</ele>
        <time>2011-06-11T12:48:31.000Z</time>
      </trkpt>
      <trkpt lat="45.25904" lon="1.75679">
        <ele>215.19999694824</ele>
        <time>2011-06-11T12:48:41.000Z</time>
      </trkpt>
      <trkpt lat="45.25918" lon="1.75655">
        <ele>215.19999694824</ele>
        <time>2011-06-11T12:48:45.000Z</time>
      </trkpt>
      <trkpt lat="45.25935" lon="1.7564">
        <ele>216</ele>
        <time>2011-06-11T12:48:51.000Z</time>
      </trkpt>
      <trkpt lat="45.25938" lon="1.75639">
        <ele>216.39999389648</ele>
        <time>2011-06-11T12:48:55.000Z</time>
      </trkpt>
      <trkpt lat="45.2594" lon="1.75634">
        <ele>216</ele>
        <time>2011-06-11T12:49:19.000Z</time>
      </trkpt>
      <trkpt lat="45.25945" lon="1.75631">
        <ele>216</ele>
        <time>2011-06-11T12:49:24.000Z</time>
      </trkpt>
      <trkpt lat="45.25958" lon="1.75625">
        <ele>216.60000610352</ele>
        <time>2011-06-11T12:49:31.000Z</time>
      </trkpt>
      <trkpt lat="45.25977" lon="1.75628">
        <ele>216.60000610352</ele>
        <time>2011-06-11T12:49:36.000Z</time>
      </trkpt>
      <trkpt lat="45.2598" lon="1.75629">
        <ele>216.60000610352</ele>
        <time>2011-06-11T12:49:37.000Z</time>
      </trkpt>
      <trkpt lat="45.26009" lon="1.75648">
        <ele>217.19999694824</ele>
        <time>2011-06-11T12:49:43.000Z</time>
      </trkpt>
      <trkpt lat="45.26042" lon="1.75691">
        <ele>217.60000610352</ele>
        <time>2011-06-11T12:49:49.000Z</time>
      </trkpt>
      <trkpt lat="45.26054" lon="1.75719">
        <ele>217.60000610352</ele>
        <time>2011-06-11T12:49:52.000Z</time>
      </trkpt>
      <trkpt lat="45.26077" lon="1.75743">
        <ele>217.60000610352</ele>
        <time>2011-06-11T12:49:56.000Z</time>
      </trkpt>
      <trkpt lat="45.26091" lon="1.75736">
        <ele>217.60000610352</ele>
        <time>2011-06-11T12:49:58.000Z</time>
      </trkpt>
      <trkpt lat="45.26139" lon="1.75701">
        <ele>216.60000610352</ele>
        <time>2011-06-11T12:50:05.000Z</time>
      </trkpt>
      <trkpt lat="45.26156" lon="1.75692">
        <ele>216</ele>
        <time>2011-06-11T12:50:07.000Z</time>
      </trkpt>
      <trkpt lat="45.26176" lon="1.75661">
        <ele>215.19999694824</ele>
        <time>2011-06-11T12:50:11.000Z</time>
      </trkpt>
      <trkpt lat="45.26168" lon="1.75624">
        <ele>214.80000305176</ele>
        <time>2011-06-11T12:50:14.000Z</time>
      </trkpt>
      <trkpt lat="45.26152" lon="1.75596">
        <ele>214.60000610352</ele>
        <time>2011-06-11T12:50:17.000Z</time>
      </trkpt>
      <trkpt lat="45.26139" lon="1.75583">
        <ele>214.39999389648</ele>
        <time>2011-06-11T12:50:19.000Z</time>
      </trkpt>
      <trkpt lat="45.26077" lon="1.75534">
        <ele>213.60000610352</ele>
        <time>2011-06-11T12:50:28.000Z</time>
      </trkpt>
      <trkpt lat="45.26034" lon="1.75501">
        <ele>213.39999389648</ele>
        <time>2011-06-11T12:50:35.000Z</time>
      </trkpt>
      <trkpt lat="45.25992" lon="1.75474">
        <ele>213.39999389648</ele>
        <time>2011-06-11T12:50:42.000Z</time>
      </trkpt>
      <trkpt lat="45.25977" lon="1.75465">
        <ele>213.39999389648</ele>
        <time>2011-06-11T12:50:45.000Z</time>
      </trkpt>
      <trkpt lat="45.25954" lon="1.75442">
        <ele>214.19999694824</ele>
        <time>2011-06-11T12:50:50.000Z</time>
      </trkpt>
      <trkpt lat="45.25938" lon="1.75409">
        <ele>214</ele>
        <time>2011-06-11T12:50:55.000Z</time>
      </trkpt>
      <trkpt lat="45.25936" lon="1.75401">
        <ele>213.80000305176</ele>
        <time>2011-06-11T12:50:56.000Z</time>
      </trkpt>
      <trkpt lat="45.25926" lon="1.75333">
        <ele>213</ele>
        <time>2011-06-11T12:51:04.000Z</time>
      </trkpt>
      <trkpt lat="45.25925" lon="1.75287">
        <ele>212.39999389648</ele>
        <time>2011-06-11T12:51:10.000Z</time>
      </trkpt>
      <trkpt lat="45.25927" lon="1.75255">
        <ele>212.19999694824</ele>
        <time>2011-06-11T12:51:15.000Z</time>
      </trkpt>
      <trkpt lat="45.25917" lon="1.75244">
        <ele>212.19999694824</ele>
        <time>2011-06-11T12:51:18.000Z</time>
      </trkpt>
      <trkpt lat="45.25894" lon="1.75238">
        <ele>211.80000305176</ele>
        <time>2011-06-11T12:51:23.000Z</time>
      </trkpt>
      <trkpt lat="45.25884" lon="1.75238">
        <ele>212</ele>
        <time>2011-06-11T12:51:25.000Z</time>
      </trkpt>
      <trkpt lat="45.25868" lon="1.75241">
        <ele>212.19999694824</ele>
        <time>2011-06-11T12:51:28.000Z</time>
      </trkpt>
      <trkpt lat="45.25827" lon="1.75266">
        <ele>212.19999694824</ele>
        <time>2011-06-11T12:51:35.000Z</time>
      </trkpt>
      <trkpt lat="45.2579" lon="1.75289">
        <ele>212</ele>
        <time>2011-06-11T12:51:42.000Z</time>
      </trkpt>
      <trkpt lat="45.25777" lon="1.75295">
        <ele>212.19999694824</ele>
        <time>2011-06-11T12:51:44.000Z</time>
      </trkpt>
      <trkpt lat="45.25751" lon="1.75326">
        <ele>212.80000305176</ele>
        <time>2011-06-11T12:51:50.000Z</time>
      </trkpt>
      <trkpt lat="45.25738" lon="1.75365">
        <ele>212.80000305176</ele>
        <time>2011-06-11T12:51:55.000Z</time>
      </trkpt>
      <trkpt lat="45.25725" lon="1.7541">
        <ele>212.80000305176</ele>
        <time>2011-06-11T12:52:01.000Z</time>
      </trkpt>
      <trkpt lat="45.25699" lon="1.75458">
        <ele>213.19999694824</ele>
        <time>2011-06-11T12:52:08.000Z</time>
      </trkpt>
      <trkpt lat="45.25658" lon="1.75526">
        <ele>213.80000305176</ele>
        <time>2011-06-11T12:52:18.000Z</time>
      </trkpt>
      <trkpt lat="45.25629" lon="1.75568">
        <ele>214</ele>
        <time>2011-06-11T12:52:25.000Z</time>
      </trkpt>
      <trkpt lat="45.256" lon="1.7561">
        <ele>214.60000610352</ele>
        <time>2011-06-11T12:52:32.000Z</time>
      </trkpt>
      <trkpt lat="45.25573" lon="1.75648">
        <ele>214.39999389648</ele>
        <time>2011-06-11T12:52:38.000Z</time>
      </trkpt>
      <trkpt lat="45.25537" lon="1.75697">
        <ele>214.60000610352</ele>
        <time>2011-06-11T12:52:46.000Z</time>
      </trkpt>
      <trkpt lat="45.25496" lon="1.75756">
        <ele>215</ele>
        <time>2011-06-11T12:52:55.000Z</time>
      </trkpt>
      <trkpt lat="45.25469" lon="1.75804">
        <ele>215.60000610352</ele>
        <time>2011-06-11T12:53:02.000Z</time>
      </trkpt>
      <trkpt lat="45.25428" lon="1.75893">
        <ele>216.19999694824</ele>
        <time>2011-06-11T12:53:14.000Z</time>
      </trkpt>
      <trkpt lat="45.254" lon="1.75964">
        <ele>217</ele>
        <time>2011-06-11T12:53:23.000Z</time>
      </trkpt>
      <trkpt lat="45.25377" lon="1.76025">
        <ele>216.80000305176</ele>
        <time>2011-06-11T12:53:31.000Z</time>
      </trkpt>
      <trkpt lat="45.25363" lon="1.76064">
        <ele>217</ele>
        <time>2011-06-11T12:53:36.000Z</time>
      </trkpt>
      <trkpt lat="45.2535" lon="1.76082">
        <ele>217</ele>
        <time>2011-06-11T12:53:39.000Z</time>
      </trkpt>
      <trkpt lat="45.25318" lon="1.76096">
        <ele>216.60000610352</ele>
        <time>2011-06-11T12:53:44.000Z</time>
      </trkpt>
      <trkpt lat="45.25297" lon="1.76091">
        <ele>216.19999694824</ele>
        <time>2011-06-11T12:53:47.000Z</time>
      </trkpt>
      <trkpt lat="45.25285" lon="1.7608">
        <ele>216.19999694824</ele>
        <time>2011-06-11T12:53:49.000Z</time>
      </trkpt>
      <trkpt lat="45.25251" lon="1.7603">
        <ele>216.19999694824</ele>
        <time>2011-06-11T12:53:56.000Z</time>
      </trkpt>
      <trkpt lat="45.2523" lon="1.75981">
        <ele>215.39999389648</ele>
        <time>2011-06-11T12:54:02.000Z</time>
      </trkpt>
      <trkpt lat="45.25224" lon="1.75955">
        <ele>215.19999694824</ele>
        <time>2011-06-11T12:54:05.000Z</time>
      </trkpt>
      <trkpt lat="45.25223" lon="1.75918">
        <ele>215.60000610352</ele>
        <time>2011-06-11T12:54:09.000Z</time>
      </trkpt>
      <trkpt lat="45.25235" lon="1.75853">
        <ele>215.19999694824</ele>
        <time>2011-06-11T12:54:16.000Z</time>
      </trkpt>
      <trkpt lat="45.25256" lon="1.75766">
        <ele>213.60000610352</ele>
        <time>2011-06-11T12:54:25.000Z</time>
      </trkpt>
      <trkpt lat="45.25267" lon="1.75684">
        <ele>213</ele>
        <time>2011-06-11T12:54:33.000Z</time>
      </trkpt>
      <trkpt lat="45.25276" lon="1.75606">
        <ele>212.39999389648</ele>
        <time>2011-06-11T12:54:41.000Z</time>
      </trkpt>
      <trkpt lat="45.25283" lon="1.75532">
        <ele>211.39999389648</ele>
        <time>2011-06-11T12:54:49.000Z</time>
      </trkpt>
      <trkpt lat="45.2528" lon="1.7547">
        <ele>211</ele>
        <time>2011-06-11T12:54:55.000Z</time>
      </trkpt>
      <trkpt lat="45.25267" lon="1.75408">
        <ele>211</ele>
        <time>2011-06-11T12:55:01.000Z</time>
      </trkpt>
      <trkpt lat="45.25241" lon="1.7534">
        <ele>211.19999694824</ele>
        <time>2011-06-11T12:55:08.000Z</time>
      </trkpt>
      <trkpt lat="45.25212" lon="1.7529">
        <ele>210.80000305176</ele>
        <time>2011-06-11T12:55:14.000Z</time>
      </trkpt>
      <trkpt lat="45.25171" lon="1.75243">
        <ele>210</ele>
        <time>2011-06-11T12:55:21.000Z</time>
      </trkpt>
      <trkpt lat="45.25114" lon="1.75201">
        <ele>208.19999694824</ele>
        <time>2011-06-11T12:55:30.000Z</time>
      </trkpt>
      <trkpt lat="45.25062" lon="1.75156">
        <ele>208.19999694824</ele>
        <time>2011-06-11T12:55:38.000Z</time>
      </trkpt>
      <trkpt lat="45.25037" lon="1.75115">
        <ele>207.80000305176</ele>
        <time>2011-06-11T12:55:43.000Z</time>
      </trkpt>
      <trkpt lat="45.25024" lon="1.75066">
        <ele>207.39999389648</ele>
        <time>2011-06-11T12:55:48.000Z</time>
      </trkpt>
      <trkpt lat="45.25002" lon="1.74998">
        <ele>206.80000305176</ele>
        <time>2011-06-11T12:55:55.000Z</time>
      </trkpt>
      <trkpt lat="45.24976" lon="1.74956">
        <ele>205.80000305176</ele>
        <time>2011-06-11T12:56:00.000Z</time>
      </trkpt>
      <trkpt lat="45.24922" lon="1.74877">
        <ele>205</ele>
        <time>2011-06-11T12:56:10.000Z</time>
      </trkpt>
      <trkpt lat="45.2488" lon="1.74813">
        <ele>204</ele>
        <time>2011-06-11T12:56:18.000Z</time>
      </trkpt>
      <trkpt lat="45.24836" lon="1.74752">
        <ele>203.19999694824</ele>
        <time>2011-06-11T12:56:26.000Z</time>
      </trkpt>
      <trkpt lat="45.24781" lon="1.74691">
        <ele>202.60000610352</ele>
        <time>2011-06-11T12:56:35.000Z</time>
      </trkpt>
      <trkpt lat="45.24728" lon="1.74648">
        <ele>201.80000305176</ele>
        <time>2011-06-11T12:56:43.000Z</time>
      </trkpt>
      <trkpt lat="45.24675" lon="1.74616">
        <ele>201</ele>
        <time>2011-06-11T12:56:50.000Z</time>
      </trkpt>
      <trkpt lat="45.24581" lon="1.74563">
        <ele>200</ele>
        <time>2011-06-11T12:57:02.000Z</time>
      </trkpt>
      <trkpt lat="45.24494" lon="1.74514">
        <ele>199</ele>
        <time>2011-06-11T12:57:13.000Z</time>
      </trkpt>
      <trkpt lat="45.24425" lon="1.74477">
        <ele>198.39999389648</ele>
        <time>2011-06-11T12:57:22.000Z</time>
      </trkpt>
      <trkpt lat="45.24352" lon="1.74434">
        <ele>197.60000610352</ele>
        <time>2011-06-11T12:57:32.000Z</time>
      </trkpt>
      <trkpt lat="45.24274" lon="1.74388">
        <ele>197.60000610352</ele>
        <time>2011-06-11T12:57:43.000Z</time>
      </trkpt>
      <trkpt lat="45.24207" lon="1.74341">
        <ele>197.60000610352</ele>
        <time>2011-06-11T12:57:53.000Z</time>
      </trkpt>
      <trkpt lat="45.24168" lon="1.74295">
        <ele>197.19999694824</ele>
        <time>2011-06-11T12:58:00.000Z</time>
      </trkpt>
      <trkpt lat="45.24137" lon="1.74239">
        <ele>196.60000610352</ele>
        <time>2011-06-11T12:58:07.000Z</time>
      </trkpt>
      <trkpt lat="45.24114" lon="1.74174">
        <ele>196.19999694824</ele>
        <time>2011-06-11T12:58:14.000Z</time>
      </trkpt>
      <trkpt lat="45.24085" lon="1.74079">
        <ele>195.39999389648</ele>
        <time>2011-06-11T12:58:24.000Z</time>
      </trkpt>
      <trkpt lat="45.24053" lon="1.73974">
        <ele>195.19999694824</ele>
        <time>2011-06-11T12:58:35.000Z</time>
      </trkpt>
      <trkpt lat="45.24021" lon="1.7387">
        <ele>194.80000305176</ele>
        <time>2011-06-11T12:58:46.000Z</time>
      </trkpt>
      <trkpt lat="45.23998" lon="1.73778">
        <ele>194</ele>
        <time>2011-06-11T12:58:56.000Z</time>
      </trkpt>
      <trkpt lat="45.23976" lon="1.73689">
        <ele>192.39999389648</ele>
        <time>2011-06-11T12:59:05.000Z</time>
      </trkpt>
      <trkpt lat="45.23949" lon="1.73581">
        <ele>192</ele>
        <time>2011-06-11T12:59:16.000Z</time>
      </trkpt>
      <trkpt lat="45.23923" lon="1.73487">
        <ele>190.80000305176</ele>
        <time>2011-06-11T12:59:26.000Z</time>
      </trkpt>
      <trkpt lat="45.23897" lon="1.73426">
        <ele>190.39999389648</ele>
        <time>2011-06-11T12:59:33.000Z</time>
      </trkpt>
      <trkpt lat="45.23862" lon="1.73371">
        <ele>190.39999389648</ele>
        <time>2011-06-11T12:59:40.000Z</time>
      </trkpt>
      <trkpt lat="45.23812" lon="1.73301">
        <ele>189.80000305176</ele>
        <time>2011-06-11T12:59:49.000Z</time>
      </trkpt>
      <trkpt lat="45.23787" lon="1.73248">
        <ele>189.60000610352</ele>
        <time>2011-06-11T12:59:55.000Z</time>
      </trkpt>
      <trkpt lat="45.23766" lon="1.73183">
        <ele>190</ele>
        <time>2011-06-11T13:00:02.000Z</time>
      </trkpt>
      <trkpt lat="45.23742" lon="1.73101">
        <ele>189.80000305176</ele>
        <time>2011-06-11T13:00:11.000Z</time>
      </trkpt>
      <trkpt lat="45.23709" lon="1.73002">
        <ele>190.80000305176</ele>
        <time>2011-06-11T13:00:22.000Z</time>
      </trkpt>
      <trkpt lat="45.23679" lon="1.72946">
        <ele>191</ele>
        <time>2011-06-11T13:00:29.000Z</time>
      </trkpt>
      <trkpt lat="45.23642" lon="1.72902">
        <ele>191</ele>
        <time>2011-06-11T13:00:36.000Z</time>
      </trkpt>
      <trkpt lat="45.236" lon="1.72871">
        <ele>191.80000305176</ele>
        <time>2011-06-11T13:00:43.000Z</time>
      </trkpt>
      <trkpt lat="45.23573" lon="1.72861">
        <ele>192.80000305176</ele>
        <time>2011-06-11T13:00:48.000Z</time>
      </trkpt>
      <trkpt lat="45.23539" lon="1.72853">
        <ele>194.19999694824</ele>
        <time>2011-06-11T13:00:55.000Z</time>
      </trkpt>
      <trkpt lat="45.23506" lon="1.72857">
        <ele>195.60000610352</ele>
        <time>2011-06-11T13:01:02.000Z</time>
      </trkpt>
      <trkpt lat="45.23476" lon="1.72862">
        <ele>196.80000305176</ele>
        <time>2011-06-11T13:01:08.000Z</time>
      </trkpt>
      <trkpt lat="45.23436" lon="1.72853">
        <ele>198.19999694824</ele>
        <time>2011-06-11T13:01:16.000Z</time>
      </trkpt>
      <trkpt lat="45.23396" lon="1.72839">
        <ele>199.39999389648</ele>
        <time>2011-06-11T13:01:24.000Z</time>
      </trkpt>
      <trkpt lat="45.23354" lon="1.72811">
        <ele>201.19999694824</ele>
        <time>2011-06-11T13:01:32.000Z</time>
      </trkpt>
      <trkpt lat="45.23316" lon="1.72774">
        <ele>201.60000610352</ele>
        <time>2011-06-11T13:01:40.000Z</time>
      </trkpt>
      <trkpt lat="45.23284" lon="1.72728">
        <ele>201.60000610352</ele>
        <time>2011-06-11T13:01:47.000Z</time>
      </trkpt>
      <trkpt lat="45.23261" lon="1.72679">
        <ele>201.60000610352</ele>
        <time>2011-06-11T13:01:53.000Z</time>
      </trkpt>
      <trkpt lat="45.23244" lon="1.72618">
        <ele>201</ele>
        <time>2011-06-11T13:01:59.000Z</time>
      </trkpt>
      <trkpt lat="45.23238" lon="1.72559">
        <ele>199.60000610352</ele>
        <time>2011-06-11T13:02:04.000Z</time>
      </trkpt>
      <trkpt lat="45.23239" lon="1.72495">
        <ele>198</ele>
        <time>2011-06-11T13:02:09.000Z</time>
      </trkpt>
      <trkpt lat="45.23251" lon="1.7243">
        <ele>196.80000305176</ele>
        <time>2011-06-11T13:02:14.000Z</time>
      </trkpt>
      <trkpt lat="45.23279" lon="1.72312">
        <ele>193.39999389648</ele>
        <time>2011-06-11T13:02:23.000Z</time>
      </trkpt>
      <trkpt lat="45.23289" lon="1.72247">
        <ele>191.60000610352</ele>
        <time>2011-06-11T13:02:28.000Z</time>
      </trkpt>
      <trkpt lat="45.23288" lon="1.72179">
        <ele>190</ele>
        <time>2011-06-11T13:02:33.000Z</time>
      </trkpt>
      <trkpt lat="45.23278" lon="1.72095">
        <ele>187.80000305176</ele>
        <time>2011-06-11T13:02:39.000Z</time>
      </trkpt>
      <trkpt lat="45.23269" lon="1.71995">
        <ele>186</ele>
        <time>2011-06-11T13:02:46.000Z</time>
      </trkpt>
      <trkpt lat="45.23271" lon="1.71918">
        <ele>185.19999694824</ele>
        <time>2011-06-11T13:02:52.000Z</time>
      </trkpt>
      <trkpt lat="45.23277" lon="1.71819">
        <ele>184.80000305176</ele>
        <time>2011-06-11T13:03:01.000Z</time>
      </trkpt>
      <trkpt lat="45.23273" lon="1.71746">
        <ele>185</ele>
        <time>2011-06-11T13:03:08.000Z</time>
      </trkpt>
      <trkpt lat="45.23261" lon="1.71687">
        <ele>185.60000610352</ele>
        <time>2011-06-11T13:03:14.000Z</time>
      </trkpt>
      <trkpt lat="45.23241" lon="1.71633">
        <ele>185.19999694824</ele>
        <time>2011-06-11T13:03:20.000Z</time>
      </trkpt>
      <trkpt lat="45.23207" lon="1.71579">
        <ele>185.60000610352</ele>
        <time>2011-06-11T13:03:27.000Z</time>
      </trkpt>
      <trkpt lat="45.23172" lon="1.71543">
        <ele>185.80000305176</ele>
        <time>2011-06-11T13:03:33.000Z</time>
      </trkpt>
      <trkpt lat="45.23121" lon="1.71503">
        <ele>185.39999389648</ele>
        <time>2011-06-11T13:03:41.000Z</time>
      </trkpt>
      <trkpt lat="45.2306" lon="1.71456">
        <ele>186.19999694824</ele>
        <time>2011-06-11T13:03:51.000Z</time>
      </trkpt>
      <trkpt lat="45.23012" lon="1.7141">
        <ele>185.39999389648</ele>
        <time>2011-06-11T13:03:59.000Z</time>
      </trkpt>
      <trkpt lat="45.22948" lon="1.71336">
        <ele>185</ele>
        <time>2011-06-11T13:04:10.000Z</time>
      </trkpt>
      <trkpt lat="45.22893" lon="1.71272">
        <ele>184.19999694824</ele>
        <time>2011-06-11T13:04:19.000Z</time>
      </trkpt>
      <trkpt lat="45.22756" lon="1.71113">
        <ele>182</ele>
        <time>2011-06-11T13:04:40.000Z</time>
      </trkpt>
      <trkpt lat="45.22695" lon="1.71039">
        <ele>181</ele>
        <time>2011-06-11T13:04:50.000Z</time>
      </trkpt>
      <trkpt lat="45.22644" lon="1.70975">
        <ele>180.80000305176</ele>
        <time>2011-06-11T13:04:59.000Z</time>
      </trkpt>
      <trkpt lat="45.22611" lon="1.70917">
        <ele>180.19999694824</ele>
        <time>2011-06-11T13:05:06.000Z</time>
      </trkpt>
      <trkpt lat="45.22587" lon="1.70854">
        <ele>179.60000610352</ele>
        <time>2011-06-11T13:05:13.000Z</time>
      </trkpt>
      <trkpt lat="45.22562" lon="1.70766">
        <ele>179.60000610352</ele>
        <time>2011-06-11T13:05:22.000Z</time>
      </trkpt>
      <trkpt lat="45.22544" lon="1.70698">
        <ele>179.19999694824</ele>
        <time>2011-06-11T13:05:29.000Z</time>
      </trkpt>
      <trkpt lat="45.2252" lon="1.70612">
        <ele>178.39999389648</ele>
        <time>2011-06-11T13:05:38.000Z</time>
      </trkpt>
      <trkpt lat="45.225" lon="1.70554">
        <ele>178.60000610352</ele>
        <time>2011-06-11T13:05:44.000Z</time>
      </trkpt>
      <trkpt lat="45.22472" lon="1.70494">
        <ele>178.19999694824</ele>
        <time>2011-06-11T13:05:51.000Z</time>
      </trkpt>
      <trkpt lat="45.22442" lon="1.70449">
        <ele>177.80000305176</ele>
        <time>2011-06-11T13:05:57.000Z</time>
      </trkpt>
      <trkpt lat="45.22405" lon="1.70413">
        <ele>178.39999389648</ele>
        <time>2011-06-11T13:06:03.000Z</time>
      </trkpt>
      <trkpt lat="45.22364" lon="1.70389">
        <ele>178</ele>
        <time>2011-06-11T13:06:09.000Z</time>
      </trkpt>
      <trkpt lat="45.22314" lon="1.70376">
        <ele>177.60000610352</ele>
        <time>2011-06-11T13:06:16.000Z</time>
      </trkpt>
      <trkpt lat="45.22255" lon="1.70371">
        <ele>177.19999694824</ele>
        <time>2011-06-11T13:06:24.000Z</time>
      </trkpt>
      <trkpt lat="45.22186" lon="1.70361">
        <ele>176.80000305176</ele>
        <time>2011-06-11T13:06:33.000Z</time>
      </trkpt>
      <trkpt lat="45.22128" lon="1.70337">
        <ele>175.80000305176</ele>
        <time>2011-06-11T13:06:41.000Z</time>
      </trkpt>
      <trkpt lat="45.22077" lon="1.70301">
        <ele>175.39999389648</ele>
        <time>2011-06-11T13:06:49.000Z</time>
      </trkpt>
      <trkpt lat="45.22024" lon="1.70253">
        <ele>175</ele>
        <time>2011-06-11T13:06:58.000Z</time>
      </trkpt>
      <trkpt lat="45.21968" lon="1.702">
        <ele>175.19999694824</ele>
        <time>2011-06-11T13:07:08.000Z</time>
      </trkpt>
      <trkpt lat="45.2192" lon="1.70152">
        <ele>175.19999694824</ele>
        <time>2011-06-11T13:07:18.000Z</time>
      </trkpt>
      <trkpt lat="45.21876" lon="1.7011">
        <ele>177.19999694824</ele>
        <time>2011-06-11T13:07:28.000Z</time>
      </trkpt>
      <trkpt lat="45.21872" lon="1.70106">
        <ele>177.19999694824</ele>
        <time>2011-06-11T13:07:29.000Z</time>
      </trkpt>
      <trkpt lat="45.21837" lon="1.70067">
        <ele>179.80000305176</ele>
        <time>2011-06-11T13:07:38.000Z</time>
      </trkpt>
      <trkpt lat="45.21807" lon="1.70037">
        <ele>181.19999694824</ele>
        <time>2011-06-11T13:07:46.000Z</time>
      </trkpt>
      <trkpt lat="45.21778" lon="1.70006">
        <ele>183</ele>
        <time>2011-06-11T13:07:55.000Z</time>
      </trkpt>
      <trkpt lat="45.21746" lon="1.69963">
        <ele>185.39999389648</ele>
        <time>2011-06-11T13:08:05.000Z</time>
      </trkpt>
      <trkpt lat="45.21728" lon="1.69927">
        <ele>186.80000305176</ele>
        <time>2011-06-11T13:08:13.000Z</time>
      </trkpt>
      <trkpt lat="45.21711" lon="1.69885">
        <ele>189</ele>
        <time>2011-06-11T13:08:21.000Z</time>
      </trkpt>
      <trkpt lat="45.217" lon="1.69833">
        <ele>189.60000610352</ele>
        <time>2011-06-11T13:08:29.000Z</time>
      </trkpt>
      <trkpt lat="45.21694" lon="1.69772">
        <ele>191.60000610352</ele>
        <time>2011-06-11T13:08:38.000Z</time>
      </trkpt>
      <trkpt lat="45.21687" lon="1.69686">
        <ele>192</ele>
        <time>2011-06-11T13:08:50.000Z</time>
      </trkpt>
      <trkpt lat="45.21676" lon="1.69623">
        <ele>192.19999694824</ele>
        <time>2011-06-11T13:08:58.000Z</time>
      </trkpt>
      <trkpt lat="45.21655" lon="1.69562">
        <ele>191.80000305176</ele>
        <time>2011-06-11T13:09:06.000Z</time>
      </trkpt>
      <trkpt lat="45.21631" lon="1.69509">
        <ele>191</ele>
        <time>2011-06-11T13:09:12.000Z</time>
      </trkpt>
      <trkpt lat="45.21595" lon="1.69427">
        <ele>189</ele>
        <time>2011-06-11T13:09:20.000Z</time>
      </trkpt>
      <trkpt lat="45.21296" lon="1.6876">
        <ele>169.80000305176</ele>
        <time>2011-06-11T13:10:15.000Z</time>
      </trkpt>
      <trkpt lat="45.2127" lon="1.68702">
        <ele>167.80000305176</ele>
        <time>2011-06-11T13:10:20.000Z</time>
      </trkpt>
      <trkpt lat="45.21224" lon="1.68601">
        <ele>166</ele>
        <time>2011-06-11T13:10:29.000Z</time>
      </trkpt>
      <trkpt lat="45.21181" lon="1.68521">
        <ele>164.60000610352</ele>
        <time>2011-06-11T13:10:37.000Z</time>
      </trkpt>
      <trkpt lat="45.21135" lon="1.68448">
        <ele>164</ele>
        <time>2011-06-11T13:10:45.000Z</time>
      </trkpt>
      <trkpt lat="45.21083" lon="1.68371">
        <ele>163.19999694824</ele>
        <time>2011-06-11T13:10:54.000Z</time>
      </trkpt>
      <trkpt lat="45.21037" lon="1.68321">
        <ele>163.60000610352</ele>
        <time>2011-06-11T13:11:01.000Z</time>
      </trkpt>
      <trkpt lat="45.20993" lon="1.68292">
        <ele>163.19999694824</ele>
        <time>2011-06-11T13:11:07.000Z</time>
      </trkpt>
      <trkpt lat="45.2094" lon="1.68272">
        <ele>163.39999389648</ele>
        <time>2011-06-11T13:11:14.000Z</time>
      </trkpt>
      <trkpt lat="45.20875" lon="1.68255">
        <ele>164.19999694824</ele>
        <time>2011-06-11T13:11:23.000Z</time>
      </trkpt>
      <trkpt lat="45.20819" lon="1.68233">
        <ele>163.19999694824</ele>
        <time>2011-06-11T13:11:31.000Z</time>
      </trkpt>
      <trkpt lat="45.2078" lon="1.68205">
        <ele>163</ele>
        <time>2011-06-11T13:11:37.000Z</time>
      </trkpt>
      <trkpt lat="45.20746" lon="1.68166">
        <ele>162.60000610352</ele>
        <time>2011-06-11T13:11:43.000Z</time>
      </trkpt>
      <trkpt lat="45.20716" lon="1.68115">
        <ele>162.19999694824</ele>
        <time>2011-06-11T13:11:49.000Z</time>
      </trkpt>
      <trkpt lat="45.20694" lon="1.68052">
        <ele>161</ele>
        <time>2011-06-11T13:11:55.000Z</time>
      </trkpt>
      <trkpt lat="45.20678" lon="1.67981">
        <ele>160.19999694824</ele>
        <time>2011-06-11T13:12:01.000Z</time>
      </trkpt>
      <trkpt lat="45.20657" lon="1.67886">
        <ele>159.19999694824</ele>
        <time>2011-06-11T13:12:09.000Z</time>
      </trkpt>
      <trkpt lat="45.20629" lon="1.67752">
        <ele>159.80000305176</ele>
        <time>2011-06-11T13:12:21.000Z</time>
      </trkpt>
      <trkpt lat="45.20608" lon="1.67655">
        <ele>159.80000305176</ele>
        <time>2011-06-11T13:12:30.000Z</time>
      </trkpt>
      <trkpt lat="45.20593" lon="1.67584">
        <ele>159.80000305176</ele>
        <time>2011-06-11T13:12:37.000Z</time>
      </trkpt>
      <trkpt lat="45.20582" lon="1.67516">
        <ele>160.19999694824</ele>
        <time>2011-06-11T13:12:44.000Z</time>
      </trkpt>
      <trkpt lat="45.2058" lon="1.67453">
        <ele>160.60000610352</ele>
        <time>2011-06-11T13:12:51.000Z</time>
      </trkpt>
      <trkpt lat="45.20586" lon="1.67384">
        <ele>161.60000610352</ele>
        <time>2011-06-11T13:12:59.000Z</time>
      </trkpt>
      <trkpt lat="45.20593" lon="1.67314">
        <ele>162.19999694824</ele>
        <time>2011-06-11T13:13:07.000Z</time>
      </trkpt>
      <trkpt lat="45.20598" lon="1.67268">
        <ele>163.19999694824</ele>
        <time>2011-06-11T13:13:13.000Z</time>
      </trkpt>
      <trkpt lat="45.20623" lon="1.67059">
        <ele>166.39999389648</ele>
        <time>2011-06-11T13:13:39.000Z</time>
      </trkpt>
      <trkpt lat="45.20623" lon="1.66995">
        <ele>167.80000305176</ele>
        <time>2011-06-11T13:13:46.000Z</time>
      </trkpt>
      <trkpt lat="45.20626" lon="1.6695">
        <ele>168.19999694824</ele>
        <time>2011-06-11T13:13:52.000Z</time>
      </trkpt>
      <trkpt lat="45.20622" lon="1.6689">
        <ele>167.80000305176</ele>
        <time>2011-06-11T13:13:59.000Z</time>
      </trkpt>
      <trkpt lat="45.20617" lon="1.66829">
        <ele>167.19999694824</ele>
        <time>2011-06-11T13:14:05.000Z</time>
      </trkpt>
      <trkpt lat="45.2061" lon="1.66753">
        <ele>165.19999694824</ele>
        <time>2011-06-11T13:14:11.000Z</time>
      </trkpt>
      <trkpt lat="45.20599" lon="1.6666">
        <ele>162.39999389648</ele>
        <time>2011-06-11T13:14:18.000Z</time>
      </trkpt>
      <trkpt lat="45.20579" lon="1.6659">
        <ele>159.60000610352</ele>
        <time>2011-06-11T13:14:23.000Z</time>
      </trkpt>
      <trkpt lat="45.20547" lon="1.66523">
        <ele>157.39999389648</ele>
        <time>2011-06-11T13:14:28.000Z</time>
      </trkpt>
      <trkpt lat="45.20516" lon="1.6648">
        <ele>154.80000305176</ele>
        <time>2011-06-11T13:14:32.000Z</time>
      </trkpt>
      <trkpt lat="45.20468" lon="1.66429">
        <ele>152.19999694824</ele>
        <time>2011-06-11T13:14:38.000Z</time>
      </trkpt>
      <trkpt lat="45.20401" lon="1.66365">
        <ele>151.80000305176</ele>
        <time>2011-06-11T13:14:47.000Z</time>
      </trkpt>
      <trkpt lat="45.20357" lon="1.66319">
        <ele>152.39999389648</ele>
        <time>2011-06-11T13:14:54.000Z</time>
      </trkpt>
      <trkpt lat="45.20312" lon="1.66258">
        <ele>151.60000610352</ele>
        <time>2011-06-11T13:15:02.000Z</time>
      </trkpt>
      <trkpt lat="45.20253" lon="1.66174">
        <ele>151.80000305176</ele>
        <time>2011-06-11T13:15:13.000Z</time>
      </trkpt>
      <trkpt lat="45.20205" lon="1.66124">
        <ele>151.60000610352</ele>
        <time>2011-06-11T13:15:21.000Z</time>
      </trkpt>
      <trkpt lat="45.2015" lon="1.66077">
        <ele>151.39999389648</ele>
        <time>2011-06-11T13:15:30.000Z</time>
      </trkpt>
      <trkpt lat="45.20099" lon="1.66045">
        <ele>151.60000610352</ele>
        <time>2011-06-11T13:15:38.000Z</time>
      </trkpt>
      <trkpt lat="45.20031" lon="1.6602">
        <ele>151.60000610352</ele>
        <time>2011-06-11T13:15:48.000Z</time>
      </trkpt>
      <trkpt lat="45.19955" lon="1.65998">
        <ele>151.19999694824</ele>
        <time>2011-06-11T13:15:59.000Z</time>
      </trkpt>
      <trkpt lat="45.1988" lon="1.65971">
        <ele>151.80000305176</ele>
        <time>2011-06-11T13:16:10.000Z</time>
      </trkpt>
      <trkpt lat="45.19808" lon="1.65943">
        <ele>152.19999694824</ele>
        <time>2011-06-11T13:16:21.000Z</time>
      </trkpt>
      <trkpt lat="45.19758" lon="1.65911">
        <ele>152.80000305176</ele>
        <time>2011-06-11T13:16:29.000Z</time>
      </trkpt>
      <trkpt lat="45.19713" lon="1.65869">
        <ele>153</ele>
        <time>2011-06-11T13:16:37.000Z</time>
      </trkpt>
      <trkpt lat="45.19638" lon="1.65789">
        <ele>152.39999389648</ele>
        <time>2011-06-11T13:16:50.000Z</time>
      </trkpt>
      <trkpt lat="45.19567" lon="1.65714">
        <ele>153.19999694824</ele>
        <time>2011-06-11T13:17:02.000Z</time>
      </trkpt>
      <trkpt lat="45.19499" lon="1.65649">
        <ele>153</ele>
        <time>2011-06-11T13:17:13.000Z</time>
      </trkpt>
      <trkpt lat="45.19442" lon="1.65598">
        <ele>153</ele>
        <time>2011-06-11T13:17:22.000Z</time>
      </trkpt>
      <trkpt lat="45.19382" lon="1.65541">
        <ele>153.60000610352</ele>
        <time>2011-06-11T13:17:32.000Z</time>
      </trkpt>
      <trkpt lat="45.19316" lon="1.6548">
        <ele>152.60000610352</ele>
        <time>2011-06-11T13:17:43.000Z</time>
      </trkpt>
      <trkpt lat="45.19259" lon="1.65425">
        <ele>152.60000610352</ele>
        <time>2011-06-11T13:17:53.000Z</time>
      </trkpt>
      <trkpt lat="45.1919" lon="1.65365">
        <ele>153</ele>
        <time>2011-06-11T13:18:04.000Z</time>
      </trkpt>
      <trkpt lat="45.19148" lon="1.65339">
        <ele>152.39999389648</ele>
        <time>2011-06-11T13:18:10.000Z</time>
      </trkpt>
      <trkpt lat="45.19101" lon="1.65326">
        <ele>152.19999694824</ele>
        <time>2011-06-11T13:18:16.000Z</time>
      </trkpt>
      <trkpt lat="45.19057" lon="1.65326">
        <ele>150.60000610352</ele>
        <time>2011-06-11T13:18:21.000Z</time>
      </trkpt>
      <trkpt lat="45.18992" lon="1.6534">
        <ele>148.80000305176</ele>
        <time>2011-06-11T13:18:28.000Z</time>
      </trkpt>
      <trkpt lat="45.18939" lon="1.65369">
        <ele>146.80000305176</ele>
        <time>2011-06-11T13:18:34.000Z</time>
      </trkpt>
      <trkpt lat="45.18882" lon="1.65406">
        <ele>145.60000610352</ele>
        <time>2011-06-11T13:18:41.000Z</time>
      </trkpt>
      <trkpt lat="45.18815" lon="1.6545">
        <ele>144</ele>
        <time>2011-06-11T13:18:50.000Z</time>
      </trkpt>
      <trkpt lat="45.18736" lon="1.65498">
        <ele>144.19999694824</ele>
        <time>2011-06-11T13:19:01.000Z</time>
      </trkpt>
      <trkpt lat="45.1868" lon="1.65532">
        <ele>143.60000610352</ele>
        <time>2011-06-11T13:19:08.000Z</time>
      </trkpt>
      <trkpt lat="45.18626" lon="1.65566">
        <ele>143.60000610352</ele>
        <time>2011-06-11T13:19:15.000Z</time>
      </trkpt>
      <trkpt lat="45.18565" lon="1.65603">
        <ele>143.80000305176</ele>
        <time>2011-06-11T13:19:24.000Z</time>
      </trkpt>
      <trkpt lat="45.18559" lon="1.65606">
        <ele>144.19999694824</ele>
        <time>2011-06-11T13:19:25.000Z</time>
      </trkpt>
      <trkpt lat="45.18541" lon="1.65614">
        <ele>144.80000305176</ele>
        <time>2011-06-11T13:19:30.000Z</time>
      </trkpt>
      <trkpt lat="45.18541" lon="1.65613">
        <ele>144.80000305176</ele>
        <time>2011-06-11T13:19:34.000Z</time>
      </trkpt>
      <trkpt lat="45.18543" lon="1.65617">
        <ele>144.39999389648</ele>
        <time>2011-06-11T13:20:22.000Z</time>
      </trkpt>
      <trkpt lat="45.18542" lon="1.65621">
        <ele>145</ele>
        <time>2011-06-11T13:21:07.000Z</time>
      </trkpt>
      <trkpt lat="45.18541" lon="1.65622">
        <ele>144.80000305176</ele>
        <time>2011-06-11T13:21:41.000Z</time>
      </trkpt>
      <trkpt lat="45.18533" lon="1.65627">
        <ele>145.60000610352</ele>
        <time>2011-06-11T13:24:53.000Z</time>
      </trkpt>
      <trkpt lat="45.18529" lon="1.65632">
        <ele>145.60000610352</ele>
        <time>2011-06-11T13:24:57.000Z</time>
      </trkpt>
      <trkpt lat="45.18515" lon="1.65641">
        <ele>145.19999694824</ele>
        <time>2011-06-11T13:25:03.000Z</time>
      </trkpt>
      <trkpt lat="45.18493" lon="1.65655">
        <ele>145.39999389648</ele>
        <time>2011-06-11T13:25:09.000Z</time>
      </trkpt>
      <trkpt lat="45.18457" lon="1.65674">
        <ele>146.19999694824</ele>
        <time>2011-06-11T13:25:16.000Z</time>
      </trkpt>
      <trkpt lat="45.18414" lon="1.6569">
        <ele>146.19999694824</ele>
        <time>2011-06-11T13:25:23.000Z</time>
      </trkpt>
      <trkpt lat="45.18362" lon="1.65699">
        <ele>145.60000610352</ele>
        <time>2011-06-11T13:25:31.000Z</time>
      </trkpt>
      <trkpt lat="45.18312" lon="1.65692">
        <ele>145.60000610352</ele>
        <time>2011-06-11T13:25:38.000Z</time>
      </trkpt>
      <trkpt lat="45.18264" lon="1.65675">
        <ele>145.60000610352</ele>
        <time>2011-06-11T13:25:45.000Z</time>
      </trkpt>
      <trkpt lat="45.18216" lon="1.65645">
        <ele>144.39999389648</ele>
        <time>2011-06-11T13:25:53.000Z</time>
      </trkpt>
      <trkpt lat="45.18171" lon="1.65603">
        <ele>144</ele>
        <time>2011-06-11T13:26:01.000Z</time>
      </trkpt>
      <trkpt lat="45.18131" lon="1.65547">
        <ele>143.60000610352</ele>
        <time>2011-06-11T13:26:09.000Z</time>
      </trkpt>
      <trkpt lat="45.18096" lon="1.65482">
        <ele>143.60000610352</ele>
        <time>2011-06-11T13:26:17.000Z</time>
      </trkpt>
      <trkpt lat="45.18064" lon="1.65404">
        <ele>143.39999389648</ele>
        <time>2011-06-11T13:26:26.000Z</time>
      </trkpt>
      <trkpt lat="45.18035" lon="1.65317">
        <ele>143.80000305176</ele>
        <time>2011-06-11T13:26:36.000Z</time>
      </trkpt>
      <trkpt lat="45.18014" lon="1.65225">
        <ele>144.19999694824</ele>
        <time>2011-06-11T13:26:46.000Z</time>
      </trkpt>
      <trkpt lat="45.18003" lon="1.65139">
        <ele>144.80000305176</ele>
        <time>2011-06-11T13:26:55.000Z</time>
      </trkpt>
      <trkpt lat="45.18004" lon="1.6507">
        <ele>144.39999389648</ele>
        <time>2011-06-11T13:27:02.000Z</time>
      </trkpt>
      <trkpt lat="45.18015" lon="1.64975">
        <ele>143.39999389648</ele>
        <time>2011-06-11T13:27:11.000Z</time>
      </trkpt>
      <trkpt lat="45.18035" lon="1.64891">
        <ele>141.60000610352</ele>
        <time>2011-06-11T13:27:19.000Z</time>
      </trkpt>
      <trkpt lat="45.18066" lon="1.64809">
        <ele>140.60000610352</ele>
        <time>2011-06-11T13:27:27.000Z</time>
      </trkpt>
      <trkpt lat="45.18124" lon="1.64667">
        <ele>138</ele>
        <time>2011-06-11T13:27:41.000Z</time>
      </trkpt>
      <trkpt lat="45.1816" lon="1.64577">
        <ele>138</ele>
        <time>2011-06-11T13:27:50.000Z</time>
      </trkpt>
      <trkpt lat="45.1818" lon="1.64502">
        <ele>137.80000305176</ele>
        <time>2011-06-11T13:27:57.000Z</time>
      </trkpt>
      <trkpt lat="45.18196" lon="1.64407">
        <ele>136.60000610352</ele>
        <time>2011-06-11T13:28:06.000Z</time>
      </trkpt>
      <trkpt lat="45.1821" lon="1.64302">
        <ele>136.60000610352</ele>
        <time>2011-06-11T13:28:16.000Z</time>
      </trkpt>
      <trkpt lat="45.18213" lon="1.64218">
        <ele>136.60000610352</ele>
        <time>2011-06-11T13:28:24.000Z</time>
      </trkpt>
      <trkpt lat="45.18206" lon="1.64146">
        <ele>136.19999694824</ele>
        <time>2011-06-11T13:28:31.000Z</time>
      </trkpt>
      <trkpt lat="45.18195" lon="1.6407">
        <ele>135.80000305176</ele>
        <time>2011-06-11T13:28:38.000Z</time>
      </trkpt>
      <trkpt lat="45.1818" lon="1.63996">
        <ele>135.80000305176</ele>
        <time>2011-06-11T13:28:45.000Z</time>
      </trkpt>
      <trkpt lat="45.1817" lon="1.63909">
        <ele>135.60000610352</ele>
        <time>2011-06-11T13:28:53.000Z</time>
      </trkpt>
      <trkpt lat="45.18166" lon="1.63803">
        <ele>134.60000610352</ele>
        <time>2011-06-11T13:29:03.000Z</time>
      </trkpt>
      <trkpt lat="45.18175" lon="1.63749">
        <ele>134.80000305176</ele>
        <time>2011-06-11T13:29:08.000Z</time>
      </trkpt>
      <trkpt lat="45.18183" lon="1.63688">
        <ele>134.80000305176</ele>
        <time>2011-06-11T13:29:14.000Z</time>
      </trkpt>
      <trkpt lat="45.18182" lon="1.63626">
        <ele>134.80000305176</ele>
        <time>2011-06-11T13:29:20.000Z</time>
      </trkpt>
      <trkpt lat="45.18175" lon="1.63544">
        <ele>134.39999389648</ele>
        <time>2011-06-11T13:29:28.000Z</time>
      </trkpt>
      <trkpt lat="45.1816" lon="1.63474">
        <ele>134.19999694824</ele>
        <time>2011-06-11T13:29:35.000Z</time>
      </trkpt>
      <trkpt lat="45.18141" lon="1.63421">
        <ele>134.19999694824</ele>
        <time>2011-06-11T13:29:41.000Z</time>
      </trkpt>
      <trkpt lat="45.18114" lon="1.63374">
        <ele>134.19999694824</ele>
        <time>2011-06-11T13:29:47.000Z</time>
      </trkpt>
      <trkpt lat="45.18061" lon="1.633">
        <ele>134.39999389648</ele>
        <time>2011-06-11T13:29:57.000Z</time>
      </trkpt>
      <trkpt lat="45.18012" lon="1.63232">
        <ele>134.19999694824</ele>
        <time>2011-06-11T13:30:06.000Z</time>
      </trkpt>
      <trkpt lat="45.17947" lon="1.63145">
        <ele>133.80000305176</ele>
        <time>2011-06-11T13:30:18.000Z</time>
      </trkpt>
      <trkpt lat="45.179" lon="1.63099">
        <ele>134</ele>
        <time>2011-06-11T13:30:26.000Z</time>
      </trkpt>
      <trkpt lat="45.17855" lon="1.63072">
        <ele>133.80000305176</ele>
        <time>2011-06-11T13:30:33.000Z</time>
      </trkpt>
      <trkpt lat="45.17795" lon="1.63044">
        <ele>134</ele>
        <time>2011-06-11T13:30:42.000Z</time>
      </trkpt>
      <trkpt lat="45.17749" lon="1.63012">
        <ele>134</ele>
        <time>2011-06-11T13:30:49.000Z</time>
      </trkpt>
      <trkpt lat="45.17715" lon="1.62972">
        <ele>133</ele>
        <time>2011-06-11T13:30:55.000Z</time>
      </trkpt>
      <trkpt lat="45.17687" lon="1.62924">
        <ele>133.39999389648</ele>
        <time>2011-06-11T13:31:01.000Z</time>
      </trkpt>
      <trkpt lat="45.17667" lon="1.62868">
        <ele>133.39999389648</ele>
        <time>2011-06-11T13:31:07.000Z</time>
      </trkpt>
      <trkpt lat="45.17656" lon="1.62806">
        <ele>134</ele>
        <time>2011-06-11T13:31:13.000Z</time>
      </trkpt>
      <trkpt lat="45.17652" lon="1.62721">
        <ele>133</ele>
        <time>2011-06-11T13:31:21.000Z</time>
      </trkpt>
      <trkpt lat="45.17646" lon="1.62591">
        <ele>133.60000610352</ele>
        <time>2011-06-11T13:31:33.000Z</time>
      </trkpt>
      <trkpt lat="45.17632" lon="1.62509">
        <ele>133.19999694824</ele>
        <time>2011-06-11T13:31:41.000Z</time>
      </trkpt>
      <trkpt lat="45.1761" lon="1.62418">
        <ele>133</ele>
        <time>2011-06-11T13:31:50.000Z</time>
      </trkpt>
      <trkpt lat="45.17586" lon="1.6234">
        <ele>133.19999694824</ele>
        <time>2011-06-11T13:31:58.000Z</time>
      </trkpt>
      <trkpt lat="45.17558" lon="1.6228">
        <ele>133</ele>
        <time>2011-06-11T13:32:05.000Z</time>
      </trkpt>
      <trkpt lat="45.17521" lon="1.62228">
        <ele>132.39999389648</ele>
        <time>2011-06-11T13:32:12.000Z</time>
      </trkpt>
      <trkpt lat="45.1748" lon="1.62188">
        <ele>133</ele>
        <time>2011-06-11T13:32:19.000Z</time>
      </trkpt>
      <trkpt lat="45.17421" lon="1.62146">
        <ele>132.39999389648</ele>
        <time>2011-06-11T13:32:28.000Z</time>
      </trkpt>
      <trkpt lat="45.17361" lon="1.62101">
        <ele>131.60000610352</ele>
        <time>2011-06-11T13:32:37.000Z</time>
      </trkpt>
      <trkpt lat="45.17318" lon="1.62056">
        <ele>131.39999389648</ele>
        <time>2011-06-11T13:32:44.000Z</time>
      </trkpt>
      <trkpt lat="45.17286" lon="1.62013">
        <ele>131.19999694824</ele>
        <time>2011-06-11T13:32:50.000Z</time>
      </trkpt>
      <trkpt lat="45.17257" lon="1.61962">
        <ele>130.80000305176</ele>
        <time>2011-06-11T13:32:56.000Z</time>
      </trkpt>
      <trkpt lat="45.17232" lon="1.61906">
        <ele>130.80000305176</ele>
        <time>2011-06-11T13:33:02.000Z</time>
      </trkpt>
      <trkpt lat="45.17207" lon="1.6183">
        <ele>130.39999389648</ele>
        <time>2011-06-11T13:33:10.000Z</time>
      </trkpt>
      <trkpt lat="45.17191" lon="1.61751">
        <ele>130</ele>
        <time>2011-06-11T13:33:18.000Z</time>
      </trkpt>
      <trkpt lat="45.17183" lon="1.6167">
        <ele>130</ele>
        <time>2011-06-11T13:33:26.000Z</time>
      </trkpt>
      <trkpt lat="45.17182" lon="1.61584">
        <ele>129.80000305176</ele>
        <time>2011-06-11T13:33:34.000Z</time>
      </trkpt>
      <trkpt lat="45.17186" lon="1.61479">
        <ele>129.60000610352</ele>
        <time>2011-06-11T13:33:44.000Z</time>
      </trkpt>
      <trkpt lat="45.17191" lon="1.61324">
        <ele>128.80000305176</ele>
        <time>2011-06-11T13:33:58.000Z</time>
      </trkpt>
      <trkpt lat="45.17194" lon="1.61211">
        <ele>128.80000305176</ele>
        <time>2011-06-11T13:34:08.000Z</time>
      </trkpt>
      <trkpt lat="45.17202" lon="1.61121">
        <ele>128.19999694824</ele>
        <time>2011-06-11T13:34:16.000Z</time>
      </trkpt>
      <trkpt lat="45.17216" lon="1.61055">
        <ele>128.19999694824</ele>
        <time>2011-06-11T13:34:22.000Z</time>
      </trkpt>
      <trkpt lat="45.17241" lon="1.60988">
        <ele>127.40000152588</ele>
        <time>2011-06-11T13:34:29.000Z</time>
      </trkpt>
      <trkpt lat="45.17291" lon="1.60871">
        <ele>127.40000152588</ele>
        <time>2011-06-11T13:34:41.000Z</time>
      </trkpt>
      <trkpt lat="45.1733" lon="1.60786">
        <ele>126.40000152588</ele>
        <time>2011-06-11T13:34:50.000Z</time>
      </trkpt>
      <trkpt lat="45.17379" lon="1.60708">
        <ele>126.19999694824</ele>
        <time>2011-06-11T13:34:59.000Z</time>
      </trkpt>
      <trkpt lat="45.17445" lon="1.60619">
        <ele>125.40000152588</ele>
        <time>2011-06-11T13:35:10.000Z</time>
      </trkpt>
      <trkpt lat="45.17496" lon="1.60544">
        <ele>125.59999847412</ele>
        <time>2011-06-11T13:35:19.000Z</time>
      </trkpt>
      <trkpt lat="45.17529" lon="1.60476">
        <ele>125.40000152588</ele>
        <time>2011-06-11T13:35:26.000Z</time>
      </trkpt>
      <trkpt lat="45.17552" lon="1.60412">
        <ele>125.59999847412</ele>
        <time>2011-06-11T13:35:32.000Z</time>
      </trkpt>
      <trkpt lat="45.17576" lon="1.60321">
        <ele>126.19999694824</ele>
        <time>2011-06-11T13:35:40.000Z</time>
      </trkpt>
      <trkpt lat="45.17599" lon="1.60231">
        <ele>125.59999847412</ele>
        <time>2011-06-11T13:35:48.000Z</time>
      </trkpt>
      <trkpt lat="45.17626" lon="1.60135">
        <ele>125</ele>
        <time>2011-06-11T13:35:57.000Z</time>
      </trkpt>
      <trkpt lat="45.17658" lon="1.60041">
        <ele>125</ele>
        <time>2011-06-11T13:36:06.000Z</time>
      </trkpt>
      <trkpt lat="45.17687" lon="1.59962">
        <ele>124.40000152588</ele>
        <time>2011-06-11T13:36:14.000Z</time>
      </trkpt>
      <trkpt lat="45.1772" lon="1.59857">
        <ele>124.40000152588</ele>
        <time>2011-06-11T13:36:24.000Z</time>
      </trkpt>
      <trkpt lat="45.17756" lon="1.59726">
        <ele>124</ele>
        <time>2011-06-11T13:36:36.000Z</time>
      </trkpt>
      <trkpt lat="45.17783" lon="1.5963">
        <ele>123.80000305176</ele>
        <time>2011-06-11T13:36:45.000Z</time>
      </trkpt>
      <trkpt lat="45.17811" lon="1.59512">
        <ele>124</ele>
        <time>2011-06-11T13:36:56.000Z</time>
      </trkpt>
      <trkpt lat="45.17821" lon="1.59452">
        <ele>124.19999694824</ele>
        <time>2011-06-11T13:37:02.000Z</time>
      </trkpt>
      <trkpt lat="45.17834" lon="1.59424">
        <ele>124.19999694824</ele>
        <time>2011-06-11T13:37:06.000Z</time>
      </trkpt>
      <trkpt lat="45.17841" lon="1.59388">
        <ele>124.19999694824</ele>
        <time>2011-06-11T13:37:10.000Z</time>
      </trkpt>
      <trkpt lat="45.17832" lon="1.59372">
        <ele>124.40000152588</ele>
        <time>2011-06-11T13:37:12.000Z</time>
      </trkpt>
      <trkpt lat="45.17812" lon="1.59326">
        <ele>124.19999694824</ele>
        <time>2011-06-11T13:37:17.000Z</time>
      </trkpt>
      <trkpt lat="45.17792" lon="1.5925">
        <ele>123.40000152588</ele>
        <time>2011-06-11T13:37:24.000Z</time>
      </trkpt>
      <trkpt lat="45.17782" lon="1.59198">
        <ele>122.80000305176</ele>
        <time>2011-06-11T13:37:29.000Z</time>
      </trkpt>
      <trkpt lat="45.17779" lon="1.59167">
        <ele>122.80000305176</ele>
        <time>2011-06-11T13:37:32.000Z</time>
      </trkpt>
      <trkpt lat="45.17773" lon="1.59136">
        <ele>123.40000152588</ele>
        <time>2011-06-11T13:37:35.000Z</time>
      </trkpt>
      <trkpt lat="45.17767" lon="1.59069">
        <ele>123</ele>
        <time>2011-06-11T13:37:41.000Z</time>
      </trkpt>
      <trkpt lat="45.17751" lon="1.58978">
        <ele>122.40000152588</ele>
        <time>2011-06-11T13:37:49.000Z</time>
      </trkpt>
      <trkpt lat="45.17734" lon="1.5888">
        <ele>122</ele>
        <time>2011-06-11T13:37:58.000Z</time>
      </trkpt>
      <trkpt lat="45.17715" lon="1.58774">
        <ele>121.59999847412</ele>
        <time>2011-06-11T13:38:08.000Z</time>
      </trkpt>
      <trkpt lat="45.17691" lon="1.58638">
        <ele>121.40000152588</ele>
        <time>2011-06-11T13:38:21.000Z</time>
      </trkpt>
      <trkpt lat="45.17674" lon="1.58533">
        <ele>121.59999847412</ele>
        <time>2011-06-11T13:38:31.000Z</time>
      </trkpt>
      <trkpt lat="45.17653" lon="1.5842">
        <ele>121.40000152588</ele>
        <time>2011-06-11T13:38:42.000Z</time>
      </trkpt>
      <trkpt lat="45.17637" lon="1.58328">
        <ele>120.80000305176</ele>
        <time>2011-06-11T13:38:51.000Z</time>
      </trkpt>
      <trkpt lat="45.17617" lon="1.58244">
        <ele>121.19999694824</ele>
        <time>2011-06-11T13:38:59.000Z</time>
      </trkpt>
      <trkpt lat="45.17592" lon="1.58164">
        <ele>120.19999694824</ele>
        <time>2011-06-11T13:39:07.000Z</time>
      </trkpt>
      <trkpt lat="45.1755" lon="1.58036">
        <ele>120.80000305176</ele>
        <time>2011-06-11T13:39:20.000Z</time>
      </trkpt>
      <trkpt lat="45.17518" lon="1.57941">
        <ele>120.59999847412</ele>
        <time>2011-06-11T13:39:30.000Z</time>
      </trkpt>
      <trkpt lat="45.17485" lon="1.57837">
        <ele>120.19999694824</ele>
        <time>2011-06-11T13:39:41.000Z</time>
      </trkpt>
      <trkpt lat="45.17468" lon="1.5776">
        <ele>120.19999694824</ele>
        <time>2011-06-11T13:39:49.000Z</time>
      </trkpt>
      <trkpt lat="45.17461" lon="1.57679">
        <ele>120</ele>
        <time>2011-06-11T13:39:57.000Z</time>
      </trkpt>
      <trkpt lat="45.17457" lon="1.57594">
        <ele>120.59999847412</ele>
        <time>2011-06-11T13:40:05.000Z</time>
      </trkpt>
      <trkpt lat="45.17456" lon="1.57486">
        <ele>120.59999847412</ele>
        <time>2011-06-11T13:40:15.000Z</time>
      </trkpt>
      <trkpt lat="45.17449" lon="1.57402">
        <ele>120.80000305176</ele>
        <time>2011-06-11T13:40:23.000Z</time>
      </trkpt>
      <trkpt lat="45.17437" lon="1.57329">
        <ele>120.40000152588</ele>
        <time>2011-06-11T13:40:30.000Z</time>
      </trkpt>
      <trkpt lat="45.17418" lon="1.57238">
        <ele>120.40000152588</ele>
        <time>2011-06-11T13:40:39.000Z</time>
      </trkpt>
      <trkpt lat="45.17408" lon="1.57153">
        <ele>120</ele>
        <time>2011-06-11T13:40:47.000Z</time>
      </trkpt>
      <trkpt lat="45.17394" lon="1.57063">
        <ele>120.59999847412</ele>
        <time>2011-06-11T13:40:56.000Z</time>
      </trkpt>
      <trkpt lat="45.1739" lon="1.57055">
        <ele>120.59999847412</ele>
        <time>2011-06-11T13:40:57.000Z</time>
      </trkpt>
      <trkpt lat="45.1736" lon="1.57004">
        <ele>120.40000152588</ele>
        <time>2011-06-11T13:41:04.000Z</time>
      </trkpt>
      <trkpt lat="45.1733" lon="1.56974">
        <ele>121</ele>
        <time>2011-06-11T13:41:10.000Z</time>
      </trkpt>
      <trkpt lat="45.17298" lon="1.56939">
        <ele>120.19999694824</ele>
        <time>2011-06-11T13:41:17.000Z</time>
      </trkpt>
      <trkpt lat="45.17261" lon="1.56887">
        <ele>120.40000152588</ele>
        <time>2011-06-11T13:41:25.000Z</time>
      </trkpt>
      <trkpt lat="45.17216" lon="1.56825">
        <ele>120.19999694824</ele>
        <time>2011-06-11T13:41:34.000Z</time>
      </trkpt>
      <trkpt lat="45.17169" lon="1.56757">
        <ele>119.80000305176</ele>
        <time>2011-06-11T13:41:43.000Z</time>
      </trkpt>
      <trkpt lat="45.17117" lon="1.56685">
        <ele>118.80000305176</ele>
        <time>2011-06-11T13:41:53.000Z</time>
      </trkpt>
      <trkpt lat="45.17092" lon="1.56651">
        <ele>118.80000305176</ele>
        <time>2011-06-11T13:41:58.000Z</time>
      </trkpt>
      <trkpt lat="45.17074" lon="1.56608">
        <ele>119</ele>
        <time>2011-06-11T13:42:03.000Z</time>
      </trkpt>
      <trkpt lat="45.17058" lon="1.56541">
        <ele>118.40000152588</ele>
        <time>2011-06-11T13:42:10.000Z</time>
      </trkpt>
      <trkpt lat="45.17038" lon="1.56458">
        <ele>118.19999694824</ele>
        <time>2011-06-11T13:42:19.000Z</time>
      </trkpt>
      <trkpt lat="45.17037" lon="1.56451">
        <ele>118.19999694824</ele>
        <time>2011-06-11T13:42:20.000Z</time>
      </trkpt>
      <trkpt lat="45.17038" lon="1.56433">
        <ele>118</ele>
        <time>2011-06-11T13:42:24.000Z</time>
      </trkpt>
      <trkpt lat="45.17046" lon="1.56421">
        <ele>117.80000305176</ele>
        <time>2011-06-11T13:42:27.000Z</time>
      </trkpt>
      <trkpt lat="45.17052" lon="1.56391">
        <ele>117.80000305176</ele>
        <time>2011-06-11T13:42:31.000Z</time>
      </trkpt>
      <trkpt lat="45.17057" lon="1.56324">
        <ele>117.59999847412</ele>
        <time>2011-06-11T13:42:38.000Z</time>
      </trkpt>
      <trkpt lat="45.17056" lon="1.56304">
        <ele>117.59999847412</ele>
        <time>2011-06-11T13:42:40.000Z</time>
      </trkpt>
      <trkpt lat="45.17045" lon="1.56259">
        <ele>117.80000305176</ele>
        <time>2011-06-11T13:42:45.000Z</time>
      </trkpt>
      <trkpt lat="45.1704" lon="1.56252">
        <ele>118</ele>
        <time>2011-06-11T13:42:46.000Z</time>
      </trkpt>
      <trkpt lat="45.17004" lon="1.56207">
        <ele>118</ele>
        <time>2011-06-11T13:42:54.000Z</time>
      </trkpt>
      <trkpt lat="45.16969" lon="1.56157">
        <ele>118.19999694824</ele>
        <time>2011-06-11T13:43:01.000Z</time>
      </trkpt>
      <trkpt lat="45.16935" lon="1.56098">
        <ele>118.80000305176</ele>
        <time>2011-06-11T13:43:08.000Z</time>
      </trkpt>
      <trkpt lat="45.16909" lon="1.56054">
        <ele>118.40000152588</ele>
        <time>2011-06-11T13:43:14.000Z</time>
      </trkpt>
      <trkpt lat="45.16904" lon="1.56029">
        <ele>118.40000152588</ele>
        <time>2011-06-11T13:43:18.000Z</time>
      </trkpt>
      <trkpt lat="45.16895" lon="1.55995">
        <ele>118.59999847412</ele>
        <time>2011-06-11T13:43:22.000Z</time>
      </trkpt>
      <trkpt lat="45.16878" lon="1.55882">
        <ele>117.59999847412</ele>
        <time>2011-06-11T13:43:32.000Z</time>
      </trkpt>
      <trkpt lat="45.1686" lon="1.55768">
        <ele>117.59999847412</ele>
        <time>2011-06-11T13:43:42.000Z</time>
      </trkpt>
      <trkpt lat="45.16848" lon="1.55686">
        <ele>117.19999694824</ele>
        <time>2011-06-11T13:43:50.000Z</time>
      </trkpt>
      <trkpt lat="45.16834" lon="1.55592">
        <ele>117.80000305176</ele>
        <time>2011-06-11T13:43:59.000Z</time>
      </trkpt>
      <trkpt lat="45.16817" lon="1.55486">
        <ele>117.19999694824</ele>
        <time>2011-06-11T13:44:09.000Z</time>
      </trkpt>
      <trkpt lat="45.16797" lon="1.55357">
        <ele>116.80000305176</ele>
        <time>2011-06-11T13:44:21.000Z</time>
      </trkpt>
      <trkpt lat="45.16781" lon="1.55252">
        <ele>116.40000152588</ele>
        <time>2011-06-11T13:44:31.000Z</time>
      </trkpt>
      <trkpt lat="45.16761" lon="1.55123">
        <ele>116.40000152588</ele>
        <time>2011-06-11T13:44:44.000Z</time>
      </trkpt>
      <trkpt lat="45.16747" lon="1.55034">
        <ele>116.19999694824</ele>
        <time>2011-06-11T13:44:53.000Z</time>
      </trkpt>
      <trkpt lat="45.16734" lon="1.54945">
        <ele>116</ele>
        <time>2011-06-11T13:45:02.000Z</time>
      </trkpt>
      <trkpt lat="45.1672" lon="1.54853">
        <ele>115</ele>
        <time>2011-06-11T13:45:11.000Z</time>
      </trkpt>
      <trkpt lat="45.16707" lon="1.54774">
        <ele>115</ele>
        <time>2011-06-11T13:45:19.000Z</time>
      </trkpt>
      <trkpt lat="45.16694" lon="1.54693">
        <ele>115.19999694824</ele>
        <time>2011-06-11T13:45:27.000Z</time>
      </trkpt>
      <trkpt lat="45.16676" lon="1.5458">
        <ele>114.59999847412</ele>
        <time>2011-06-11T13:45:38.000Z</time>
      </trkpt>
      <trkpt lat="45.16665" lon="1.54506">
        <ele>115</ele>
        <time>2011-06-11T13:45:46.000Z</time>
      </trkpt>
      <trkpt lat="45.16655" lon="1.54436">
        <ele>114.19999694824</ele>
        <time>2011-06-11T13:45:55.000Z</time>
      </trkpt>
      <trkpt lat="45.16647" lon="1.54383">
        <ele>114.40000152588</ele>
        <time>2011-06-11T13:46:02.000Z</time>
      </trkpt>
      <trkpt lat="45.16646" lon="1.54364">
        <ele>114</ele>
        <time>2011-06-11T13:46:06.000Z</time>
      </trkpt>
      <trkpt lat="45.16646" lon="1.54354">
        <ele>114</ele>
        <time>2011-06-11T13:46:09.000Z</time>
      </trkpt>
      <trkpt lat="45.16645" lon="1.5435">
        <ele>114.19999694824</ele>
        <time>2011-06-11T13:46:13.000Z</time>
      </trkpt>
      <trkpt lat="45.16642" lon="1.54344">
        <ele>113.80000305176</ele>
        <time>2011-06-11T13:46:48.000Z</time>
      </trkpt>
      <trkpt lat="45.16636" lon="1.5431">
        <ele>115</ele>
        <time>2011-06-11T13:46:53.000Z</time>
      </trkpt>
      <trkpt lat="45.16623" lon="1.54228">
        <ele>113.59999847412</ele>
        <time>2011-06-11T13:47:03.000Z</time>
      </trkpt>
      <trkpt lat="45.1662" lon="1.54213">
        <ele>113.40000152588</ele>
        <time>2011-06-11T13:47:05.000Z</time>
      </trkpt>
      <trkpt lat="45.16625" lon="1.54183">
        <ele>113.40000152588</ele>
        <time>2011-06-11T13:47:09.000Z</time>
      </trkpt>
      <trkpt lat="45.16623" lon="1.54159">
        <ele>113.59999847412</ele>
        <time>2011-06-11T13:47:12.000Z</time>
      </trkpt>
      <trkpt lat="45.16619" lon="1.54152">
        <ele>113.59999847412</ele>
        <time>2011-06-11T13:47:13.000Z</time>
      </trkpt>
      <trkpt lat="45.16603" lon="1.54102">
        <ele>113.80000305176</ele>
        <time>2011-06-11T13:47:19.000Z</time>
      </trkpt>
      <trkpt lat="45.16593" lon="1.54036">
        <ele>113</ele>
        <time>2011-06-11T13:47:26.000Z</time>
      </trkpt>
      <trkpt lat="45.16576" lon="1.53929">
        <ele>112.59999847412</ele>
        <time>2011-06-11T13:47:37.000Z</time>
      </trkpt>
      <trkpt lat="45.16564" lon="1.53851">
        <ele>112.40000152588</ele>
        <time>2011-06-11T13:47:45.000Z</time>
      </trkpt>
      <trkpt lat="45.16554" lon="1.53788">
        <ele>112.80000305176</ele>
        <time>2011-06-11T13:47:53.000Z</time>
      </trkpt>
      <trkpt lat="45.16546" lon="1.53722">
        <ele>111.80000305176</ele>
        <time>2011-06-11T13:48:00.000Z</time>
      </trkpt>
      <trkpt lat="45.16538" lon="1.5364">
        <ele>111.59999847412</ele>
        <time>2011-06-11T13:48:08.000Z</time>
      </trkpt>
      <trkpt lat="45.1653" lon="1.53547">
        <ele>111.80000305176</ele>
        <time>2011-06-11T13:48:17.000Z</time>
      </trkpt>
      <trkpt lat="45.16522" lon="1.53454">
        <ele>112.19999694824</ele>
        <time>2011-06-11T13:48:26.000Z</time>
      </trkpt>
      <trkpt lat="45.16511" lon="1.53344">
        <ele>113</ele>
        <time>2011-06-11T13:48:37.000Z</time>
      </trkpt>
      <trkpt lat="45.16502" lon="1.53271">
        <ele>112.59999847412</ele>
        <time>2011-06-11T13:48:45.000Z</time>
      </trkpt>
      <trkpt lat="45.165" lon="1.5324">
        <ele>112.40000152588</ele>
        <time>2011-06-11T13:48:50.000Z</time>
      </trkpt>
      <trkpt lat="45.165" lon="1.53233">
        <ele>112.80000305176</ele>
        <time>2011-06-11T13:48:54.000Z</time>
      </trkpt>
      <trkpt lat="45.165" lon="1.53226">
        <ele>113.19999694824</ele>
        <time>2011-06-11T13:50:16.000Z</time>
      </trkpt>
      <trkpt lat="45.16499" lon="1.53216">
        <ele>113.40000152588</ele>
        <time>2011-06-11T13:50:18.000Z</time>
      </trkpt>
      <trkpt lat="45.16487" lon="1.532">
        <ele>113.40000152588</ele>
        <time>2011-06-11T13:50:22.000Z</time>
      </trkpt>
      <trkpt lat="45.16478" lon="1.53201">
        <ele>113</ele>
        <time>2011-06-11T13:50:24.000Z</time>
      </trkpt>
      <trkpt lat="45.16439" lon="1.53211">
        <ele>113.59999847412</ele>
        <time>2011-06-11T13:50:32.000Z</time>
      </trkpt>
      <trkpt lat="45.16399" lon="1.53221">
        <ele>113</ele>
        <time>2011-06-11T13:50:40.000Z</time>
      </trkpt>
      <trkpt lat="45.16359" lon="1.5323">
        <ele>112.19999694824</ele>
        <time>2011-06-11T13:50:47.000Z</time>
      </trkpt>
      <trkpt lat="45.16295" lon="1.53242">
        <ele>112</ele>
        <time>2011-06-11T13:50:57.000Z</time>
      </trkpt>
      <trkpt lat="45.16269" lon="1.53248">
        <ele>111.40000152588</ele>
        <time>2011-06-11T13:51:02.000Z</time>
      </trkpt>
      <trkpt lat="45.16258" lon="1.53251">
        <ele>111.59999847412</ele>
        <time>2011-06-11T13:51:06.000Z</time>
      </trkpt>
      <trkpt lat="45.16257" lon="1.53252">
        <ele>111.59999847412</ele>
        <time>2011-06-11T13:51:08.000Z</time>
      </trkpt>
      <trkpt lat="45.16251" lon="1.53257">
        <ele>111.80000305176</ele>
        <time>2011-06-11T13:51:18.000Z</time>
      </trkpt>
      <trkpt lat="45.16237" lon="1.53262">
        <ele>111.59999847412</ele>
        <time>2011-06-11T13:51:23.000Z</time>
      </trkpt>
      <trkpt lat="45.16228" lon="1.53265">
        <ele>111.80000305176</ele>
        <time>2011-06-11T13:51:28.000Z</time>
      </trkpt>
      <trkpt lat="45.16219" lon="1.53267">
        <ele>112</ele>
        <time>2011-06-11T13:51:33.000Z</time>
      </trkpt>
      <trkpt lat="45.16214" lon="1.53268">
        <ele>111.80000305176</ele>
        <time>2011-06-11T13:51:39.000Z</time>
      </trkpt>
      <trkpt lat="45.16214" lon="1.53268">
        <ele>111.59999847412</ele>
        <time>2011-06-11T13:51:40.000Z</time>
      </trkpt>
      <trkpt lat="45.16208" lon="1.53261">
        <ele>112</ele>
        <time>2011-06-11T13:52:08.000Z</time>
      </trkpt>
      <trkpt lat="45.16206" lon="1.53244">
        <ele>112</ele>
        <time>2011-06-11T13:52:12.000Z</time>
      </trkpt>
      <trkpt lat="45.16204" lon="1.53196">
        <ele>111.40000152588</ele>
        <time>2011-06-11T13:52:20.000Z</time>
      </trkpt>
      <trkpt lat="45.16199" lon="1.53147">
        <ele>111</ele>
        <time>2011-06-11T13:52:28.000Z</time>
      </trkpt>
      <trkpt lat="45.16195" lon="1.53103">
        <ele>110.59999847412</ele>
        <time>2011-06-11T13:52:36.000Z</time>
      </trkpt>
      <trkpt lat="45.16191" lon="1.53065">
        <ele>110.40000152588</ele>
        <time>2011-06-11T13:52:43.000Z</time>
      </trkpt>
      <trkpt lat="45.1619" lon="1.53048">
        <ele>110</ele>
        <time>2011-06-11T13:52:46.000Z</time>
      </trkpt>
      <trkpt lat="45.16187" lon="1.52991">
        <ele>110.40000152588</ele>
        <time>2011-06-11T13:52:55.000Z</time>
      </trkpt>
      <trkpt lat="45.16187" lon="1.52984">
        <ele>110.19999694824</ele>
        <time>2011-06-11T13:52:56.000Z</time>
      </trkpt>
      <trkpt lat="45.16192" lon="1.52951">
        <ele>110</ele>
        <time>2011-06-11T13:53:01.000Z</time>
      </trkpt>
      <trkpt lat="45.16205" lon="1.52926">
        <ele>110.19999694824</ele>
        <time>2011-06-11T13:53:06.000Z</time>
      </trkpt>
      <trkpt lat="45.16206" lon="1.52916">
        <ele>110.40000152588</ele>
        <time>2011-06-11T13:53:09.000Z</time>
      </trkpt>
      <trkpt lat="45.16206" lon="1.52915">
        <ele>110.59999847412</ele>
        <time>2011-06-11T13:53:11.000Z</time>
      </trkpt>
      <trkpt lat="45.16187" lon="1.52907">
        <ele>110.19999694824</ele>
        <time>2011-06-11T13:53:27.000Z</time>
      </trkpt>
      <trkpt lat="45.16184" lon="1.52905">
        <ele>110.19999694824</ele>
        <time>2011-06-11T13:53:28.000Z</time>
      </trkpt>
      <trkpt lat="45.16157" lon="1.52882">
        <ele>111</ele>
        <time>2011-06-11T13:53:34.000Z</time>
      </trkpt>
      <trkpt lat="45.16114" lon="1.52848">
        <ele>111.19999694824</ele>
        <time>2011-06-11T13:53:42.000Z</time>
      </trkpt>
      <trkpt lat="45.1607" lon="1.52813">
        <ele>111</ele>
        <time>2011-06-11T13:53:50.000Z</time>
      </trkpt>
      <trkpt lat="45.16043" lon="1.52793">
        <ele>111.40000152588</ele>
        <time>2011-06-11T13:53:56.000Z</time>
      </trkpt>
      <trkpt lat="45.16029" lon="1.52794">
        <ele>111.80000305176</ele>
        <time>2011-06-11T13:54:00.000Z</time>
      </trkpt>
      <trkpt lat="45.16021" lon="1.52809">
        <ele>112</ele>
        <time>2011-06-11T13:54:04.000Z</time>
      </trkpt>
      <trkpt lat="45.16007" lon="1.52842">
        <ele>112</ele>
        <time>2011-06-11T13:54:11.000Z</time>
      </trkpt>
      <trkpt lat="45.16004" lon="1.52852">
        <ele>112.19999694824</ele>
        <time>2011-06-11T13:54:16.000Z</time>
      </trkpt>
      <trkpt lat="45.15997" lon="1.52867">
        <ele>112.19999694824</ele>
        <time>2011-06-11T13:54:23.000Z</time>
      </trkpt>
      <trkpt lat="45.1599" lon="1.52872">
        <ele>112.40000152588</ele>
        <time>2011-06-11T13:54:26.000Z</time>
      </trkpt>
      <trkpt lat="45.15984" lon="1.52894">
        <ele>112.59999847412</ele>
        <time>2011-06-11T13:54:31.000Z</time>
      </trkpt>
      <trkpt lat="45.15977" lon="1.52914">
        <ele>113</ele>
        <time>2011-06-11T13:54:37.000Z</time>
      </trkpt>
      <trkpt lat="45.15974" lon="1.52919">
        <ele>113.19999694824</ele>
        <time>2011-06-11T13:54:41.000Z</time>
      </trkpt>
      <trkpt lat="45.15971" lon="1.52929">
        <ele>113</ele>
        <time>2011-06-11T13:54:52.000Z</time>
      </trkpt>
      <trkpt lat="45.15968" lon="1.52953">
        <ele>113.40000152588</ele>
        <time>2011-06-11T13:54:58.000Z</time>
      </trkpt>
      <trkpt lat="45.15969" lon="1.52966">
        <ele>113.19999694824</ele>
        <time>2011-06-11T13:55:02.000Z</time>
      </trkpt>
      <trkpt lat="45.15971" lon="1.52967">
        <ele>113.19999694824</ele>
        <time>2011-06-11T13:55:04.000Z</time>
      </trkpt>
      <trkpt lat="45.15975" lon="1.52983">
        <ele>113</ele>
        <time>2011-06-11T13:56:02.000Z</time>
      </trkpt>
      <trkpt lat="45.15971" lon="1.53003">
        <ele>113.40000152588</ele>
        <time>2011-06-11T13:56:07.000Z</time>
      </trkpt>
      <trkpt lat="45.15959" lon="1.53019">
        <ele>113.80000305176</ele>
        <time>2011-06-11T13:56:13.000Z</time>
      </trkpt>
      <trkpt lat="45.15957" lon="1.53019">
        <ele>113.80000305176</ele>
        <time>2011-06-11T13:56:16.000Z</time>
      </trkpt>
      <trkpt lat="45.15952" lon="1.53027">
        <ele>113.19999694824</ele>
        <time>2011-06-11T13:57:02.000Z</time>
      </trkpt>
      <trkpt lat="45.15939" lon="1.53042">
        <ele>113.40000152588</ele>
        <time>2011-06-11T13:57:08.000Z</time>
      </trkpt>
      <trkpt lat="45.15933" lon="1.53055">
        <ele>113.59999847412</ele>
        <time>2011-06-11T13:57:13.000Z</time>
      </trkpt>
      <trkpt lat="45.15925" lon="1.53078">
        <ele>113.80000305176</ele>
        <time>2011-06-11T13:57:19.000Z</time>
      </trkpt>
      <trkpt lat="45.15918" lon="1.53104">
        <ele>112.40000152588</ele>
        <time>2011-06-11T13:57:27.000Z</time>
      </trkpt>
      <trkpt lat="45.15913" lon="1.53118">
        <ele>112.40000152588</ele>
        <time>2011-06-11T13:57:33.000Z</time>
      </trkpt>
      <trkpt lat="45.15911" lon="1.53123">
        <ele>112.80000305176</ele>
        <time>2011-06-11T13:57:37.000Z</time>
      </trkpt>
      <trkpt lat="45.15912" lon="1.53133">
        <ele>112.80000305176</ele>
        <time>2011-06-11T13:57:59.000Z</time>
      </trkpt>
      <trkpt lat="45.15908" lon="1.53143">
        <ele>113.19999694824</ele>
        <time>2011-06-11T13:58:05.000Z</time>
      </trkpt>
      <trkpt lat="45.15904" lon="1.53153">
        <ele>113.40000152588</ele>
        <time>2011-06-11T13:58:12.000Z</time>
      </trkpt>
      <trkpt lat="45.15904" lon="1.53155">
        <ele>113.40000152588</ele>
        <time>2011-06-11T13:58:17.000Z</time>
      </trkpt>
      <trkpt lat="45.15903" lon="1.5316">
        <ele>113.40000152588</ele>
        <time>2011-06-11T13:58:22.000Z</time>
      </trkpt>
      <trkpt lat="45.159" lon="1.53167">
        <ele>113.59999847412</ele>
        <time>2011-06-11T13:58:28.000Z</time>
      </trkpt>
      <trkpt lat="45.15896" lon="1.53181">
        <ele>113.59999847412</ele>
        <time>2011-06-11T13:58:35.000Z</time>
      </trkpt>
      <trkpt lat="45.15893" lon="1.53201">
        <ele>114.40000152588</ele>
        <time>2011-06-11T13:58:42.000Z</time>
      </trkpt>
      <trkpt lat="45.15892" lon="1.53212">
        <ele>114.40000152588</ele>
        <time>2011-06-11T13:58:47.000Z</time>
      </trkpt>
      <trkpt lat="45.1589" lon="1.53227">
        <ele>114.59999847412</ele>
        <time>2011-06-11T13:58:53.000Z</time>
      </trkpt>
      <trkpt lat="45.15888" lon="1.53234">
        <ele>114.80000305176</ele>
        <time>2011-06-11T13:58:57.000Z</time>
      </trkpt>
      <trkpt lat="45.15887" lon="1.53237">
        <ele>115</ele>
        <time>2011-06-11T13:59:01.000Z</time>
      </trkpt>
      <trkpt lat="45.15887" lon="1.53241">
        <ele>115.40000152588</ele>
        <time>2011-06-11T13:59:07.000Z</time>
      </trkpt>
      <trkpt lat="45.15886" lon="1.5325">
        <ele>115.40000152588</ele>
        <time>2011-06-11T13:59:12.000Z</time>
      </trkpt>
      <trkpt lat="45.1588" lon="1.53254">
        <ele>115.59999847412</ele>
        <time>2011-06-11T13:59:17.000Z</time>
      </trkpt>
      <trkpt lat="45.15876" lon="1.53256">
        <ele>116</ele>
        <time>2011-06-11T13:59:21.000Z</time>
      </trkpt>
      <trkpt lat="45.15865" lon="1.53285">
        <ele>116.59999847412</ele>
        <time>2011-06-11T14:01:17.000Z</time>
      </trkpt>
      <trkpt lat="45.15849" lon="1.53278">
        <ele>117.19999694824</ele>
        <time>2011-06-11T14:01:23.000Z</time>
      </trkpt>
      <trkpt lat="45.15837" lon="1.53262">
        <ele>117.40000152588</ele>
        <time>2011-06-11T14:01:30.000Z</time>
      </trkpt>
      <trkpt lat="45.15837" lon="1.53261">
        <ele>117.40000152588</ele>
        <time>2011-06-11T14:01:32.000Z</time>
      </trkpt>
      <trkpt lat="45.15833" lon="1.53256">
        <ele>117.19999694824</ele>
        <time>2011-06-11T14:01:38.000Z</time>
      </trkpt>
      <trkpt lat="45.15816" lon="1.53246">
        <ele>117</ele>
        <time>2011-06-11T14:01:45.000Z</time>
      </trkpt>
      <trkpt lat="45.15797" lon="1.53233">
        <ele>116.59999847412</ele>
        <time>2011-06-11T14:01:51.000Z</time>
      </trkpt>
      <trkpt lat="45.15776" lon="1.53221">
        <ele>117.19999694824</ele>
        <time>2011-06-11T14:01:58.000Z</time>
      </trkpt>
      <trkpt lat="45.15762" lon="1.5321">
        <ele>117.19999694824</ele>
        <time>2011-06-11T14:02:03.000Z</time>
      </trkpt>
      <trkpt lat="45.15745" lon="1.53199">
        <ele>117.59999847412</ele>
        <time>2011-06-11T14:02:08.000Z</time>
      </trkpt>
      <trkpt lat="45.15723" lon="1.53186">
        <ele>118.80000305176</ele>
        <time>2011-06-11T14:02:15.000Z</time>
      </trkpt>
      <trkpt lat="45.15708" lon="1.53179">
        <ele>119.19999694824</ele>
        <time>2011-06-11T14:02:20.000Z</time>
      </trkpt>
      <trkpt lat="45.15686" lon="1.53176">
        <ele>119.59999847412</ele>
        <time>2011-06-11T14:02:26.000Z</time>
      </trkpt>
      <trkpt lat="45.15669" lon="1.53163">
        <ele>120.19999694824</ele>
        <time>2011-06-11T14:02:31.000Z</time>
      </trkpt>
      <trkpt lat="45.15666" lon="1.53159">
        <ele>120.40000152588</ele>
        <time>2011-06-11T14:02:32.000Z</time>
      </trkpt>
      <trkpt lat="45.15638" lon="1.53141">
        <ele>121</ele>
        <time>2011-06-11T14:02:39.000Z</time>
      </trkpt>
      <trkpt lat="45.15601" lon="1.5312">
        <ele>121.59999847412</ele>
        <time>2011-06-11T14:02:49.000Z</time>
      </trkpt>
      <trkpt lat="45.15572" lon="1.53099">
        <ele>123.40000152588</ele>
        <time>2011-06-11T14:02:57.000Z</time>
      </trkpt>
      <trkpt lat="45.15539" lon="1.53074">
        <ele>124.80000305176</ele>
        <time>2011-06-11T14:03:06.000Z</time>
      </trkpt>
      <trkpt lat="45.15512" lon="1.53055">
        <ele>126.40000152588</ele>
        <time>2011-06-11T14:03:14.000Z</time>
      </trkpt>
      <trkpt lat="45.15481" lon="1.53032">
        <ele>128.60000610352</ele>
        <time>2011-06-11T14:03:23.000Z</time>
      </trkpt>
      <trkpt lat="45.15456" lon="1.53012">
        <ele>129.19999694824</ele>
        <time>2011-06-11T14:03:31.000Z</time>
      </trkpt>
      <trkpt lat="45.15438" lon="1.52998">
        <ele>131.39999389648</ele>
        <time>2011-06-11T14:03:38.000Z</time>
      </trkpt>
      <trkpt lat="45.15438" lon="1.52997">
        <ele>131.60000610352</ele>
        <time>2011-06-11T14:03:41.000Z</time>
      </trkpt>
      <trkpt lat="45.15431" lon="1.53001">
        <ele>131.80000305176</ele>
        <time>2011-06-11T14:04:17.000Z</time>
      </trkpt>
      <trkpt lat="45.15417" lon="1.52988">
        <ele>132.60000610352</ele>
        <time>2011-06-11T14:04:23.000Z</time>
      </trkpt>
      <trkpt lat="45.15421" lon="1.52969">
        <ele>133.39999389648</ele>
        <time>2011-06-11T14:04:27.000Z</time>
      </trkpt>
      <trkpt lat="45.15437" lon="1.52935">
        <ele>133</ele>
        <time>2011-06-11T14:04:32.000Z</time>
      </trkpt>
      <trkpt lat="45.15462" lon="1.52879">
        <ele>132.39999389648</ele>
        <time>2011-06-11T14:04:39.000Z</time>
      </trkpt>
      <trkpt lat="45.15495" lon="1.52811">
        <ele>131.39999389648</ele>
        <time>2011-06-11T14:04:47.000Z</time>
      </trkpt>
      <trkpt lat="45.15505" lon="1.52793">
        <ele>131.19999694824</ele>
        <time>2011-06-11T14:04:49.000Z</time>
      </trkpt>
      <trkpt lat="45.15532" lon="1.52738">
        <ele>129.60000610352</ele>
        <time>2011-06-11T14:04:55.000Z</time>
      </trkpt>
      <trkpt lat="45.15534" lon="1.52716">
        <ele>129</ele>
        <time>2011-06-11T14:04:57.000Z</time>
      </trkpt>
      <trkpt lat="45.15536" lon="1.52592">
        <ele>126.80000305176</ele>
        <time>2011-06-11T14:05:07.000Z</time>
      </trkpt>
      <trkpt lat="45.15539" lon="1.52507">
        <ele>124.59999847412</ele>
        <time>2011-06-11T14:05:14.000Z</time>
      </trkpt>
      <trkpt lat="45.15547" lon="1.52469">
        <ele>122.80000305176</ele>
        <time>2011-06-11T14:05:18.000Z</time>
      </trkpt>
      <trkpt lat="45.15549" lon="1.52461">
        <ele>121.59999847412</ele>
        <time>2011-06-11T14:05:21.000Z</time>
      </trkpt>
      <trkpt lat="45.15549" lon="1.52462">
        <ele>121.40000152588</ele>
        <time>2011-06-11T14:05:22.000Z</time>
      </trkpt>
      <trkpt lat="45.15551" lon="1.52455">
        <ele>120.59999847412</ele>
        <time>2011-06-11T14:05:52.000Z</time>
      </trkpt>
      <trkpt lat="45.15556" lon="1.52446">
        <ele>120.19999694824</ele>
        <time>2011-06-11T14:05:57.000Z</time>
      </trkpt>
      <trkpt lat="45.15556" lon="1.5243">
        <ele>120.19999694824</ele>
        <time>2011-06-11T14:06:02.000Z</time>
      </trkpt>
      <trkpt lat="45.15552" lon="1.52424">
        <ele>120.40000152588</ele>
        <time>2011-06-11T14:06:07.000Z</time>
      </trkpt>
      <trkpt lat="45.15552" lon="1.52425">
        <ele>120.40000152588</ele>
        <time>2011-06-11T14:06:08.000Z</time>
      </trkpt>
      <trkpt lat="45.15552" lon="1.52434">
        <ele>122.80000305176</ele>
        <time>2011-06-11T14:10:09.000Z</time>
      </trkpt>
      <trkpt lat="45.15557" lon="1.52443">
        <ele>122.80000305176</ele>
        <time>2011-06-11T14:10:17.000Z</time>
      </trkpt>
      <trkpt lat="45.15562" lon="1.52449">
        <ele>123.19999694824</ele>
        <time>2011-06-11T14:10:22.000Z</time>
      </trkpt>
      <trkpt lat="45.15565" lon="1.52454">
        <ele>123</ele>
        <time>2011-06-11T14:10:26.000Z</time>
      </trkpt>
      <trkpt lat="45.15565" lon="1.52453">
        <ele>122.80000305176</ele>
        <time>2011-06-11T14:10:28.000Z</time>
      </trkpt>
      <trkpt lat="45.15567" lon="1.52458">
        <ele>123</ele>
        <time>2011-06-11T14:10:37.000Z</time>
      </trkpt>
      <trkpt lat="45.1557" lon="1.52464">
        <ele>123</ele>
        <time>2011-06-11T14:10:45.000Z</time>
      </trkpt>
      <trkpt lat="45.15575" lon="1.52474">
        <ele>122.59999847412</ele>
        <time>2011-06-11T14:10:51.000Z</time>
      </trkpt>
      <trkpt lat="45.15577" lon="1.52478">
        <ele>122.80000305176</ele>
        <time>2011-06-11T14:10:55.000Z</time>
      </trkpt>
      <trkpt lat="45.15579" lon="1.52481">
        <ele>122.80000305176</ele>
        <time>2011-06-11T14:11:00.000Z</time>
      </trkpt>
      <trkpt lat="45.1558" lon="1.52483">
        <ele>122.59999847412</ele>
        <time>2011-06-11T14:11:01.000Z</time>
      </trkpt>
      <trkpt lat="45.15588" lon="1.52481">
        <ele>122.59999847412</ele>
        <time>2011-06-11T14:11:07.000Z</time>
      </trkpt>
      <trkpt lat="45.15591" lon="1.52479">
        <ele>122.40000152588</ele>
        <time>2011-06-11T14:11:12.000Z</time>
      </trkpt>
      <trkpt lat="45.15593" lon="1.5248">
        <ele>122</ele>
        <time>2011-06-11T14:11:24.000Z</time>
      </trkpt>
      <trkpt lat="45.15595" lon="1.5248">
        <ele>122.19999694824</ele>
        <time>2011-06-11T14:11:27.000Z</time>
      </trkpt>
      <trkpt lat="45.15599" lon="1.52479">
        <ele>122.19999694824</ele>
        <time>2011-06-11T14:11:32.000Z</time>
      </trkpt>
      <trkpt lat="45.15601" lon="1.52479">
        <ele>122</ele>
        <time>2011-06-11T14:11:35.000Z</time>
      </trkpt>
    </trkseg>
  </trk>
</gpx>